# Wetter Temperatur Luftdruck Luftfeuchtigkeit Sichtweite Windgeschwindigkeit Windrichtung Zeit
1 Clear 25 1018 58 10000 4.92 135 13:55 07.10.2022
2 Clear 22 1018 69 10000 4.63 20 11:29 07.10.2022
3 Clear 19 1017 69 10000 6.69 10 09:25 07.10.2022
4 Clear 19 1017 65 10000 4.12 320 08:21 07.10.2022
5 Clear 20 1018 62 10000 2.57 20 02:52 07.10.2022
6 Clear 22 1019 66 10000 4.63 310 23:21 06.10.2022
7 Clear 22 1019 62 10000 5.14 310 22:48 06.10.2022
8 Clear 23 1018 54 10000 5.14 310 21:37 06.10.2022
9 Clear 23 1015 53 10000 5.66 360 20:39 06.10.2022
10 Clear 26 1019 60 10000 4.12 30 18:57 06.10.2022
11 Clear 27 1019 59 10000 4.02 360 18:32 06.10.2022
12 Clear 25 1021 63 10000 2.57 250 15:38 06.10.2022
13 Clear 24 1020 56 10000 4.47 135 12:59 06.10.2022
14 Clouds 18 1019 80 10000 2.06 10 09:27 06.10.2022
15 Clear 18 1019 80 10000 4.63 320 05:19 06.10.2022
16 Clear 19 1022 77 10000 4.63 340 01:47 06.10.2022
17 Clear 20 1020 67 10000 10.29 10 22:28 05.10.2022
18 Clear 24 1019 58 10000 7.72 360 19:54 05.10.2022
19 Clear 27 1020 52 10000 7.2 360 17:38 05.10.2022
20 Clear 28 1020 36 10000 5.66 360 16:45 05.10.2022
21 Clear 28 1019 44 10000 5.66 10 15:23 05.10.2022
22 Clear 27 1020 51 10000 5.81 135 14:38 05.10.2022
23 Clear 25 1020 40 10000 7.15 135 13:31 05.10.2022
24 Clear 23 1020 52 10000 4.12 10 11:53 05.10.2022
25 Clear 20 1018 26 10000 5.14 340 08:28 05.10.2022
26 Clear 19 1018 37 10000 2.24 135 07:21 05.10.2022
27 Clear 19 1018 63 10000 2.06 340 05:34 05.10.2022
28 Clear 21 1020 30 10000 4.12 320 02:37 05.10.2022
29 Clear 21 1021 48 10000 4.63 310 00:41 05.10.2022
30 Clear 22 1019 29 10000 4.63 310 00:22 05.10.2022
31 Clear 23 1018 44 10000 4.63 310 21:25 04.10.2022
32 Clear 25 1018 42 10000 3.6 320 20:20 04.10.2022
33 Clear 28 1020 38 10000 4.63 360 18:56 04.10.2022
34 Clear 29 1018 36 10000 5.14 360 18:34 04.10.2022
35 Clear 29 1019 38 10000 4.92 135 16:58 04.10.2022
36 Clear 29 1019 41 10000 5.14 360 16:20 04.10.2022
37 Clear 20 1021 73 10000 1.03 0 11:25 04.10.2022
38 Clear 19 1019 63 10000 3.6 30 08:28 04.10.2022
39 Fog 19 1018 61 10000 5.81 180 06:22 04.10.2022
40 Clear 21 1019 60 10000 4.02 135 01:24 04.10.2022
41 Clear 21 1019 61 10000 3.09 10 23:36 03.10.2022
42 Clear 21 1019 72 10000 3.09 10 21:46 03.10.2022
43 Clear 22 1019 72 10000 3.09 260 20:51 03.10.2022
44 Clear 24 1019 72 10000 5.14 260 18:57 03.10.2022
45 Clear 25 1019 68 10000 8.49 337 17:39 03.10.2022
46 Clear 27 1019 50 10000 7.6 315 16:41 03.10.2022
47 Clear 25 1021 67 10000 4.12 280 15:27 03.10.2022
48 Clear 24 1019 68 10000 8.49 360 13:44 03.10.2022
49 Clear 23 1020 62 10000 2.06 50 11:47 03.10.2022
50 Clear 18 1019 77 10000 1.79 270 10:38 03.10.2022
51 Clear 17 1018 73 10000 2.57 30 09:33 03.10.2022
52 Clear 20 1017 57 10000 2.68 180 04:51 03.10.2022
53 Clear 21 1019 60 10000 2.06 320 02:27 03.10.2022
54 Clear 24 1017 47 10000 4.92 360 22:24 02.10.2022
55 Clear 27 1017 25 10000 2.68 360 20:37 02.10.2022
56 Clear 29 1017 16 10000 3.13 135 18:30 02.10.2022
57 Clear 29 1017 16 10000 4.12 330 17:35 02.10.2022
58 Clear 28 1018 19 10000 7.6 135 16:33 02.10.2022
59 Clear 28 1019 23 10000 7.15 135 15:40 02.10.2022
60 Clear 25 1020 30 10000 7.6 135 13:51 02.10.2022
61 Clear 23 1021 31 10000 5.14 60 12:51 02.10.2022
62 Clear 22 1021 36 10000 5.14 60 12:28 02.10.2022
63 Clear 22 1021 43 10000 7.6 135 11:36 02.10.2022
64 Clear 20 1021 55 10000 4.12 40 10:37 02.10.2022
65 Clear 17 1021 70 10000 3.6 60 08:53 02.10.2022
66 Clear 17 1020 67 10000 5.66 30 07:29 02.10.2022
67 Clear 19 1021 58 10000 5.14 20 02:54 02.10.2022
68 Clear 20 1021 61 10000 3.6 340 00:45 02.10.2022
69 Clear 21 1021 55 10000 4.12 330 00:20 02.10.2022
70 Clear 21 1021 53 10000 7.2 10 22:36 01.10.2022
71 Clear 24 1020 54 10000 4.92 360 20:21 01.10.2022
72 Clear 27 1022 45 10000 3.6 330 18:30 01.10.2022
73 Clear 26 1023 46 10000 3.6 320 16:35 01.10.2022
74 Clear 24 1024 48 10000 4.02 225 14:26 01.10.2022
75 Clear 22 1024 62 10000 4.02 135 13:21 01.10.2022
76 Clear 19 1024 72 10000 4.02 135 12:30 01.10.2022
77 Clear 18 1022 75 10000 2.57 60 11:19 01.10.2022
78 Clear 16 1023 82 10000 2.57 20 10:31 01.10.2022
79 Clear 14 1022 82 10000 3.13 135 09:27 01.10.2022
80 Clear 14 1021 80 10000 3.13 135 08:57 01.10.2022
81 Clear 15 1020 81 10000 6.71 135 04:27 01.10.2022
82 Clear 15 1020 80 10000 8.49 360 03:31 01.10.2022
83 Clear 16 1019 76 10000 7.2 330 00:18 01.10.2022
84 Clear 17 1019 70 10000 7.2 330 22:37 30.09.2022
85 Clear 17 1018 64 10000 6.71 360 21:28 30.09.2022
86 Clear 18 1017 62 10000 8.05 360 20:44 30.09.2022
87 Clear 20 1017 58 10000 8.49 112 19:49 30.09.2022
88 Clear 22 1016 53 10000 8.49 360 17:38 30.09.2022
89 Clear 21 1016 60 10000 12.07 135 15:56 30.09.2022
90 Clouds 19 1017 62 10000 11.62 135 13:30 30.09.2022
91 Clouds 18 1018 70 10000 8.23 360 11:58 30.09.2022
92 Clouds 16 1016 79 10000 16.99 135 10:40 30.09.2022
93 Clouds 15 1015 85 10000 8.23 360 08:37 30.09.2022
94 Clouds 16 1015 84 10000 3.6 300 06:26 30.09.2022
95 Clouds 17 1013 82 10000 5.81 135 02:39 30.09.2022
96 Clouds 18 1014 82 10000 7.2 330 22:40 29.09.2022
97 Clouds 18 1012 78 10000 12.96 135 21:28 29.09.2022
98 Clouds 18 1012 79 10000 12.96 135 20:57 29.09.2022
99 Clouds 20 1011 75 10000 9.83 360 18:45 29.09.2022
100 Clouds 20 1011 81 10000 6.17 340 17:32 29.09.2022
101 Clouds 20 1011 83 10000 9.39 292 16:28 29.09.2022
102 Clouds 18 1014 93 8000 6.69 340 15:36 29.09.2022
103 Clouds 19 1012 86 8000 7.6 315 14:31 29.09.2022
104 Clouds 18 1013 82 10000 4.47 360 10:33 29.09.2022
105 Clouds 17 1016 82 10000 3.6 330 07:22 29.09.2022
106 Clouds 18 1017 85 10000 3.6 330 02:51 29.09.2022
107 Clouds 18 1019 89 10000 2.57 330 23:56 28.09.2022
108 Clouds 18 1019 89 10000 2.57 330 23:56 28.09.2022
109 Clouds 18 1019 89 10000 2.57 330 23:56 28.09.2022
110 Clouds 18 1017 84 10000 6.69 340 22:58 28.09.2022
111 Clouds 19 1018 81 10000 7.72 340 21:30 28.09.2022
112 Clouds 20 1017 75 10000 8.75 330 20:25 28.09.2022
113 Clouds 21 1016 70 10000 9.83 135 18:42 28.09.2022
114 Clouds 22 1019 69 10000 9.77 350 15:34 28.09.2022
115 Clouds 21 1019 72 10000 8.23 360 13:28 28.09.2022
116 Clouds 20 1019 76 10000 10.73 135 11:23 28.09.2022
117 Clouds 18 1020 77 10000 11.32 350 09:18 28.09.2022
118 Clouds 18 1018 83 10000 7.72 350 07:40 28.09.2022
119 Clouds 17 1020 84 10000 5.14 350 04:41 28.09.2022
120 Clouds 18 1018 81 10000 9.83 360 01:38 28.09.2022
121 Clouds 18 1019 81 10000 6.17 360 23:27 27.09.2022
122 Clouds 18 1020 79 10000 10.29 340 21:55 27.09.2022
123 Clouds 20 1020 73 10000 7.72 340 20:49 27.09.2022
124 Clouds 21 1018 66 10000 10.28 135 19:49 27.09.2022
125 Clouds 21 1019 63 10000 11.83 340 19:30 27.09.2022
126 Clouds 22 1020 68 10000 8.23 330 17:46 27.09.2022
127 Clouds 22 1020 68 10000 8.23 330 17:46 27.09.2022
128 Clouds 23 1019 63 10000 11.62 135 15:59 27.09.2022
129 Clouds 23 1019 60 10000 9.39 135 14:59 27.09.2022
130 Clouds 23 1021 63 10000 6.69 350 13:32 27.09.2022
131 Clouds 21 1020 65 10000 9.26 350 12:23 27.09.2022
132 Clouds 16 1019 81 10000 9.77 360 09:49 27.09.2022
133 Clouds 16 1019 86 10000 6.17 330 07:38 27.09.2022
134 Clear 17 1018 80 10000 6.17 340 03:51 27.09.2022
135 Clear 17 1017 77 10000 7.72 330 01:36 27.09.2022
136 Clear 18 1017 68 10000 6.17 320 23:39 26.09.2022
137 Clear 18 1017 67 10000 6.17 320 23:20 26.09.2022
138 Clear 19 1017 62 10000 9.26 350 20:58 26.09.2022
139 Clear 21 1016 52 10000 8.75 350 19:42 26.09.2022
140 Clear 23 1016 34 10000 10.8 350 18:38 26.09.2022
141 Clear 24 1016 32 10000 9.26 340 17:24 26.09.2022
142 Clear 24 1015 44 10000 5.66 340 14:57 26.09.2022
143 Clear 21 1014 52 10000 5.14 10 12:30 26.09.2022
144 Clear 18 1013 66 10000 5.36 135 10:42 26.09.2022
145 Clear 17 1013 68 10000 5.14 20 10:22 26.09.2022
146 Clear 16 1012 70 10000 6.17 10 09:56 26.09.2022
147 Clear 16 1012 71 10000 5.66 10 09:26 26.09.2022
148 Clear 16 1014 72 10000 5.14 360 08:58 26.09.2022
149 Clear 17 1011 72 10000 4.63 310 05:30 26.09.2022
150 Clear 18 1014 79 10000 5.14 350 01:57 26.09.2022
151 Clear 18 1011 78 10000 9.39 360 23:23 25.09.2022
152 Clouds 18 1010 71 10000 20.12 360 21:44 25.09.2022
153 Clouds 18 1010 71 10000 11.62 360 20:57 25.09.2022
154 Clouds 19 1010 66 10000 9.77 340 20:34 25.09.2022
155 Clouds 21 1011 59 10000 12.35 340 18:49 25.09.2022
156 Clouds 22 1009 55 10000 12.86 340 18:24 25.09.2022
157 Clouds 22 1010 55 10000 13.86 360 17:22 25.09.2022
158 Clouds 22 1012 55 10000 10.29 340 15:50 25.09.2022
159 Clear 22 1011 53 10000 18.78 337 14:37 25.09.2022
160 Clouds 21 1012 54 10000 9.83 315 13:58 25.09.2022
161 Clouds 17 1013 78 10000 10.8 360 10:40 25.09.2022
162 Clouds 16 1012 78 10000 11.32 360 09:37 25.09.2022
163 Clouds 17 1013 80 10000 9.26 350 07:41 25.09.2022
164 Clear 17 1012 82 10000 7.72 340 05:22 25.09.2022
165 Clouds 18 1016 81 10000 7.2 330 23:36 24.09.2022
166 Clouds 19 1014 73 10000 14.75 135 21:19 24.09.2022
167 Clouds 20 1014 65 10000 12.35 350 19:45 24.09.2022
168 Clouds 20 1014 64 10000 14.75 135 19:20 24.09.2022
169 Clouds 23 1014 61 10000 11.62 360 16:51 24.09.2022
170 Clouds 23 1015 61 10000 12.52 135 15:23 24.09.2022
171 Clouds 23 1015 61 10000 12.52 135 15:23 24.09.2022
172 Clouds 22 1016 63 10000 12.07 180 14:37 24.09.2022
173 Clouds 22 1016 64 10000 15.2 225 13:22 24.09.2022
174 Clouds 21 1019 67 10000 9.26 350 12:25 24.09.2022
175 Clouds 19 1017 83 10000 6.17 360 09:59 24.09.2022
176 Clouds 19 1017 85 10000 6.69 360 08:58 24.09.2022
177 Clouds 19 1016 87 10000 4.63 350 07:41 24.09.2022
178 Clouds 20 1017 82 10000 7.72 340 04:55 24.09.2022
179 Clouds 20 1017 82 10000 7.72 340 04:21 24.09.2022
180 Clouds 20 1017 84 10000 6.69 340 22:58 23.09.2022
181 Clouds 20 1017 81 10000 7.72 350 21:40 23.09.2022
182 Clouds 20 1017 81 10000 7.72 350 21:22 23.09.2022
183 Clouds 21 1017 82 10000 9.26 350 20:45 23.09.2022
184 Clear 23 1017 70 10000 9.26 340 19:20 23.09.2022
185 Clear 23 1017 70 10000 9.26 340 19:20 23.09.2022
186 Clouds 25 1017 66 10000 7.72 340 16:48 23.09.2022
187 Clouds 24 1019 71 10000 2.57 0 13:40 23.09.2022
188 Clouds 20 1018 87 10000 1.54 210 10:18 23.09.2022
189 Clouds 18 1017 93 10000 3.09 330 07:29 23.09.2022
190 Clear 19 1018 87 10000 2.06 340 01:21 23.09.2022
191 Clouds 20 1018 86 10000 3.6 320 23:29 22.09.2022
192 Clouds 21 1019 85 10000 3.6 360 22:27 22.09.2022
193 Clouds 22 1019 82 10000 2.06 350 21:24 22.09.2022
194 Clear 24 1019 71 10000 4.12 300 20:21 22.09.2022
195 Clear 27 1017 61 10000 5.66 320 18:44 22.09.2022
196 Clear 27 1019 62 10000 9.83 315 14:49 22.09.2022
197 Clouds 21 1019 84 10000 3.6 30 10:39 22.09.2022
198 Clouds 20 1019 86 10000 3.6 30 10:19 22.09.2022
199 Clear 19 1018 87 10000 4.12 320 07:50 22.09.2022
200 Clear 20 1019 82 10000 3.09 310 04:38 22.09.2022
201 Clear 21 1019 85 10000 4.12 320 00:36 22.09.2022
202 Clear 22 1018 82 10000 6.17 310 22:29 21.09.2022
203 Clear 23 1018 77 10000 4.92 135 21:18 21.09.2022
204 Clouds 26 1016 67 10000 5.14 260 18:50 21.09.2022
205 Clouds 26 1017 65 10000 9.39 270 17:41 21.09.2022
206 Clouds 26 1018 58 10000 5.36 202 15:35 21.09.2022
207 Clouds 26 1018 69 10000 8.05 225 13:42 21.09.2022
208 Clouds 23 1018 84 10000 4.92 225 11:42 21.09.2022
209 Clouds 22 1018 84 10000 4.47 315 10:54 21.09.2022
210 Clouds 21 1017 89 10000 2.68 360 09:39 21.09.2022
211 Clouds 21 1017 89 10000 2.68 360 09:39 21.09.2022
212 Clouds 21 1016 90 10000 2.57 350 08:31 21.09.2022
213 Rain 22 1019 85 10000 2.24 270 03:56 21.09.2022
214 Clouds 23 1018 74 10000 4.47 270 02:38 21.09.2022
215 Clouds 23 1018 72 10000 3.09 250 01:56 21.09.2022
216 Clouds 24 1018 71 10000 3.13 135 00:19 21.09.2022
217 Clouds 24 1017 74 10000 8.23 10 21:53 20.09.2022
218 Clouds 25 1018 70 10000 5.14 320 20:32 20.09.2022
219 Clouds 28 1015 59 10000 4.63 250 18:51 20.09.2022
220 Clouds 29 1016 62 10000 3.6 190 15:51 20.09.2022
221 Clouds 29 1017 58 10000 3.6 200 14:18 20.09.2022
222 Clear 25 1017 76 10000 3.09 220 11:51 20.09.2022
223 Clear 21 1017 79 10000 2.24 135 08:50 20.09.2022
224 Clear 22 1017 77 10000 4.12 20 08:24 20.09.2022
225 Clear 23 1018 76 10000 3.6 320 04:40 20.09.2022
226 Clear 23 1018 78 10000 3.09 310 02:24 20.09.2022
227 Clear 24 1017 79 10000 3.6 240 22:44 19.09.2022
228 Clear 25 1016 76 10000 4.92 225 21:36 19.09.2022
229 Clouds 26 1015 72 10000 4.63 240 20:40 19.09.2022
230 Clouds 27 1015 72 10000 8.49 315 19:20 19.09.2022
231 Thunderstorm 28 1014 67 10000 4.63 270 17:37 19.09.2022
232 Clouds 28 1016 67 10000 9.39 157 13:49 19.09.2022
233 Clouds 26 1016 71 10000 6.71 360 12:26 19.09.2022
234 Clear 24 1015 75 10000 3.6 130 10:31 19.09.2022
235 Clear 21 1014 81 10000 2.06 30 08:41 19.09.2022
236 Clear 22 1014 73 10000 4.92 225 04:26 19.09.2022
237 Clear 23 1013 73 10000 4.63 330 00:52 19.09.2022
238 Clear 24 1011 78 10000 5.66 310 22:42 18.09.2022
239 Clear 25 1012 71 10000 5.14 310 21:30 18.09.2022
240 Clear 26 1011 68 10000 5.14 250 19:56 18.09.2022
241 Clear 29 1011 49 10000 5.66 250 17:53 18.09.2022
242 Clear 29 1011 49 10000 5.36 360 16:56 18.09.2022
243 Clear 28 1012 50 10000 7.15 360 14:52 18.09.2022
244 Clear 27 1013 51 10000 5.81 225 13:46 18.09.2022
245 Clear 26 1012 59 10000 12.96 315 12:28 18.09.2022
246 Clear 22 1011 79 10000 1.03 0 10:28 18.09.2022
247 Clear 22 1011 72 10000 2.24 270 03:35 18.09.2022
248 Clear 22 1011 72 10000 3.09 330 01:22 18.09.2022
249 Clear 22 1011 72 10000 6.69 10 23:59 17.09.2022
250 Clear 24 1010 69 10000 5.66 320 21:35 17.09.2022
251 Clear 26 1009 62 10000 6.17 310 19:40 17.09.2022
252 Clouds 29 1010 58 10000 6.71 337 18:43 17.09.2022
253 Clouds 27 1011 63 10000 3.09 360 14:54 17.09.2022
254 Clear 25 1013 64 10000 4.12 360 13:38 17.09.2022
255 Clouds 21 1012 82 10000 5.66 20 10:56 17.09.2022
256 Clear 18 1013 88 10000 6.17 20 08:33 17.09.2022
257 Clear 19 1013 85 10000 4.92 360 06:21 17.09.2022
258 Clear 21 1014 85 10000 4.63 320 23:57 16.09.2022
259 Clear 21 1015 82 10000 5.36 360 22:51 16.09.2022
260 Clear 23 1014 70 10000 6.17 350 20:54 16.09.2022
261 Clouds 24 1013 69 10000 5.66 260 19:50 16.09.2022
262 Clouds 25 1014 65 10000 4.63 260 16:26 16.09.2022
263 Clouds 25 1015 69 10000 3.6 350 14:53 16.09.2022
264 Clouds 24 1016 72 10000 4.12 360 13:42 16.09.2022
265 Fog 20 1015 92 10000 2.57 100 10:46 16.09.2022
266 Clouds 20 1015 94 10000 2.57 100 08:19 16.09.2022
267 Clouds 20 1015 93 10000 1.03 0 06:48 16.09.2022
268 Clouds 20 1015 93 10000 0 0 06:25 16.09.2022
269 Clouds 20 1016 91 10000 1.03 230 02:37 16.09.2022
270 Clouds 21 1015 86 10000 3.6 270 22:20 15.09.2022
271 Clouds 21 1015 86 10000 3.6 270 22:20 15.09.2022
272 Clouds 22 1015 81 10000 4.12 250 20:47 15.09.2022
273 Clouds 23 1014 75 10000 4.63 260 19:46 15.09.2022
274 Clouds 24 1014 75 10000 5.66 240 18:29 15.09.2022
275 Clouds 24 1015 75 10000 5.66 260 17:31 15.09.2022
276 Clouds 24 1015 72 10000 4.63 270 16:37 15.09.2022
277 Clouds 24 1015 78 10000 4.63 240 14:20 15.09.2022
278 Clouds 21 1015 83 10000 2.06 230 11:48 15.09.2022
279 Clouds 20 1014 82 10000 2.06 220 09:52 15.09.2022
280 Clouds 20 1013 86 10000 2.57 210 07:50 15.09.2022
281 Clouds 20 1013 84 10000 2.57 240 03:52 15.09.2022
282 Clouds 21 1013 81 10000 3.09 250 23:43 14.09.2022
283 Clouds 21 1012 79 10000 3.09 250 21:26 14.09.2022
284 Clouds 23 1011 70 10000 4.63 280 19:33 14.09.2022
285 Clouds 23 1010 72 10000 5.14 240 18:30 14.09.2022
286 Clouds 23 1010 74 10000 5.66 220 16:44 14.09.2022
287 Clouds 23 1010 75 10000 6.69 230 15:29 14.09.2022
288 Clouds 22 1010 79 10000 6.17 230 13:36 14.09.2022
289 Clouds 21 1008 88 9000 8.23 210 10:52 14.09.2022
290 Clouds 20 1011 86 6000 6.17 210 09:41 14.09.2022
291 Clouds 20 1007 85 10000 5.66 200 06:52 14.09.2022
292 Clouds 20 1007 86 6000 6.69 200 06:34 14.09.2022
293 Clouds 20 1007 86 6000 6.69 200 06:34 14.09.2022
294 Clouds 20 1007 82 10000 7.2 200 03:55 14.09.2022
295 Rain 20 1008 81 8000 5.66 190 01:43 14.09.2022
296 Clouds 20 1008 81 10000 3.6 210 01:20 14.09.2022
297 Rain 21 1008 80 7000 8.23 210 23:55 13.09.2022
298 Rain 21 1008 80 10000 6.69 210 23:37 13.09.2022
299 Clouds 21 1008 80 10000 6.69 210 23:19 13.09.2022
300 Clouds 21 1007 82 10000 8.23 210 22:44 13.09.2022
301 Clouds 21 1007 81 10000 8.23 200 21:44 13.09.2022
302 Clouds 22 1007 74 10000 12.07 270 19:32 13.09.2022
303 Clouds 22 1006 75 10000 9.26 210 17:33 13.09.2022
304 Clouds 23 1006 75 10000 10.29 220 15:54 13.09.2022
305 Clouds 22 1005 80 10000 9.77 220 13:54 13.09.2022
306 Rain 21 1005 85 8000 8.23 210 12:30 13.09.2022
307 Clouds 20 1003 86 10000 7.2 200 08:33 13.09.2022
308 Clouds 20 1002 83 10000 9.77 210 04:32 13.09.2022
309 Clouds 21 1003 82 10000 11.32 180 23:32 12.09.2022
310 Clouds 21 1002 84 10000 8.75 180 22:49 12.09.2022
311 Clouds 21 1002 82 10000 8.23 170 21:37 12.09.2022
312 Clouds 22 1003 77 10000 9.26 180 20:25 12.09.2022
313 Rain 22 1003 83 10000 9.77 170 18:43 12.09.2022
314 Clouds 22 1004 84 10000 10.29 160 16:23 12.09.2022
315 Clouds 21 1006 90 10000 7.2 150 13:57 12.09.2022
316 Rain 21 1006 86 10000 6.17 140 11:29 12.09.2022
317 Clouds 21 1006 91 7000 6.69 140 09:45 12.09.2022
318 Rain 21 1006 85 8000 8.49 315 04:50 12.09.2022
319 Rain 21 1006 86 10000 7.6 180 04:20 12.09.2022
320 Clouds 21 1008 81 10000 4.92 135 23:23 11.09.2022
321 Clouds 22 1007 79 10000 4.47 315 21:59 11.09.2022
322 Rain 22 1007 75 10000 6.71 180 20:47 11.09.2022
323 Rain 23 1008 70 10000 3.6 230 19:53 11.09.2022
324 Clear 23 1008 71 10000 4.12 250 19:22 11.09.2022
325 Rain 24 1008 67 10000 5.36 225 18:20 11.09.2022
326 Clouds 26 1010 63 10000 6.17 270 16:36 11.09.2022
327 Clouds 26 1011 64 10000 9.83 180 14:33 11.09.2022
328 Clouds 23 1012 73 10000 5.81 135 12:40 11.09.2022
329 Clouds 19 1012 84 10000 1.34 360 08:48 11.09.2022
330 Clear 19 1012 83 10000 1.54 170 07:18 11.09.2022
331 Clear 21 1014 77 10000 3.6 300 00:50 11.09.2022
332 Clear 22 1014 75 10000 5.36 360 22:55 10.09.2022
333 Clear 23 1012 69 10000 3.13 315 21:33 10.09.2022
334 Clear 28 1015 50 10000 4.12 220 19:47 10.09.2022
335 Clouds 28 1015 50 10000 4.12 220 19:29 10.09.2022
336 Clouds 28 1015 50 10000 4.12 240 18:54 10.09.2022
337 Clouds 28 1017 51 10000 4.63 250 16:39 10.09.2022
338 Clear 27 1015 54 10000 7.6 360 14:42 10.09.2022
339 Clear 26 1016 56 10000 3.6 210 12:53 10.09.2022
340 Clear 24 1016 64 10000 2.57 60 11:19 10.09.2022
341 Clouds 19 1016 80 10000 3.09 320 09:50 10.09.2022
342 Clouds 18 1015 84 10000 3.09 20 08:37 10.09.2022
343 Clouds 19 1015 81 10000 4.12 310 07:22 10.09.2022
344 Clouds 21 1017 80 10000 5.14 300 00:41 10.09.2022
345 Clouds 21 1017 81 10000 7.2 360 23:33 09.09.2022
346 Clouds 21 1016 79 10000 10.28 360 22:19 09.09.2022
347 Clouds 22 1016 72 10000 8.05 360 20:47 09.09.2022
348 Clouds 26 1016 60 10000 8.05 225 19:25 09.09.2022
349 Clouds 26 1016 60 10000 7.6 315 18:53 09.09.2022
350 Clouds 28 1017 58 10000 5.14 220 16:28 09.09.2022
351 Clouds 26 1018 64 10000 7.15 225 13:51 09.09.2022
352 Clouds 24 1020 70 10000 4.63 10 12:47 09.09.2022
353 Clouds 21 1018 78 10000 4.63 360 09:57 09.09.2022
354 Clouds 22 1016 80 10000 1.79 360 05:38 09.09.2022
355 Clouds 22 1016 78 10000 3.13 270 03:21 09.09.2022
356 Clouds 23 1016 78 10000 4.12 260 21:57 08.09.2022
357 Clouds 24 1016 76 10000 4.12 260 21:36 08.09.2022
358 Clouds 24 1016 72 10000 5.14 260 20:32 08.09.2022
359 Clouds 24 1016 71 10000 5.14 260 19:57 08.09.2022
360 Clouds 25 1016 67 10000 5.81 270 18:26 08.09.2022
361 Clouds 26 1016 63 10000 5.81 270 16:27 08.09.2022
362 Clouds 25 1016 68 10000 5.81 270 14:40 08.09.2022
363 Clouds 24 1016 73 10000 5.81 315 13:27 08.09.2022
364 Clouds 24 1016 71 10000 9.83 225 12:33 08.09.2022
365 Clouds 22 1016 79 10000 9.39 180 10:58 08.09.2022
366 Clouds 21 1015 83 10000 7.6 225 08:54 08.09.2022
367 Clouds 21 1015 82 10000 3.6 250 06:43 08.09.2022
368 Clouds 21 1016 81 10000 6.71 180 02:37 08.09.2022
369 Clouds 21 1015 80 10000 5.36 157 02:19 08.09.2022
370 Clouds 21 1016 76 10000 5.81 135 01:38 08.09.2022
371 Clouds 21 1016 68 10000 9.39 315 22:55 07.09.2022
372 Clear 22 1016 65 10000 5.66 250 21:43 07.09.2022
373 Clear 23 1016 61 10000 5.66 260 20:56 07.09.2022
374 Clouds 24 1018 58 10000 5.66 260 19:53 07.09.2022
375 Clouds 24 1018 59 10000 5.66 250 18:37 07.09.2022
376 Clouds 25 1017 52 10000 5.36 270 14:45 07.09.2022
377 Clouds 20 1017 78 10000 4.47 225 10:50 07.09.2022
378 Clouds 19 1017 81 10000 2.06 150 09:52 07.09.2022
379 Clouds 18 1016 82 10000 1.54 180 07:35 07.09.2022
380 Clear 20 1018 76 10000 1.79 180 03:34 07.09.2022
381 Clear 20 1019 76 10000 2.57 280 23:48 06.09.2022
382 Clouds 21 1018 68 10000 4.12 320 21:43 06.09.2022
383 Clouds 21 1018 67 10000 4.12 320 21:24 06.09.2022
384 Clouds 25 1020 52 10000 6.17 270 18:53 06.09.2022
385 Clear 26 1018 45 10000 8.05 360 18:23 06.09.2022
386 Clear 26 1018 42 10000 5.14 260 17:23 06.09.2022
387 Clear 26 1018 41 10000 5.81 315 16:38 06.09.2022
388 Clear 25 1021 46 10000 5.14 260 15:23 06.09.2022
389 Clouds 25 1019 50 10000 4.92 315 13:46 06.09.2022
390 Clouds 24 1019 51 10000 3.09 0 13:25 06.09.2022
391 Clouds 24 1019 56 10000 4.02 270 12:37 06.09.2022
392 Clouds 21 1021 72 10000 3.09 310 10:46 06.09.2022
393 Clouds 19 1019 82 10000 2.68 135 08:53 06.09.2022
394 Clouds 20 1018 82 10000 2.06 300 07:49 06.09.2022
395 Clouds 21 1017 79 10000 2.57 270 04:48 06.09.2022
396 Clouds 21 1019 80 10000 8.05 225 23:42 05.09.2022
397 Clouds 21 1019 81 10000 5.14 220 22:30 05.09.2022
398 Clouds 22 1019 78 10000 6.17 210 20:52 05.09.2022
399 Clouds 23 1019 74 10000 9.39 315 19:50 05.09.2022
400 Clouds 24 1019 70 10000 13.86 135 18:49 05.09.2022
401 Clouds 24 1019 68 10000 9.83 225 18:22 05.09.2022
402 Clouds 25 1019 66 10000 14.75 180 17:30 05.09.2022
403 Clouds 25 1019 63 10000 10.73 360 15:52 05.09.2022
404 Clouds 24 1019 64 10000 8.49 225 13:39 05.09.2022
405 Clouds 23 1019 70 10000 12.07 225 12:29 05.09.2022
406 Mist 20 1018 82 10000 7.15 225 10:30 05.09.2022
407 Drizzle 20 1017 82 8000 4.47 225 07:43 05.09.2022
408 Clouds 20 1018 81 10000 5.36 135 02:50 05.09.2022
409 Clouds 20 1018 79 10000 6.71 225 23:40 04.09.2022
410 Clouds 20 1017 81 10000 5.81 180 22:28 04.09.2022
411 Clouds 21 1017 77 10000 5.14 230 21:41 04.09.2022
412 Clouds 23 1017 64 10000 10.73 135 19:39 04.09.2022
413 Clouds 24 1017 59 10000 7.6 315 18:21 04.09.2022
414 Clouds 24 1017 61 10000 14.75 270 17:22 04.09.2022
415 Clouds 24 1017 60 10000 11.62 225 14:59 04.09.2022
416 Clouds 23 1017 60 10000 15.2 180 14:21 04.09.2022
417 Clouds 22 1017 67 10000 9.39 202 12:24 04.09.2022
418 Clouds 20 1016 74 10000 10.28 180 10:57 04.09.2022
419 Clouds 18 1016 79 10000 2.24 315 09:23 04.09.2022
420 Clouds 18 1015 80 10000 2.57 280 06:24 04.09.2022
421 Clouds 19 1016 76 10000 3.13 225 01:56 04.09.2022
422 Clear 20 1017 70 10000 3.6 300 22:26 03.09.2022
423 Clear 20 1017 69 10000 3.6 300 22:26 03.09.2022
424 Clear 21 1014 62 10000 4.92 315 21:24 03.09.2022
425 Clear 22 1014 54 10000 5.36 360 20:42 03.09.2022
426 Clear 24 1014 43 10000 6.17 320 17:36 03.09.2022
427 Clear 24 1014 42 10000 8.49 360 16:49 03.09.2022
428 Clouds 24 1015 41 10000 6.71 270 14:47 03.09.2022
429 Clouds 24 1015 38 10000 5.14 330 14:28 03.09.2022
430 Clouds 24 1015 39 10000 6.17 330 13:43 03.09.2022
431 Clouds 21 1015 63 10000 4.63 340 11:31 03.09.2022
432 Clouds 17 1014 81 10000 3.6 340 08:57 03.09.2022
433 Clouds 18 1014 80 10000 3.6 340 07:23 03.09.2022
434 Clouds 19 1013 78 10000 3.09 340 04:45 03.09.2022
435 Clouds 20 1014 78 10000 3.6 330 02:35 03.09.2022
436 Clouds 20 1015 78 10000 8.49 360 23:35 02.09.2022
437 Clouds 21 1015 71 10000 7.15 360 21:46 02.09.2022
438 Clouds 21 1014 68 10000 5.66 310 20:40 02.09.2022
439 Clouds 23 1015 64 10000 7.6 315 19:47 02.09.2022
440 Clouds 24 1015 56 10000 6.69 320 18:50 02.09.2022
441 Clouds 24 1015 55 10000 8.49 315 18:24 02.09.2022
442 Clouds 25 1015 51 10000 12.96 360 16:56 02.09.2022
443 Clouds 25 1015 50 10000 8.05 270 16:22 02.09.2022
444 Clouds 24 1016 59 10000 5.81 337 12:58 02.09.2022
445 Clouds 21 1016 73 10000 5.14 360 10:39 02.09.2022
446 Clouds 20 1015 79 10000 6.71 270 09:42 02.09.2022
447 Clouds 19 1015 78 10000 3.13 360 08:43 02.09.2022
448 Clouds 19 1015 78 10000 1.79 360 06:43 02.09.2022
449 Clouds 19 1015 77 10000 3.09 330 05:32 02.09.2022
450 Clouds 21 1015 74 10000 5.36 360 22:58 01.09.2022
451 Clouds 21 1015 72 10000 5.66 330 21:46 01.09.2022
452 Clouds 21 1015 73 10000 4.63 300 21:26 01.09.2022
453 Clouds 22 1015 69 10000 8.05 360 20:52 01.09.2022
454 Clouds 24 1015 58 10000 6.71 270 19:25 01.09.2022
455 Clouds 26 1015 50 10000 8.49 270 18:18 01.09.2022
456 Clouds 27 1015 47 10000 7.6 270 16:47 01.09.2022
457 Clouds 26 1015 49 10000 7.2 340 14:41 01.09.2022
458 Clouds 24 1016 59 10000 5.14 310 13:21 01.09.2022
459 Clouds 23 1016 63 10000 5.66 350 12:42 01.09.2022
460 Clouds 22 1016 67 10000 5.66 20 11:50 01.09.2022
461 Clouds 21 1016 69 10000 6.69 360 11:19 01.09.2022
462 Clouds 19 1015 78 10000 7.72 330 09:20 01.09.2022
463 Clouds 18 1015 80 10000 4.63 330 06:31 01.09.2022
464 Clouds 19 1016 76 10000 5.36 360 02:33 01.09.2022
465 Clear 19 1016 74 10000 14.31 360 01:29 01.09.2022
466 Clouds 20 1017 72 10000 6.69 310 22:22 31.08.2022
467 Clouds 23 1016 59 10000 17.43 360 20:27 31.08.2022
468 Clear 25 1017 49 10000 7.6 225 18:32 31.08.2022
469 Clear 27 1018 47 10000 6.71 315 16:35 31.08.2022
470 Clouds 26 1018 49 10000 5.66 340 15:18 31.08.2022
471 Clouds 23 1019 57 10000 9.39 360 12:30 31.08.2022
472 Clouds 22 1019 61 10000 5.81 360 11:48 31.08.2022
473 Clouds 18 1018 79 10000 2.06 270 09:25 31.08.2022
474 Clouds 18 1018 79 10000 1.54 340 07:28 31.08.2022
475 Clouds 20 1020 76 10000 4.63 310 01:57 31.08.2022
476 Clouds 21 1017 63 10000 6.71 180 21:49 30.08.2022
477 Clouds 21 1018 62 10000 6.71 180 21:26 30.08.2022
478 Clouds 24 1017 52 10000 7.6 360 19:26 30.08.2022
479 Clouds 26 1017 44 10000 5.66 310 16:35 30.08.2022
480 Clouds 25 1019 48 10000 5.14 330 13:37 30.08.2022
481 Clouds 22 1019 63 10000 4.63 340 11:23 30.08.2022
482 Clouds 20 1019 71 10000 5.14 350 10:57 30.08.2022
483 Clouds 18 1019 81 10000 4.12 340 08:49 30.08.2022
484 Clouds 19 1017 84 10000 0 0 03:57 30.08.2022
485 Clouds 20 1016 77 10000 4.63 310 00:26 30.08.2022
486 Clear 21 1016 72 10000 3.6 300 22:36 29.08.2022
487 Clear 22 1015 67 10000 4.12 260 21:48 29.08.2022
488 Clear 23 1015 63 10000 5.66 260 20:34 29.08.2022
489 Clouds 24 1016 60 10000 5.66 260 18:55 29.08.2022
490 Clouds 25 1016 60 10000 5.66 210 17:26 29.08.2022
491 Clouds 25 1016 60 10000 5.14 230 16:57 29.08.2022
492 Clouds 24 1016 63 10000 5.14 240 15:18 29.08.2022
493 Clouds 23 1016 64 10000 5.14 210 13:42 29.08.2022
494 Clouds 23 1016 66 10000 3.6 180 12:20 29.08.2022
495 Clouds 20 1015 82 10000 3.09 110 10:42 29.08.2022
496 Mist 18 1014 88 10000 2.57 110 08:53 29.08.2022
497 Clouds 18 1012 82 10000 1.54 200 06:30 29.08.2022
498 Clouds 19 1013 76 10000 2.06 240 02:25 29.08.2022
499 Clouds 20 1012 74 10000 4.63 230 23:33 28.08.2022
500 Clouds 21 1010 67 10000 4.12 260 21:48 28.08.2022
501 Clear 22 1010 62 10000 4.12 260 21:25 28.08.2022
502 Clear 22 1010 63 10000 5.66 250 20:18 28.08.2022
503 Clear 22 1010 60 10000 6.17 240 20:18 28.08.2022
504 Clear 22 1009 62 10000 6.17 260 18:22 28.08.2022
505 Clear 23 1010 59 10000 6.17 270 17:51 28.08.2022
506 Clear 24 1011 57 10000 6.17 260 16:44 28.08.2022
507 Clear 23 1011 58 10000 4.12 210 15:00 28.08.2022
508 Clear 22 1011 64 10000 4.12 220 13:19 28.08.2022
509 Clouds 20 1010 70 10000 2.24 135 11:25 28.08.2022
510 Clouds 19 1010 76 8000 3.13 360 10:20 28.08.2022
511 Clouds 16 1009 82 6000 3.09 40 08:52 28.08.2022
512 Clouds 16 1009 82 10000 1.54 90 07:53 28.08.2022
513 Clouds 16 1009 82 10000 1.54 90 07:26 28.08.2022
514 Clouds 19 1010 78 10000 4.12 300 00:37 28.08.2022
515 Clouds 20 1010 74 10000 5.66 310 23:20 27.08.2022
516 Clouds 20 1008 75 10000 5.36 360 22:27 27.08.2022
517 Clear 23 1008 61 10000 4.63 230 20:35 27.08.2022
518 Clear 25 1008 52 10000 5.81 315 19:26 27.08.2022
519 Clear 26 1009 54 10000 5.81 180 16:29 27.08.2022
520 Clear 25 1010 62 10000 6.71 180 15:31 27.08.2022
521 Clouds 23 1010 69 10000 4.12 360 13:30 27.08.2022
522 Clouds 21 1010 74 10000 2.57 0 12:20 27.08.2022
523 Mist 18 1010 81 7000 2.06 120 10:30 27.08.2022
524 Mist 18 1010 83 8000 2.57 120 09:36 27.08.2022
525 Clouds 18 1010 84 10000 3.6 320 06:54 27.08.2022
526 Clouds 19 1012 82 10000 3.6 310 01:21 27.08.2022
527 Clouds 19 1011 81 10000 5.36 360 23:48 26.08.2022
528 Clouds 19 1011 80 10000 4.12 290 21:49 26.08.2022
529 Clouds 20 1011 73 10000 9.83 315 20:20 26.08.2022
530 Clouds 25 1011 58 10000 5.36 360 17:59 26.08.2022
531 Clouds 25 1012 56 10000 6.71 315 16:36 26.08.2022
532 Clouds 25 1012 59 10000 4.02 225 15:24 26.08.2022
533 Clouds 22 1013 66 10000 6.17 20 13:20 26.08.2022
534 Clouds 20 1014 71 10000 9.83 360 11:48 26.08.2022
535 Clouds 20 1014 75 10000 10.28 315 11:22 26.08.2022
536 Clouds 19 1015 83 10000 4.63 330 09:45 26.08.2022
537 Clouds 19 1014 82 10000 6.69 310 04:56 26.08.2022
538 Clouds 20 1015 78 10000 5.66 320 00:44 26.08.2022
539 Clouds 20 1015 78 10000 12.86 360 22:45 25.08.2022
540 Clouds 22 1014 71 10000 12.86 360 20:57 25.08.2022
541 Clouds 23 1014 64 10000 11.32 350 19:47 25.08.2022
542 Clouds 26 1014 58 10000 7.2 330 18:36 25.08.2022
543 Clouds 26 1015 55 10000 11.62 360 17:32 25.08.2022
544 Clouds 26 1015 57 10000 9.39 360 16:46 25.08.2022
545 Clouds 25 1016 62 10000 14.75 360 15:37 25.08.2022
546 Clouds 23 1017 66 10000 9.26 350 14:30 25.08.2022
547 Clouds 21 1016 77 10000 7.6 337 11:34 25.08.2022
548 Clouds 20 1016 78 10000 8.49 292 10:45 25.08.2022
549 Clouds 20 1015 78 10000 8.05 360 07:55 25.08.2022
550 Clouds 19 1016 83 10000 7.6 360 03:54 25.08.2022
551 Clouds 20 1016 82 10000 7.2 340 23:39 24.08.2022
552 Clouds 20 1016 81 10000 7.2 340 23:18 24.08.2022
553 Clouds 20 1015 82 10000 13.89 350 21:59 24.08.2022
554 Clouds 20 1015 81 10000 12.35 350 21:31 24.08.2022
555 Clouds 22 1014 77 10000 12.96 360 20:18 24.08.2022
556 Clouds 24 1014 70 10000 16.09 360 17:32 24.08.2022
557 Clouds 26 1014 64 10000 12.96 360 15:55 24.08.2022
558 Clouds 25 1014 62 10000 12.96 360 15:35 24.08.2022
559 Clouds 23 1013 71 10000 10.29 360 12:52 24.08.2022
560 Clouds 21 1013 75 10000 8.49 360 11:21 24.08.2022
561 Clouds 19 1012 84 10000 6.17 350 09:19 24.08.2022
562 Clouds 19 1011 87 10000 4.63 330 06:52 24.08.2022
563 Clear 20 1012 83 10000 7.72 20 01:20 24.08.2022
564 Clear 21 1011 80 10000 6.69 310 22:49 23.08.2022
565 Clear 21 1011 77 10000 9.39 360 22:18 23.08.2022
566 Clear 25 1010 63 10000 6.69 20 20:49 23.08.2022
567 Clear 27 1011 58 10000 6.17 20 19:28 23.08.2022
568 Clear 30 1010 50 10000 5.36 360 18:21 23.08.2022
569 Clear 30 1010 51 10000 5.14 260 17:31 23.08.2022
570 Clear 29 1010 49 10000 4.12 230 16:31 23.08.2022
571 Clear 29 1010 50 10000 3.09 0 14:54 23.08.2022
572 Clear 28 1011 57 10000 3.6 40 13:25 23.08.2022
573 Clouds 22 1011 75 10000 3.09 320 11:19 23.08.2022
574 Clouds 21 1011 79 10000 4.12 310 10:33 23.08.2022
575 Clouds 20 1010 84 10000 4.12 320 09:46 23.08.2022
576 Clouds 19 1010 88 10000 4.12 330 08:47 23.08.2022
577 Clouds 19 1010 88 10000 4.12 330 08:19 23.08.2022
578 Clouds 19 1009 87 10000 7.15 360 07:33 23.08.2022
579 Clouds 19 1009 88 10000 5.66 310 06:26 23.08.2022
580 Clear 20 1010 81 10000 9.83 225 01:55 23.08.2022
581 Clear 22 1010 76 10000 7.72 310 00:27 23.08.2022
582 Clear 22 1011 74 10000 10.29 360 23:32 22.08.2022
583 Clear 23 1010 69 10000 10.8 360 22:29 22.08.2022
584 Clear 25 1010 60 10000 10.73 292 20:58 22.08.2022
585 Clear 28 1011 49 10000 12.86 360 19:47 22.08.2022
586 Clear 30 1011 43 10000 10.29 360 18:38 22.08.2022
587 Clear 30 1012 43 10000 12.96 360 16:26 22.08.2022
588 Clear 29 1012 49 10000 12.07 315 15:38 22.08.2022
589 Clouds 25 1014 60 10000 6.69 10 12:57 22.08.2022
590 Clouds 20 1013 80 10000 10.8 360 10:20 22.08.2022
591 Clouds 19 1013 87 10000 19.67 360 07:41 22.08.2022
592 Clouds 19 1016 82 10000 6.17 350 02:56 22.08.2022
593 Clouds 20 1017 84 10000 6.69 340 00:37 22.08.2022
594 Clouds 20 1017 84 10000 10.28 315 23:59 21.08.2022
595 Clouds 21 1017 79 10000 10.28 360 22:18 21.08.2022
596 Clouds 22 1017 71 10000 9.77 350 21:23 21.08.2022
597 Clouds 24 1016 60 10000 14.75 360 20:27 21.08.2022
598 Clouds 26 1017 45 10000 12.96 225 19:23 21.08.2022
599 Clouds 29 1018 44 10000 9.83 360 16:55 21.08.2022
600 Clear 28 1018 40 10000 14.75 360 15:53 21.08.2022
601 Clear 29 1018 40 10000 10.29 350 15:20 21.08.2022
602 Clear 27 1019 40 10000 12.07 360 13:51 21.08.2022
603 Clear 26 1019 42 10000 13.86 360 13:24 21.08.2022
604 Clear 23 1019 52 10000 9.77 360 11:29 21.08.2022
605 Clouds 19 1018 68 10000 7.15 360 09:31 21.08.2022
606 Clouds 19 1018 73 10000 7.15 360 08:56 21.08.2022
607 Clouds 18 1018 73 10000 8.05 360 08:38 21.08.2022
608 Clear 19 1018 70 10000 5.81 270 07:26 21.08.2022
609 Clear 20 1018 57 10000 5.81 360 03:39 21.08.2022
610 Clear 21 1018 66 10000 11.62 360 23:49 20.08.2022
611 Clear 22 1017 62 10000 9.77 10 22:24 20.08.2022
612 Clear 25 1017 52 10000 9.77 10 21:34 20.08.2022
613 Clear 26 1016 49 10000 10.29 360 20:28 20.08.2022
614 Clear 29 1016 49 10000 7.2 360 19:40 20.08.2022
615 Clear 31 1016 43 10000 7.2 360 18:29 20.08.2022
616 Clear 32 1016 40 10000 7.72 10 17:40 20.08.2022
617 Clear 33 1016 36 10000 7.72 360 16:49 20.08.2022
618 Clear 33 1016 36 10000 6.69 20 15:30 20.08.2022
619 Clear 30 1017 42 10000 6.69 20 13:24 20.08.2022
620 Clear 27 1017 47 10000 6.17 20 11:49 20.08.2022
621 Clear 22 1015 54 10000 6.69 20 09:34 20.08.2022
622 Clear 21 1015 52 10000 6.69 20 08:29 20.08.2022
623 Clear 23 1014 45 10000 2.06 320 05:51 20.08.2022
624 Clear 27 1016 32 10000 12.52 360 00:59 20.08.2022
625 Clear 27 1017 32 10000 7.15 360 00:34 20.08.2022
626 Clear 29 1014 24 10000 7.2 10 22:59 19.08.2022
627 Clear 31 1015 30 10000 7.72 360 21:40 19.08.2022
628 Clear 34 1015 23 10000 9.77 350 19:54 19.08.2022
629 Clear 36 1015 21 10000 3.6 210 17:19 19.08.2022
630 Clear 34 1015 23 10000 4.12 330 15:18 19.08.2022
631 Clear 30 1016 32 10000 5.81 135 13:18 19.08.2022
632 Clear 27 1015 30 10000 8.05 360 10:52 19.08.2022
633 Clear 26 1015 33 10000 8.05 360 10:21 19.08.2022
634 Clear 20 1014 57 10000 2.57 10 06:27 19.08.2022
635 Clear 23 1016 48 10000 5.14 320 00:56 19.08.2022
636 Clear 23 1015 42 10000 8.05 360 00:26 19.08.2022
637 Clear 23 1015 43 10000 5.66 320 23:37 18.08.2022
638 Clear 24 1015 42 10000 8.23 10 22:49 18.08.2022
639 Clear 24 1015 42 10000 8.23 10 21:55 18.08.2022
640 Clear 24 1015 41 10000 8.23 360 21:26 18.08.2022
641 Clear 28 1015 36 10000 9.77 350 19:56 18.08.2022
642 Clear 29 1015 40 10000 8.75 350 19:26 18.08.2022
643 Clear 31 1015 32 10000 5.14 320 17:50 18.08.2022
644 Clear 30 1016 32 10000 3.6 100 16:58 18.08.2022
645 Clear 27 1017 41 10000 5.14 360 14:45 18.08.2022
646 Clear 27 1017 40 10000 5.14 10 14:19 18.08.2022
647 Clear 25 1017 44 10000 6.17 360 12:55 18.08.2022
648 Clear 22 1016 53 10000 9.26 360 11:34 18.08.2022
649 Clear 18 1016 67 10000 9.77 360 09:43 18.08.2022
650 Clear 18 1015 70 10000 9.26 360 08:39 18.08.2022
651 Clear 18 1015 73 10000 7.2 330 07:19 18.08.2022
652 Clear 18 1016 76 10000 5.14 320 03:57 18.08.2022
653 Clear 18 1016 70 10000 9.26 330 23:34 17.08.2022
654 Clouds 20 1016 62 10000 9.77 10 21:40 17.08.2022
655 Clear 22 1015 51 10000 9.77 360 20:18 17.08.2022
656 Clear 23 1016 47 10000 11.83 350 19:28 17.08.2022
657 Clouds 24 1016 43 10000 15.43 360 17:35 17.08.2022
658 Clouds 25 1016 46 10000 11.83 360 16:22 17.08.2022
659 Clouds 25 1016 46 10000 11.83 360 16:22 17.08.2022
660 Clouds 24 1016 49 10000 11.32 350 15:26 17.08.2022
661 Clouds 23 1017 49 10000 13.38 350 12:57 17.08.2022
662 Clouds 22 1016 57 10000 10.29 20 11:37 17.08.2022
663 Clouds 19 1015 70 10000 9.26 360 09:31 17.08.2022
664 Clouds 19 1015 73 10000 6.69 350 08:23 17.08.2022
665 Clouds 19 1016 72 10000 5.14 350 03:27 17.08.2022
666 Clouds 20 1016 71 10000 8.23 340 23:58 16.08.2022
667 Clouds 20 1015 69 10000 8.23 330 22:35 16.08.2022
668 Clouds 21 1015 63 10000 8.75 340 20:52 16.08.2022
669 Clouds 22 1015 56 10000 9.77 340 19:53 16.08.2022
670 Clouds 23 1014 50 10000 10.8 350 18:40 16.08.2022
671 Clouds 24 1015 45 10000 8.75 330 17:43 16.08.2022
672 Clouds 25 1015 45 10000 9.77 340 15:48 16.08.2022
673 Clouds 25 1015 48 10000 8.75 330 14:55 16.08.2022
674 Clouds 25 1014 47 10000 8.23 330 14:37 16.08.2022
675 Clouds 24 1015 51 10000 6.17 330 12:58 16.08.2022
676 Clouds 22 1014 67 10000 6.69 10 10:59 16.08.2022
677 Clouds 21 1013 74 10000 7.2 360 09:50 16.08.2022
678 Clouds 20 1013 81 10000 7.72 350 08:47 16.08.2022
679 Clouds 20 1012 81 10000 3.09 300 07:58 16.08.2022
680 Clouds 20 1013 77 10000 2.06 320 02:50 16.08.2022
681 Clear 21 1012 69 10000 6.69 310 22:31 15.08.2022
682 Clear 21 1012 68 10000 6.69 300 21:55 15.08.2022
683 Clear 21 1012 66 10000 6.69 300 21:35 15.08.2022
684 Clear 23 1012 57 10000 6.69 300 20:20 15.08.2022
685 Clear 25 1012 50 10000 6.17 310 18:43 15.08.2022
686 Clear 26 1012 46 10000 5.66 310 17:46 15.08.2022
687 Clear 27 1013 45 10000 6.69 360 16:22 15.08.2022
688 Clouds 26 1014 51 10000 7.2 350 13:58 15.08.2022
689 Clouds 24 1014 58 10000 6.17 350 12:38 15.08.2022
690 Clouds 21 1014 70 10000 5.66 350 10:18 15.08.2022
691 Clouds 20 1014 73 10000 4.12 330 08:51 15.08.2022
692 Clouds 20 1014 76 10000 3.09 330 06:34 15.08.2022
693 Clouds 20 1015 78 10000 3.6 320 03:34 15.08.2022
694 Clouds 21 1015 75 10000 5.66 330 23:24 14.08.2022
695 Clouds 22 1014 67 10000 7.72 350 21:43 14.08.2022
696 Clouds 23 1014 59 10000 8.75 330 20:33 14.08.2022
697 Clouds 24 1014 54 10000 9.26 330 19:36 14.08.2022
698 Clouds 25 1014 50 10000 7.72 340 18:21 14.08.2022
699 Clouds 25 1014 50 10000 7.2 330 17:31 14.08.2022
700 Clouds 26 1014 48 10000 6.17 320 16:23 14.08.2022
701 Clouds 26 1015 51 10000 6.69 330 14:55 14.08.2022
702 Clouds 25 1015 52 10000 6.69 320 13:51 14.08.2022
703 Clouds 25 1015 50 10000 6.69 320 13:31 14.08.2022
704 Clouds 25 1015 50 10000 6.69 320 13:31 14.08.2022
705 Clouds 24 1015 57 10000 6.17 360 12:42 14.08.2022
706 Clouds 22 1015 66 10000 5.66 330 11:23 14.08.2022
707 Clouds 19 1015 81 10000 2.06 340 08:57 14.08.2022
708 Clouds 18 1014 81 10000 3.09 360 06:41 14.08.2022
709 Clouds 19 1015 80 10000 2.57 350 05:37 14.08.2022
710 Clouds 20 1015 76 10000 2.57 340 01:43 14.08.2022
711 Clouds 21 1016 73 10000 5.66 310 23:22 13.08.2022
712 Clouds 21 1014 70 10000 7.2 310 22:28 13.08.2022
713 Clouds 23 1014 60 10000 9.39 360 20:51 13.08.2022
714 Clouds 24 1013 53 10000 9.83 225 19:49 13.08.2022
715 Clouds 25 1013 51 10000 7.15 360 19:19 13.08.2022
716 Clouds 27 1013 44 10000 8.05 360 17:22 13.08.2022
717 Clouds 27 1013 49 10000 9.83 315 14:51 13.08.2022
718 Clouds 27 1013 50 10000 8.49 270 14:24 13.08.2022
719 Clouds 26 1013 53 10000 3.13 360 13:34 13.08.2022
720 Clouds 23 1014 66 10000 3.09 190 11:33 13.08.2022
721 Clouds 19 1013 82 10000 5.66 340 09:27 13.08.2022
722 Clouds 19 1012 81 10000 5.14 310 07:43 13.08.2022
723 Clouds 20 1013 79 10000 6.17 330 01:56 13.08.2022
724 Clouds 21 1013 77 10000 7.15 315 23:36 12.08.2022
725 Clouds 23 1013 65 10000 5.66 360 21:40 12.08.2022
726 Clear 26 1013 55 10000 6.17 10 19:50 12.08.2022
727 Clear 27 1013 55 10000 5.66 360 19:24 12.08.2022
728 Clear 27 1014 53 10000 5.66 330 18:29 12.08.2022
729 Clouds 27 1014 56 10000 6.17 260 16:27 12.08.2022
730 Clouds 27 1015 55 10000 4.63 270 15:23 12.08.2022
731 Clear 26 1015 61 10000 4.63 210 13:50 12.08.2022
732 Clouds 24 1016 64 10000 4.63 210 12:50 12.08.2022
733 Clouds 19 1015 83 10000 2.06 350 09:22 12.08.2022
734 Clouds 18 1015 82 10000 2.06 320 07:46 12.08.2022
735 Clouds 19 1015 83 10000 2.06 310 06:25 12.08.2022
736 Clouds 20 1016 79 10000 3.09 300 01:22 12.08.2022
737 Clouds 21 1016 78 10000 3.6 300 00:18 12.08.2022
738 Clear 21 1015 75 10000 3.6 280 23:27 11.08.2022
739 Clear 22 1014 71 10000 5.66 260 21:55 11.08.2022
740 Clouds 22 1014 70 10000 5.66 260 21:34 11.08.2022
741 Clouds 24 1014 65 10000 5.66 250 20:31 11.08.2022
742 Clouds 24 1014 64 10000 6.17 220 19:41 11.08.2022
743 Clouds 24 1014 61 10000 6.17 220 19:21 11.08.2022
744 Clouds 25 1015 56 10000 5.66 200 17:34 11.08.2022
745 Clouds 24 1015 61 10000 4.63 230 16:19 11.08.2022
746 Clouds 24 1016 61 10000 4.12 240 15:20 11.08.2022
747 Clouds 22 1016 72 10000 4.12 160 12:35 11.08.2022
748 Clouds 20 1014 89 10000 2.57 140 09:29 11.08.2022
749 Clouds 19 1014 87 10000 0 0 06:59 11.08.2022
750 Clouds 20 1013 80 10000 2.24 360 03:25 11.08.2022
751 Clear 21 1014 74 10000 3.09 240 00:28 11.08.2022
752 Clear 21 1012 75 10000 5.14 230 22:21 10.08.2022
753 Clear 22 1012 65 10000 9.39 225 21:20 10.08.2022
754 Clear 23 1011 61 10000 8.49 270 20:43 10.08.2022
755 Clear 23 1011 61 10000 8.49 270 20:43 10.08.2022
756 Clear 25 1012 61 10000 9.83 315 18:53 10.08.2022
757 Clear 25 1013 57 10000 12.52 135 17:31 10.08.2022
758 Clear 25 1013 59 10000 7.6 270 15:53 10.08.2022
759 Clouds 24 1014 62 10000 4.12 270 13:34 10.08.2022
760 Clouds 23 1014 64 10000 8.49 225 12:27 10.08.2022
761 Clouds 18 1013 86 10000 4.02 225 08:55 10.08.2022
762 Clouds 18 1013 88 10000 2.24 270 08:31 10.08.2022
763 Clouds 18 1013 85 10000 1.34 337 06:22 10.08.2022
764 Clear 19 1013 81 10000 3.09 310 02:45 10.08.2022
765 Clouds 21 1013 76 10000 4.12 10 23:34 09.08.2022
766 Clouds 21 1013 74 10000 4.63 310 22:55 09.08.2022
767 Clear 23 1013 66 10000 5.81 270 21:34 09.08.2022
768 Clear 25 1013 53 10000 5.66 250 19:35 09.08.2022
769 Clear 27 1014 49 10000 5.66 230 18:29 09.08.2022
770 Clear 27 1014 53 10000 4.63 240 17:27 09.08.2022
771 Clear 26 1014 56 10000 5.14 260 16:40 09.08.2022
772 Clear 26 1014 56 10000 5.14 260 16:40 09.08.2022
773 Clear 26 1015 57 10000 4.63 260 15:46 09.08.2022
774 Clear 23 1016 68 10000 3.09 360 12:48 09.08.2022
775 Clouds 19 1015 81 8000 3.6 10 09:30 09.08.2022
776 Clouds 18 1015 86 8000 3.6 300 08:33 09.08.2022
777 Clear 18 1015 83 9000 4.12 320 07:20 09.08.2022
778 Clear 19 1015 81 10000 3.6 310 03:32 09.08.2022
779 Clouds 20 1016 75 10000 5.66 360 23:27 08.08.2022
780 Clouds 21 1016 72 10000 4.12 360 22:54 08.08.2022
781 Clouds 21 1015 66 10000 4.12 300 21:49 08.08.2022
782 Clouds 23 1015 63 10000 5.66 250 20:55 08.08.2022
783 Clouds 23 1015 60 10000 6.17 260 19:50 08.08.2022
784 Clouds 24 1015 61 10000 5.66 260 18:38 08.08.2022
785 Clouds 24 1016 57 10000 5.66 260 16:37 08.08.2022
786 Clouds 24 1016 57 10000 5.14 260 15:39 08.08.2022
787 Clouds 23 1016 65 10000 4.12 200 12:51 08.08.2022
788 Clouds 22 1016 67 10000 3.09 220 11:58 08.08.2022
789 Clear 19 1015 78 10000 2.06 290 09:43 08.08.2022
790 Clear 18 1014 77 10000 2.57 310 05:43 08.08.2022
791 Clear 19 1014 73 10000 4.02 337 02:27 08.08.2022
792 Clear 21 1013 67 10000 4.63 240 22:32 07.08.2022
793 Clear 22 1013 61 10000 5.81 360 21:39 07.08.2022
794 Clear 23 1013 59 10000 7.6 270 20:26 07.08.2022
795 Clear 23 1013 59 10000 7.6 270 20:26 07.08.2022
796 Clear 24 1013 62 10000 12.07 225 19:55 07.08.2022
797 Clear 24 1013 59 10000 10.73 180 19:34 07.08.2022
798 Clear 24 1013 59 10000 7.6 225 18:23 07.08.2022
799 Clear 25 1014 59 10000 12.52 225 16:54 07.08.2022
800 Clouds 25 1014 58 10000 9.39 225 16:35 07.08.2022
801 Clouds 24 1014 58 10000 8.05 135 15:20 07.08.2022
802 Clouds 23 1015 62 10000 5.81 180 13:24 07.08.2022
803 Clouds 21 1015 70 10000 3.13 225 11:27 07.08.2022
804 Clouds 20 1015 72 10000 3.6 220 10:34 07.08.2022
805 Clouds 18 1014 82 10000 1.79 270 07:36 07.08.2022
806 Clouds 19 1016 79 10000 0 0 03:20 07.08.2022
807 Clear 19 1015 77 10000 3.09 250 00:31 07.08.2022
808 Clear 20 1015 70 10000 3.13 315 22:24 06.08.2022
809 Clear 23 1014 64 10000 8.05 360 20:46 06.08.2022
810 Clear 23 1014 62 10000 10.73 225 19:41 06.08.2022
811 Clear 24 1015 62 10000 7.2 210 18:30 06.08.2022
812 Clear 23 1015 62 10000 13.86 225 17:32 06.08.2022
813 Clouds 23 1017 67 10000 3.6 210 14:48 06.08.2022
814 Clouds 22 1017 69 10000 3.09 200 13:49 06.08.2022
815 Clouds 20 1017 84 9000 2.57 250 11:55 06.08.2022
816 Clouds 20 1016 86 9000 0.51 0 10:33 06.08.2022
817 Clouds 19 1016 90 10000 1.03 0 08:40 06.08.2022
818 Clouds 19 1015 90 10000 2.57 280 03:53 06.08.2022
819 Clouds 19 1016 90 10000 5.66 320 23:50 05.08.2022
820 Clouds 20 1015 87 10000 4.63 310 22:33 05.08.2022
821 Clouds 23 1014 68 10000 4.12 310 19:59 05.08.2022
822 Clouds 26 1014 59 10000 3.6 320 18:46 05.08.2022
823 Clouds 26 1014 58 10000 3.09 310 18:25 05.08.2022
824 Clouds 27 1015 60 10000 3.6 300 16:49 05.08.2022
825 Clouds 24 1015 65 10000 3.09 20 15:23 05.08.2022
826 Clouds 24 1016 65 10000 4.12 20 14:32 05.08.2022
827 Clouds 22 1016 74 10000 5.14 20 13:25 05.08.2022
828 Clouds 21 1016 80 9000 2.06 340 12:44 05.08.2022
829 Clouds 20 1015 79 9000 2.57 310 10:55 05.08.2022
830 Clouds 19 1014 84 9000 4.12 360 08:36 05.08.2022
831 Clouds 20 1014 83 9000 4.12 330 07:28 05.08.2022
832 Clouds 20 1014 81 10000 6.71 360 01:46 05.08.2022
833 Clouds 20 1013 78 10000 9.26 330 22:40 04.08.2022
834 Clouds 22 1013 74 10000 9.39 360 21:27 04.08.2022
835 Clouds 22 1012 72 10000 10.73 315 20:53 04.08.2022
836 Clouds 22 1012 71 10000 10.28 360 20:33 04.08.2022
837 Clouds 24 1013 66 10000 9.83 360 18:57 04.08.2022
838 Clouds 24 1013 65 10000 9.26 360 18:33 04.08.2022
839 Clouds 23 1015 71 10000 6.69 350 14:50 04.08.2022
840 Clouds 22 1015 73 10000 6.17 350 13:23 04.08.2022
841 Clouds 21 1014 77 10000 5.66 340 11:39 04.08.2022
842 Clouds 20 1013 79 10000 10.28 360 10:20 04.08.2022
843 Clouds 19 1013 81 10000 4.63 330 07:44 04.08.2022
844 Clouds 20 1014 81 10000 6.69 330 02:46 04.08.2022
845 Clouds 20 1013 80 10000 13.86 360 00:33 04.08.2022
846 Clouds 20 1013 78 10000 7.72 330 23:39 03.08.2022
847 Clouds 21 1013 77 10000 11.83 360 21:27 03.08.2022
848 Clouds 22 1012 73 10000 17.43 360 20:21 03.08.2022
849 Clouds 24 1012 68 10000 12.35 350 19:19 03.08.2022
850 Clouds 27 1013 59 10000 11.32 350 16:48 03.08.2022
851 Clouds 26 1013 60 10000 11.83 350 16:22 03.08.2022
852 Clouds 25 1013 64 10000 8.23 10 13:52 03.08.2022
853 Clouds 21 1013 77 10000 9.83 360 10:56 03.08.2022
854 Clouds 19 1012 82 10000 7.15 360 07:26 03.08.2022
855 Clouds 19 1012 80 10000 5.66 320 04:22 03.08.2022
856 Clouds 19 1012 78 10000 5.81 360 03:23 03.08.2022
857 Clouds 20 1013 78 10000 8.49 225 00:53 03.08.2022
858 Clouds 21 1012 76 10000 12.52 360 22:43 02.08.2022
859 Clouds 21 1012 73 10000 8.75 360 21:52 02.08.2022
860 Clouds 25 1012 63 10000 7.72 10 20:32 02.08.2022
861 Clear 28 1013 50 10000 5.66 230 18:34 02.08.2022
862 Clear 28 1014 55 10000 4.47 315 15:20 02.08.2022
863 Mist 22 1015 76 10000 3.13 360 11:30 02.08.2022
864 Clouds 18 1014 85 9000 2.68 360 08:59 02.08.2022
865 Mist 18 1013 84 9000 2.68 360 07:52 02.08.2022
866 Clouds 19 1014 82 10000 3.6 320 06:42 02.08.2022
867 Fog 19 1013 78 10000 2.57 120 04:54 02.08.2022
868 Clear 23 1014 60 10000 1.54 210 23:35 01.08.2022
869 Clear 24 1013 57 10000 5.66 310 22:23 01.08.2022
870 Clear 28 1013 48 10000 10.28 360 20:51 01.08.2022
871 Clear 32 1013 38 10000 5.66 230 19:25 01.08.2022
872 Clear 31 1013 43 10000 6.17 230 18:30 01.08.2022
873 Clear 31 1014 46 10000 8.05 270 16:53 01.08.2022
874 Clear 31 1014 45 10000 8.05 135 15:52 01.08.2022
875 Clear 31 1014 46 10000 7.6 180 15:30 01.08.2022
876 Clear 31 1014 47 10000 5.81 180 14:20 01.08.2022
877 Clear 27 1014 59 10000 2.06 40 11:50 01.08.2022
878 Clouds 23 1015 70 10000 1.54 200 09:40 01.08.2022
879 Clear 20 1013 76 10000 4.12 20 08:25 01.08.2022
880 Clear 22 1013 64 10000 4.63 320 04:54 01.08.2022
881 Clear 22 1013 66 10000 2.06 240 03:49 01.08.2022
882 Clouds 24 1015 54 8000 4.12 300 00:23 01.08.2022
883 Clouds 28 1013 45 10000 5.81 315 22:39 31.07.2022
884 Clear 29 1013 39 10000 5.14 310 21:29 31.07.2022
885 Clear 31 1014 37 10000 4.63 310 19:53 31.07.2022
886 Clear 31 1014 41 10000 5.14 230 17:57 31.07.2022
887 Clear 32 1015 37 10000 11.62 180 15:39 31.07.2022
888 Clear 31 1015 39 10000 8.05 315 13:44 31.07.2022
889 Clear 29 1015 50 10000 2.57 100 11:59 31.07.2022
890 Clear 24 1014 63 10000 2.57 10 09:55 31.07.2022
891 Clear 21 1014 65 10000 2.06 250 07:59 31.07.2022
892 Clear 24 1014 56 10000 3.09 320 03:28 31.07.2022
893 Clear 24 1014 63 10000 5.66 310 23:46 30.07.2022
894 Clear 26 1013 58 10000 6.17 10 22:19 30.07.2022
895 Clear 28 1013 51 10000 7.15 360 21:49 30.07.2022
896 Clear 29 1014 48 10000 5.66 20 20:57 30.07.2022
897 Clear 29 1014 48 10000 5.66 20 20:57 30.07.2022
898 Clear 29 1013 50 10000 4.63 30 19:59 30.07.2022
899 Clear 31 1013 45 10000 5.81 225 18:53 30.07.2022
900 Clear 31 1013 46 10000 9.39 225 17:45 30.07.2022
901 Clear 31 1014 48 10000 5.36 180 15:54 30.07.2022
902 Clear 31 1014 50 10000 7.15 180 15:24 30.07.2022
903 Clear 28 1015 58 10000 3.09 120 13:19 30.07.2022
904 Clear 26 1016 62 10000 1.54 270 12:19 30.07.2022
905 Clouds 22 1015 78 10000 3.09 300 10:35 30.07.2022
906 Clouds 20 1015 80 10000 3.6 330 09:57 30.07.2022
907 Clouds 19 1014 84 10000 3.09 320 07:55 30.07.2022
908 Clouds 20 1014 82 10000 7.72 310 04:20 30.07.2022
909 Clouds 21 1016 80 10000 6.17 320 02:28 30.07.2022
910 Clouds 21 1016 76 10000 12.35 360 22:46 29.07.2022
911 Clouds 22 1015 70 10000 12.86 360 21:24 29.07.2022
912 Clouds 24 1015 64 10000 13.38 360 20:50 29.07.2022
913 Clouds 27 1015 57 10000 12.86 350 18:27 29.07.2022
914 Clouds 28 1015 56 10000 13.89 350 16:32 29.07.2022
915 Clouds 26 1016 56 10000 12.35 360 13:45 29.07.2022
916 Clouds 23 1016 64 10000 12.86 360 11:30 29.07.2022
917 Clouds 20 1015 76 10000 12.35 360 08:50 29.07.2022
918 Clouds 20 1016 76 10000 12.35 360 08:20 29.07.2022
919 Clouds 20 1016 76 10000 7.2 340 02:52 29.07.2022
920 Clouds 20 1016 73 10000 11.32 360 23:20 28.07.2022
921 Clouds 22 1014 69 10000 14.75 360 21:30 28.07.2022
922 Clouds 23 1014 63 10000 14.75 360 20:45 28.07.2022
923 Clouds 25 1014 62 10000 12.86 350 19:44 28.07.2022
924 Clouds 24 1014 64 10000 19.22 360 19:25 28.07.2022
925 Clouds 26 1014 63 10000 10.73 360 17:44 28.07.2022
926 Clouds 26 1014 60 10000 12.96 360 17:19 28.07.2022
927 Clouds 27 1014 57 10000 10.28 360 16:39 28.07.2022
928 Clouds 26 1015 57 10000 7.72 350 13:47 28.07.2022
929 Clouds 24 1015 68 10000 7.72 350 11:43 28.07.2022
930 Clouds 19 1015 78 10000 7.15 360 06:59 28.07.2022
931 Clouds 19 1015 77 10000 6.71 360 05:33 28.07.2022
932 Clouds 19 1015 72 10000 10.28 360 03:53 28.07.2022
933 Clouds 20 1016 70 10000 15.43 350 23:19 27.07.2022
934 Clouds 21 1014 67 10000 19.67 360 21:29 27.07.2022
935 Clouds 23 1014 58 10000 19.67 360 19:46 27.07.2022
936 Clouds 25 1014 52 10000 13.89 340 18:49 27.07.2022
937 Clouds 25 1015 49 10000 12.35 350 16:31 27.07.2022
938 Clouds 26 1016 44 10000 10.8 340 15:41 27.07.2022
939 Clouds 25 1016 48 10000 10.29 350 14:41 27.07.2022
940 Clouds 24 1016 54 10000 10.28 315 13:29 27.07.2022
941 Clouds 19 1016 75 10000 13.89 340 09:27 27.07.2022
942 Clouds 19 1016 76 10000 7.72 320 07:40 27.07.2022
943 Clouds 19 1016 76 10000 7.72 320 07:40 27.07.2022
944 Clouds 19 1017 75 10000 9.39 360 03:57 27.07.2022
945 Clouds 21 1018 71 10000 9.26 350 22:49 26.07.2022
946 Clouds 23 1017 64 10000 10.29 350 21:36 26.07.2022
947 Clouds 24 1017 60 10000 12.52 360 20:49 26.07.2022
948 Clouds 26 1017 52 10000 17.88 292 19:20 26.07.2022
949 Clouds 27 1018 51 10000 15.2 360 18:39 26.07.2022
950 Clouds 27 1018 51 10000 10.8 340 17:46 26.07.2022
951 Clouds 29 1018 49 10000 9.39 315 15:43 26.07.2022
952 Clouds 28 1018 52 10000 11.62 360 14:38 26.07.2022
953 Clouds 25 1019 58 10000 9.83 360 11:47 26.07.2022
954 Clouds 21 1018 71 10000 7.15 360 09:44 26.07.2022
955 Clouds 20 1018 75 10000 12.96 360 08:18 26.07.2022
956 Clear 21 1019 67 10000 7.2 340 01:52 26.07.2022
957 Clear 22 1020 65 10000 10.28 360 23:44 25.07.2022
958 Clear 23 1019 62 10000 10.29 360 22:39 25.07.2022
959 Clear 24 1019 62 10000 8.75 360 21:43 25.07.2022
960 Clear 27 1019 53 10000 12.86 350 20:43 25.07.2022
961 Clear 28 1018 51 10000 12.52 360 19:55 25.07.2022
962 Clear 28 1018 52 10000 14.31 360 19:24 25.07.2022
963 Clear 30 1018 43 10000 8.75 350 17:35 25.07.2022
964 Clear 30 1019 41 10000 11.62 292 16:40 25.07.2022
965 Clear 27 1020 41 10000 7.2 360 12:58 25.07.2022
966 Clear 22 1020 57 10000 5.14 350 10:48 25.07.2022
967 Clear 18 1019 76 10000 4.12 330 07:32 25.07.2022
968 Clear 20 1019 66 10000 6.17 340 00:38 25.07.2022
969 Clear 22 1019 58 10000 6.17 310 23:45 24.07.2022
970 Clear 23 1018 52 10000 7.72 10 22:43 24.07.2022
971 Clear 26 1017 45 10000 6.69 360 21:41 24.07.2022
972 Clear 27 1017 43 10000 7.72 360 20:58 24.07.2022
973 Clear 27 1017 43 10000 7.2 10 20:37 24.07.2022
974 Clear 30 1017 41 10000 6.69 340 19:18 24.07.2022
975 Clear 31 1017 38 10000 7.72 360 17:56 24.07.2022
976 Clear 31 1017 41 10000 9.83 360 15:54 24.07.2022
977 Clear 29 1019 43 10000 5.66 10 14:41 24.07.2022
978 Clear 28 1019 45 10000 4.63 350 13:47 24.07.2022
979 Clear 25 1019 54 10000 2.24 315 12:28 24.07.2022
980 Clear 23 1019 57 10000 7.2 350 11:30 24.07.2022
981 Clear 21 1018 70 10000 5.66 10 09:47 24.07.2022
982 Clear 19 1017 76 10000 2.57 0 07:57 24.07.2022
983 Clear 19 1017 77 10000 2.06 0 07:31 24.07.2022
984 Clear 20 1017 68 10000 4.63 330 02:57 24.07.2022
985 Clear 23 1016 58 10000 5.14 310 23:25 23.07.2022
986 Clear 29 1015 40 10000 8.23 10 20:47 23.07.2022
987 Clear 30 1016 41 10000 6.71 360 19:29 23.07.2022
988 Clear 32 1016 40 10000 6.71 270 18:36 23.07.2022
989 Clear 32 1016 36 10000 6.69 20 17:27 23.07.2022
990 Clear 31 1016 39 10000 4.92 315 16:24 23.07.2022
991 Clear 30 1016 43 10000 4.63 30 15:22 23.07.2022
992 Clear 30 1016 43 10000 5.14 20 14:55 23.07.2022
993 Clear 30 1016 44 10000 6.17 30 14:23 23.07.2022
994 Clear 25 1018 62 10000 3.6 340 11:56 23.07.2022
995 Clear 22 1017 68 10000 4.12 340 10:44 23.07.2022
996 Clouds 20 1017 75 10000 3.13 270 09:44 23.07.2022
997 Clear 18 1017 82 10000 4.63 330 07:37 23.07.2022
998 Clear 20 1017 77 10000 4.12 330 03:37 23.07.2022
999 Clear 20 1017 72 10000 11.62 360 00:39 23.07.2022
1000 Clear 23 1016 62 10000 6.71 360 21:38 22.07.2022
1001 Clear 25 1016 57 10000 7.72 320 20:33 22.07.2022
1002 Clear 30 1016 47 10000 8.23 360 18:57 22.07.2022
1003 Clear 31 1016 41 10000 9.83 360 17:52 22.07.2022
1004 Clouds 30 1017 46 10000 6.69 350 16:31 22.07.2022
1005 Clouds 28 1017 50 10000 6.17 350 14:20 22.07.2022
1006 Clouds 21 1017 68 10000 7.6 360 10:41 22.07.2022
1007 Clouds 19 1017 73 10000 7.72 360 09:25 22.07.2022
1008 Clouds 19 1017 76 10000 6.71 360 08:26 22.07.2022
1009 Clouds 19 1017 76 10000 5.66 320 04:26 22.07.2022
1010 Clouds 20 1018 76 10000 6.17 320 23:45 21.07.2022
1011 Clouds 20 1016 74 10000 9.26 10 22:25 21.07.2022
1012 Clear 24 1016 62 10000 8.75 10 20:48 21.07.2022
1013 Clear 27 1017 51 10000 8.23 10 18:54 21.07.2022
1014 Clear 27 1016 53 10000 8.23 360 17:39 21.07.2022
1015 Clear 27 1016 52 10000 8.23 360 17:19 21.07.2022
1016 Clouds 27 1017 54 10000 6.69 10 14:52 21.07.2022
1017 Clouds 26 1017 54 10000 7.2 360 14:24 21.07.2022
1018 Clouds 24 1018 63 10000 6.71 315 12:27 21.07.2022
1019 Clouds 22 1017 70 10000 8.05 360 10:48 21.07.2022
1020 Clouds 20 1017 78 10000 10.73 360 09:18 21.07.2022
1021 Clouds 19 1016 80 10000 7.15 360 08:45 21.07.2022
1022 Clouds 19 1016 80 10000 8.49 360 07:23 21.07.2022
1023 Clear 20 1017 74 10000 4.12 320 03:55 21.07.2022
1024 Clear 21 1017 66 10000 9.39 360 23:26 20.07.2022
1025 Clear 22 1016 62 10000 12.52 360 22:21 20.07.2022
1026 Clear 25 1016 55 10000 8.23 360 20:50 20.07.2022
1027 Clear 28 1016 46 10000 8.23 360 19:49 20.07.2022
1028 Clear 28 1016 48 10000 9.39 360 19:20 20.07.2022
1029 Clear 30 1016 46 10000 7.2 10 18:33 20.07.2022
1030 Clear 30 1016 44 10000 8.75 360 17:54 20.07.2022
1031 Clear 29 1017 45 10000 10.29 340 16:19 20.07.2022
1032 Clear 30 1017 45 10000 9.26 340 15:31 20.07.2022
1033 Clear 28 1018 46 10000 9.39 360 13:57 20.07.2022
1034 Clear 24 1019 58 10000 7.72 360 11:32 20.07.2022
1035 Clouds 20 1019 75 10000 9.26 360 08:46 20.07.2022
1036 Clouds 20 1019 74 10000 6.17 330 03:25 20.07.2022
1037 Clouds 20 1019 73 10000 8.05 315 00:48 20.07.2022
1038 Clouds 20 1019 69 10000 9.39 360 23:41 19.07.2022
1039 Clouds 21 1018 66 10000 11.62 360 22:31 19.07.2022
1040 Clouds 23 1018 62 10000 12.07 360 21:23 19.07.2022
1041 Clouds 24 1018 56 10000 12.52 315 20:27 19.07.2022
1042 Clouds 26 1019 48 10000 10.28 337 18:43 19.07.2022
1043 Clouds 27 1019 50 10000 7.72 320 17:58 19.07.2022
1044 Clouds 27 1019 46 10000 8.05 360 16:37 19.07.2022
1045 Clouds 26 1019 50 10000 6.17 330 14:53 19.07.2022
1046 Clouds 23 1020 58 10000 9.83 315 11:43 19.07.2022
1047 Clouds 22 1020 63 10000 4.92 360 10:52 19.07.2022
1048 Clouds 20 1019 74 10000 3.13 315 09:23 19.07.2022
1049 Clouds 19 1019 78 10000 2.24 360 08:38 19.07.2022
1050 Clouds 19 1018 79 10000 2.68 360 07:19 19.07.2022
1051 Clouds 20 1018 78 10000 3.09 300 05:28 19.07.2022
1052 Clouds 20 1018 78 10000 3.09 300 04:55 19.07.2022
1053 Clouds 20 1018 75 10000 4.47 180 01:19 19.07.2022
1054 Clouds 21 1018 76 10000 4.12 290 23:47 18.07.2022
1055 Clouds 20 1018 75 10000 4.12 290 23:18 18.07.2022
1056 Clouds 22 1017 69 10000 8.05 315 21:58 18.07.2022
1057 Clouds 23 1017 64 10000 8.05 135 20:51 18.07.2022
1058 Clouds 24 1017 62 10000 12.07 180 19:33 18.07.2022
1059 Clouds 25 1017 59 10000 13.86 225 17:38 18.07.2022
1060 Clouds 24 1017 60 10000 12.07 225 15:55 18.07.2022
1061 Clouds 25 1017 59 10000 12.07 135 14:51 18.07.2022
1062 Clouds 24 1017 65 10000 8.05 315 13:24 18.07.2022
1063 Clouds 22 1017 70 10000 5.36 225 11:31 18.07.2022
1064 Clouds 20 1016 80 10000 5.81 202 09:28 18.07.2022
1065 Clouds 19 1016 82 10000 1.54 20 07:45 18.07.2022
1066 Clouds 20 1016 77 10000 3.09 300 02:21 18.07.2022
1067 Clouds 22 1015 72 10000 4.12 290 22:51 17.07.2022
1068 Clouds 22 1015 69 10000 4.63 310 22:23 17.07.2022
1069 Clear 23 1014 62 10000 7.15 247 21:26 17.07.2022
1070 Clear 24 1014 59 10000 5.66 220 20:44 17.07.2022
1071 Clear 25 1014 57 10000 7.15 315 19:49 17.07.2022
1072 Clear 25 1014 56 10000 5.66 270 19:19 17.07.2022
1073 Clear 27 1015 55 10000 6.17 250 17:39 17.07.2022
1074 Clear 28 1014 51 10000 9.83 180 16:53 17.07.2022
1075 Clear 28 1014 51 10000 8.49 270 16:27 17.07.2022
1076 Clear 29 1015 50 10000 10.28 225 15:34 17.07.2022
1077 Clear 28 1015 50 10000 8.05 225 13:51 17.07.2022
1078 Clear 26 1015 56 10000 3.09 170 12:40 17.07.2022
1079 Clear 22 1015 72 10000 1.54 30 10:18 17.07.2022
1080 Clear 19 1014 82 10000 4.63 320 06:58 17.07.2022
1081 Clear 21 1014 70 10000 4.63 320 02:34 17.07.2022
1082 Clear 23 1014 62 10000 4.63 310 23:23 16.07.2022
1083 Clear 24 1013 57 10000 5.14 10 21:59 16.07.2022
1084 Clear 29 1012 44 10000 5.81 270 20:28 16.07.2022
1085 Clear 31 1012 39 10000 7.6 315 18:54 16.07.2022
1086 Clear 32 1012 38 10000 6.17 260 17:25 16.07.2022
1087 Clear 31 1013 41 10000 5.14 260 15:54 16.07.2022
1088 Clear 28 1014 53 10000 2.57 210 12:26 16.07.2022
1089 Clear 21 1015 73 10000 3.09 40 10:18 16.07.2022
1090 Clear 20 1014 79 10000 2.57 10 09:25 16.07.2022
1091 Clear 19 1014 74 10000 4.63 20 08:40 16.07.2022
1092 Clear 19 1013 81 10000 4.12 310 06:57 16.07.2022
1093 Clear 20 1013 72 10000 4.63 310 03:33 16.07.2022
1094 Clear 22 1013 69 10000 5.14 310 00:23 16.07.2022
1095 Clear 23 1013 67 10000 5.14 310 22:54 15.07.2022
1096 Clear 25 1012 60 10000 5.14 20 21:55 15.07.2022
1097 Clear 28 1013 50 10000 5.14 20 20:40 15.07.2022
1098 Clear 30 1012 45 10000 5.66 260 18:55 15.07.2022
1099 Clear 30 1012 43 10000 5.66 260 18:22 15.07.2022
1100 Clear 30 1013 42 10000 5.66 270 16:53 15.07.2022
1101 Clear 30 1013 45 10000 9.83 180 14:19 15.07.2022
1102 Clear 27 1013 59 10000 2.57 90 12:28 15.07.2022
1103 Clear 26 1012 59 10000 3.09 20 10:52 15.07.2022
1104 Clear 21 1012 73 10000 1.54 200 07:48 15.07.2022
1105 Clear 23 1012 64 10000 1.03 0 03:41 15.07.2022
1106 Clear 24 1014 63 10000 3.6 320 00:40 15.07.2022
1107 Clear 24 1014 64 10000 3.6 330 23:24 14.07.2022
1108 Clear 27 1013 51 10000 3.6 20 22:24 14.07.2022
1109 Clear 28 1013 46 10000 4.12 270 21:40 14.07.2022
1110 Clear 28 1013 43 10000 4.12 270 21:21 14.07.2022
1111 Clear 29 1013 39 10000 4.92 315 20:43 14.07.2022
1112 Clear 32 1013 29 10000 4.47 225 20:18 14.07.2022
1113 Clear 31 1014 41 10000 9.83 225 18:24 14.07.2022
1114 Clear 31 1015 42 10000 5.66 260 16:19 14.07.2022
1115 Clear 28 1015 54 10000 8.49 225 14:56 14.07.2022
1116 Rain 29 1016 52 10000 4.12 270 13:51 14.07.2022
1117 Rain 28 1015 54 10000 5.14 220 12:36 14.07.2022
1118 Clouds 27 1016 55 10000 3.09 250 11:28 14.07.2022
1119 Clouds 27 1016 56 10000 9.39 180 10:52 14.07.2022
1120 Clear 24 1015 67 10000 5.66 230 08:58 14.07.2022
1121 Clear 25 1015 55 10000 9.83 225 04:45 14.07.2022
1122 Rain 27 1015 42 10000 2.68 225 01:21 14.07.2022
1123 Rain 27 1015 42 10000 2.68 225 01:21 14.07.2022
1124 Clear 28 1015 38 10000 4.63 260 00:51 14.07.2022
1125 Clear 30 1015 30 10000 4.12 240 22:31 13.07.2022
1126 Clear 30 1015 31 10000 4.12 250 21:47 13.07.2022
1127 Rain 32 1015 32 10000 8.05 225 20:41 13.07.2022
1128 Clear 36 1015 31 10000 3.6 160 18:40 13.07.2022
1129 Clear 38 1015 25 10000 3.09 0 17:34 13.07.2022
1130 Clear 39 1016 20 10000 3.09 0 16:19 13.07.2022
1131 Clear 36 1016 19 10000 4.63 10 14:54 13.07.2022
1132 Clear 30 1016 38 10000 4.12 30 11:56 13.07.2022
1133 Clouds 27 1016 42 10000 5.14 70 10:45 13.07.2022
1134 Rain 28 1016 36 10000 4.12 100 09:56 13.07.2022
1135 Rain 27 1016 37 10000 4.47 180 09:20 13.07.2022
1136 Clear 24 1014 53 10000 3.6 60 05:29 13.07.2022
1137 Clear 23 1016 55 10000 2.57 170 01:22 13.07.2022
1138 Clear 28 1014 31 10000 4.12 210 23:39 12.07.2022
1139 Clear 30 1014 33 10000 5.14 320 21:54 12.07.2022
1140 Clear 31 1012 25 10000 5.36 270 21:18 12.07.2022
1141 Clear 30 1014 38 10000 4.63 270 20:41 12.07.2022
1142 Clear 31 1014 36 10000 7.72 250 18:56 12.07.2022
1143 Clear 35 1012 23 10000 8.05 135 17:49 12.07.2022
1144 Clear 36 1012 19 10000 5.66 100 15:43 12.07.2022
1145 Clear 34 1014 22 10000 5.14 70 14:23 12.07.2022
1146 Clear 30 1014 35 10000 5.14 90 12:29 12.07.2022
1147 Clear 28 1014 46 10000 3.6 60 11:22 12.07.2022
1148 Clear 23 1011 60 10000 4.63 30 09:28 12.07.2022
1149 Clear 22 1010 64 10000 3.09 60 08:18 12.07.2022
1150 Clear 22 1009 62 10000 1.34 360 06:29 12.07.2022
1151 Clear 22 1009 65 10000 3.09 50 05:39 12.07.2022
1152 Clear 24 1009 56 10000 3.13 135 02:21 12.07.2022
1153 Clear 24 1009 45 10000 10.29 10 23:18 11.07.2022
1154 Clear 25 1009 38 10000 10.8 10 22:30 11.07.2022
1155 Clear 26 1008 35 10000 11.32 10 20:33 11.07.2022
1156 Clear 27 1008 36 10000 10.8 360 19:36 11.07.2022
1157 Clear 29 1009 38 10000 10.8 360 18:32 11.07.2022
1158 Clear 29 1009 37 10000 12.96 225 17:46 11.07.2022
1159 Clear 30 1009 35 10000 10.29 10 16:19 11.07.2022
1160 Clear 29 1011 41 10000 7.72 10 14:41 11.07.2022
1161 Clear 25 1011 44 10000 6.71 315 11:58 11.07.2022
1162 Clear 21 1014 57 10000 4.63 60 10:29 11.07.2022
1163 Clear 21 1012 57 10000 4.47 135 09:42 11.07.2022
1164 Clear 20 1011 61 10000 3.6 10 08:34 11.07.2022
1165 Clear 19 1013 66 10000 2.57 340 05:52 11.07.2022
1166 Clear 22 1013 50 10000 4.63 10 00:22 11.07.2022
1167 Clear 25 1012 34 10000 8.05 360 22:58 10.07.2022
1168 Clear 27 1014 29 10000 6.69 350 21:55 10.07.2022
1169 Clear 29 1012 24 10000 8.23 350 20:54 10.07.2022
1170 Clear 31 1013 23 10000 8.05 360 19:50 10.07.2022
1171 Clear 31 1013 23 10000 8.05 360 19:50 10.07.2022
1172 Clear 32 1012 19 10000 7.72 360 18:50 10.07.2022
1173 Clear 33 1013 21 10000 8.23 360 17:40 10.07.2022
1174 Clear 33 1013 22 10000 8.23 350 16:57 10.07.2022
1175 Clear 34 1013 19 10000 9.77 350 16:19 10.07.2022
1176 Clear 34 1013 24 10000 9.26 350 14:33 10.07.2022
1177 Clear 32 1014 26 10000 7.72 360 12:33 10.07.2022
1178 Clear 31 1016 31 10000 7.2 360 11:34 10.07.2022
1179 Clear 24 1016 46 10000 6.69 10 08:46 10.07.2022
1180 Clear 24 1016 44 10000 6.69 10 08:24 10.07.2022
1181 Clear 25 1016 34 10000 5.81 360 03:38 10.07.2022
1182 Clear 30 1018 26 10000 6.17 320 23:32 09.07.2022
1183 Clear 30 1015 22 10000 10.73 360 22:25 09.07.2022
1184 Clear 32 1015 23 10000 13.86 360 21:31 09.07.2022
1185 Clear 35 1015 25 10000 6.71 360 18:59 09.07.2022
1186 Clear 34 1016 28 10000 8.05 315 18:22 09.07.2022
1187 Clear 36 1016 23 10000 8.49 270 16:59 09.07.2022
1188 Clear 35 1017 23 10000 10.73 270 15:54 09.07.2022
1189 Clear 35 1017 24 10000 9.83 135 15:35 09.07.2022
1190 Clear 33 1017 32 10000 6.71 180 13:54 09.07.2022
1191 Clear 32 1017 35 10000 9.83 360 13:28 09.07.2022
1192 Clear 31 1019 34 10000 4.12 20 11:34 09.07.2022
1193 Clear 30 1017 36 10000 4.12 20 10:24 09.07.2022
1194 Clear 24 1018 44 10000 5.66 10 08:27 09.07.2022
1195 Clear 25 1016 36 10000 3.09 310 06:59 09.07.2022
1196 Clear 25 1018 44 10000 1.54 150 04:35 09.07.2022
1197 Clear 31 1018 23 10000 7.2 330 23:27 08.07.2022
1198 Clear 34 1018 25 10000 7.2 360 22:00 08.07.2022
1199 Clear 35 1018 25 10000 7.2 360 21:20 08.07.2022
1200 Clear 37 1017 23 10000 7.2 350 20:33 08.07.2022
1201 Clear 37 1016 16 10000 8.49 225 18:36 08.07.2022
1202 Clear 36 1017 21 10000 8.49 270 17:45 08.07.2022
1203 Clear 37 1017 21 10000 5.14 70 15:53 08.07.2022
1204 Clear 36 1018 19 10000 4.47 135 14:50 08.07.2022
1205 Clear 31 1019 29 10000 7.6 135 12:30 08.07.2022
1206 Clear 30 1020 32 10000 5.14 50 10:46 08.07.2022
1207 Clear 28 1020 31 10000 4.63 30 09:42 08.07.2022
1208 Clear 25 1020 42 10000 3.09 10 06:55 08.07.2022
1209 Clear 25 1019 40 10000 3.09 330 04:32 08.07.2022
1210 Clear 30 1020 31 10000 7.2 330 00:30 08.07.2022
1211 Clear 31 1019 35 10000 7.2 330 22:47 07.07.2022
1212 Clear 33 1019 34 10000 7.72 360 21:46 07.07.2022
1213 Clear 36 1017 30 10000 9.39 360 19:34 07.07.2022
1214 Clear 35 1018 32 10000 9.39 315 17:43 07.07.2022
1215 Clear 34 1020 37 10000 4.12 340 15:58 07.07.2022
1216 Clear 31 1019 41 10000 4.92 135 13:40 07.07.2022
1217 Clear 30 1019 44 10000 6.71 135 12:41 07.07.2022
1218 Clear 29 1021 45 10000 5.14 40 12:22 07.07.2022
1219 Clear 28 1021 43 10000 5.66 50 11:32 07.07.2022
1220 Clear 27 1021 47 10000 5.66 50 10:45 07.07.2022
1221 Clear 26 1020 50 10000 5.66 40 10:27 07.07.2022
1222 Clear 23 1019 61 10000 3.09 10 09:22 07.07.2022
1223 Clear 22 1017 63 10000 4.02 360 05:57 07.07.2022
1224 Clear 23 1015 54 10000 2.68 360 00:18 07.07.2022
1225 Clear 24 1015 55 10000 2.68 315 23:36 06.07.2022
1226 Clear 24 1017 56 10000 8.23 10 23:18 06.07.2022
1227 Clear 24 1018 57 10000 8.23 10 22:47 06.07.2022
1228 Clear 24 1018 57 10000 8.23 10 22:47 06.07.2022
1229 Clear 25 1018 54 10000 8.75 360 22:28 06.07.2022
1230 Clear 27 1017 51 10000 6.17 310 20:19 06.07.2022
1231 Clear 27 1017 52 10000 6.17 230 18:48 06.07.2022
1232 Clear 28 1018 54 10000 5.14 230 17:21 06.07.2022
1233 Clear 27 1020 60 10000 6.17 260 15:50 06.07.2022
1234 Clouds 24 1019 65 10000 5.36 315 12:44 06.07.2022
1235 Clouds 23 1019 66 10000 3.6 200 11:52 06.07.2022
1236 Clouds 22 1018 74 8000 3.09 30 10:49 06.07.2022
1237 Mist 18 1018 86 6000 3.6 360 09:21 06.07.2022
1238 Clouds 18 1017 86 8000 3.6 330 07:43 06.07.2022
1239 Clouds 17 1016 85 10000 3.6 310 06:43 06.07.2022
1240 Clouds 19 1017 80 10000 3.13 360 23:42 05.07.2022
1241 Clouds 20 1018 76 10000 5.66 310 22:42 05.07.2022
1242 Clouds 22 1015 66 10000 10.73 360 20:48 05.07.2022
1243 Clear 24 1015 58 10000 5.36 315 19:55 05.07.2022
1244 Clear 25 1017 58 10000 5.14 20 19:36 05.07.2022
1245 Clear 26 1015 53 10000 6.69 230 17:50 05.07.2022
1246 Clear 27 1015 53 10000 6.69 230 17:18 05.07.2022
1247 Clear 27 1016 55 10000 5.14 250 16:18 05.07.2022
1248 Clear 25 1016 59 10000 2.57 260 14:54 05.07.2022
1249 Clouds 23 1017 69 10000 4.47 315 12:59 05.07.2022
1250 Clouds 23 1017 71 10000 4.12 30 12:22 05.07.2022
1251 Clouds 19 1018 84 10000 2.06 320 10:45 05.07.2022
1252 Clouds 18 1016 85 8000 3.09 320 09:44 05.07.2022
1253 Mist 17 1016 88 5000 3.6 310 08:21 05.07.2022
1254 Clouds 18 1017 85 10000 3.6 320 06:48 05.07.2022
1255 Clouds 17 1015 84 10000 4.63 310 04:30 05.07.2022
1256 Clouds 18 1016 81 10000 4.63 310 01:25 05.07.2022
1257 Clouds 19 1015 80 10000 7.15 360 23:37 04.07.2022
1258 Clouds 19 1015 80 10000 7.2 310 22:55 04.07.2022
1259 Clouds 20 1015 74 10000 7.6 360 21:56 04.07.2022
1260 Clouds 22 1014 68 10000 5.36 225 20:56 04.07.2022
1261 Clouds 23 1014 65 10000 6.71 270 20:35 04.07.2022
1262 Clouds 24 1014 63 10000 7.15 315 19:56 04.07.2022
1263 Clouds 24 1014 61 10000 8.05 270 19:37 04.07.2022
1264 Clouds 24 1017 60 10000 5.66 240 18:35 04.07.2022
1265 Clouds 25 1016 61 10000 6.71 315 16:51 04.07.2022
1266 Clouds 24 1017 64 10000 4.92 225 15:35 04.07.2022
1267 Clouds 22 1017 67 10000 2.06 150 13:44 04.07.2022
1268 Clouds 21 1017 73 10000 2.57 80 12:42 04.07.2022
1269 Clouds 19 1017 78 10000 1.03 0 10:40 04.07.2022
1270 Clouds 19 1017 78 10000 2.24 360 10:22 04.07.2022
1271 Clouds 18 1017 81 10000 1.34 360 08:33 04.07.2022
1272 Clouds 18 1016 81 10000 1.54 290 05:57 04.07.2022
1273 Clouds 18 1018 80 10000 4.12 300 01:49 04.07.2022
1274 Clouds 19 1018 79 10000 3.6 300 23:39 03.07.2022
1275 Clouds 20 1016 75 10000 4.47 270 22:28 03.07.2022
1276 Clouds 22 1016 65 10000 7.6 315 20:45 03.07.2022
1277 Clouds 24 1015 60 10000 8.49 315 19:43 03.07.2022
1278 Clouds 24 1015 58 10000 7.2 230 19:24 03.07.2022
1279 Clouds 24 1015 61 10000 10.28 180 18:23 03.07.2022
1280 Clouds 25 1015 59 10000 6.17 220 17:31 03.07.2022
1281 Clouds 24 1016 60 10000 12.52 180 15:26 03.07.2022
1282 Clouds 24 1016 60 10000 4.92 157 14:49 03.07.2022
1283 Clouds 23 1017 66 10000 4.12 120 13:49 03.07.2022
1284 Clouds 22 1018 67 10000 4.12 120 12:42 03.07.2022
1285 Clouds 21 1018 71 10000 3.6 110 11:47 03.07.2022
1286 Clouds 20 1017 75 10000 4.12 40 10:51 03.07.2022
1287 Clouds 20 1017 76 10000 3.6 100 10:33 03.07.2022
1288 Clear 18 1016 81 10000 3.6 330 07:38 03.07.2022
1289 Clear 19 1016 73 10000 4.12 310 05:34 03.07.2022
1290 Clear 20 1016 67 10000 4.12 340 00:38 03.07.2022
1291 Clear 22 1016 64 10000 6.17 310 23:36 02.07.2022
1292 Clouds 22 1015 65 10000 6.17 10 22:31 02.07.2022
1293 Clear 26 1015 52 10000 6.69 20 20:26 02.07.2022
1294 Clear 26 1015 52 10000 7.72 10 19:49 02.07.2022
1295 Clear 28 1015 46 10000 5.14 260 18:24 02.07.2022
1296 Clear 28 1015 44 10000 5.66 260 17:38 02.07.2022
1297 Clear 27 1016 44 10000 4.12 220 15:56 02.07.2022
1298 Clouds 25 1017 52 10000 4.12 20 13:35 02.07.2022
1299 Clouds 23 1017 61 10000 4.63 10 11:49 02.07.2022
1300 Clouds 20 1016 67 10000 6.69 360 10:51 02.07.2022
1301 Clouds 19 1016 71 10000 7.2 360 10:21 02.07.2022
1302 Clouds 17 1016 79 10000 8.23 360 08:37 02.07.2022
1303 Clouds 17 1016 79 10000 8.23 360 08:19 02.07.2022
1304 Clouds 18 1015 76 10000 6.69 320 02:59 02.07.2022
1305 Clouds 18 1016 74 10000 7.72 320 00:28 02.07.2022
1306 Clouds 19 1015 71 10000 8.75 330 23:26 01.07.2022
1307 Clear 20 1015 65 10000 10.8 360 22:33 01.07.2022
1308 Clear 21 1014 57 10000 10.29 360 21:38 01.07.2022
1309 Clear 22 1014 52 10000 10.8 350 20:58 01.07.2022
1310 Clear 24 1014 48 10000 10.29 350 20:34 01.07.2022
1311 Clear 25 1015 43 10000 11.83 350 19:37 01.07.2022
1312 Clear 26 1015 44 10000 11.32 350 17:18 01.07.2022
1313 Clouds 25 1016 47 10000 9.77 340 14:34 01.07.2022
1314 Clouds 25 1016 49 10000 8.23 340 13:51 01.07.2022
1315 Clouds 21 1016 60 10000 9.77 360 11:22 01.07.2022
1316 Clouds 19 1017 70 10000 10.29 360 10:19 01.07.2022
1317 Clouds 16 1016 77 10000 5.66 330 07:38 01.07.2022
1318 Clouds 17 1017 71 10000 5.66 350 02:43 01.07.2022
1319 Clear 17 1017 71 10000 11.83 360 00:21 01.07.2022
1320 Clouds 18 1016 66 10000 12.35 340 22:52 30.06.2022
1321 Clouds 18 1016 65 10000 13.89 350 22:32 30.06.2022
1322 Clouds 19 1016 61 10000 11.32 360 21:54 30.06.2022
1323 Clear 20 1016 54 10000 12.86 350 20:58 30.06.2022
1324 Clear 21 1015 53 10000 12.35 340 20:22 30.06.2022
1325 Clear 21 1015 50 10000 14.92 340 19:51 30.06.2022
1326 Clear 21 1016 48 10000 14.92 340 19:18 30.06.2022
1327 Clear 22 1016 47 10000 15.43 340 18:34 30.06.2022
1328 Clear 23 1016 41 10000 12.86 340 17:37 30.06.2022
1329 Clear 22 1017 41 10000 10.29 340 16:28 30.06.2022
1330 Clear 22 1017 41 10000 9.26 340 14:31 30.06.2022
1331 Clouds 21 1018 44 10000 9.77 350 13:29 30.06.2022
1332 Clouds 21 1017 45 10000 9.77 340 12:34 30.06.2022
1333 Clouds 19 1018 49 10000 8.75 350 11:28 30.06.2022
1334 Clouds 17 1017 60 10000 11.32 350 09:53 30.06.2022
1335 Clouds 17 1017 63 10000 9.77 350 09:31 30.06.2022
1336 Clouds 16 1016 68 10000 7.72 340 07:41 30.06.2022
1337 Clouds 16 1016 69 10000 9.26 350 05:47 30.06.2022
1338 Clouds 17 1018 66 10000 6.69 350 00:31 30.06.2022
1339 Clouds 17 1018 65 10000 8.23 350 23:19 29.06.2022
1340 Clouds 18 1017 62 10000 7.72 350 22:38 29.06.2022
1341 Clouds 19 1017 59 10000 9.26 340 21:34 29.06.2022
1342 Clouds 20 1017 53 10000 8.75 340 20:33 29.06.2022
1343 Clouds 21 1017 49 10000 10.29 340 19:37 29.06.2022
1344 Clouds 22 1017 48 10000 10.29 330 17:43 29.06.2022
1345 Clouds 22 1018 46 10000 10.29 330 16:37 29.06.2022
1346 Clouds 22 1018 47 10000 8.75 330 14:56 29.06.2022
1347 Clouds 21 1019 65 10000 9.26 350 12:40 29.06.2022
1348 Clouds 19 1019 79 10000 6.69 340 10:56 29.06.2022
1349 Drizzle 19 1018 79 10000 4.12 330 09:32 29.06.2022
1350 Clouds 18 1018 76 10000 6.17 350 07:44 29.06.2022
1351 Clouds 18 1019 72 10000 5.66 330 04:54 29.06.2022
1352 Clouds 18 1021 75 10000 5.66 340 00:58 29.06.2022
1353 Clouds 18 1020 74 10000 6.69 330 00:36 29.06.2022
1354 Clouds 19 1020 68 10000 11.83 350 22:54 28.06.2022
1355 Clouds 19 1019 65 10000 11.83 350 22:30 28.06.2022
1356 Clouds 19 1019 63 10000 12.86 350 21:54 28.06.2022
1357 Clouds 20 1019 58 10000 12.35 350 21:32 28.06.2022
1358 Clouds 22 1019 48 10000 12.86 350 20:35 28.06.2022
1359 Clouds 23 1019 44 10000 11.32 350 19:34 28.06.2022
1360 Clouds 23 1019 48 10000 13.38 340 18:46 28.06.2022
1361 Clouds 24 1019 48 10000 11.83 350 17:40 28.06.2022
1362 Clear 24 1019 46 10000 9.26 350 15:59 28.06.2022
1363 Clear 24 1019 46 10000 8.23 340 15:38 28.06.2022
1364 Clear 24 1020 46 10000 9.26 340 14:21 28.06.2022
1365 Clear 23 1020 48 10000 8.23 340 13:52 28.06.2022
1366 Clear 22 1020 50 10000 9.26 340 12:57 28.06.2022
1367 Clear 20 1020 58 10000 9.77 350 11:18 28.06.2022
1368 Clouds 17 1020 70 10000 10.8 360 09:29 28.06.2022
1369 Clouds 17 1020 71 10000 10.8 360 08:43 28.06.2022
1370 Clear 16 1020 73 10000 5.14 330 07:42 28.06.2022
1371 Clear 16 1019 74 10000 6.17 320 06:56 28.06.2022
1372 Clouds 17 1021 67 10000 6.69 320 00:58 28.06.2022
1373 Clouds 17 1021 63 10000 6.17 330 23:37 27.06.2022
1374 Clouds 18 1020 61 10000 11.83 350 22:52 27.06.2022
1375 Clouds 19 1020 56 10000 12.86 350 21:38 27.06.2022
1376 Clouds 20 1020 52 10000 11.83 340 20:52 27.06.2022
1377 Clear 21 1020 43 10000 12.86 350 19:33 27.06.2022
1378 Clear 22 1020 40 10000 13.38 340 18:25 27.06.2022
1379 Clouds 22 1020 37 10000 9.26 340 16:27 27.06.2022
1380 Clouds 22 1021 36 10000 9.77 340 15:23 27.06.2022
1381 Clouds 21 1021 41 10000 9.77 340 13:37 27.06.2022
1382 Clouds 20 1021 44 10000 10.29 340 12:56 27.06.2022
1383 Clouds 18 1020 52 10000 9.77 360 10:35 27.06.2022
1384 Clouds 17 1019 62 10000 9.77 350 09:21 27.06.2022
1385 Clouds 16 1019 67 10000 6.69 340 08:30 27.06.2022
1386 Clouds 16 1018 66 10000 6.69 340 06:39 27.06.2022
1387 Clouds 16 1018 66 10000 5.66 320 03:58 27.06.2022
1388 Clouds 17 1019 63 10000 4.63 330 01:18 27.06.2022
1389 Clouds 18 1017 57 10000 6.69 340 22:22 26.06.2022
1390 Clouds 19 1016 50 10000 8.75 340 20:48 26.06.2022
1391 Clouds 21 1016 43 10000 7.72 330 19:44 26.06.2022
1392 Clear 21 1016 42 10000 7.2 320 18:32 26.06.2022
1393 Clear 21 1016 41 10000 8.75 340 17:22 26.06.2022
1394 Clouds 21 1016 42 10000 7.2 350 15:27 26.06.2022
1395 Clouds 20 1016 47 10000 7.2 320 13:55 26.06.2022
1396 Clouds 20 1016 45 10000 7.72 350 13:23 26.06.2022
1397 Clouds 19 1016 49 10000 7.2 330 11:27 26.06.2022
1398 Clouds 18 1016 56 10000 6.17 350 10:28 26.06.2022
1399 Clouds 17 1016 61 10000 4.12 340 09:39 26.06.2022
1400 Clouds 15 1016 68 10000 3.09 340 07:45 26.06.2022
1401 Clouds 16 1016 66 10000 3.6 340 03:19 26.06.2022
1402 Clouds 17 1017 62 10000 5.14 340 00:36 26.06.2022
1403 Clouds 17 1017 61 10000 4.12 340 00:18 26.06.2022
1404 Clouds 18 1016 59 10000 6.69 350 23:24 25.06.2022
1405 Clouds 18 1016 56 10000 7.72 350 22:28 25.06.2022
1406 Clouds 19 1016 54 10000 6.69 340 21:50 25.06.2022
1407 Clouds 19 1016 52 10000 6.69 340 21:20 25.06.2022
1408 Clouds 20 1015 50 10000 7.72 330 20:30 25.06.2022
1409 Clear 21 1015 44 10000 6.69 330 19:55 25.06.2022
1410 Clear 21 1015 44 10000 6.69 330 19:55 25.06.2022
1411 Clear 22 1014 38 10000 12.52 360 18:21 25.06.2022
1412 Clear 23 1014 37 10000 8.23 340 17:25 25.06.2022
1413 Clouds 23 1014 38 10000 16.09 360 16:24 25.06.2022
1414 Clouds 22 1015 45 10000 9.83 360 13:51 25.06.2022
1415 Clouds 21 1015 53 10000 7.15 112 12:39 25.06.2022
1416 Clouds 20 1015 58 10000 8.05 360 11:34 25.06.2022
1417 Clouds 18 1014 78 10000 4.47 315 09:22 25.06.2022
1418 Clouds 18 1014 80 10000 5.66 350 08:48 25.06.2022
1419 Clouds 18 1016 81 10000 5.66 350 08:19 25.06.2022
1420 Clouds 18 1013 81 10000 2.57 240 05:26 25.06.2022
1421 Clouds 19 1016 76 10000 7.6 315 00:44 25.06.2022
1422 Clouds 19 1016 77 10000 7.6 315 00:44 25.06.2022
1423 Clouds 19 1016 74 10000 3.6 290 23:32 24.06.2022
1424 Clouds 20 1015 67 10000 4.63 320 21:59 24.06.2022
1425 Clouds 20 1015 62 10000 7.15 270 21:21 24.06.2022
1426 Clouds 22 1015 56 10000 5.36 315 20:22 24.06.2022
1427 Clouds 22 1015 56 10000 5.36 315 19:23 24.06.2022
1428 Clouds 22 1016 57 10000 8.49 315 18:50 24.06.2022
1429 Clouds 22 1016 56 10000 5.81 292 18:30 24.06.2022
1430 Clouds 22 1016 58 10000 7.6 315 17:46 24.06.2022
1431 Clouds 23 1017 55 10000 7.15 270 16:32 24.06.2022
1432 Clouds 21 1018 60 10000 5.36 247 14:29 24.06.2022
1433 Clouds 22 1018 58 10000 5.36 315 13:55 24.06.2022
1434 Clouds 20 1018 66 10000 5.36 315 12:26 24.06.2022
1435 Clouds 20 1018 67 10000 4.12 280 11:40 24.06.2022
1436 Clouds 19 1018 70 10000 4.12 300 10:26 24.06.2022
1437 Clouds 18 1018 78 10000 2.68 270 09:41 24.06.2022
1438 Clouds 17 1017 79 10000 2.06 260 08:53 24.06.2022
1439 Clouds 17 1018 78 10000 0.51 0 07:33 24.06.2022
1440 Clouds 16 1016 79 10000 2.06 330 06:42 24.06.2022
1441 Clear 16 1016 79 10000 1.54 290 06:18 24.06.2022
1442 Clouds 17 1017 77 10000 1.79 315 02:44 24.06.2022
1443 Clouds 19 1017 70 10000 5.14 290 22:58 23.06.2022
1444 Clouds 19 1017 70 10000 5.14 290 22:40 23.06.2022
1445 Clouds 21 1015 60 10000 10.73 315 20:57 23.06.2022
1446 Clouds 21 1017 56 10000 4.63 310 20:32 23.06.2022
1447 Clouds 22 1017 55 10000 5.66 250 19:33 23.06.2022
1448 Clouds 23 1015 53 10000 8.05 315 17:52 23.06.2022
1449 Clouds 22 1015 59 10000 7.6 315 16:58 23.06.2022
1450 Clouds 22 1015 61 10000 5.14 230 15:50 23.06.2022
1451 Clouds 22 1017 61 10000 4.12 260 15:24 23.06.2022
1452 Clouds 21 1015 67 10000 5.81 247 13:33 23.06.2022
1453 Clouds 19 1014 73 10000 6.71 202 11:27 23.06.2022
1454 Clouds 18 1014 74 10000 2.06 220 10:35 23.06.2022
1455 Clouds 18 1013 79 10000 2.06 110 08:53 23.06.2022
1456 Clouds 17 1013 77 10000 2.24 270 03:35 23.06.2022
1457 Clouds 18 1014 77 10000 3.09 280 00:26 23.06.2022
1458 Clouds 18 1014 76 10000 4.63 260 23:30 22.06.2022
1459 Clouds 19 1014 72 10000 5.66 250 22:39 22.06.2022
1460 Clouds 20 1012 65 10000 6.71 315 21:22 22.06.2022
1461 Clouds 20 1012 65 10000 6.71 315 21:22 22.06.2022
1462 Clouds 21 1012 62 10000 6.17 250 20:42 22.06.2022
1463 Clouds 21 1012 62 10000 8.49 360 19:56 22.06.2022
1464 Clouds 21 1012 64 10000 7.6 225 18:47 22.06.2022
1465 Clouds 21 1012 64 10000 7.6 225 18:47 22.06.2022
1466 Clouds 22 1012 55 10000 5.81 270 17:28 22.06.2022
1467 Clouds 21 1013 59 10000 7.6 315 16:29 22.06.2022
1468 Clouds 22 1013 61 10000 10.28 360 15:26 22.06.2022
1469 Clouds 20 1013 66 10000 4.92 270 14:20 22.06.2022
1470 Clouds 20 1013 71 10000 3.6 300 13:39 22.06.2022
1471 Clouds 19 1013 72 10000 4.02 315 13:21 22.06.2022
1472 Clouds 18 1013 76 10000 5.81 315 11:49 22.06.2022
1473 Clouds 18 1012 78 10000 3.13 270 10:57 22.06.2022
1474 Clouds 18 1012 80 10000 4.02 270 10:19 22.06.2022
1475 Clouds 17 1012 82 10000 3.09 270 08:28 22.06.2022
1476 Clouds 17 1013 78 10000 4.12 250 04:50 22.06.2022
1477 Clouds 18 1013 77 10000 4.12 260 01:39 22.06.2022
1478 Clouds 18 1011 77 10000 5.36 270 00:29 22.06.2022
1479 Clouds 18 1012 77 10000 5.66 250 22:19 21.06.2022
1480 Clouds 20 1012 62 10000 9.39 315 19:57 21.06.2022
1481 Clouds 21 1012 56 10000 12.07 315 18:36 21.06.2022
1482 Clouds 21 1012 56 10000 7.15 270 17:39 21.06.2022
1483 Clouds 20 1013 62 10000 7.15 180 14:22 21.06.2022
1484 Clouds 19 1013 67 10000 4.63 340 11:52 21.06.2022
1485 Clouds 18 1013 68 10000 4.12 310 10:19 21.06.2022
1486 Clouds 17 1013 77 10000 2.06 270 08:48 21.06.2022
1487 Clouds 15 1012 84 10000 1.79 270 07:35 21.06.2022
1488 Clouds 16 1014 75 10000 2.57 320 02:27 21.06.2022
1489 Clouds 17 1015 69 10000 4.12 310 23:26 20.06.2022
1490 Clouds 19 1014 59 10000 5.36 360 21:58 20.06.2022
1491 Clouds 19 1014 57 10000 6.17 330 21:30 20.06.2022
1492 Clouds 21 1014 53 10000 7.15 315 19:49 20.06.2022
1493 Clouds 21 1014 50 10000 8.49 315 18:53 20.06.2022
1494 Clouds 21 1014 51 10000 9.83 270 18:24 20.06.2022
1495 Clouds 21 1014 50 10000 7.15 360 17:40 20.06.2022
1496 Clouds 21 1014 49 10000 6.17 320 16:20 20.06.2022
1497 Clouds 21 1015 51 10000 9.83 360 14:18 20.06.2022
1498 Clouds 19 1014 59 10000 9.39 360 11:30 20.06.2022
1499 Clouds 17 1014 66 10000 5.14 300 09:48 20.06.2022
1500 Clouds 16 1013 67 10000 4.02 360 08:45 20.06.2022
1501 Clouds 16 1012 67 10000 4.92 360 06:59 20.06.2022
1502 Clouds 17 1015 68 10000 6.17 350 03:29 20.06.2022
1503 Clouds 17 1012 69 10000 12.07 360 00:52 20.06.2022
1504 Clouds 18 1012 68 10000 8.49 360 23:29 19.06.2022
1505 Clouds 19 1012 68 10000 11.83 350 22:19 19.06.2022
1506 Clouds 19 1011 68 10000 13.86 360 21:42 19.06.2022
1507 Clouds 21 1011 64 10000 12.96 360 20:48 19.06.2022
1508 Clouds 22 1010 60 10000 7.72 340 19:49 19.06.2022
1509 Clouds 22 1011 58 10000 8.75 350 19:24 19.06.2022
1510 Clouds 23 1011 59 10000 8.05 270 18:31 19.06.2022
1511 Clouds 23 1010 59 10000 6.17 320 17:42 19.06.2022
1512 Clouds 23 1011 59 10000 8.49 270 16:47 19.06.2022
1513 Clouds 23 1011 59 10000 6.71 225 16:23 19.06.2022
1514 Clouds 22 1011 62 10000 6.69 270 15:29 19.06.2022
1515 Clouds 23 1011 60 10000 7.15 360 14:41 19.06.2022
1516 Clouds 23 1011 61 10000 7.6 292 13:52 19.06.2022
1517 Clouds 21 1013 62 10000 3.09 230 12:22 19.06.2022
1518 Clouds 20 1011 71 10000 4.63 250 10:53 19.06.2022
1519 Clouds 18 1011 82 10000 4.02 270 09:21 19.06.2022
1520 Clouds 18 1010 85 10000 3.6 230 08:32 19.06.2022
1521 Clouds 18 1010 84 10000 4.92 225 07:26 19.06.2022
1522 Clouds 18 1010 84 10000 4.92 225 07:26 19.06.2022
1523 Clouds 19 1010 82 10000 3.6 250 04:27 19.06.2022
1524 Clouds 19 1011 82 7000 4.12 210 01:28 19.06.2022
1525 Clouds 20 1011 78 10000 9.39 315 00:23 19.06.2022
1526 Clouds 20 1013 76 10000 5.14 220 23:35 18.06.2022
1527 Clouds 20 1011 78 10000 10.73 180 22:33 18.06.2022
1528 Clouds 21 1011 69 10000 10.73 180 20:54 18.06.2022
1529 Clouds 21 1012 66 10000 9.39 225 20:24 18.06.2022
1530 Clouds 21 1012 68 10000 12.96 225 19:21 18.06.2022
1531 Clouds 21 1011 67 10000 10.73 180 18:42 18.06.2022
1532 Clouds 22 1012 63 10000 12.07 225 17:30 18.06.2022
1533 Clouds 23 1015 59 10000 6.69 210 16:20 18.06.2022
1534 Clouds 23 1015 61 10000 6.69 220 15:18 18.06.2022
1535 Clouds 23 1016 60 10000 6.17 230 14:41 18.06.2022
1536 Clouds 22 1016 66 10000 4.63 260 12:46 18.06.2022
1537 Clouds 21 1017 69 10000 4.63 210 11:31 18.06.2022
1538 Clouds 21 1017 70 10000 2.57 210 10:25 18.06.2022
1539 Clouds 19 1016 78 10000 1.54 290 09:19 18.06.2022
1540 Clouds 17 1016 82 10000 1.03 170 08:18 18.06.2022
1541 Clouds 17 1017 83 10000 2.57 270 06:26 18.06.2022
1542 Clouds 19 1017 77 10000 2.57 290 02:54 18.06.2022
1543 Clouds 19 1017 74 10000 5.14 290 01:24 18.06.2022
1544 Clouds 19 1017 72 10000 4.12 330 00:41 18.06.2022
1545 Clear 20 1017 69 10000 3.6 300 23:45 17.06.2022
1546 Clear 20 1016 68 10000 4.63 350 22:55 17.06.2022
1547 Clouds 23 1016 58 10000 6.17 310 20:40 17.06.2022
1548 Clouds 23 1017 58 10000 5.14 310 19:29 17.06.2022
1549 Clouds 25 1017 52 10000 5.66 250 18:25 17.06.2022
1550 Clouds 24 1017 54 10000 5.66 270 17:34 17.06.2022
1551 Clouds 24 1018 52 10000 5.66 270 16:38 17.06.2022
1552 Clouds 24 1018 56 10000 4.12 270 15:42 17.06.2022
1553 Clouds 24 1018 55 10000 4.63 270 14:50 17.06.2022
1554 Clouds 24 1018 58 10000 4.63 270 14:19 17.06.2022
1555 Clouds 24 1018 60 10000 5.66 250 13:44 17.06.2022
1556 Clouds 22 1018 65 10000 4.12 290 12:45 17.06.2022
1557 Clouds 22 1018 65 10000 3.09 210 11:56 17.06.2022
1558 Clouds 21 1018 69 10000 3.09 0 11:35 17.06.2022
1559 Clouds 20 1018 73 10000 3.09 210 10:48 17.06.2022
1560 Clear 18 1017 82 10000 1.03 0 08:29 17.06.2022
1561 Clear 18 1017 80 10000 1.03 200 06:58 17.06.2022
1562 Clear 18 1018 78 10000 2.57 300 05:35 17.06.2022
1563 Clear 19 1018 75 10000 2.06 290 02:42 17.06.2022
1564 Clear 20 1018 67 10000 2.06 310 00:36 17.06.2022
1565 Clouds 21 1016 61 10000 4.63 240 22:44 16.06.2022
1566 Clouds 22 1016 52 10000 4.63 230 21:36 16.06.2022
1567 Clouds 22 1016 52 10000 4.63 230 21:18 16.06.2022
1568 Rain 22 1016 53 10000 6.17 270 20:36 16.06.2022
1569 Rain 23 1016 53 10000 6.17 240 19:55 16.06.2022
1570 Rain 24 1017 55 10000 5.66 220 18:28 16.06.2022
1571 Clouds 24 1017 52 10000 2.06 0 17:43 16.06.2022
1572 Rain 24 1017 51 10000 4.12 100 16:40 16.06.2022
1573 Clouds 22 1018 65 10000 5.14 80 15:24 16.06.2022
1574 Clouds 22 1018 66 10000 3.6 70 14:46 16.06.2022
1575 Rain 21 1018 71 10000 2.06 0 13:34 16.06.2022
1576 Clouds 21 1018 70 10000 3.09 90 12:37 16.06.2022
1577 Rain 20 1018 75 10000 2.06 150 11:53 16.06.2022
1578 Clouds 20 1018 75 10000 1.54 130 11:18 16.06.2022
1579 Clouds 18 1018 81 10000 1.03 0 10:32 16.06.2022
1580 Rain 18 1017 85 10000 1.03 0 09:22 16.06.2022
1581 Clouds 17 1017 88 10000 1.54 60 08:36 16.06.2022
1582 Clouds 17 1017 86 10000 2.06 190 07:28 16.06.2022
1583 Clouds 17 1016 83 10000 2.06 190 05:29 16.06.2022
1584 Clouds 18 1016 78 10000 2.06 230 02:52 16.06.2022
1585 Clouds 18 1016 79 10000 3.09 250 01:51 16.06.2022
1586 Clouds 18 1016 79 10000 3.09 250 01:51 16.06.2022
1587 Clouds 18 1016 79 10000 2.06 270 01:21 16.06.2022
1588 Clouds 18 1017 77 10000 3.6 240 01:21 16.06.2022
1589 Clouds 19 1016 78 10000 4.12 250 23:47 15.06.2022
1590 Clouds 19 1015 78 10000 6.17 260 22:44 15.06.2022
1591 Clouds 20 1014 76 10000 7.72 250 21:23 15.06.2022
1592 Clouds 22 1013 72 10000 5.66 280 20:56 15.06.2022
1593 Clouds 22 1013 70 10000 4.12 210 20:35 15.06.2022
1594 Rain 22 1012 74 10000 4.12 20 19:30 15.06.2022
1595 Thunderstorm 26 1013 57 10000 6.69 240 17:58 15.06.2022
1596 Thunderstorm 27 1012 55 10000 3.6 30 17:33 15.06.2022
1597 Clouds 25 1015 57 10000 7.72 250 15:51 15.06.2022
1598 Clouds 25 1014 61 10000 5.66 250 14:30 15.06.2022
1599 Clouds 24 1014 66 10000 5.66 230 12:57 15.06.2022
1600 Clouds 23 1013 66 10000 2.06 0 12:32 15.06.2022
1601 Clouds 21 1014 74 10000 2.57 60 10:28 15.06.2022
1602 Clouds 20 1014 76 10000 3.09 10 09:53 15.06.2022
1603 Clouds 19 1014 83 10000 1.54 70 08:57 15.06.2022
1604 Clouds 19 1014 80 10000 1.03 0 07:21 15.06.2022
1605 Rain 19 1015 82 10000 4.12 230 04:51 15.06.2022
1606 Clear 19 1013 76 10000 3.6 160 02:28 15.06.2022
1607 Clear 21 1013 71 10000 1.03 0 01:33 15.06.2022
1608 Clear 20 1014 72 10000 3.6 220 23:55 14.06.2022
1609 Clear 20 1014 72 10000 3.6 220 23:37 14.06.2022
1610 Clear 23 1013 63 10000 4.63 240 22:33 14.06.2022
1611 Clear 25 1013 58 10000 6.69 240 21:42 14.06.2022
1612 Clear 26 1013 55 10000 4.63 230 20:57 14.06.2022
1613 Clear 26 1013 52 10000 4.63 230 20:34 14.06.2022
1614 Clear 26 1013 51 10000 5.66 240 19:32 14.06.2022
1615 Clear 27 1013 54 10000 5.66 250 18:32 14.06.2022
1616 Clear 26 1014 57 10000 5.14 260 16:50 14.06.2022
1617 Clear 25 1014 63 10000 5.66 260 15:52 14.06.2022
1618 Clear 26 1014 56 10000 5.66 260 15:34 14.06.2022
1619 Clear 26 1014 56 10000 5.66 260 15:34 14.06.2022
1620 Clear 25 1014 61 10000 4.12 280 14:53 14.06.2022
1621 Clouds 23 1015 66 10000 3.6 280 13:53 14.06.2022
1622 Clouds 22 1015 70 10000 3.6 260 12:56 14.06.2022
1623 Clouds 20 1015 79 10000 3.09 230 11:52 14.06.2022
1624 Clouds 20 1015 80 10000 3.09 230 10:50 14.06.2022
1625 Clouds 19 1014 82 10000 2.06 210 10:25 14.06.2022
1626 Drizzle 18 1014 87 10000 3.6 220 08:52 14.06.2022
1627 Drizzle 18 1014 87 10000 3.6 190 08:23 14.06.2022
1628 Clouds 18 1013 88 10000 3.09 180 06:19 14.06.2022
1629 Clouds 18 1013 86 9000 3.6 250 03:39 14.06.2022
1630 Clouds 19 1014 83 10000 3.6 210 01:36 14.06.2022
1631 Clouds 20 1014 82 10000 4.12 200 23:53 13.06.2022
1632 Clear 22 1013 71 10000 3.6 200 22:27 13.06.2022
1633 Clear 24 1013 68 10000 3.6 230 21:59 13.06.2022
1634 Clear 24 1013 66 10000 6.17 240 21:24 13.06.2022
1635 Clear 27 1012 60 10000 5.14 230 19:48 13.06.2022
1636 Clear 28 1013 57 10000 6.17 230 18:52 13.06.2022
1637 Clear 28 1013 56 10000 6.17 250 17:52 13.06.2022
1638 Clear 29 1013 53 10000 6.17 250 17:23 13.06.2022
1639 Clear 29 1013 51 10000 6.69 260 16:30 13.06.2022
1640 Clear 29 1014 48 10000 4.63 210 14:48 13.06.2022
1641 Clear 29 1014 48 10000 4.63 190 14:23 13.06.2022
1642 Clear 28 1014 49 10000 3.09 280 13:28 13.06.2022
1643 Clear 27 1015 55 10000 4.12 160 12:22 13.06.2022
1644 Clear 23 1014 65 10000 3.6 60 10:36 13.06.2022
1645 Clear 21 1014 73 10000 3.6 30 09:43 13.06.2022
1646 Clear 19 1014 81 10000 4.12 30 08:34 13.06.2022
1647 Clear 19 1014 77 10000 2.06 10 06:36 13.06.2022
1648 Clear 20 1014 71 10000 4.12 310 04:43 13.06.2022
1649 Clear 22 1015 65 10000 3.6 310 01:45 13.06.2022
1650 Clear 22 1015 65 10000 3.6 310 01:18 13.06.2022
1651 Clear 23 1015 63 10000 4.63 310 23:43 12.06.2022
1652 Clear 24 1014 63 10000 8.75 10 22:36 12.06.2022
1653 Clear 26 1014 60 10000 7.72 10 21:46 12.06.2022
1654 Clear 28 1014 55 10000 7.72 10 20:53 12.06.2022
1655 Clear 29 1014 52 10000 6.17 300 19:58 12.06.2022
1656 Clear 30 1014 51 10000 6.17 310 19:25 12.06.2022
1657 Clear 33 1014 39 10000 4.63 20 17:36 12.06.2022
1658 Clear 32 1015 48 10000 6.17 360 15:52 12.06.2022
1659 Clear 30 1016 47 10000 4.12 30 14:50 12.06.2022
1660 Clear 30 1016 50 10000 4.12 20 14:18 12.06.2022
1661 Clear 28 1016 56 10000 4.63 10 13:45 12.06.2022
1662 Clear 26 1016 62 10000 5.14 20 12:31 12.06.2022
1663 Clear 25 1016 66 10000 5.66 10 11:19 12.06.2022
1664 Clouds 23 1016 71 10000 5.66 20 10:20 12.06.2022
1665 Clouds 20 1016 81 10000 5.14 20 08:51 12.06.2022
1666 Clouds 20 1016 82 10000 4.12 20 08:30 12.06.2022
1667 Clear 19 1015 81 10000 4.12 330 06:49 12.06.2022
1668 Clear 19 1015 81 10000 4.12 330 06:49 12.06.2022
1669 Clear 20 1015 80 10000 5.66 310 04:26 12.06.2022
1670 Clear 20 1016 74 10000 4.63 310 02:32 12.06.2022
1671 Clear 21 1014 72 10000 5.14 330 01:36 12.06.2022
1672 Clear 21 1014 69 10000 5.14 310 00:57 12.06.2022
1673 Clear 21 1014 68 10000 7.15 315 00:19 12.06.2022
1674 Clear 21 1013 70 10000 7.15 315 00:19 12.06.2022
1675 Clouds 22 1013 65 10000 7.15 315 23:21 11.06.2022
1676 Clouds 23 1013 61 10000 8.75 360 22:37 11.06.2022
1677 Clouds 24 1012 59 10000 10.28 360 21:36 11.06.2022
1678 Clear 27 1013 54 10000 9.39 360 20:27 11.06.2022
1679 Clear 29 1015 53 10000 8.23 10 19:37 11.06.2022
1680 Clear 29 1013 51 10000 7.72 20 18:50 11.06.2022
1681 Clear 29 1013 54 10000 7.2 20 18:31 11.06.2022
1682 Clear 30 1013 50 10000 8.23 10 17:49 11.06.2022
1683 Clear 30 1013 50 10000 8.23 10 17:26 11.06.2022
1684 Clear 31 1014 49 10000 9.39 270 16:44 11.06.2022
1685 Clear 31 1014 49 10000 7.2 10 16:25 11.06.2022
1686 Clear 30 1014 49 10000 7.2 10 15:18 11.06.2022
1687 Clear 28 1015 52 10000 8.23 360 13:52 11.06.2022
1688 Clear 26 1015 56 10000 10.73 360 12:25 11.06.2022
1689 Clear 23 1016 67 10000 5.14 20 10:40 11.06.2022
1690 Clear 21 1015 73 10000 5.66 330 09:43 11.06.2022
1691 Clouds 20 1014 76 10000 10.8 10 08:46 11.06.2022
1692 Clear 20 1013 78 10000 9.39 360 06:47 11.06.2022
1693 Clear 20 1013 77 10000 7.6 360 05:58 11.06.2022
1694 Clear 20 1014 77 10000 7.15 360 03:46 11.06.2022
1695 Clear 21 1014 67 10000 8.49 360 01:52 11.06.2022
1696 Clear 22 1015 64 10000 12.96 360 01:26 11.06.2022
1697 Clouds 22 1015 61 10000 12.07 360 23:29 10.06.2022
1698 Clouds 23 1014 60 10000 12.52 360 22:29 10.06.2022
1699 Clear 23 1014 58 10000 14.31 337 21:47 10.06.2022
1700 Clear 25 1016 55 10000 11.32 360 20:39 10.06.2022
1701 Clear 26 1014 53 10000 12.07 360 20:21 10.06.2022
1702 Clear 27 1014 53 10000 10.8 360 19:19 10.06.2022
1703 Clear 28 1014 52 10000 8.75 350 19:19 10.06.2022
1704 Clear 28 1014 52 10000 17.43 360 18:46 10.06.2022
1705 Clear 29 1015 51 10000 9.83 337 17:54 10.06.2022
1706 Clear 29 1015 52 10000 8.75 350 17:23 10.06.2022
1707 Clear 29 1015 52 10000 9.39 135 16:36 10.06.2022
1708 Clear 29 1015 53 10000 9.26 10 15:40 10.06.2022
1709 Clear 30 1015 49 10000 9.39 360 14:29 10.06.2022
1710 Clear 29 1015 52 10000 8.75 350 13:19 10.06.2022
1711 Clear 26 1016 59 10000 6.17 360 11:59 10.06.2022
1712 Clear 23 1017 67 10000 6.69 360 10:51 10.06.2022
1713 Clear 23 1017 68 10000 5.14 330 10:24 10.06.2022
1714 Clear 21 1015 76 10000 10.8 10 08:58 10.06.2022
1715 Clear 20 1014 80 10000 9.83 360 07:50 10.06.2022
1716 Clear 20 1014 79 10000 12.07 292 06:47 10.06.2022
1717 Clear 19 1014 80 10000 7.2 320 06:28 10.06.2022
1718 Clear 19 1014 77 10000 10.73 360 04:53 10.06.2022
1719 Clear 21 1015 70 10000 4.12 340 02:31 10.06.2022
1720 Clear 21 1015 68 10000 8.49 360 01:36 10.06.2022
1721 Clear 21 1015 68 10000 8.49 360 01:36 10.06.2022
1722 Clear 21 1015 64 10000 14.31 292 23:58 09.06.2022
1723 Clouds 22 1015 56 10000 16.54 360 22:30 09.06.2022
1724 Clouds 23 1015 54 10000 9.77 360 21:43 09.06.2022
1725 Clouds 23 1015 57 10000 10.8 360 21:24 09.06.2022
1726 Clouds 24 1015 58 10000 12.86 350 20:38 09.06.2022
1727 Clouds 24 1014 59 10000 12.35 350 19:43 09.06.2022
1728 Clouds 26 1015 57 10000 11.83 350 18:37 09.06.2022
1729 Clouds 27 1016 55 10000 11.32 350 17:31 09.06.2022
1730 Clouds 28 1016 53 10000 12.86 350 16:28 09.06.2022
1731 Clouds 26 1017 54 10000 11.62 360 14:52 09.06.2022
1732 Clouds 26 1017 55 10000 8.49 315 14:27 09.06.2022
1733 Clouds 25 1018 57 10000 11.62 360 13:30 09.06.2022
1734 Clouds 25 1018 57 10000 11.62 360 13:30 09.06.2022
1735 Clouds 25 1018 62 10000 8.75 350 12:55 09.06.2022
1736 Clouds 22 1018 68 10000 9.26 350 11:35 09.06.2022
1737 Drizzle 20 1018 77 10000 12.96 360 09:55 09.06.2022
1738 Clouds 20 1018 77 10000 12.96 360 09:55 09.06.2022
1739 Drizzle 20 1018 78 10000 14.31 360 09:37 09.06.2022
1740 Clouds 19 1018 80 10000 11.62 225 08:38 09.06.2022
1741 Clouds 19 1017 79 10000 7.15 360 07:29 09.06.2022
1742 Clouds 20 1018 80 10000 7.15 360 04:30 09.06.2022
1743 Clouds 20 1020 81 10000 8.05 315 00:35 09.06.2022
1744 Clouds 20 1019 80 10000 7.15 360 23:18 08.06.2022
1745 Clouds 20 1020 82 10000 12.07 360 22:43 08.06.2022
1746 Clouds 20 1020 81 10000 12.52 360 22:23 08.06.2022
1747 Clouds 21 1019 72 10000 9.83 360 21:33 08.06.2022
1748 Clouds 23 1021 63 10000 8.23 350 20:25 08.06.2022
1749 Clouds 24 1020 60 10000 7.2 350 19:42 08.06.2022
1750 Clouds 25 1019 58 10000 8.05 315 18:48 08.06.2022
1751 Clouds 25 1019 57 10000 5.14 350 17:46 08.06.2022
1752 Clouds 25 1020 57 10000 5.14 350 15:56 08.06.2022
1753 Clouds 25 1020 63 10000 6.17 340 14:44 08.06.2022
1754 Clouds 24 1020 67 10000 5.36 315 12:55 08.06.2022
1755 Clouds 24 1020 67 10000 5.36 315 12:55 08.06.2022
1756 Clouds 24 1020 68 10000 4.47 315 12:55 08.06.2022
1757 Clouds 24 1020 67 10000 5.36 315 12:55 08.06.2022
1758 Clouds 22 1022 73 10000 5.14 350 11:41 08.06.2022
1759 Clouds 21 1020 75 10000 5.14 350 11:19 08.06.2022
1760 Drizzle 20 1020 85 6000 3.09 320 09:30 08.06.2022
1761 Drizzle 19 1019 84 6000 3.09 330 08:55 08.06.2022
1762 Clouds 19 1018 83 10000 5.36 360 07:21 08.06.2022
1763 Clouds 19 1018 84 10000 3.6 320 04:49 08.06.2022
1764 Clouds 19 1021 73 10000 4.12 300 01:27 08.06.2022
1765 Clouds 19 1019 69 10000 7.15 360 23:33 07.06.2022
1766 Clouds 20 1019 65 10000 7.15 360 22:58 07.06.2022
1767 Clouds 20 1019 62 10000 7.15 360 22:37 07.06.2022
1768 Clouds 21 1018 60 10000 5.66 300 21:41 07.06.2022
1769 Clouds 22 1018 57 10000 7.15 360 21:23 07.06.2022
1770 Clouds 23 1020 52 10000 8.23 340 20:42 07.06.2022
1771 Clouds 23 1020 47 10000 8.75 330 19:58 07.06.2022
1772 Clouds 25 1018 41 10000 7.2 310 18:38 07.06.2022
1773 Clouds 25 1018 42 10000 10.8 340 17:36 07.06.2022
1774 Clouds 25 1019 44 10000 14.31 360 16:49 07.06.2022
1775 Clouds 26 1019 45 10000 12.07 180 16:31 07.06.2022
1776 Clouds 25 1019 46 10000 10.73 270 15:38 07.06.2022
1777 Clouds 25 1019 46 10000 12.52 360 15:19 07.06.2022
1778 Clouds 25 1019 49 10000 12.52 292 14:44 07.06.2022
1779 Clouds 25 1020 50 10000 12.52 360 13:42 07.06.2022
1780 Clouds 25 1020 50 10000 12.52 360 13:42 07.06.2022
1781 Clouds 24 1020 51 10000 8.05 360 13:23 07.06.2022
1782 Clouds 23 1021 57 10000 4.63 350 11:56 07.06.2022
1783 Clouds 23 1021 57 10000 4.63 350 11:56 07.06.2022
1784 Clouds 22 1020 62 10000 4.12 330 10:57 07.06.2022
1785 Clouds 19 1019 73 10000 4.12 360 09:28 07.06.2022
1786 Clouds 19 1020 77 10000 4.63 350 08:28 07.06.2022
1787 Clouds 18 1019 80 10000 8.05 360 07:19 07.06.2022
1788 Clouds 19 1019 81 10000 8.49 315 05:19 07.06.2022
1789 Clouds 19 1020 82 10000 8.49 360 01:43 07.06.2022
1790 Clouds 20 1022 82 10000 5.66 330 23:59 06.06.2022
1791 Clouds 20 1022 81 10000 5.14 350 22:59 06.06.2022
1792 Clouds 20 1022 80 10000 4.63 320 22:30 06.06.2022
1793 Clouds 21 1019 72 10000 7.6 315 21:28 06.06.2022
1794 Clear 24 1021 59 10000 5.66 350 19:37 06.06.2022
1795 Clear 25 1019 56 10000 5.66 350 19:19 06.06.2022
1796 Clear 25 1019 54 10000 6.17 330 18:34 06.06.2022
1797 Clouds 25 1020 49 10000 6.17 340 17:31 06.06.2022
1798 Clouds 26 1020 50 10000 7.15 315 16:21 06.06.2022
1799 Clouds 26 1020 49 10000 7.2 340 15:33 06.06.2022
1800 Clear 26 1020 51 10000 5.14 360 14:36 06.06.2022
1801 Clear 24 1020 54 10000 5.66 350 13:27 06.06.2022
1802 Clouds 22 1020 58 10000 4.92 225 12:37 06.06.2022
1803 Clouds 22 1021 63 10000 10.73 360 11:54 06.06.2022
1804 Clouds 21 1021 63 10000 3.13 270 11:28 06.06.2022
1805 Clouds 17 1020 79 10000 3.13 337 09:40 06.06.2022
1806 Clouds 16 1020 81 10000 2.68 360 08:35 06.06.2022
1807 Clouds 16 1019 83 10000 2.57 320 07:28 06.06.2022
1808 Clouds 16 1019 81 10000 2.68 292 05:29 06.06.2022
1809 Clouds 16 1019 81 10000 2.68 292 05:29 06.06.2022
1810 Clouds 16 1019 81 10000 2.68 292 05:29 06.06.2022
1811 Clouds 16 1020 78 10000 4.02 360 03:44 06.06.2022
1812 Clouds 17 1023 75 10000 3.09 330 01:29 06.06.2022
1813 Clouds 17 1021 76 10000 4.92 360 00:42 06.06.2022
1814 Clouds 18 1022 73 10000 4.63 330 23:49 05.06.2022
1815 Clouds 18 1020 72 10000 7.2 350 22:52 05.06.2022
1816 Clear 20 1020 57 10000 10.28 360 20:59 05.06.2022
1817 Clear 22 1019 50 10000 9.83 360 19:52 05.06.2022
1818 Clear 23 1019 47 10000 9.26 350 18:31 05.06.2022
1819 Clear 23 1019 47 10000 9.26 350 18:31 05.06.2022
1820 Clear 24 1020 46 10000 10.28 360 17:55 05.06.2022
1821 Clouds 25 1020 46 10000 9.39 180 17:27 05.06.2022
1822 Clouds 25 1020 46 10000 9.39 180 17:27 05.06.2022
1823 Clouds 24 1020 47 10000 7.2 350 16:57 05.06.2022
1824 Clouds 25 1020 46 10000 9.39 360 16:37 05.06.2022
1825 Clouds 24 1020 47 10000 7.15 315 16:37 05.06.2022
1826 Clouds 25 1020 46 10000 9.39 360 16:37 05.06.2022
1827 Clouds 24 1021 51 10000 5.81 360 14:46 05.06.2022
1828 Clouds 22 1022 56 10000 4.63 350 12:59 05.06.2022
1829 Clouds 21 1022 61 10000 5.14 350 11:51 05.06.2022
1830 Clouds 20 1021 68 10000 5.66 360 10:43 05.06.2022
1831 Clouds 19 1021 69 10000 8.05 360 10:23 05.06.2022
1832 Clouds 17 1020 81 10000 4.63 360 08:41 05.06.2022
1833 Clouds 17 1020 81 10000 4.63 360 08:20 05.06.2022
1834 Clouds 17 1019 84 10000 4.47 360 05:23 05.06.2022
1835 Clouds 17 1019 82 10000 5.36 360 04:30 05.06.2022
1836 Clouds 18 1019 81 10000 4.12 340 01:45 05.06.2022
1837 Clouds 18 1019 81 10000 4.12 340 01:45 05.06.2022
1838 Clouds 18 1019 81 10000 6.71 360 01:45 05.06.2022
1839 Clouds 18 1019 81 10000 4.12 340 01:45 05.06.2022
1840 Clouds 18 1019 81 10000 4.12 340 01:45 05.06.2022
1841 Clouds 18 1019 81 10000 4.12 340 01:45 05.06.2022
1842 Clouds 18 1019 81 10000 4.92 360 01:23 05.06.2022
1843 Clouds 18 1019 81 10000 4.92 360 01:23 05.06.2022
1844 Clouds 19 1017 77 10000 4.92 360 22:44 04.06.2022
1845 Clouds 21 1018 69 10000 5.14 340 21:21 04.06.2022
1846 Clouds 22 1015 65 10000 12.07 180 18:54 04.06.2022
1847 Clouds 21 1014 66 10000 12.96 315 16:48 04.06.2022
1848 Clouds 21 1014 65 10000 9.39 270 16:19 04.06.2022
1849 Clouds 22 1014 63 10000 6.69 220 15:27 04.06.2022
1850 Clouds 21 1014 71 10000 14.31 315 13:54 04.06.2022
1851 Clouds 18 1013 84 10000 6.71 180 11:23 04.06.2022
1852 Rain 18 1013 87 10000 6.71 180 10:52 04.06.2022
1853 Drizzle 17 1013 87 8000 8.49 135 09:46 04.06.2022
1854 Rain 17 1015 84 10000 4.12 190 08:44 04.06.2022
1855 Clouds 17 1011 85 10000 4.02 180 07:59 04.06.2022
1856 Clouds 17 1011 83 10000 5.81 225 06:20 04.06.2022
1857 Clouds 18 1014 81 10000 4.12 220 02:57 04.06.2022
1858 Clouds 18 1012 82 10000 11.62 315 00:20 04.06.2022
1859 Clouds 18 1012 83 10000 7.6 180 22:49 03.06.2022
1860 Clouds 19 1012 75 10000 9.83 315 21:46 03.06.2022
1861 Clouds 19 1011 75 10000 15.2 180 20:40 03.06.2022
1862 Clouds 20 1014 72 10000 6.69 220 19:19 03.06.2022
1863 Clouds 20 1012 72 10000 15.2 315 16:54 03.06.2022
1864 Clouds 21 1012 71 10000 21.46 180 15:51 03.06.2022
1865 Clouds 20 1014 71 10000 9.26 200 13:51 03.06.2022
1866 Clouds 20 1011 73 10000 21.9 225 11:54 03.06.2022
1867 Mist 18 1011 82 4500 12.96 180 09:56 03.06.2022
1868 Clouds 18 1011 81 10000 16.54 180 09:29 03.06.2022
1869 Clouds 17 1010 81 10000 8.05 180 07:43 03.06.2022
1870 Clouds 17 1009 82 10000 4.92 202 06:46 03.06.2022
1871 Clouds 17 1009 86 10000 8.05 180 06:27 03.06.2022
1872 Clouds 18 1010 82 10000 12.07 180 02:58 03.06.2022
1873 Clouds 19 1014 80 10000 4.63 220 23:39 02.06.2022
1874 Clouds 19 1011 77 10000 12.96 225 21:58 02.06.2022
1875 Clouds 20 1011 72 10000 14.31 225 20:34 02.06.2022
1876 Clouds 21 1010 70 10000 13.86 247 19:55 02.06.2022
1877 Clouds 20 1010 71 10000 10.73 135 19:37 02.06.2022
1878 Clouds 21 1011 69 10000 10.73 180 18:39 02.06.2022
1879 Clouds 21 1012 68 10000 18.78 225 16:28 02.06.2022
1880 Clouds 20 1012 73 10000 9.83 225 15:46 02.06.2022
1881 Clouds 21 1012 66 10000 9.83 315 13:30 02.06.2022
1882 Clouds 21 1012 64 10000 16.09 225 12:46 02.06.2022
1883 Clouds 19 1011 75 10000 11.62 315 10:34 02.06.2022
1884 Clouds 18 1011 83 10000 6.71 180 09:29 02.06.2022
1885 Clouds 18 1011 87 10000 8.05 360 08:39 02.06.2022
1886 Clouds 17 1009 87 10000 7.6 180 08:19 02.06.2022
1887 Clouds 18 1009 83 10000 8.49 180 06:20 02.06.2022
1888 Clouds 18 1013 83 10000 6.17 200 03:49 02.06.2022
1889 Clouds 19 1011 86 10000 13.86 180 00:47 02.06.2022
1890 Clouds 19 1011 84 10000 16.99 180 22:57 01.06.2022
1891 Clouds 19 1011 84 10000 16.99 180 22:57 01.06.2022
1892 Clouds 19 1011 78 10000 11.62 135 21:59 01.06.2022
1893 Clouds 20 1011 76 10000 9.39 270 21:24 01.06.2022
1894 Clouds 20 1011 73 10000 17.88 135 20:38 01.06.2022
1895 Clouds 21 1011 72 10000 21.46 180 19:51 01.06.2022
1896 Clouds 21 1012 70 10000 12.52 292 18:28 01.06.2022
1897 Clouds 21 1012 68 10000 14.31 180 16:58 01.06.2022
1898 Clouds 20 1012 75 10000 9.39 180 15:43 01.06.2022
1899 Rain 21 1014 68 10000 9.77 200 14:49 01.06.2022
1900 Clouds 20 1012 68 10000 19.22 135 13:23 01.06.2022
1901 Clouds 20 1011 75 10000 10.73 180 10:48 01.06.2022
1902 Clouds 19 1011 81 10000 9.83 225 09:29 01.06.2022
1903 Clouds 18 1010 87 10000 8.49 180 08:18 01.06.2022
1904 Clouds 17 1012 84 10000 3.6 200 07:20 01.06.2022
1905 Clouds 18 1009 86 10000 17.43 180 04:41 01.06.2022
1906 Clouds 20 1009 82 10000 12.52 225 23:50 31.05.2022
1907 Clouds 20 1010 83 10000 14.31 270 22:41 31.05.2022
1908 Clouds 20 1010 83 10000 12.07 135 22:22 31.05.2022
1909 Clouds 20 1009 81 10000 19.67 157 21:39 31.05.2022
1910 Clouds 21 1009 78 10000 15.2 180 20:44 31.05.2022
1911 Clouds 21 1008 75 10000 19.67 292 19:46 31.05.2022
1912 Clouds 22 1009 69 10000 16.54 180 18:32 31.05.2022
1913 Clouds 22 1009 69 10000 14.75 135 17:38 31.05.2022
1914 Clouds 22 1010 64 10000 16.54 225 15:55 31.05.2022
1915 Clouds 22 1010 65 10000 19.67 225 15:34 31.05.2022
1916 Clouds 21 1010 69 10000 19.67 157 13:22 31.05.2022
1917 Clouds 21 1009 72 10000 8.49 180 12:19 31.05.2022
1918 Clouds 20 1009 82 10000 9.39 180 10:34 31.05.2022
1919 Clouds 18 1008 87 10000 5.81 180 08:26 31.05.2022
1920 Clouds 18 1007 84 10000 9.83 135 06:21 31.05.2022
1921 Clouds 19 1008 82 10000 10.28 247 04:34 31.05.2022
1922 Clouds 19 1009 86 10000 10.28 225 23:46 30.05.2022
1923 Clouds 19 1009 85 10000 11.62 180 23:24 30.05.2022
1924 Clouds 19 1009 85 10000 5.66 190 22:42 30.05.2022
1925 Drizzle 19 1009 83 10000 8.05 180 21:40 30.05.2022
1926 Drizzle 19 1009 83 10000 10.28 135 21:21 30.05.2022
1927 Clouds 20 1011 80 10000 6.69 210 19:45 30.05.2022
1928 Clouds 20 1008 78 10000 11.62 157 18:21 30.05.2022
1929 Clouds 20 1008 74 10000 19.22 135 17:23 30.05.2022
1930 Clouds 21 1009 65 10000 16.54 180 16:30 30.05.2022
1931 Clouds 19 1009 76 10000 21.01 315 13:38 30.05.2022
1932 Clouds 19 1009 73 10000 12.07 180 11:54 30.05.2022
1933 Clouds 18 1008 78 10000 12.52 180 10:20 30.05.2022
1934 Clouds 18 1007 83 10000 10.73 180 09:18 30.05.2022
1935 Clouds 18 1010 75 10000 3.6 200 06:28 30.05.2022
1936 Clouds 18 1010 76 10000 3.6 210 05:38 30.05.2022
1937 Clouds 18 1007 77 10000 4.12 250 01:30 30.05.2022
1938 Clouds 18 1007 75 10000 5.14 230 22:49 29.05.2022
1939 Clouds 18 1008 75 10000 5.81 225 22:29 29.05.2022
1940 Clouds 19 1007 69 10000 8.05 315 20:38 29.05.2022
1941 Clouds 19 1007 69 10000 12.96 225 19:30 29.05.2022
1942 Clouds 20 1007 67 10000 16.54 180 18:35 29.05.2022
1943 Clouds 20 1007 64 10000 14.75 180 16:51 29.05.2022
1944 Clouds 21 1008 62 10000 14.31 225 15:47 29.05.2022
1945 Clouds 20 1008 63 10000 9.83 180 14:56 29.05.2022
1946 Clouds 20 1008 65 10000 13.86 180 13:46 29.05.2022
1947 Clouds 19 1010 68 10000 3.6 210 11:34 29.05.2022
1948 Clouds 19 1010 69 10000 3.6 220 10:38 29.05.2022
1949 Clouds 18 1010 69 10000 4.63 230 08:39 29.05.2022
1950 Clouds 18 1010 70 10000 3.09 240 05:48 29.05.2022
1951 Clouds 18 1011 73 10000 4.12 210 04:43 29.05.2022
1952 Clouds 18 1011 74 10000 2.57 230 02:50 29.05.2022
1953 Clouds 18 1011 74 10000 4.12 230 23:49 28.05.2022
1954 Clouds 18 1011 74 10000 4.12 230 23:26 28.05.2022
1955 Clouds 18 1011 75 10000 4.63 210 22:33 28.05.2022
1956 Clouds 19 1012 72 10000 5.66 230 21:34 28.05.2022
1957 Clear 21 1012 65 10000 5.66 230 19:24 28.05.2022
1958 Clear 22 1012 63 10000 6.69 250 18:47 28.05.2022
1959 Clear 23 1012 57 10000 6.17 270 17:36 28.05.2022
1960 Clear 23 1012 56 10000 6.17 260 16:37 28.05.2022
1961 Clear 23 1013 60 10000 5.66 260 15:39 28.05.2022
1962 Clouds 23 1013 62 10000 6.69 260 14:23 28.05.2022
1963 Clouds 24 1013 58 10000 5.66 180 12:44 28.05.2022
1964 Clear 22 1013 59 10000 5.14 180 12:18 28.05.2022
1965 Clear 22 1013 55 10000 3.6 160 10:51 28.05.2022
1966 Clear 20 1013 68 10000 2.57 40 09:57 28.05.2022
1967 Clear 18 1012 77 10000 2.57 50 08:45 28.05.2022
1968 Clear 18 1012 70 10000 0 0 07:23 28.05.2022
1969 Clear 18 1012 74 10000 1.03 240 05:28 28.05.2022
1970 Clear 21 1013 59 10000 4.12 320 02:44 28.05.2022
1971 Clear 22 1014 51 10000 4.12 230 00:32 28.05.2022
1972 Clear 25 1014 38 10000 5.66 310 22:53 27.05.2022
1973 Clear 26 1014 36 10000 6.17 310 21:44 27.05.2022
1974 Clear 29 1014 32 10000 7.2 360 20:50 27.05.2022
1975 Clear 29 1014 32 10000 7.2 350 20:24 27.05.2022
1976 Clear 30 1011 28 10000 7.2 360 19:42 27.05.2022
1977 Clear 30 1010 27 10000 6.17 310 19:21 27.05.2022
1978 Clear 32 1014 29 10000 4.63 270 17:54 27.05.2022
1979 Clear 30 1015 33 10000 4.12 320 16:38 27.05.2022
1980 Clear 30 1014 33 10000 4.12 330 15:22 27.05.2022
1981 Clear 28 1014 36 10000 3.6 330 14:25 27.05.2022
1982 Clear 26 1015 39 10000 3.09 10 12:43 27.05.2022
1983 Clear 25 1015 40 10000 2.57 70 11:34 27.05.2022
1984 Clear 22 1016 50 10000 2.57 80 10:55 27.05.2022
1985 Clear 21 1016 57 10000 2.57 70 10:31 27.05.2022
1986 Clear 19 1018 65 10000 2.57 40 09:35 27.05.2022
1987 Clear 18 1014 75 10000 2.57 50 07:52 27.05.2022
1988 Clear 18 1015 71 10000 2.57 80 05:44 27.05.2022
1989 Clear 22 1015 48 10000 2.06 60 02:26 27.05.2022
1990 Clear 24 1016 46 10000 6.17 10 00:29 27.05.2022
1991 Clear 25 1015 39 10000 7.72 360 22:39 26.05.2022
1992 Clear 27 1015 34 10000 8.75 350 21:40 26.05.2022
1993 Clear 29 1015 31 10000 9.26 350 20:53 26.05.2022
1994 Clear 30 1015 27 10000 9.77 340 19:24 26.05.2022
1995 Clear 31 1016 26 10000 6.17 340 18:18 26.05.2022
1996 Clear 30 1017 26 10000 6.17 350 16:42 26.05.2022
1997 Clear 29 1017 29 10000 6.17 340 15:46 26.05.2022
1998 Clear 28 1018 25 10000 4.12 340 14:43 26.05.2022
1999 Clear 26 1017 31 10000 4.63 70 12:50 26.05.2022
2000 Clear 23 1017 38 10000 6.17 50 11:29 26.05.2022
2001 Clear 22 1015 34 10000 5.66 60 10:19 26.05.2022
2002 Clear 20 1015 39 10000 4.12 50 09:33 26.05.2022
2003 Clear 18 1020 57 10000 4.63 30 08:35 26.05.2022
2004 Clear 17 1012 64 10000 2.57 350 04:41 26.05.2022
2005 Clear 18 1016 60 10000 7.72 10 00:48 26.05.2022
2006 Clear 19 1016 57 10000 8.75 360 23:40 25.05.2022
2007 Clear 19 1015 56 10000 8.75 360 22:22 25.05.2022
2008 Clear 21 1020 51 10000 8.75 360 21:33 25.05.2022
2009 Clear 21 1015 47 10000 10.8 350 20:37 25.05.2022
2010 Clear 22 1015 44 10000 10.29 350 19:29 25.05.2022
2011 Clear 24 1014 40 10000 8.75 330 17:46 25.05.2022
2012 Clear 24 1015 38 10000 9.26 330 16:40 25.05.2022
2013 Clear 24 1016 39 10000 8.23 320 15:57 25.05.2022
2014 Clear 23 1016 37 10000 6.17 340 14:55 25.05.2022
2015 Clear 23 1016 38 10000 5.66 10 14:33 25.05.2022
2016 Clear 22 1016 39 10000 5.66 10 13:56 25.05.2022
2017 Clear 20 1016 45 10000 7.2 360 12:45 25.05.2022
2018 Clouds 18 1015 58 10000 7.72 360 10:54 25.05.2022
2019 Clouds 17 1015 65 10000 7.72 360 10:20 25.05.2022
2020 Clouds 15 1003 74 10000 2.68 21 08:41 25.05.2022
2021 Clouds 15 1002 75 10000 3.58 21 07:23 25.05.2022
2022 Clouds 15 1011 73 10000 6.17 330 05:18 25.05.2022
2023 Clouds 15 1013 70 10000 6.69 360 00:28 25.05.2022
2024 Clouds 15 1013 70 10000 6.69 330 23:47 24.05.2022
2025 Clouds 16 1012 66 10000 9.26 350 22:39 24.05.2022
2026 Clouds 17 1012 61 10000 10.29 340 21:43 24.05.2022
2027 Clouds 17 1011 59 10000 10.29 340 21:21 24.05.2022
2028 Clouds 18 1011 54 10000 9.77 340 20:38 24.05.2022
2029 Clouds 19 1013 50 10000 9.26 340 18:57 24.05.2022
2030 Clouds 20 1013 48 10000 11.83 330 16:58 24.05.2022
2031 Clouds 20 1013 47 10000 11.32 330 16:28 24.05.2022
2032 Clouds 19 1011 50 10000 9.77 340 15:20 24.05.2022
2033 Clouds 19 1013 48 10000 10.29 340 14:34 24.05.2022
2034 Clouds 19 1011 47 10000 8.75 360 13:27 24.05.2022
2035 Clouds 18 1012 51 10000 10.29 360 11:53 24.05.2022
2036 Clouds 16 1011 67 10000 8.94 344 09:49 24.05.2022
2037 Clouds 15 1011 72 10000 7.2 350 08:51 24.05.2022
2038 Clouds 14 1009 75 10000 4.63 340 07:30 24.05.2022
2039 Clouds 15 1009 73 10000 5.14 340 05:59 24.05.2022
2040 Clouds 15 1008 72 10000 4.12 340 02:54 24.05.2022
2041 Clouds 15 1010 73 10000 6.17 350 01:44 24.05.2022
2042 Clouds 16 1010 72 10000 6.69 350 23:59 23.05.2022
2043 Clouds 17 1010 66 10000 8.75 360 22:22 23.05.2022
2044 Clouds 17 1010 63 10000 7.72 350 21:42 23.05.2022
2045 Clouds 19 1010 59 10000 7.2 340 20:45 23.05.2022
2046 Clouds 20 1010 59 10000 7.72 350 19:44 23.05.2022
2047 Clouds 20 1008 60 10000 7.72 330 19:18 23.05.2022
2048 Clouds 20 1010 59 10000 7.72 350 18:40 23.05.2022
2049 Clouds 20 1009 63 10000 8.23 360 17:56 23.05.2022
2050 Clouds 22 1011 60 10000 6.17 330 15:55 23.05.2022
2051 Clouds 20 1011 63 10000 6.69 340 13:56 23.05.2022
2052 Clouds 19 1011 65 10000 6.69 350 11:41 23.05.2022
2053 Clouds 18 1009 67 10000 6.69 350 10:47 23.05.2022
2054 Clouds 16 1011 76 10000 4.12 340 09:47 23.05.2022
2055 Clouds 16 1011 80 10000 2.57 330 08:46 23.05.2022
2056 Clouds 16 1011 80 10000 2.57 330 08:46 23.05.2022
2057 Clouds 15 1010 79 10000 2.57 330 07:24 23.05.2022
2058 Clouds 15 1010 79 10000 3.6 340 06:39 23.05.2022
2059 Clouds 16 1011 79 10000 4.12 330 03:41 23.05.2022
2060 Clouds 17 1012 80 10000 4.63 330 01:52 23.05.2022
2061 Clouds 17 1012 81 10000 4.63 330 01:29 23.05.2022
2062 Clouds 17 1008 82 10000 3.6 300 23:18 22.05.2022
2063 Clouds 18 1012 81 10000 4.12 350 22:27 22.05.2022
2064 Clouds 18 1012 81 10000 4.12 340 21:52 22.05.2022
2065 Drizzle 18 1012 81 10000 4.12 320 20:46 22.05.2022
2066 Drizzle 18 1012 80 10000 3.6 310 20:22 22.05.2022
2067 Drizzle 18 1010 80 10000 3.6 300 19:39 22.05.2022
2068 Clouds 19 1010 79 10000 5.66 320 18:52 22.05.2022
2069 Clouds 19 1012 77 10000 4.63 310 18:21 22.05.2022
2070 Clouds 20 1012 75 10000 4.63 250 17:26 22.05.2022
2071 Clouds 20 1010 76 10000 5.14 320 15:57 22.05.2022
2072 Clouds 19 1012 78 10000 4.12 300 14:47 22.05.2022
2073 Clouds 20 1012 78 10000 3.6 310 14:47 22.05.2022
2074 Clouds 20 1012 74 10000 4.12 300 13:22 22.05.2022
2075 Clouds 19 1011 77 10000 4.12 300 12:48 22.05.2022
2076 Clouds 18 1011 82 10000 4.12 290 11:29 22.05.2022
2077 Clouds 17 1010 90 10000 5.14 250 09:40 22.05.2022
2078 Drizzle 17 1010 91 10000 5.14 240 08:21 22.05.2022
2079 Clouds 17 1008 91 10000 6.17 240 07:21 22.05.2022
2080 Clouds 17 1008 91 9000 7.2 230 04:59 22.05.2022
2081 Drizzle 17 1009 86 8000 7.2 220 01:26 22.05.2022
2082 Clouds 17 1009 83 10000 7.72 210 00:39 22.05.2022
2083 Clouds 17 1009 82 10000 7.2 210 23:50 21.05.2022
2084 Clouds 18 1009 82 10000 8.23 220 22:26 21.05.2022
2085 Clouds 18 1009 78 10000 8.23 220 21:42 21.05.2022
2086 Clouds 18 1009 77 10000 7.72 210 20:51 21.05.2022
2087 Clouds 19 1009 77 10000 8.23 220 20:21 21.05.2022
2088 Clouds 19 1009 75 10000 8.23 220 19:25 21.05.2022
2089 Clouds 22 1009 67 10000 7.6 200 17:47 21.05.2022
2090 Clouds 21 1014 69 9000 7.72 220 15:54 21.05.2022
2091 Clouds 20 1015 73 9000 8.75 220 14:37 21.05.2022
2092 Clouds 21 1015 72 9000 6.69 220 13:42 21.05.2022
2093 Clouds 21 1014 75 9000 6.69 210 12:49 21.05.2022
2094 Clouds 22 1014 74 9000 5.66 170 11:58 21.05.2022
2095 Fog 20 1008 80 8000 6.17 180 10:23 21.05.2022
2096 Fog 21 1013 76 8000 7.2 170 09:41 21.05.2022
2097 Rain 20 1011 77 8000 3.09 0 08:52 21.05.2022
2098 Clear 20 1012 76 9000 3.6 250 07:53 21.05.2022
2099 Clear 24 1012 62 10000 3.09 230 03:58 21.05.2022
2100 Clear 26 1006 54 10000 4.63 40 23:53 20.05.2022
2101 Clear 26 1007 55 10000 6.17 20 22:57 20.05.2022
2102 Clear 26 1007 53 10000 6.17 20 22:23 20.05.2022
2103 Rain 26 1007 54 10000 6.69 20 21:41 20.05.2022
2104 Clear 27 1007 52 10000 9.26 10 20:54 20.05.2022
2105 Clear 28 1007 52 10000 8.75 30 19:58 20.05.2022
2106 Clear 29 1008 51 10000 8.75 30 19:26 20.05.2022
2107 Rain 29 1008 51 10000 6.69 360 18:44 20.05.2022
2108 Rain 29 1015 48 10000 5.14 360 16:54 20.05.2022
2109 Clear 30 1010 44 10000 6.69 10 16:19 20.05.2022
2110 Clear 30 1010 43 10000 6.69 10 15:44 20.05.2022
2111 Clear 29 1010 44 10000 7.72 30 14:30 20.05.2022
2112 Clear 28 1011 43 10000 7.2 10 13:55 20.05.2022
2113 Clear 23 1011 51 10000 5.14 360 11:33 20.05.2022
2114 Clear 20 1012 58 10000 4.12 350 09:52 20.05.2022
2115 Clear 18 1012 62 10000 3.6 320 08:44 20.05.2022
2116 Clear 17 1007 64 10000 3.6 330 06:50 20.05.2022
2117 Clear 18 1007 62 10000 4.63 330 06:31 20.05.2022
2118 Clear 18 1010 63 10000 4.12 340 04:31 20.05.2022
2119 Clear 18 1010 62 10000 6.17 320 00:43 20.05.2022
2120 Clear 19 1009 59 10000 8.23 10 22:47 19.05.2022
2121 Clear 19 1009 59 10000 8.23 10 22:19 19.05.2022
2122 Clear 20 1011 59 10000 8.23 360 21:42 19.05.2022
2123 Clear 21 1011 60 10000 8.23 360 21:22 19.05.2022
2124 Clear 22 1008 56 10000 5.66 320 20:32 19.05.2022
2125 Clear 26 1015 48 10000 6.17 10 19:40 19.05.2022
2126 Clear 27 1010 43 10000 6.17 10 18:22 19.05.2022
2127 Clear 27 1011 40 10000 5.14 20 16:35 19.05.2022
2128 Clear 26 1012 40 10000 5.14 350 14:52 19.05.2022
2129 Clear 25 1012 40 10000 5.14 360 14:24 19.05.2022
2130 Clear 24 1012 42 10000 4.63 360 13:23 19.05.2022
2131 Clear 21 1013 51 10000 6.17 360 11:29 19.05.2022
2132 Clear 17 1013 70 10000 5.66 10 09:27 19.05.2022
2133 Clear 15 1009 75 10000 3.09 340 07:50 19.05.2022
2134 Clear 15 1009 73 10000 2.06 360 06:18 19.05.2022
2135 Clear 16 1012 64 10000 2.57 360 02:23 19.05.2022
2136 Clear 17 1013 71 10000 7.2 360 23:57 18.05.2022
2137 Clear 18 1012 68 10000 7.2 360 22:47 18.05.2022
2138 Clouds 19 1010 61 10000 7.72 350 21:51 18.05.2022
2139 Clouds 20 1010 55 10000 7.2 350 21:29 18.05.2022
2140 Clouds 21 1017 53 10000 7.72 350 20:47 18.05.2022
2141 Clouds 23 1010 51 10000 8.75 350 20:18 18.05.2022
2142 Clouds 24 1017 51 10000 6.17 350 18:33 18.05.2022
2143 Clouds 24 1017 51 10000 5.66 340 17:41 18.05.2022
2144 Clouds 24 1013 49 10000 5.66 340 17:23 18.05.2022
2145 Clouds 24 1013 53 10000 5.14 350 16:34 18.05.2022
2146 Clouds 23 1013 58 10000 5.14 360 15:42 18.05.2022
2147 Clouds 22 1014 64 10000 4.63 10 14:35 18.05.2022
2148 Rain 21 1013 68 10000 6.17 360 13:41 18.05.2022
2149 Clouds 21 1013 71 10000 5.66 10 12:48 18.05.2022
2150 Clouds 19 1012 77 10000 3.6 300 11:36 18.05.2022
2151 Clouds 19 1012 79 10000 3.6 300 11:18 18.05.2022
2152 Clouds 17 1014 84 10000 3.09 320 09:50 18.05.2022
2153 Clouds 17 1012 85 10000 2.57 320 07:51 18.05.2022
2154 Clouds 17 1012 87 10000 2.57 330 06:48 18.05.2022
2155 Clouds 17 1013 85 10000 4.12 310 01:53 18.05.2022
2156 Clouds 18 1015 84 10000 3.09 310 00:23 18.05.2022
2157 Clear 20 1014 78 10000 3.6 250 22:18 17.05.2022
2158 Clouds 21 1014 73 10000 4.12 330 21:20 17.05.2022
2159 Clouds 22 1019 68 10000 4.63 330 20:22 17.05.2022
2160 Clouds 23 1019 61 10000 5.14 260 19:28 17.05.2022
2161 Clouds 24 1020 61 10000 5.66 260 17:52 17.05.2022
2162 Clouds 23 1020 60 10000 5.66 260 17:18 17.05.2022
2163 Clouds 23 1016 61 10000 5.66 240 16:31 17.05.2022
2164 Clouds 23 1016 62 10000 5.66 270 15:32 17.05.2022
2165 Clouds 23 1016 62 10000 6.17 270 14:31 17.05.2022
2166 Clouds 23 1017 65 10000 4.12 280 13:38 17.05.2022
2167 Clouds 21 1017 71 10000 3.6 220 12:23 17.05.2022
2168 Clouds 18 1016 88 10000 3.09 220 09:53 17.05.2022
2169 Mist 18 1016 90 10000 3.6 160 08:43 17.05.2022
2170 Clouds 17 1014 89 10000 3.09 210 06:52 17.05.2022
2171 Clouds 17 1011 87 10000 2.57 210 04:28 17.05.2022
2172 Clouds 18 1015 85 10000 4.12 240 00:47 17.05.2022
2173 Clouds 19 1016 85 10000 4.12 210 22:44 16.05.2022
2174 Clouds 19 1016 85 10000 4.63 220 22:18 16.05.2022
2175 Clouds 19 1015 81 10000 5.14 220 20:50 16.05.2022
2176 Clouds 20 1014 81 10000 6.17 220 19:59 16.05.2022
2177 Clouds 20 1015 80 9000 7.2 200 18:32 16.05.2022
2178 Clouds 20 1016 76 10000 7.72 210 16:28 16.05.2022
2179 Clouds 20 1016 80 10000 8.75 200 14:46 16.05.2022
2180 Drizzle 20 1016 81 10000 8.23 200 13:26 16.05.2022
2181 Drizzle 19 1015 84 10000 7.72 200 11:34 16.05.2022
2182 Mist 18 1015 85 10000 5.14 170 10:24 16.05.2022
2183 Clouds 18 1012 86 10000 5.14 190 07:45 16.05.2022
2184 Clouds 18 1012 85 10000 5.14 200 05:40 16.05.2022
2185 Clouds 18 1013 82 10000 4.63 210 23:59 15.05.2022
2186 Clouds 18 1013 82 10000 6.69 200 22:36 15.05.2022
2187 Clouds 19 1013 80 10000 7.2 200 21:48 15.05.2022
2188 Clouds 19 1013 80 10000 7.2 210 21:21 15.05.2022
2189 Clouds 19 1013 78 10000 7.72 210 20:34 15.05.2022
2190 Clouds 21 1017 69 10000 7.2 200 18:30 15.05.2022
2191 Clouds 21 1011 70 10000 7.72 220 16:37 15.05.2022
2192 Rain 20 1012 72 10000 7.2 210 14:18 15.05.2022
2193 Clouds 20 1012 73 10000 8.94 195 13:35 15.05.2022
2194 Clouds 19 1011 77 10000 5.66 200 11:55 15.05.2022
2195 Clouds 18 1011 81 10000 5.66 220 10:40 15.05.2022
2196 Clouds 18 1008 81 10000 5.66 210 08:52 15.05.2022
2197 Clouds 17 1005 83 10000 5.14 220 07:22 15.05.2022
2198 Clouds 17 1005 84 10000 4.63 220 06:42 15.05.2022
2199 Clouds 18 1008 79 10000 6.17 220 02:38 15.05.2022
2200 Clouds 18 1008 79 10000 6.69 200 23:59 14.05.2022
2201 Clouds 19 1008 78 10000 7.72 200 23:35 14.05.2022
2202 Clouds 19 1008 78 10000 7.72 200 23:35 14.05.2022
2203 Clouds 18 1008 79 10000 6.69 210 21:45 14.05.2022
2204 Clouds 19 1008 78 10000 6.69 210 21:24 14.05.2022
2205 Clouds 19 1008 73 10000 8.23 220 20:25 14.05.2022
2206 Clouds 20 1008 68 10000 8.75 210 19:20 14.05.2022
2207 Clouds 21 1008 69 10000 9.77 220 18:51 14.05.2022
2208 Clouds 21 1008 69 10000 9.77 220 18:51 14.05.2022
2209 Clouds 22 1008 66 10000 8.23 220 17:43 14.05.2022
2210 Clouds 23 1009 60 10000 8.75 210 15:58 14.05.2022
2211 Clear 24 1014 55 10000 6.17 200 14:38 14.05.2022
2212 Clear 24 1008 52 10000 5.36 190 13:24 14.05.2022
2213 Clear 23 1009 55 10000 4.12 270 11:42 14.05.2022
2214 Clear 22 1009 60 10000 4.63 230 10:39 14.05.2022
2215 Clear 21 1009 61 10000 4.63 230 10:18 14.05.2022
2216 Clear 20 1009 67 10000 2.06 270 09:23 14.05.2022
2217 Clear 20 1007 62 10000 1.03 100 07:26 14.05.2022
2218 Clear 21 1008 58 10000 1.54 70 04:32 14.05.2022
2219 Clear 22 1008 54 10000 0.89 32 00:25 14.05.2022
2220 Clear 23 1011 51 10000 3.6 310 23:25 13.05.2022
2221 Clear 23 1012 50 10000 4.12 310 22:54 13.05.2022
2222 Clear 24 1011 49 10000 3.6 300 22:21 13.05.2022
2223 Clear 27 1016 36 10000 4.63 310 20:58 13.05.2022
2224 Clear 27 1016 38 10000 4.63 10 20:32 13.05.2022
2225 Clear 28 1016 39 10000 5.14 360 19:51 13.05.2022
2226 Clear 28 1017 36 10000 4.63 260 18:47 13.05.2022
2227 Clear 28 1017 33 10000 3.6 270 17:30 13.05.2022
2228 Clear 29 1018 32 10000 2.57 70 16:29 13.05.2022
2229 Clear 28 1018 35 10000 3.6 230 15:45 13.05.2022
2230 Clear 27 1014 36 10000 3.6 220 14:29 13.05.2022
2231 Clear 24 1019 45 10000 3.6 210 12:47 13.05.2022
2232 Clear 24 1014 44 10000 3.09 360 11:39 13.05.2022
2233 Clear 20 1013 61 10000 2.57 70 09:54 13.05.2022
2234 Clear 19 1013 59 10000 2.57 20 09:26 13.05.2022
2235 Clear 17 1012 60 10000 1.03 110 07:50 13.05.2022
2236 Clear 17 1012 57 10000 0.51 0 06:50 13.05.2022
2237 Clear 18 1012 55 10000 1.54 130 04:54 13.05.2022
2238 Clear 20 1013 51 10000 3.6 320 00:57 13.05.2022
2239 Clear 21 1009 52 10000 7.72 10 22:49 12.05.2022
2240 Clear 22 1012 52 10000 6.69 360 22:30 12.05.2022
2241 Clear 27 1017 45 10000 6.69 360 20:49 12.05.2022
2242 Clear 28 1008 42 10000 3.6 280 19:26 12.05.2022
2243 Clear 29 1010 34 10000 3.6 220 18:25 12.05.2022
2244 Clear 29 1010 34 10000 3.6 220 18:25 12.05.2022
2245 Clear 28 1011 30 10000 3.6 80 16:39 12.05.2022
2246 Clear 27 1012 32 10000 3.6 0 14:57 12.05.2022
2247 Clear 26 1012 32 10000 3.6 360 13:48 12.05.2022
2248 Clear 23 1012 38 10000 4.12 10 11:48 12.05.2022
2249 Clear 20 1011 52 10000 5.14 10 10:32 12.05.2022
2250 Clear 17 1011 57 10000 4.12 40 08:52 12.05.2022
2251 Clear 17 1011 57 10000 4.12 40 08:52 12.05.2022
2252 Clear 17 1011 57 10000 4.12 40 08:52 12.05.2022
2253 Clear 17 1011 57 10000 4.12 40 08:52 12.05.2022
2254 Clear 17 1011 57 10000 4.12 40 08:52 12.05.2022
2255 Clear 17 1010 55 10000 1.54 20 07:59 12.05.2022
2256 Clear 18 1009 53 10000 1.54 330 06:58 12.05.2022
2257 Clear 19 1010 45 10000 1.54 90 03:50 12.05.2022
2258 Clear 20 1010 44 10000 4.12 340 01:29 12.05.2022
2259 Clear 22 1010 34 10000 7.2 10 22:59 11.05.2022
2260 Clear 23 1009 32 10000 6.17 10 22:18 11.05.2022
2261 Clear 24 1009 34 10000 6.69 10 21:24 11.05.2022
2262 Clear 24 1009 34 10000 6.69 10 21:24 11.05.2022
2263 Clear 26 1009 25 10000 7.2 10 20:20 11.05.2022
2264 Clear 29 1016 31 10000 4.12 20 17:33 11.05.2022
2265 Clear 27 1017 31 10000 4.12 210 16:19 11.05.2022
2266 Clear 27 1012 29 10000 3.6 220 14:47 11.05.2022
2267 Clear 26 1013 34 10000 3.09 100 14:24 11.05.2022
2268 Clear 22 1019 47 10000 3.09 200 12:54 11.05.2022
2269 Clear 22 1014 46 10000 2.06 70 11:48 11.05.2022
2270 Clear 16 1013 69 10000 4.12 20 09:29 11.05.2022
2271 Clear 15 1011 61 10000 2.57 10 06:30 11.05.2022
2272 Clear 18 1013 55 10000 3.09 240 01:53 11.05.2022
2273 Clear 20 1010 53 10000 3.6 30 22:58 10.05.2022
2274 Clear 20 1012 57 10000 3.09 30 22:24 10.05.2022
2275 Clear 24 1013 45 10000 4.12 240 21:26 10.05.2022
2276 Clear 26 1014 41 10000 4.12 260 20:34 10.05.2022
2277 Clear 27 1012 33 10000 6.17 230 18:49 10.05.2022
2278 Clear 26 1014 38 10000 5.66 230 17:38 10.05.2022
2279 Clear 26 1013 38 10000 5.66 240 16:24 10.05.2022
2280 Clear 26 1014 47 10000 1.54 0 13:19 10.05.2022
2281 Clear 22 1021 57 10000 1.54 250 11:53 10.05.2022
2282 Clear 21 1021 60 10000 4.12 20 11:32 10.05.2022
2283 Clear 19 1021 65 10000 4.63 20 10:56 10.05.2022
2284 Clear 17 1015 72 10000 4.12 10 09:36 10.05.2022
2285 Clear 15 1013 77 10000 5.66 20 08:18 10.05.2022
2286 Clear 16 1010 71 10000 3.6 320 06:20 10.05.2022
2287 Clear 17 1014 71 10000 5.14 310 01:54 10.05.2022
2288 Clear 17 1013 68 10000 6.17 20 23:45 09.05.2022
2289 Clear 20 1014 59 10000 7.2 310 22:36 09.05.2022
2290 Clear 22 1013 56 10000 6.69 310 21:39 09.05.2022
2291 Clear 25 1012 48 10000 6.69 360 20:20 09.05.2022
2292 Clear 28 1014 45 10000 6.17 20 18:26 09.05.2022
2293 Clear 28 1014 46 10000 7.2 20 17:26 09.05.2022
2294 Clear 29 1014 44 10000 7.2 10 16:19 09.05.2022
2295 Clear 28 1014 39 10000 6.69 10 15:47 09.05.2022
2296 Clear 27 1014 37 10000 5.14 20 14:37 09.05.2022
2297 Clear 27 1015 36 10000 4.63 30 13:59 09.05.2022
2298 Clear 26 1020 40 10000 5.14 20 13:23 09.05.2022
2299 Clear 23 1015 43 10000 7.2 20 11:53 09.05.2022
2300 Clear 22 1015 45 10000 7.2 10 10:48 09.05.2022
2301 Clear 21 1019 44 10000 5.66 10 10:26 09.05.2022
2302 Clear 18 1009 52 10000 4.12 310 07:57 09.05.2022
2303 Clear 18 1012 54 10000 3.09 310 05:59 09.05.2022
2304 Clear 19 1019 48 10000 3.09 330 01:59 09.05.2022
2305 Clear 21 1013 40 10000 5.66 320 23:29 08.05.2022
2306 Clear 22 1012 44 10000 8.23 360 22:32 08.05.2022
2307 Clear 24 1012 42 10000 8.75 350 21:24 08.05.2022
2308 Clear 26 1011 40 10000 8.75 350 20:25 08.05.2022
2309 Clear 27 1017 35 10000 7.2 350 19:35 08.05.2022
2310 Clear 28 1011 36 10000 5.66 310 18:40 08.05.2022
2311 Clear 29 1012 36 10000 5.14 300 17:45 08.05.2022
2312 Clear 29 1013 30 10000 5.14 10 16:23 08.05.2022
2313 Clear 28 1013 31 10000 3.6 220 15:24 08.05.2022
2314 Clear 26 1019 37 10000 2.57 360 13:44 08.05.2022
2315 Clear 23 1014 43 10000 3.6 40 11:53 08.05.2022
2316 Clear 20 1014 51 10000 2.57 20 10:27 08.05.2022
2317 Clear 19 1012 49 10000 3.09 340 09:54 08.05.2022
2318 Clear 17 1013 59 10000 4.63 20 08:23 08.05.2022
2319 Clear 17 1012 55 10000 2.57 310 06:21 08.05.2022
2320 Clear 18 1013 48 10000 3.09 320 03:22 08.05.2022
2321 Clear 20 1013 44 10000 1.54 350 01:19 08.05.2022
2322 Clear 20 1019 44 10000 4.63 320 23:57 07.05.2022
2323 Clear 20 1019 43 10000 4.12 340 23:34 07.05.2022
2324 Clear 21 1019 39 10000 6.69 10 22:46 07.05.2022
2325 Clear 22 1013 37 10000 7.2 10 21:57 07.05.2022
2326 Clear 22 1013 39 10000 6.69 310 21:31 07.05.2022
2327 Clear 24 1012 45 10000 6.17 310 20:25 07.05.2022
2328 Clear 26 1013 42 10000 5.66 260 18:59 07.05.2022
2329 Clear 27 1014 35 10000 3.58 190 16:51 07.05.2022
2330 Clear 26 1013 35 10000 4.12 220 15:18 07.05.2022
2331 Clear 22 1015 47 10000 4.12 60 11:51 07.05.2022
2332 Clear 17 1015 73 10000 2.06 30 09:55 07.05.2022
2333 Clear 14 1015 76 10000 5.14 30 08:33 07.05.2022
2334 Clear 15 1014 72 10000 1.54 10 07:30 07.05.2022
2335 Clear 15 1014 70 10000 2.57 310 06:42 07.05.2022
2336 Clear 16 1014 63 10000 3.09 320 04:19 07.05.2022
2337 Clear 18 1015 51 10000 4.12 320 00:45 07.05.2022
2338 Clear 19 1016 48 10000 5.66 360 22:40 06.05.2022
2339 Clear 19 1016 48 10000 5.66 360 22:21 06.05.2022
2340 Clear 21 1015 46 10000 5.66 360 21:30 06.05.2022
2341 Clear 25 1021 39 10000 5.14 360 19:49 06.05.2022
2342 Clear 25 1016 38 10000 6.69 360 19:25 06.05.2022
2343 Clear 26 1021 31 10000 6.69 350 18:43 06.05.2022
2344 Clear 26 1021 30 10000 4.12 260 17:37 06.05.2022
2345 Clear 25 1017 35 10000 5.14 230 15:54 06.05.2022
2346 Clear 25 1017 37 10000 5.14 250 15:30 06.05.2022
2347 Clear 24 1017 41 10000 3.6 270 14:22 06.05.2022
2348 Clear 22 1017 50 10000 3.09 210 12:52 06.05.2022
2349 Clear 21 1022 57 10000 1.54 340 11:58 06.05.2022
2350 Clear 20 1022 60 10000 2.57 30 11:27 06.05.2022
2351 Clouds 16 1022 72 10000 4.63 20 09:48 06.05.2022
2352 Clouds 15 1017 72 10000 5.14 30 09:18 06.05.2022
2353 Clouds 14 1013 70 10000 0 0 07:55 06.05.2022
2354 Clear 14 1016 76 10000 4.12 310 06:27 06.05.2022
2355 Clear 15 1017 77 10000 2.57 330 03:44 06.05.2022
2356 Clear 15 1017 73 10000 4.12 350 02:38 06.05.2022
2357 Clear 17 1017 57 10000 6.17 310 23:24 05.05.2022
2358 Clear 18 1015 62 10000 6.69 310 21:51 05.05.2022
2359 Clear 22 1021 56 10000 6.69 10 20:37 05.05.2022
2360 Clear 25 1015 44 10000 4.63 310 19:19 05.05.2022
2361 Clear 26 1016 45 10000 5.66 270 16:49 05.05.2022
2362 Clear 25 1016 45 10000 3.6 230 15:46 05.05.2022
2363 Clear 22 1022 53 10000 3.09 110 13:41 05.05.2022
2364 Clear 22 1022 55 10000 3.09 110 13:18 05.05.2022
2365 Clear 20 1017 57 10000 5.14 10 11:42 05.05.2022
2366 Clouds 16 1016 71 10000 7.2 10 09:46 05.05.2022
2367 Clouds 15 1016 73 10000 6.69 20 09:26 05.05.2022
2368 Clear 17 1011 55 10000 4.12 310 06:33 05.05.2022
2369 Clear 18 1014 52 10000 4.63 320 02:28 05.05.2022
2370 Clear 18 1014 53 10000 4.12 320 01:45 05.05.2022
2371 Clear 18 1014 51 10000 3.6 350 00:57 05.05.2022
2372 Clear 19 1013 49 10000 6.17 330 23:27 04.05.2022
2373 Clear 19 1012 47 10000 8.75 340 22:23 04.05.2022
2374 Clear 20 1012 45 10000 9.26 350 21:46 04.05.2022
2375 Clear 21 1011 45 10000 9.26 350 21:18 04.05.2022
2376 Clear 22 1011 44 10000 9.77 350 20:20 04.05.2022
2377 Clear 24 1016 42 10000 8.75 340 19:44 04.05.2022
2378 Clear 24 1010 41 10000 8.23 330 18:44 04.05.2022
2379 Clear 24 1010 42 10000 8.23 330 18:20 04.05.2022
2380 Clear 25 1011 39 10000 10.29 340 17:22 04.05.2022
2381 Clouds 24 1011 42 10000 5.14 40 15:35 04.05.2022
2382 Clouds 23 1011 46 10000 4.63 40 14:46 04.05.2022
2383 Clouds 23 1011 45 10000 5.66 60 14:20 04.05.2022
2384 Clear 22 1011 47 10000 5.66 10 12:58 04.05.2022
2385 Clear 22 1011 46 10000 5.66 10 12:24 04.05.2022
2386 Clear 19 1010 52 10000 6.17 50 10:30 04.05.2022
2387 Clear 17 1011 63 10000 5.14 30 09:23 04.05.2022
2388 Clear 16 1010 64 10000 5.14 40 08:26 04.05.2022
2389 Clear 15 1008 72 10000 3.6 330 05:42 04.05.2022
2390 Clear 16 1008 68 10000 3.09 330 02:43 04.05.2022
2391 Clear 17 1009 65 10000 8.75 360 23:31 03.05.2022
2392 Clear 17 1007 60 10000 10.8 350 22:00 03.05.2022
2393 Clear 18 1008 57 10000 11.32 350 21:32 03.05.2022
2394 Clear 19 1007 55 10000 10.8 350 20:52 03.05.2022
2395 Clouds 21 1006 52 10000 10.29 350 19:39 03.05.2022
2396 Clouds 22 1006 50 10000 10.8 340 18:48 03.05.2022
2397 Clouds 22 1006 49 10000 8.23 320 17:34 03.05.2022
2398 Clouds 21 1007 50 10000 9.26 340 16:28 03.05.2022
2399 Clouds 21 1007 49 10000 8.23 340 14:43 03.05.2022
2400 Clouds 20 1007 47 10000 8.75 360 12:47 03.05.2022
2401 Clouds 19 1008 48 10000 8.75 10 12:22 03.05.2022
2402 Clouds 17 1007 62 10000 7.72 10 10:52 03.05.2022
2403 Clouds 14 1007 79 10000 7.2 10 08:38 03.05.2022
2404 Clouds 14 1009 77 10000 6.17 330 06:46 03.05.2022
2405 Clouds 14 1007 77 10000 5.14 330 03:34 03.05.2022
2406 Clouds 15 1014 70 10000 6.69 340 23:32 02.05.2022
2407 Clouds 15 1009 69 10000 8.23 330 22:34 02.05.2022
2408 Clouds 15 1009 68 10000 9.26 340 21:48 02.05.2022
2409 Clouds 16 1007 64 10000 7.72 330 20:50 02.05.2022
2410 Clouds 18 1010 65 10000 8.23 330 18:35 02.05.2022
2411 Clouds 18 1008 62 10000 8.75 340 17:44 02.05.2022
2412 Clouds 19 1010 60 10000 8.75 340 16:50 02.05.2022
2413 Clouds 19 1010 64 10000 6.17 310 15:56 02.05.2022
2414 Clouds 19 1011 66 10000 6.17 310 15:19 02.05.2022
2415 Clouds 18 1009 69 10000 6.17 330 13:48 02.05.2022
2416 Clouds 17 1010 74 10000 5.14 310 12:18 02.05.2022
2417 Clouds 15 1012 82 10000 4.63 320 10:20 02.05.2022
2418 Drizzle 14 1012 85 10000 3.09 280 08:46 02.05.2022
2419 Clouds 14 1011 80 10000 4.63 330 07:39 02.05.2022
2420 Clouds 14 1015 73 10000 4.63 330 01:58 02.05.2022
2421 Clouds 15 1016 71 10000 6.17 330 00:23 02.05.2022
2422 Clouds 15 1022 67 10000 5.66 330 23:47 01.05.2022
2423 Clouds 15 1016 69 10000 6.69 330 22:20 01.05.2022
2424 Clouds 16 1016 64 10000 7.72 330 20:58 01.05.2022
2425 Clouds 18 1016 59 10000 7.2 330 19:49 01.05.2022
2426 Clouds 18 1016 55 10000 6.17 320 18:55 01.05.2022
2427 Clouds 19 1017 56 10000 6.17 320 18:22 01.05.2022
2428 Clouds 19 1017 54 10000 6.17 320 17:18 01.05.2022
2429 Clouds 19 1018 54 10000 10.8 340 16:23 01.05.2022
2430 Clouds 19 1018 54 10000 9.77 360 15:23 01.05.2022
2431 Clouds 18 1019 60 10000 7.2 350 13:42 01.05.2022
2432 Clouds 15 1018 72 10000 8.23 340 10:53 01.05.2022
2433 Clouds 14 1018 80 10000 5.14 320 08:53 01.05.2022
2434 Clouds 14 1016 74 10000 4.63 330 07:53 01.05.2022
2435 Clear 16 1014 57 10000 2.24 360 03:26 01.05.2022
2436 Clear 19 1017 43 10000 9.26 360 23:23 30.04.2022
2437 Clear 22 1016 51 10000 5.66 360 21:44 30.04.2022
2438 Clear 25 1021 45 10000 5.66 350 20:36 30.04.2022
2439 Clear 26 1021 40 10000 6.17 360 19:41 30.04.2022
2440 Clear 26 1021 40 10000 6.17 360 19:41 30.04.2022
2441 Clear 26 1022 44 10000 5.66 270 17:44 30.04.2022
2442 Clouds 26 1017 44 10000 6.17 260 16:37 30.04.2022
2443 Clouds 25 1018 44 10000 4.12 260 15:24 30.04.2022
2444 Clouds 25 1018 46 10000 3.6 270 14:34 30.04.2022
2445 Clear 22 1024 53 10000 2.57 0 12:40 30.04.2022
2446 Clear 22 1019 55 10000 2.57 110 11:33 30.04.2022
2447 Clear 20 1023 59 10000 3.09 40 10:43 30.04.2022
2448 Clear 17 1023 68 10000 4.63 30 08:59 30.04.2022
2449 Clear 15 1016 72 10000 1.03 0 05:51 30.04.2022
2450 Clear 17 1017 67 10000 4.12 310 01:53 30.04.2022
2451 Clear 18 1019 61 10000 6.69 360 23:37 29.04.2022
2452 Clear 19 1023 59 10000 7.2 360 22:31 29.04.2022
2453 Clear 19 1017 58 10000 8.23 350 21:34 29.04.2022
2454 Clear 21 1017 52 10000 8.23 340 20:40 29.04.2022
2455 Clear 22 1016 53 10000 7.72 350 19:43 29.04.2022
2456 Clear 24 1021 47 10000 5.14 250 17:54 29.04.2022
2457 Clear 24 1022 47 10000 5.14 250 17:21 29.04.2022
2458 Clouds 25 1017 40 10000 4.12 100 15:23 29.04.2022
2459 Clouds 23 1018 43 10000 5.66 110 14:20 29.04.2022
2460 Clouds 21 1018 50 10000 5.66 80 12:52 29.04.2022
2461 Clear 19 1019 50 10000 5.66 70 11:40 29.04.2022
2462 Clear 16 1017 60 10000 5.66 30 08:46 29.04.2022
2463 Clear 15 1017 64 10000 5.66 20 07:27 29.04.2022
2464 Clear 16 1016 66 10000 5.66 20 06:38 29.04.2022
2465 Clear 16 1017 69 10000 4.63 30 04:43 29.04.2022
2466 Clear 16 1017 69 10000 4.63 340 00:39 29.04.2022
2467 Clear 16 1017 69 10000 9.26 360 23:27 28.04.2022
2468 Clouds 16 1017 71 10000 10.29 350 22:41 28.04.2022
2469 Clouds 16 1015 72 10000 10.8 350 21:47 28.04.2022
2470 Clouds 17 1013 69 10000 12.86 360 20:57 28.04.2022
2471 Clouds 19 1014 65 10000 11.83 350 20:25 28.04.2022
2472 Clouds 20 1020 62 10000 10.29 340 19:41 28.04.2022
2473 Clouds 20 1014 60 10000 10.29 340 19:22 28.04.2022
2474 Clouds 21 1014 58 10000 8.23 350 18:35 28.04.2022
2475 Clouds 21 1015 55 10000 9.26 330 17:20 28.04.2022
2476 Clear 21 1015 52 10000 7.72 340 16:40 28.04.2022
2477 Clear 21 1013 51 10000 6.69 330 16:18 28.04.2022
2478 Clouds 21 1015 51 10000 7.2 330 15:27 28.04.2022
2479 Clouds 20 1016 52 10000 7.2 10 13:44 28.04.2022
2480 Clouds 18 1015 59 10000 7.72 10 12:44 28.04.2022
2481 Clouds 17 1016 64 10000 7.2 10 11:58 28.04.2022
2482 Clouds 16 1016 72 10000 7.72 360 10:46 28.04.2022
2483 Clouds 15 1017 80 10000 5.66 10 09:54 28.04.2022
2484 Clouds 13 1016 86 10000 5.66 350 08:31 28.04.2022
2485 Clouds 13 1015 84 10000 1.54 350 06:59 28.04.2022
2486 Clouds 13 1015 82 10000 2.06 280 05:56 28.04.2022
2487 Clouds 13 1015 84 10000 2.06 290 05:38 28.04.2022
2488 Clouds 13 1015 81 10000 2.57 320 04:39 28.04.2022
2489 Clouds 14 1015 77 10000 3.09 330 00:30 28.04.2022
2490 Clouds 15 1020 72 10000 6.17 320 22:39 27.04.2022
2491 Clouds 15 1014 69 10000 5.66 320 21:54 27.04.2022
2492 Clouds 16 1014 66 10000 6.17 310 21:18 27.04.2022
2493 Clouds 17 1014 62 10000 6.69 310 20:37 27.04.2022
2494 Clouds 18 1018 61 10000 6.69 310 19:38 27.04.2022
2495 Clouds 18 1014 60 10000 6.69 310 19:18 27.04.2022
2496 Clouds 19 1013 57 10000 6.17 320 18:22 27.04.2022
2497 Clouds 18 1013 57 10000 6.17 320 18:22 27.04.2022
2498 Clouds 19 1013 57 10000 6.17 320 18:22 27.04.2022
2499 Clouds 19 1013 55 10000 6.69 320 16:58 27.04.2022
2500 Clouds 19 1013 57 10000 5.66 330 15:21 27.04.2022
2501 Clouds 18 1014 64 10000 3.09 360 12:25 27.04.2022
2502 Clouds 17 1018 71 10000 3.09 360 11:20 27.04.2022
2503 Clouds 15 1012 85 10000 1.03 110 09:43 27.04.2022
2504 Clouds 13 1010 86 10000 1.54 290 07:19 27.04.2022
2505 Clouds 14 1016 84 10000 2.57 260 04:45 27.04.2022
2506 Clouds 15 1010 83 10000 2.57 260 01:35 27.04.2022
2507 Clouds 15 1010 81 10000 2.57 260 00:38 27.04.2022
2508 Clouds 15 1010 81 10000 2.57 260 00:38 27.04.2022
2509 Clouds 15 1010 82 10000 3.09 260 23:40 26.04.2022
2510 Clouds 15 1010 82 10000 3.09 260 23:22 26.04.2022
2511 Clouds 15 1010 80 10000 4.12 250 22:41 26.04.2022
2512 Clouds 16 1009 74 10000 5.14 250 21:48 26.04.2022
2513 Clouds 17 1009 70 10000 5.14 260 20:53 26.04.2022
2514 Clouds 17 1009 69 10000 5.14 260 20:33 26.04.2022
2515 Clouds 17 1013 71 10000 6.17 230 19:32 26.04.2022
2516 Clouds 19 1009 68 10000 6.17 230 18:51 26.04.2022
2517 Clouds 19 1009 69 10000 6.17 230 18:18 26.04.2022
2518 Clouds 19 1009 68 10000 5.66 220 17:32 26.04.2022
2519 Clouds 17 1009 80 10000 5.81 167 14:46 26.04.2022
2520 Clouds 16 1009 86 6000 4.63 230 13:34 26.04.2022
2521 Drizzle 15 1008 86 10000 5.14 190 12:22 26.04.2022
2522 Clouds 15 1006 87 10000 3.6 220 10:44 26.04.2022
2523 Drizzle 15 1007 88 10000 3.09 250 09:36 26.04.2022
2524 Rain 15 1005 87 10000 2.57 170 07:59 26.04.2022
2525 Clouds 15 1005 87 10000 1.54 210 04:33 26.04.2022
2526 Clouds 15 1006 81 10000 2.57 230 01:54 26.04.2022
2527 Clouds 15 1006 80 10000 2.06 220 00:26 26.04.2022
2528 Clouds 15 1006 77 10000 3.6 260 22:49 25.04.2022
2529 Clouds 16 1005 78 10000 5.66 240 21:44 25.04.2022
2530 Clouds 17 1005 70 10000 6.17 230 20:45 25.04.2022
2531 Clouds 17 1005 70 10000 6.17 230 20:45 25.04.2022
2532 Clouds 18 1006 63 10000 5.66 230 19:34 25.04.2022
2533 Clouds 18 1005 59 10000 6.17 240 18:23 25.04.2022
2534 Clouds 19 1007 58 10000 6.17 230 17:32 25.04.2022
2535 Clouds 19 1007 60 10000 5.66 190 15:30 25.04.2022
2536 Clouds 18 1007 63 10000 5.66 170 14:54 25.04.2022
2537 Fog 17 1007 70 10000 4.63 170 13:41 25.04.2022
2538 Fog 16 1012 78 8000 3.6 90 11:49 25.04.2022
2539 Mist 14 1007 88 4500 3.09 120 10:27 25.04.2022
2540 Fog 11 1007 91 4500 2.06 60 08:47 25.04.2022
2541 Clouds 11 1006 88 10000 2.06 100 06:49 25.04.2022
2542 Clear 11 1006 87 10000 0.45 45 05:23 25.04.2022
2543 Clear 14 1008 82 10000 3.09 260 00:58 25.04.2022
2544 Clear 14 1008 78 10000 2.06 240 23:52 24.04.2022
2545 Clear 15 1009 78 10000 3.09 250 22:52 24.04.2022
2546 Clear 15 1013 77 10000 3.09 310 22:31 24.04.2022
2547 Clouds 16 1008 71 10000 4.12 250 21:42 24.04.2022
2548 Clouds 16 1008 70 10000 4.12 250 21:18 24.04.2022
2549 Clouds 17 1008 68 10000 4.63 250 20:37 24.04.2022
2550 Clouds 17 1008 64 10000 4.63 260 19:48 24.04.2022
2551 Clouds 18 1006 61 10000 4.63 210 18:28 24.04.2022
2552 Clouds 18 1009 63 10000 6.17 260 17:37 24.04.2022
2553 Clouds 18 1009 65 10000 6.17 260 17:19 24.04.2022
2554 Clouds 18 1009 63 10000 5.66 270 16:37 24.04.2022
2555 Clouds 18 1009 63 10000 4.63 220 15:56 24.04.2022
2556 Clouds 18 1009 61 10000 5.14 210 15:31 24.04.2022
2557 Clouds 18 1009 61 10000 5.14 210 15:31 24.04.2022
2558 Clouds 17 1009 62 10000 4.63 200 14:19 24.04.2022
2559 Clouds 17 1009 62 10000 3.6 200 13:25 24.04.2022
2560 Clouds 17 1009 67 10000 2.57 110 12:32 24.04.2022
2561 Clouds 16 1014 72 10000 2.06 90 11:34 24.04.2022
2562 Clouds 14 1014 76 10000 1.54 100 10:27 24.04.2022
2563 Clouds 12 1009 87 10000 1.54 10 09:26 24.04.2022
2564 Clear 10 1007 86 10000 1.03 0 06:46 24.04.2022
2565 Clouds 11 1007 84 10000 1.54 260 03:57 24.04.2022
2566 Clouds 12 1007 82 10000 2.06 270 01:38 24.04.2022
2567 Clouds 12 1007 82 10000 2.06 270 01:38 24.04.2022
2568 Clouds 13 1007 79 10000 3.09 280 00:29 24.04.2022
2569 Clouds 13 1007 78 10000 2.57 230 23:45 23.04.2022
2570 Clouds 14 1006 77 10000 2.57 290 23:22 23.04.2022
2571 Clouds 15 1006 73 10000 5.14 240 21:53 23.04.2022
2572 Clouds 15 1006 72 10000 5.14 240 21:34 23.04.2022
2573 Clouds 16 1005 68 10000 5.66 250 20:51 23.04.2022
2574 Clouds 16 1005 64 10000 5.66 240 19:48 23.04.2022
2575 Clouds 16 1005 63 10000 5.66 240 19:19 23.04.2022
2576 Clouds 16 1004 63 10000 5.66 230 18:52 23.04.2022
2577 Clouds 17 1004 58 10000 6.69 250 17:51 23.04.2022
2578 Clouds 17 1004 60 10000 6.69 250 17:26 23.04.2022
2579 Clouds 16 1004 63 10000 5.66 250 16:41 23.04.2022
2580 Clouds 17 1003 63 10000 6.17 230 15:28 23.04.2022
2581 Clouds 15 1002 68 10000 5.14 250 12:44 23.04.2022
2582 Clouds 14 1000 72 10000 3.6 210 10:44 23.04.2022
2583 Clouds 11 1000 79 10000 3.09 240 09:33 23.04.2022
2584 Clouds 10 997 78 10000 4.12 260 06:32 23.04.2022
2585 Clouds 10 995 81 10000 6.17 270 03:54 23.04.2022
2586 Clouds 10 991 80 10000 2.68 272 01:20 23.04.2022
2587 Clouds 11 992 77 10000 6.17 260 23:30 22.04.2022
2588 Rain 10 992 80 10000 5.66 260 22:20 22.04.2022
2589 Clouds 10 992 81 10000 4.12 230 21:43 22.04.2022
2590 Clouds 11 992 79 10000 5.66 240 20:47 22.04.2022
2591 Rain 11 992 80 10000 4.63 260 20:27 22.04.2022
2592 Rain 11 991 79 10000 8.75 230 19:20 22.04.2022
2593 Clouds 13 991 74 10000 7.72 250 18:42 22.04.2022
2594 Clouds 12 991 77 9000 7.72 230 17:41 22.04.2022
2595 Rain 13 991 70 10000 6.69 230 16:46 22.04.2022
2596 Rain 14 991 70 10000 7.15 180 15:42 22.04.2022
2597 Clouds 12 992 80 10000 5.66 230 14:46 22.04.2022
2598 Rain 12 993 79 10000 5.66 230 13:50 22.04.2022
2599 Clouds 12 993 81 9000 6.17 240 12:58 22.04.2022
2600 Clouds 12 993 81 10000 5.14 230 11:50 22.04.2022
2601 Clouds 12 992 80 9000 7.2 230 11:22 22.04.2022
2602 Clouds 12 993 78 10000 6.17 240 10:50 22.04.2022
2603 Clouds 13 994 79 8000 6.17 240 10:30 22.04.2022
2604 Clouds 13 994 79 10000 6.17 230 09:50 22.04.2022
2605 Clouds 13 994 79 10000 6.17 240 08:50 22.04.2022
2606 Clouds 13 991 81 10000 5.14 230 07:20 22.04.2022
2607 Clouds 13 997 85 10000 4.12 220 03:30 22.04.2022
2608 Clouds 14 1005 82 10000 5.66 220 00:51 22.04.2022
2609 Clouds 14 1000 82 10000 7.2 230 23:25 21.04.2022
2610 Clouds 14 1000 82 10000 8.75 210 22:29 21.04.2022
2611 Clouds 15 1003 74 10000 7.2 230 20:37 21.04.2022
2612 Clouds 15 1003 74 10000 7.2 230 20:18 21.04.2022
2613 Clouds 16 1004 68 10000 7.2 240 18:42 21.04.2022
2614 Clouds 16 1005 65 10000 6.69 240 17:57 21.04.2022
2615 Clouds 16 1006 62 10000 7.2 230 16:44 21.04.2022
2616 Clouds 16 1006 61 10000 6.17 250 15:22 21.04.2022
2617 Clouds 16 1007 62 10000 6.17 240 14:49 21.04.2022
2618 Clouds 16 1009 60 10000 5.66 270 13:23 21.04.2022
2619 Clouds 16 1008 62 10000 4.12 290 12:57 21.04.2022
2620 Clouds 14 1007 74 10000 3.6 300 10:49 21.04.2022
2621 Rain 13 1009 80 10000 3.09 320 08:57 21.04.2022
2622 Rain 13 1008 78 10000 3.6 320 07:32 21.04.2022
2623 Clouds 12 1009 74 10000 6.17 320 05:42 21.04.2022
2624 Clouds 12 1007 71 10000 4.63 350 03:32 21.04.2022
2625 Clouds 12 1011 70 10000 7.72 330 02:47 21.04.2022
2626 Clouds 13 1017 67 10000 6.17 320 00:47 21.04.2022
2627 Clouds 13 1017 66 10000 6.17 340 23:51 20.04.2022
2628 Clouds 13 1017 66 10000 6.17 340 23:22 20.04.2022
2629 Clouds 13 1012 66 10000 10.29 340 22:50 20.04.2022
2630 Clouds 13 1012 66 10000 10.29 340 22:31 20.04.2022
2631 Clouds 13 1011 63 10000 10.8 340 21:29 20.04.2022
2632 Clouds 14 1009 59 10000 12.86 330 20:37 20.04.2022
2633 Clouds 15 1011 56 10000 13.89 340 19:52 20.04.2022
2634 Clouds 15 1011 54 10000 13.89 330 19:21 20.04.2022
2635 Clouds 16 1011 51 10000 13.86 340 18:23 20.04.2022
2636 Clouds 16 1011 48 10000 13.38 350 16:56 20.04.2022
2637 Clouds 16 1011 48 10000 13.89 340 16:37 20.04.2022
2638 Clouds 16 1011 49 10000 12.86 340 14:21 20.04.2022
2639 Clouds 14 1010 53 10000 14.92 340 11:52 20.04.2022
2640 Clouds 14 1009 56 10000 13.38 340 11:25 20.04.2022
2641 Clouds 13 1009 67 10000 9.77 360 10:24 20.04.2022
2642 Clouds 12 1009 71 10000 8.75 350 09:25 20.04.2022
2643 Clouds 11 1009 75 10000 11.32 340 08:22 20.04.2022
2644 Clouds 11 1007 70 10000 4.63 330 07:42 20.04.2022
2645 Clouds 12 1011 66 10000 7.72 330 03:54 20.04.2022
2646 Clouds 13 1009 61 10000 6.71 2 00:38 20.04.2022
2647 Clouds 13 1009 61 10000 6.71 2 00:20 20.04.2022
2648 Clouds 13 1013 61 10000 13.38 350 22:28 19.04.2022
2649 Clouds 13 1012 62 10000 10.8 340 21:57 19.04.2022
2650 Clouds 13 1012 61 10000 13.89 340 21:34 19.04.2022
2651 Clouds 14 1012 57 10000 13.89 350 20:50 19.04.2022
2652 Clouds 14 1012 55 10000 11.83 340 20:32 19.04.2022
2653 Clouds 15 1012 53 10000 12.86 340 19:24 19.04.2022
2654 Clouds 16 1012 51 10000 15.95 340 17:59 19.04.2022
2655 Clouds 16 1012 50 10000 15.43 340 16:44 19.04.2022
2656 Clouds 16 1012 50 10000 12.86 340 16:24 19.04.2022
2657 Clouds 16 1013 49 10000 15.95 340 14:51 19.04.2022
2658 Clouds 16 1013 49 10000 14.4 330 14:31 19.04.2022
2659 Clouds 15 1013 51 10000 15.95 340 12:52 19.04.2022
2660 Clouds 15 1013 52 10000 15.95 340 12:26 19.04.2022
2661 Clouds 15 1013 54 10000 12.35 350 11:22 19.04.2022
2662 Clouds 13 1013 62 10000 11.32 340 09:25 19.04.2022
2663 Clouds 13 1011 66 10000 9.26 350 06:34 19.04.2022
2664 Clouds 13 1009 65 10000 8.23 350 04:19 19.04.2022
2665 Clouds 13 1014 65 10000 10.29 350 00:56 19.04.2022
2666 Clouds 13 1014 65 10000 9.26 340 23:38 18.04.2022
2667 Clouds 14 1013 65 10000 12.86 350 21:48 18.04.2022
2668 Clouds 14 1013 63 10000 9.77 350 21:24 18.04.2022
2669 Clouds 15 1012 60 10000 13.38 350 20:38 18.04.2022
2670 Clouds 16 1012 58 10000 13.38 350 19:59 18.04.2022
2671 Clouds 16 1011 57 10000 14.92 350 19:29 18.04.2022
2672 Clouds 17 1011 57 10000 14.92 350 18:34 18.04.2022
2673 Clouds 17 1012 58 10000 13.38 350 17:39 18.04.2022
2674 Clouds 17 1012 58 10000 13.38 350 17:39 18.04.2022
2675 Clouds 18 1012 58 10000 13.38 350 17:19 18.04.2022
2676 Clouds 18 1012 60 10000 15.95 350 16:36 18.04.2022
2677 Clouds 18 1012 60 10000 13.89 350 15:28 18.04.2022
2678 Clouds 17 1013 63 10000 12.86 350 13:55 18.04.2022
2679 Clouds 17 1013 66 10000 14.4 350 12:41 18.04.2022
2680 Clouds 16 1012 69 10000 15.43 350 11:48 18.04.2022
2681 Clouds 15 1012 72 10000 13.89 350 10:46 18.04.2022
2682 Clouds 14 1012 78 10000 14.4 350 09:31 18.04.2022
2683 Clouds 14 1011 81 10000 14.92 350 08:39 18.04.2022
2684 Clouds 14 1008 79 10000 8.75 310 06:44 18.04.2022
2685 Clouds 15 1009 80 10000 6.17 340 02:27 18.04.2022
2686 Clear 15 1013 76 10000 11.32 360 22:55 17.04.2022
2687 Clouds 15 1013 76 10000 11.32 360 22:32 17.04.2022
2688 Clouds 16 1011 70 10000 9.77 360 21:34 17.04.2022
2689 Clouds 17 1010 65 10000 10.8 360 20:51 17.04.2022
2690 Clouds 19 1012 62 10000 11.83 350 20:18 17.04.2022
2691 Clouds 20 1017 59 10000 10.8 360 18:42 17.04.2022
2692 Clouds 20 1013 59 10000 8.75 350 17:20 17.04.2022
2693 Clouds 21 1014 58 10000 10.8 350 15:34 17.04.2022
2694 Clouds 20 1015 59 10000 7.2 340 14:45 17.04.2022
2695 Clouds 19 1015 60 10000 8.23 340 13:28 17.04.2022
2696 Clouds 18 1015 63 10000 7.2 350 12:45 17.04.2022
2697 Clouds 15 1020 70 10000 6.69 360 10:51 17.04.2022
2698 Clouds 15 1015 72 10000 7.2 360 10:29 17.04.2022
2699 Clouds 14 1015 76 10000 9.26 360 09:51 17.04.2022
2700 Clouds 13 1015 78 10000 9.26 350 09:20 17.04.2022
2701 Clouds 13 1015 80 10000 10.8 360 08:31 17.04.2022
2702 Clear 13 1014 77 10000 3.09 340 05:34 17.04.2022
2703 Clear 15 1015 62 10000 3.09 320 02:26 17.04.2022
2704 Clear 15 1015 65 10000 3.09 330 00:41 17.04.2022
2705 Clear 16 1015 69 10000 5.14 340 23:30 16.04.2022
2706 Clear 16 1014 75 10000 7.2 310 21:47 16.04.2022
2707 Clear 19 1014 65 10000 5.14 310 20:54 16.04.2022
2708 Clear 24 1015 48 10000 4.63 320 19:28 16.04.2022
2709 Clear 25 1020 46 10000 5.14 330 18:43 16.04.2022
2710 Clear 26 1021 44 10000 4.63 20 17:20 16.04.2022
2711 Clouds 25 1022 48 10000 3.09 90 15:51 16.04.2022
2712 Clouds 25 1016 47 10000 3.6 220 14:58 16.04.2022
2713 Clear 24 1022 54 10000 3.09 20 14:40 16.04.2022
2714 Clear 23 1017 51 10000 3.09 360 13:50 16.04.2022
2715 Clear 23 1017 53 10000 3.09 360 13:18 16.04.2022
2716 Clear 20 1018 61 10000 3.09 10 11:43 16.04.2022
2717 Clear 16 1017 73 10000 4.12 30 10:33 16.04.2022
2718 Clouds 13 1017 83 10000 4.63 350 09:37 16.04.2022
2719 Clouds 14 1014 81 10000 6.69 30 08:52 16.04.2022
2720 Clouds 13 1013 80 10000 3.6 310 07:22 16.04.2022
2721 Clear 14 1013 79 10000 4.12 310 05:38 16.04.2022
2722 Clear 15 1016 77 10000 3.09 360 01:47 16.04.2022
2723 Clear 16 1016 76 10000 6.69 310 23:52 15.04.2022
2724 Clear 17 1014 71 10000 6.17 310 22:51 15.04.2022
2725 Clear 18 1014 69 10000 6.17 310 22:29 15.04.2022
2726 Clear 20 1015 68 10000 5.14 20 21:25 15.04.2022
2727 Clear 23 1020 60 10000 4.63 10 20:38 15.04.2022
2728 Clear 24 1020 58 10000 5.66 10 19:46 15.04.2022
2729 Clouds 24 1020 58 10000 5.66 10 19:23 15.04.2022
2730 Clouds 24 1020 54 10000 5.66 20 18:42 15.04.2022
2731 Clouds 24 1020 57 10000 5.66 20 18:22 15.04.2022
2732 Clouds 24 1020 53 10000 4.12 10 17:27 15.04.2022
2733 Clouds 24 1016 48 10000 4.12 30 16:25 15.04.2022
2734 Clouds 23 1016 53 10000 2.57 110 15:46 15.04.2022
2735 Clear 21 1015 58 10000 3.09 160 14:18 15.04.2022
2736 Clear 20 1017 62 10000 3.6 30 12:52 15.04.2022
2737 Clear 19 1017 64 10000 4.12 20 12:26 15.04.2022
2738 Clear 18 1017 65 10000 4.63 10 11:52 15.04.2022
2739 Clouds 15 1021 73 10000 3.6 20 10:48 15.04.2022
2740 Clouds 15 1015 78 10000 3.6 330 10:21 15.04.2022
2741 Clouds 13 1015 82 10000 6.17 360 09:23 15.04.2022
2742 Clouds 13 1021 82 10000 6.69 360 08:49 15.04.2022
2743 Clear 12 1015 84 10000 4.63 310 06:52 15.04.2022
2744 Clear 13 1012 77 10000 3.6 330 04:49 15.04.2022
2745 Clouds 13 1015 82 10000 4.63 350 01:27 15.04.2022
2746 Clouds 14 1021 82 10000 8.23 10 23:29 14.04.2022
2747 Clouds 14 1015 81 10000 9.77 10 22:46 14.04.2022
2748 Clouds 14 1015 80 10000 8.23 360 22:27 14.04.2022
2749 Clouds 14 1014 80 10000 8.75 360 21:53 14.04.2022
2750 Clouds 20 1014 62 10000 7.72 360 19:53 14.04.2022
2751 Clouds 20 1014 60 10000 7.72 360 19:22 14.04.2022
2752 Clouds 21 1014 56 10000 7.2 360 17:48 14.04.2022
2753 Clouds 21 1014 54 10000 6.69 350 17:27 14.04.2022
2754 Clouds 22 1014 56 10000 7.72 350 16:32 14.04.2022
2755 Clouds 20 1015 61 10000 8.23 360 13:55 14.04.2022
2756 Clouds 20 1015 63 10000 7.2 360 13:26 14.04.2022
2757 Clouds 20 1015 63 10000 7.2 360 13:26 14.04.2022
2758 Clouds 18 1015 67 10000 5.66 330 12:38 14.04.2022
2759 Clouds 18 1015 67 10000 5.66 330 12:19 14.04.2022
2760 Clouds 17 1019 72 10000 4.63 10 11:21 14.04.2022
2761 Clouds 15 1018 77 10000 4.63 360 10:36 14.04.2022
2762 Clouds 13 1013 83 10000 6.69 360 09:52 14.04.2022
2763 Clouds 13 1013 85 10000 6.17 360 08:39 14.04.2022
2764 Clouds 13 1012 84 10000 5.66 310 06:26 14.04.2022
2765 Clouds 13 1013 81 10000 5.14 310 01:49 14.04.2022
2766 Clouds 14 1013 76 10000 8.75 340 22:45 13.04.2022
2767 Clouds 15 1012 72 10000 7.72 340 21:44 13.04.2022
2768 Clouds 16 1012 68 10000 7.72 340 20:48 13.04.2022
2769 Clouds 17 1012 65 10000 6.69 340 20:22 13.04.2022
2770 Clouds 17 1012 61 10000 10.29 350 19:23 13.04.2022
2771 Clouds 19 1011 59 10000 8.75 330 17:54 13.04.2022
2772 Clouds 19 1011 59 10000 9.26 330 17:23 13.04.2022
2773 Clouds 19 1012 57 10000 7.72 330 16:33 13.04.2022
2774 Clouds 18 1012 60 10000 7.72 330 15:32 13.04.2022
2775 Clouds 18 1012 60 10000 7.72 340 14:50 13.04.2022
2776 Clouds 18 1012 64 10000 6.17 340 13:58 13.04.2022
2777 Clouds 17 1012 63 10000 7.2 360 13:19 13.04.2022
2778 Clouds 16 1011 68 10000 7.72 350 12:20 13.04.2022
2779 Clouds 15 1012 75 10000 7.2 350 10:47 13.04.2022
2780 Clouds 13 1011 88 10000 4.12 350 08:57 13.04.2022
2781 Clouds 13 1011 88 10000 4.63 360 08:33 13.04.2022
2782 Clouds 13 1009 86 10000 3.6 320 06:51 13.04.2022
2783 Clouds 13 1009 87 10000 3.6 320 06:25 13.04.2022
2784 Clouds 13 1009 84 10000 3.09 290 04:55 13.04.2022
2785 Clouds 14 1008 82 10000 2.57 320 00:20 13.04.2022
2786 Clouds 14 1008 83 10000 3.6 320 23:21 12.04.2022
2787 Clouds 15 1007 74 10000 4.63 300 21:58 12.04.2022
2788 Clouds 16 1007 67 10000 4.63 300 20:57 12.04.2022
2789 Clouds 16 1006 65 10000 5.66 310 20:38 12.04.2022
2790 Clouds 16 1006 63 10000 5.66 280 19:48 12.04.2022
2791 Clouds 17 1004 61 10000 5.14 290 19:29 12.04.2022
2792 Clouds 18 1005 57 10000 5.66 270 17:59 12.04.2022
2793 Clouds 18 1005 55 10000 6.17 270 17:23 12.04.2022
2794 Clouds 17 1010 58 10000 6.69 260 16:22 12.04.2022
2795 Clouds 17 1005 61 10000 6.17 280 15:29 12.04.2022
2796 Clouds 17 1005 62 10000 6.17 260 14:21 12.04.2022
2797 Clouds 17 1005 66 10000 4.63 290 13:29 12.04.2022
2798 Clouds 16 1005 67 10000 5.14 260 12:52 12.04.2022
2799 Clouds 15 1004 73 10000 3.6 280 11:46 12.04.2022
2800 Clouds 14 1003 83 10000 2.06 210 10:35 12.04.2022
2801 Rain 12 1001 87 10000 1.54 280 09:18 12.04.2022
2802 Rain 13 1001 84 10000 3.58 171 07:55 12.04.2022
2803 Clouds 13 1000 92 10000 3.6 210 06:24 12.04.2022
2804 Clouds 13 998 93 10000 2.57 220 05:31 12.04.2022
2805 Clouds 14 1000 84 10000 6.69 210 23:59 11.04.2022
2806 Clouds 15 1001 82 10000 5.14 210 22:44 11.04.2022
2807 Clouds 15 1000 78 10000 5.14 220 21:41 11.04.2022
2808 Clouds 16 1000 77 10000 6.17 210 20:57 11.04.2022
2809 Clouds 16 1005 70 10000 7.2 220 20:29 11.04.2022
2810 Clouds 16 1000 71 10000 7.72 220 19:54 11.04.2022
2811 Clouds 17 998 64 10000 6.69 220 19:18 11.04.2022
2812 Clouds 17 999 63 10000 6.69 220 18:47 11.04.2022
2813 Clouds 17 999 62 10000 7.72 220 17:57 11.04.2022
2814 Clouds 17 1000 65 10000 9.26 210 16:54 11.04.2022
2815 Clouds 17 1000 66 10000 9.26 220 15:56 11.04.2022
2816 Clouds 17 999 70 10000 7.72 220 14:33 11.04.2022
2817 Clouds 15 998 76 10000 6.69 220 12:53 11.04.2022
2818 Clouds 14 999 83 10000 6.69 250 12:33 11.04.2022
2819 Rain 15 1003 80 10000 10.8 210 11:33 11.04.2022
2820 Clouds 16 998 84 10000 10.8 190 10:28 11.04.2022
2821 Clouds 15 998 88 10000 7.72 190 09:20 11.04.2022
2822 Clouds 15 997 89 10000 5.66 200 06:44 11.04.2022
2823 Clouds 15 1000 82 10000 8.75 190 01:55 11.04.2022
2824 Clouds 16 1001 81 10000 6.69 200 22:38 10.04.2022
2825 Clouds 16 1001 79 10000 6.69 210 21:55 10.04.2022
2826 Clouds 16 1001 80 10000 7.72 210 21:32 10.04.2022
2827 Clouds 16 1001 75 10000 9.77 210 20:31 10.04.2022
2828 Clouds 17 1006 73 10000 10.29 210 19:45 10.04.2022
2829 Clouds 17 1001 74 10000 8.75 210 19:22 10.04.2022
2830 Clouds 18 1006 68 10000 8.75 210 18:43 10.04.2022
2831 Clouds 18 1002 65 10000 8.23 210 17:54 10.04.2022
2832 Clouds 18 1002 65 10000 8.75 220 17:34 10.04.2022
2833 Clouds 19 1003 64 10000 8.23 210 16:25 10.04.2022
2834 Clouds 18 1002 68 10000 7.72 210 15:20 10.04.2022
2835 Clouds 18 1004 68 10000 8.49 87 14:22 10.04.2022
2836 Fog 18 1003 70 10000 5.14 150 12:35 10.04.2022
2837 Fog 17 1003 76 7000 3.6 150 11:49 10.04.2022
2838 Fog 16 1003 79 7000 4.63 120 11:29 10.04.2022
2839 Fog 15 1003 83 100 3.6 120 10:54 10.04.2022
2840 Fog 15 1003 83 100 3.6 120 10:54 10.04.2022
2841 Fog 13 1004 89 50 2.06 80 09:56 10.04.2022
2842 Fog 13 1004 88 250 2.06 90 09:28 10.04.2022
2843 Fog 12 1006 90 900 2.57 100 08:22 10.04.2022
2844 Clouds 12 1006 88 10000 2.06 0 07:27 10.04.2022
2845 Clouds 12 1007 89 10000 1.03 250 05:46 10.04.2022
2846 Clouds 13 1010 86 10000 2.06 160 02:21 10.04.2022
2847 Clouds 15 1008 83 10000 1.54 220 00:27 10.04.2022
2848 Clouds 15 1011 84 10000 1.03 230 23:48 09.04.2022
2849 Clouds 15 1012 82 10000 2.57 280 22:47 09.04.2022
2850 Clouds 16 1012 83 10000 4.12 270 21:35 09.04.2022
2851 Clouds 16 1012 79 10000 4.12 270 20:48 09.04.2022
2852 Clouds 16 1013 79 10000 4.12 210 20:25 09.04.2022
2853 Clouds 17 1013 84 10000 4.63 230 19:41 09.04.2022
2854 Clouds 17 1013 84 10000 5.14 260 18:55 09.04.2022
2855 Clouds 17 1013 86 10000 5.14 260 18:19 09.04.2022
2856 Drizzle 17 1014 88 10000 5.14 240 17:39 09.04.2022
2857 Clouds 17 1014 85 10000 7.2 240 16:50 09.04.2022
2858 Drizzle 17 1014 85 10000 5.66 220 15:55 09.04.2022
2859 Drizzle 17 1014 85 10000 7.2 230 15:29 09.04.2022
2860 Drizzle 17 1014 88 10000 6.17 240 14:44 09.04.2022
2861 Drizzle 17 1014 90 9000 5.66 240 14:22 09.04.2022
2862 Clouds 17 1014 91 9000 5.14 220 13:18 09.04.2022
2863 Mist 16 1015 88 4000 5.14 230 12:41 09.04.2022
2864 Drizzle 16 1014 88 4000 5.14 230 11:22 09.04.2022
2865 Drizzle 15 1014 89 3000 4.12 220 10:21 09.04.2022
2866 Drizzle 15 1014 88 4000 4.63 230 09:38 09.04.2022
2867 Drizzle 15 1014 90 7000 4.12 240 08:53 09.04.2022
2868 Clouds 15 1013 88 7000 4.63 230 06:56 09.04.2022
2869 Clouds 15 1015 83 10000 5.14 230 01:32 09.04.2022
2870 Clouds 15 1017 83 10000 4.12 230 23:45 08.04.2022
2871 Clouds 15 1015 79 10000 4.63 250 21:58 08.04.2022
2872 Clouds 16 1015 78 10000 4.63 240 21:29 08.04.2022
2873 Clouds 16 1015 74 10000 5.14 260 20:38 08.04.2022
2874 Clouds 17 1015 71 10000 5.14 250 19:20 08.04.2022
2875 Clouds 17 1015 73 10000 5.66 250 18:30 08.04.2022
2876 Clouds 17 1017 72 10000 7.2 250 17:49 08.04.2022
2877 Clouds 17 1017 73 10000 6.69 250 17:25 08.04.2022
2878 Clouds 17 1017 70 10000 6.17 230 16:47 08.04.2022
2879 Clouds 17 1017 71 10000 7.2 220 15:57 08.04.2022
2880 Clouds 17 1017 70 10000 6.69 230 15:26 08.04.2022
2881 Clouds 17 1018 70 10000 7.2 230 14:33 08.04.2022
2882 Clouds 17 1018 70 10000 6.69 240 13:46 08.04.2022
2883 Clouds 16 1018 71 10000 7.2 240 13:27 08.04.2022
2884 Clouds 17 1016 67 10000 6.17 230 12:18 08.04.2022
2885 Clouds 15 1018 71 10000 4.12 250 10:37 08.04.2022
2886 Clouds 15 1017 71 10000 3.09 230 09:38 08.04.2022
2887 Clouds 15 1017 70 10000 3.09 230 08:51 08.04.2022
2888 Clouds 15 1016 63 10000 4.12 250 06:55 08.04.2022
2889 Clouds 15 1017 67 10000 3.6 230 05:23 08.04.2022
2890 Clouds 15 1019 69 10000 2.57 260 01:29 08.04.2022
2891 Clouds 15 1019 67 10000 3.09 290 00:25 08.04.2022
2892 Clouds 15 1020 71 10000 3.6 270 22:59 07.04.2022
2893 Clouds 15 1019 68 10000 2.57 280 22:40 07.04.2022
2894 Clouds 15 1019 68 10000 2.57 280 22:21 07.04.2022
2895 Clouds 15 1019 65 10000 3.6 310 21:53 07.04.2022
2896 Clouds 15 1017 62 10000 3.09 290 21:19 07.04.2022
2897 Clouds 15 1019 66 10000 5.14 260 20:38 07.04.2022
2898 Clouds 16 1019 63 10000 4.63 260 18:48 07.04.2022
2899 Clouds 16 1019 64 10000 5.66 260 17:27 07.04.2022
2900 Clouds 16 1020 65 10000 4.63 260 16:45 07.04.2022
2901 Clouds 16 1020 64 10000 4.63 260 16:23 07.04.2022
2902 Clouds 16 1020 63 10000 4.63 260 15:19 07.04.2022
2903 Clouds 15 1020 65 10000 4.12 260 13:45 07.04.2022
2904 Clouds 15 1020 64 10000 3.6 260 13:22 07.04.2022
2905 Clouds 14 1020 68 10000 3.09 270 11:40 07.04.2022
2906 Clouds 13 1019 67 10000 3.09 290 10:27 07.04.2022
2907 Clouds 13 1019 68 10000 3.6 300 08:39 07.04.2022
2908 Clouds 13 1017 68 10000 3.09 320 06:58 07.04.2022
2909 Clouds 13 1018 68 10000 4.12 340 03:59 07.04.2022
2910 Clouds 13 1018 70 10000 4.63 330 02:29 07.04.2022
2911 Clouds 13 1017 71 10000 5.66 350 00:42 07.04.2022
2912 Clouds 13 1017 70 10000 5.66 330 22:58 06.04.2022
2913 Clouds 14 1017 70 10000 5.66 330 22:39 06.04.2022
2914 Clouds 14 1016 70 10000 5.14 330 21:47 06.04.2022
2915 Clouds 15 1015 70 10000 6.69 320 20:41 06.04.2022
2916 Clouds 15 1015 66 10000 5.14 330 19:59 06.04.2022
2917 Clouds 16 1015 63 10000 5.66 320 19:19 06.04.2022
2918 Clouds 17 1015 60 10000 6.69 340 18:47 06.04.2022
2919 Clouds 18 1014 51 10000 8.23 330 17:35 06.04.2022
2920 Clouds 18 1015 48 10000 9.77 340 16:39 06.04.2022
2921 Clouds 18 1015 50 10000 9.26 350 15:57 06.04.2022
2922 Clouds 18 1014 51 10000 5.14 320 15:39 06.04.2022
2923 Clouds 17 1014 56 10000 3.13 189 13:31 06.04.2022
2924 Clouds 16 1014 61 10000 3.6 340 12:29 06.04.2022
2925 Clouds 14 1013 69 10000 2.57 300 10:57 06.04.2022
2926 Clouds 12 1013 70 10000 2.06 230 10:33 06.04.2022
2927 Clouds 11 1012 72 10000 2.06 250 09:46 06.04.2022
2928 Clear 9 1012 75 10000 1.54 260 08:51 06.04.2022
2929 Clear 9 1010 74 10000 5.66 70 07:57 06.04.2022
2930 Clear 11 1007 69 10000 1.54 360 05:23 06.04.2022
2931 Clouds 10 1006 74 10000 3.09 350 00:20 06.04.2022
2932 Clouds 10 1010 74 10000 5.14 30 23:47 05.04.2022
2933 Clouds 11 1008 73 10000 6.17 40 21:48 05.04.2022
2934 Clouds 11 1008 70 10000 5.66 40 20:58 05.04.2022
2935 Clouds 12 1008 70 10000 5.66 50 20:23 05.04.2022
2936 Clouds 11 1007 77 10000 5.66 50 18:31 05.04.2022
2937 Clouds 11 1007 75 10000 6.17 70 17:21 05.04.2022
2938 Clouds 11 1007 76 10000 6.17 50 16:42 05.04.2022
2939 Clouds 11 1012 74 10000 6.69 50 15:51 05.04.2022
2940 Clouds 11 1013 74 10000 7.2 50 15:30 05.04.2022
2941 Clouds 10 1007 74 10000 7.2 60 13:49 05.04.2022
2942 Clouds 10 1007 71 10000 7.72 60 12:33 05.04.2022
2943 Clouds 10 1007 72 10000 8.23 60 11:43 05.04.2022
2944 Clouds 10 1007 71 10000 8.75 60 11:24 05.04.2022
2945 Rain 9 1006 72 10000 7.2 60 09:31 05.04.2022
2946 Rain 9 1006 68 10000 7.72 60 08:47 05.04.2022
2947 Clear 12 1004 48 10000 8.23 40 04:19 05.04.2022
2948 Clear 14 1005 45 10000 5.14 50 23:45 04.04.2022
2949 Clear 14 1004 43 10000 5.66 70 22:38 04.04.2022
2950 Clear 15 1004 41 10000 5.36 335 21:51 04.04.2022
2951 Clouds 15 1004 39 10000 5.66 40 21:20 04.04.2022
2952 Clouds 15 1003 37 10000 6.17 40 20:48 04.04.2022
2953 Clear 16 1003 34 10000 7.72 50 19:38 04.04.2022
2954 Clear 16 1003 32 10000 8.75 60 18:46 04.04.2022
2955 Clear 16 1004 31 10000 8.75 50 17:33 04.04.2022
2956 Clear 16 1004 32 10000 8.75 50 16:36 04.04.2022
2957 Clear 15 1005 33 10000 9.26 40 15:34 04.04.2022
2958 Clear 14 1005 34 10000 8.23 60 14:49 04.04.2022
2959 Clear 14 1005 36 10000 9.77 50 14:31 04.04.2022
2960 Clear 13 1005 39 10000 9.26 50 13:18 04.04.2022
2961 Clear 10 1006 43 10000 9.77 50 11:29 04.04.2022
2962 Clear 9 1006 43 10000 9.77 50 10:49 04.04.2022
2963 Clear 9 1004 43 10000 9.77 40 07:46 04.04.2022
2964 Clear 11 1003 34 10000 8.23 30 03:19 04.04.2022
2965 Clear 12 1006 54 10000 5.66 340 00:25 04.04.2022
2966 Clear 12 1006 53 10000 6.69 340 22:31 03.04.2022
2967 Clouds 13 1006 48 10000 8.75 360 21:38 03.04.2022
2968 Clear 15 1004 42 10000 8.75 350 20:41 03.04.2022
2969 Clear 16 1004 35 10000 10.8 350 19:45 03.04.2022
2970 Clear 17 1006 19 10000 8.23 20 18:31 03.04.2022
2971 Clear 17 1006 19 10000 7.72 30 17:46 03.04.2022
2972 Clouds 17 1007 23 10000 7.2 20 16:50 03.04.2022
2973 Clouds 17 1007 24 10000 7.2 30 16:31 03.04.2022
2974 Clear 15 1009 28 10000 8.23 60 14:38 03.04.2022
2975 Clear 15 1009 31 10000 8.23 60 13:46 03.04.2022
2976 Clear 12 1010 37 10000 6.69 60 12:38 03.04.2022
2977 Clear 11 1009 39 10000 6.69 50 10:58 03.04.2022
2978 Clear 9 1008 44 10000 5.66 50 09:36 03.04.2022
2979 Clear 9 1010 46 10000 7.2 40 08:27 03.04.2022
2980 Clear 10 1010 47 10000 5.14 40 04:37 03.04.2022
2981 Clear 11 1010 60 10000 4.12 320 00:41 03.04.2022
2982 Clear 13 1010 54 10000 4.63 330 23:21 02.04.2022
2983 Clear 14 1011 50 10000 5.14 330 21:58 02.04.2022
2984 Clear 14 1010 45 10000 4.63 10 21:36 02.04.2022
2985 Clear 15 1010 43 10000 4.63 10 21:18 02.04.2022
2986 Clear 17 1010 32 10000 5.66 40 19:53 02.04.2022
2987 Clear 18 1011 32 10000 4.63 10 18:23 02.04.2022
2988 Clear 17 1011 31 10000 5.66 10 17:53 02.04.2022
2989 Clear 17 1012 29 10000 6.17 30 16:27 02.04.2022
2990 Clear 17 1013 32 10000 5.14 70 15:22 02.04.2022
2991 Clear 16 1014 39 10000 4.63 50 14:49 02.04.2022
2992 Clear 15 1014 42 10000 4.63 70 13:36 02.04.2022
2993 Clear 13 1014 45 10000 5.66 50 12:47 02.04.2022
2994 Clear 11 1014 47 10000 5.66 40 11:33 02.04.2022
2995 Clear 9 1014 54 10000 5.14 40 09:30 02.04.2022
2996 Clear 9 1012 61 10000 4.63 30 06:51 02.04.2022
2997 Clear 9 1012 61 10000 4.63 30 06:51 02.04.2022
2998 Clear 10 1012 60 10000 5.66 20 03:55 02.04.2022
2999 Clear 11 1012 57 10000 7.2 340 00:19 02.04.2022
3000 Clear 12 1012 58 10000 6.17 330 23:40 01.04.2022
3001 Clear 12 1012 57 10000 7.2 330 21:52 01.04.2022
3002 Clear 14 1012 49 10000 7.2 330 20:52 01.04.2022
3003 Clear 14 1012 45 10000 8.23 350 20:30 01.04.2022
3004 Clear 15 1011 40 10000 6.69 350 19:37 01.04.2022
3005 Clear 16 1011 40 10000 7.72 340 18:52 01.04.2022
3006 Clear 16 1012 42 10000 8.23 350 17:59 01.04.2022
3007 Clear 16 1012 42 10000 8.75 340 17:35 01.04.2022
3008 Clouds 15 1011 42 10000 7.72 340 15:43 01.04.2022
3009 Clouds 15 1011 48 10000 7.72 360 14:39 01.04.2022
3010 Clouds 15 1011 51 10000 9.77 340 13:35 01.04.2022
3011 Clouds 14 1013 55 10000 9.26 340 12:33 01.04.2022
3012 Clouds 13 1013 59 10000 10.8 340 11:44 01.04.2022
3013 Clouds 12 1012 72 10000 8.23 350 10:19 01.04.2022
3014 Clouds 12 1012 78 10000 7.72 340 09:30 01.04.2022
3015 Clouds 12 1007 80 10000 1.79 267 06:55 01.04.2022
3016 Clouds 12 1010 83 10000 4.63 320 04:54 01.04.2022
3017 Clouds 12 1010 82 10000 4.12 330 04:36 01.04.2022
3018 Clouds 13 1016 73 10000 3.6 310 01:59 01.04.2022
3019 Clouds 13 1016 73 10000 5.14 330 00:44 01.04.2022
3020 Clouds 14 1014 70 10000 6.17 320 21:55 31.03.2022
3021 Clouds 14 1014 70 10000 6.17 320 21:33 31.03.2022
3022 Clouds 14 1009 68 10000 5.66 310 20:30 31.03.2022
3023 Clouds 15 1008 66 10000 7.2 320 19:50 31.03.2022
3024 Clouds 15 1008 68 10000 7.2 320 18:52 31.03.2022
3025 Clouds 15 1008 64 10000 6.69 310 17:54 31.03.2022
3026 Clouds 15 1008 64 10000 7.2 330 16:45 31.03.2022
3027 Clouds 15 1008 66 10000 7.72 320 15:50 31.03.2022
3028 Clouds 15 1009 69 10000 5.66 330 15:21 31.03.2022
3029 Clouds 14 1009 69 10000 6.17 320 14:44 31.03.2022
3030 Clouds 15 1009 67 10000 6.17 320 12:48 31.03.2022
3031 Clouds 14 1007 77 10000 5.66 310 11:28 31.03.2022
3032 Clouds 13 1007 79 10000 4.63 310 10:19 31.03.2022
3033 Clouds 13 1005 82 10000 2.06 290 08:29 31.03.2022
3034 Clouds 13 1002 82 10000 2.57 320 06:21 31.03.2022
3035 Clouds 15 1005 80 10000 3.6 280 00:46 31.03.2022
3036 Clouds 14 1005 80 10000 4.63 290 23:23 30.03.2022
3037 Clouds 14 1006 80 10000 5.14 300 21:43 30.03.2022
3038 Clouds 14 1006 80 10000 4.63 310 21:25 30.03.2022
3039 Drizzle 15 1005 76 10000 6.69 320 20:21 30.03.2022
3040 Clouds 16 1005 67 10000 6.69 330 19:38 30.03.2022
3041 Clouds 17 1005 60 10000 8.75 320 18:34 30.03.2022
3042 Clouds 17 1005 58 10000 8.75 330 17:48 30.03.2022
3043 Clouds 17 1005 57 10000 10.29 330 16:58 30.03.2022
3044 Clouds 17 1005 58 10000 10.29 330 16:38 30.03.2022
3045 Clouds 17 1005 57 10000 9.77 330 15:38 30.03.2022
3046 Clouds 16 1006 58 10000 10.8 330 13:57 30.03.2022
3047 Clouds 16 1006 59 10000 10.29 330 13:18 30.03.2022
3048 Clouds 15 1005 66 10000 9.77 340 11:40 30.03.2022
3049 Clouds 14 1005 69 10000 11.32 340 10:37 30.03.2022
3050 Clouds 13 1005 73 10000 9.26 330 09:27 30.03.2022
3051 Clouds 12 1003 73 10000 8.23 320 07:59 30.03.2022
3052 Clouds 13 1003 72 10000 7.2 330 05:41 30.03.2022
3053 Clouds 13 1003 74 10000 8.75 330 04:54 30.03.2022
3054 Clouds 14 1004 76 10000 4.63 340 00:43 30.03.2022
3055 Clouds 14 1005 75 10000 9.26 350 22:35 29.03.2022
3056 Clouds 14 1004 73 10000 9.77 340 21:46 29.03.2022
3057 Clouds 15 1004 73 10000 12.86 340 20:55 29.03.2022
3058 Clouds 15 1003 71 10000 12.35 340 20:24 29.03.2022
3059 Clouds 18 1003 66 10000 10.29 340 18:57 29.03.2022
3060 Clouds 18 1003 66 10000 9.26 340 18:36 29.03.2022
3061 Clouds 19 1003 65 10000 6.69 340 17:39 29.03.2022
3062 Clouds 19 1004 67 10000 6.69 330 16:58 29.03.2022
3063 Clouds 18 1005 70 10000 5.14 340 15:58 29.03.2022
3064 Clouds 17 1005 72 10000 3.6 350 14:53 29.03.2022
3065 Clouds 17 1005 71 10000 3.6 350 14:24 29.03.2022
3066 Clouds 16 1011 73 10000 2.57 350 12:57 29.03.2022
3067 Clouds 16 1006 74 10000 2.57 40 11:45 29.03.2022
3068 Clouds 15 1006 81 10000 3.6 10 10:58 29.03.2022
3069 Clouds 14 1006 88 10000 2.57 360 09:49 29.03.2022
3070 Clouds 14 1005 84 10000 3.6 50 08:20 29.03.2022
3071 Clouds 14 1005 87 10000 4.63 360 05:38 29.03.2022
3072 Rain 16 1007 83 10000 4.63 30 01:25 29.03.2022
3073 Clouds 17 1007 69 10000 3.6 60 23:25 28.03.2022
3074 Rain 18 1006 62 10000 4.63 50 22:54 28.03.2022
3075 Clear 19 1005 58 10000 5.14 50 22:28 28.03.2022
3076 Clear 20 1006 53 10000 6.69 40 20:59 28.03.2022
3077 Clear 20 1005 53 10000 8.23 40 20:31 28.03.2022
3078 Rain 20 1006 52 10000 7.72 40 19:46 28.03.2022
3079 Clear 21 1006 52 10000 7.72 40 19:28 28.03.2022
3080 Clear 21 1006 51 10000 7.2 50 18:40 28.03.2022
3081 Clear 21 1007 50 10000 8.23 40 17:39 28.03.2022
3082 Clear 21 1008 50 10000 6.69 50 16:38 28.03.2022
3083 Clouds 20 1010 50 10000 6.17 60 14:49 28.03.2022
3084 Clouds 20 1010 50 10000 6.17 60 14:22 28.03.2022
3085 Clouds 17 1010 63 10000 6.69 50 12:41 28.03.2022
3086 Clouds 16 1011 67 10000 5.14 50 11:32 28.03.2022
3087 Clouds 15 1011 74 10000 4.12 30 09:43 28.03.2022
3088 Rain 15 1011 74 10000 4.12 30 09:19 28.03.2022
3089 Rain 15 1010 74 10000 3.09 100 08:22 28.03.2022
3090 Rain 15 1008 73 10000 5.14 60 07:40 28.03.2022
3091 Clear 15 1007 72 10000 3.6 60 04:18 28.03.2022
3092 Clear 18 1011 66 10000 3.6 60 23:33 27.03.2022
3093 Clear 19 1011 61 10000 3.09 70 22:25 27.03.2022
3094 Clear 19 1011 58 10000 3.6 80 21:42 27.03.2022
3095 Clear 20 1011 56 10000 3.6 100 20:58 27.03.2022
3096 Clouds 21 1011 53 10000 4.63 110 19:49 27.03.2022
3097 Clouds 21 1011 52 10000 4.63 110 19:30 27.03.2022
3098 Clouds 21 1011 50 10000 5.66 100 18:28 27.03.2022
3099 Clouds 21 1011 48 10000 6.69 120 17:40 27.03.2022
3100 Clouds 21 1011 49 10000 6.69 120 17:20 27.03.2022
3101 Clouds 20 1010 57 10000 6.17 70 15:28 27.03.2022
3102 Clouds 18 1013 62 10000 5.14 70 13:56 27.03.2022
3103 Clouds 16 1013 70 10000 6.17 50 12:41 27.03.2022
3104 Clear 14 1013 74 10000 6.17 60 11:21 27.03.2022
3105 Clear 13 1011 78 10000 4.63 60 09:21 27.03.2022
3106 Clear 13 1010 79 10000 4.12 50 05:56 27.03.2022
3107 Clear 15 1008 75 10000 2.06 50 00:57 27.03.2022
3108 Clouds 16 1008 70 10000 2.06 50 00:24 27.03.2022
3109 Clouds 17 1008 68 10000 2.06 40 22:42 26.03.2022
3110 Clouds 16 1010 68 10000 3.6 20 21:46 26.03.2022
3111 Clouds 17 1010 66 10000 3.6 20 21:25 26.03.2022
3112 Clear 18 1009 58 10000 3.6 20 19:31 26.03.2022
3113 Clouds 19 1014 55 10000 3.09 320 17:54 26.03.2022
3114 Clouds 19 1014 55 10000 3.09 320 17:33 26.03.2022
3115 Clouds 19 1009 57 10000 3.09 120 16:27 26.03.2022
3116 Clouds 19 1008 55 10000 4.63 140 15:23 26.03.2022
3117 Clouds 17 1010 63 10000 4.12 10 13:54 26.03.2022
3118 Clouds 17 1010 64 10000 4.12 10 13:18 26.03.2022
3119 Clear 15 1011 73 10000 3.09 30 11:41 26.03.2022
3120 Clouds 14 1010 78 10000 3.09 70 10:29 26.03.2022
3121 Clear 12 1008 81 10000 3.09 70 08:44 26.03.2022
3122 Clear 12 1007 81 10000 3.09 50 06:25 26.03.2022
3123 Clear 13 1007 79 10000 5.14 50 05:28 26.03.2022
3124 Clear 15 1008 72 10000 4.12 30 00:30 26.03.2022
3125 Clouds 16 1009 70 10000 4.63 40 21:51 25.03.2022
3126 Clouds 16 1008 71 10000 4.12 20 20:46 25.03.2022
3127 Clouds 16 1008 70 10000 4.12 30 20:20 25.03.2022
3128 Clouds 17 1008 66 10000 6.17 30 18:51 25.03.2022
3129 Clouds 17 1007 63 10000 5.14 40 17:49 25.03.2022
3130 Clouds 17 1008 64 10000 5.14 50 17:27 25.03.2022
3131 Clouds 17 1008 66 10000 5.66 50 16:19 25.03.2022
3132 Clouds 17 1008 68 10000 6.69 50 14:49 25.03.2022
3133 Clouds 16 1008 69 10000 6.69 50 13:26 25.03.2022
3134 Clouds 14 1008 77 10000 6.17 30 10:35 25.03.2022
3135 Clear 14 1008 77 10000 5.66 40 09:28 25.03.2022
3136 Clouds 14 1007 78 10000 6.69 20 08:24 25.03.2022
3137 Clouds 14 1012 79 10000 6.17 30 07:28 25.03.2022
3138 Clear 13 1006 83 10000 6.69 40 06:29 25.03.2022
3139 Clear 13 1006 83 10000 6.69 40 06:29 25.03.2022
3140 Clouds 13 1014 82 10000 3.6 360 01:32 25.03.2022
3141 Rain 13 1009 85 8000 4.63 50 22:53 24.03.2022
3142 Clouds 13 1008 83 8000 4.63 20 21:52 24.03.2022
3143 Rain 13 1008 86 5000 3.6 30 20:40 24.03.2022
3144 Rain 13 1008 84 5000 6.17 90 19:48 24.03.2022
3145 Clouds 18 1006 64 10000 5.14 80 17:50 24.03.2022
3146 Clouds 18 1005 69 10000 6.69 40 17:23 24.03.2022
3147 Clouds 16 1007 70 10000 7.2 50 15:45 24.03.2022
3148 Clouds 16 1007 70 10000 7.2 40 14:50 24.03.2022
3149 Clouds 15 1007 70 10000 6.69 40 14:20 24.03.2022
3150 Clouds 14 1008 68 10000 7.2 50 13:24 24.03.2022
3151 Clouds 14 1008 69 10000 7.2 50 11:52 24.03.2022
3152 Clouds 13 1006 67 10000 7.2 50 10:18 24.03.2022
3153 Clear 13 1008 70 10000 7.2 50 09:22 24.03.2022
3154 Clouds 12 1006 72 10000 7.2 40 06:55 24.03.2022
3155 Clouds 12 1004 72 10000 9.26 40 04:34 24.03.2022
3156 Clouds 13 1008 79 10000 7.72 50 23:21 23.03.2022
3157 Clouds 13 1008 84 10000 6.69 50 21:53 23.03.2022
3158 Clouds 13 1008 88 10000 5.66 50 21:20 23.03.2022
3159 Rain 14 1011 83 10000 6.69 60 19:46 23.03.2022
3160 Clouds 14 1011 81 10000 7.2 60 18:59 23.03.2022
3161 Clouds 14 1006 83 10000 6.17 10 17:39 23.03.2022
3162 Clouds 13 1006 87 10000 5.14 30 16:53 23.03.2022
3163 Rain 14 1007 86 7000 4.63 80 14:52 23.03.2022
3164 Rain 14 1008 87 6000 5.14 60 14:32 23.03.2022
3165 Rain 14 1008 86 10000 4.63 80 13:22 23.03.2022
3166 Clouds 13 1008 89 9000 4.63 40 10:20 23.03.2022
3167 Clouds 12 1007 90 9000 2.57 340 07:44 23.03.2022
3168 Clouds 11 1007 90 8000 2.06 110 05:27 23.03.2022
3169 Rain 12 1009 88 6000 2.57 160 01:18 23.03.2022
3170 Rain 13 1010 88 10000 1.54 110 00:23 23.03.2022
3171 Rain 13 1009 89 10000 2.57 210 21:32 22.03.2022
3172 Rain 12 1010 87 10000 3.6 160 20:55 22.03.2022
3173 Clouds 13 1010 87 10000 2.06 210 19:56 22.03.2022
3174 Clouds 13 1010 90 10000 1.54 240 19:25 22.03.2022
3175 Clouds 12 1010 88 10000 4.63 270 18:45 22.03.2022
3176 Rain 13 1011 84 10000 5.66 270 17:42 22.03.2022
3177 Rain 15 1010 82 10000 7.72 200 16:35 22.03.2022
3178 Clouds 16 1011 76 10000 7.6 290 15:37 22.03.2022
3179 Clouds 16 1011 75 10000 7.2 210 15:18 22.03.2022
3180 Rain 16 1012 71 10000 8.05 316 14:41 22.03.2022
3181 Clouds 16 1012 77 10000 7.2 190 13:42 22.03.2022
3182 Clouds 16 1012 78 10000 7.2 180 11:52 22.03.2022
3183 Clouds 15 1012 82 10000 6.69 190 10:53 22.03.2022
3184 Clouds 14 1011 89 10000 4.47 276 08:43 22.03.2022
3185 Clouds 13 1016 88 10000 3.09 160 07:21 22.03.2022
3186 Clouds 12 1011 87 9000 1.54 130 03:55 22.03.2022
3187 Clouds 12 1011 87 9000 1.54 130 03:55 22.03.2022
3188 Clouds 12 1011 83 10000 1.54 210 00:46 22.03.2022
3189 Clouds 13 1011 81 10000 2.06 240 22:46 21.03.2022
3190 Clouds 13 1011 81 10000 3.09 250 21:25 21.03.2022
3191 Clouds 14 1010 77 10000 3.6 240 20:43 21.03.2022
3192 Clouds 14 1010 77 10000 3.6 240 20:21 21.03.2022
3193 Clouds 15 1015 71 10000 4.12 230 19:35 21.03.2022
3194 Clouds 15 1010 71 10000 4.12 230 19:35 21.03.2022
3195 Clouds 15 1010 71 10000 4.12 230 19:35 21.03.2022
3196 Clouds 16 1014 68 10000 5.14 260 18:47 21.03.2022
3197 Clouds 16 1014 72 10000 4.63 260 17:35 21.03.2022
3198 Clouds 16 1009 73 10000 5.14 270 16:59 21.03.2022
3199 Clouds 15 1009 77 10000 5.14 270 16:26 21.03.2022
3200 Clouds 16 1009 75 10000 4.12 250 15:43 21.03.2022
3201 Clouds 15 1014 79 10000 3.09 330 14:36 21.03.2022
3202 Clouds 15 1009 80 10000 2.57 50 13:20 21.03.2022
3203 Clouds 13 1009 88 10000 4.12 90 11:58 21.03.2022
3204 Clouds 13 1009 88 10000 4.12 90 11:25 21.03.2022
3205 Clouds 12 1008 90 10000 4.63 100 09:49 21.03.2022
3206 Clouds 11 1006 90 9000 5.14 100 07:33 21.03.2022
3207 Rain 11 1006 90 9000 6.17 100 05:56 21.03.2022
3208 Rain 11 1007 87 10000 5.14 110 01:42 21.03.2022
3209 Clouds 12 1008 88 10000 4.63 120 22:57 20.03.2022
3210 Rain 11 1008 88 10000 4.63 120 22:25 20.03.2022
3211 Clouds 11 1007 88 10000 6.17 110 21:37 20.03.2022
3212 Rain 11 1007 89 10000 5.66 120 20:55 20.03.2022
3213 Clouds 11 1007 88 10000 5.66 120 20:29 20.03.2022
3214 Clouds 12 1007 87 10000 5.14 120 19:49 20.03.2022
3215 Clouds 12 1005 86 10000 4.12 100 19:19 20.03.2022
3216 Rain 12 1011 85 8000 5.14 100 17:48 20.03.2022
3217 Rain 12 1011 85 10000 5.14 100 17:26 20.03.2022
3218 Rain 12 1011 81 4500 4.63 180 16:35 20.03.2022
3219 Clouds 17 1006 68 10000 7.72 110 14:42 20.03.2022
3220 Clouds 16 1007 67 10000 7.2 90 13:38 20.03.2022
3221 Clouds 14 1008 76 10000 5.14 50 12:19 20.03.2022
3222 Clouds 14 1014 74 10000 4.63 50 09:59 20.03.2022
3223 Clouds 14 1009 71 10000 4.63 60 08:21 20.03.2022
3224 Clear 14 1008 69 10000 4.63 100 06:37 20.03.2022
3225 Clouds 15 1007 70 10000 3.09 100 03:18 20.03.2022
3226 Clear 16 1011 65 10000 2.57 160 00:54 20.03.2022
3227 Clear 16 1011 65 10000 2.57 160 00:54 20.03.2022
3228 Clear 16 1011 62 10000 2.57 160 00:34 20.03.2022
3229 Clear 17 1011 61 10000 3.09 230 22:31 19.03.2022
3230 Clouds 17 1012 59 10000 4.12 260 21:26 19.03.2022
3231 Clouds 18 1012 55 10000 2.57 100 19:39 19.03.2022
3232 Clouds 19 1012 50 10000 3.09 100 18:44 19.03.2022
3233 Clear 20 1012 49 10000 3.6 210 17:52 19.03.2022
3234 Clear 20 1012 48 10000 4.12 160 17:33 19.03.2022
3235 Clouds 20 1018 50 10000 4.12 140 15:40 19.03.2022
3236 Clouds 19 1013 54 10000 4.12 110 14:19 19.03.2022
3237 Clouds 18 1015 57 10000 4.12 120 12:56 19.03.2022
3238 Clouds 17 1015 59 10000 3.6 120 12:37 19.03.2022
3239 Clouds 16 1016 63 10000 3.6 80 11:46 19.03.2022
3240 Clear 12 1015 75 10000 4.12 50 09:31 19.03.2022
3241 Clear 12 1014 75 10000 3.09 40 05:48 19.03.2022
3242 Clear 14 1012 63 10000 3.09 60 02:34 19.03.2022
3243 Clear 14 1015 62 10000 3.6 70 00:54 19.03.2022
3244 Clear 15 1013 58 10000 1.54 70 23:19 18.03.2022
3245 Clear 16 1015 56 10000 2.57 100 22:22 18.03.2022
3246 Clear 18 1016 50 10000 3.6 100 20:40 18.03.2022
3247 Clear 18 1015 46 10000 4.12 90 19:48 18.03.2022
3248 Clear 19 1015 44 10000 4.92 189 19:19 18.03.2022
3249 Clear 21 1015 37 10000 6.17 90 17:27 18.03.2022
3250 Clear 21 1015 41 10000 5.66 80 16:42 18.03.2022
3251 Clear 19 1017 49 10000 4.63 60 14:29 18.03.2022
3252 Clear 17 1017 50 10000 5.66 70 13:41 18.03.2022
3253 Clear 16 1016 51 10000 6.17 50 12:18 18.03.2022
3254 Clear 13 1018 55 10000 6.69 50 10:27 18.03.2022
3255 Clear 11 1017 59 10000 5.14 40 09:20 18.03.2022
3256 Clear 11 1016 60 10000 5.14 40 07:43 18.03.2022
3257 Clear 12 1016 57 10000 5.14 50 05:39 18.03.2022
3258 Clear 13 1016 56 10000 4.12 30 02:44 18.03.2022
3259 Clear 14 1017 57 10000 5.14 20 00:21 18.03.2022
3260 Clear 15 1016 58 10000 4.63 40 22:54 17.03.2022
3261 Clear 15 1017 57 10000 6.69 50 22:21 17.03.2022
3262 Clear 15 1017 56 10000 5.66 50 21:46 17.03.2022
3263 Clear 16 1015 57 10000 5.14 40 21:18 17.03.2022
3264 Clear 16 1016 56 10000 6.17 30 20:30 17.03.2022
3265 Clear 17 1016 54 10000 6.17 40 19:39 17.03.2022
3266 Clear 18 1015 53 10000 5.66 40 18:55 17.03.2022
3267 Clear 19 1015 52 10000 5.66 30 17:47 17.03.2022
3268 Clear 19 1015 53 10000 5.14 40 16:30 17.03.2022
3269 Clear 19 1015 52 10000 6.17 50 15:43 17.03.2022
3270 Clear 19 1016 52 10000 5.14 40 15:21 17.03.2022
3271 Clear 17 1017 55 10000 6.69 30 13:48 17.03.2022
3272 Clouds 16 1016 54 10000 7.2 30 12:48 17.03.2022
3273 Clouds 15 1017 61 10000 7.2 10 11:53 17.03.2022
3274 Clouds 15 1017 63 10000 7.72 10 11:22 17.03.2022
3275 Clouds 14 1015 71 10000 5.14 340 09:47 17.03.2022
3276 Clouds 14 1014 73 10000 6.69 360 08:31 17.03.2022
3277 Clouds 13 1012 73 10000 6.17 330 06:25 17.03.2022
3278 Clouds 13 1012 73 10000 6.69 330 05:39 17.03.2022
3279 Clouds 13 1012 73 10000 6.69 330 05:39 17.03.2022
3280 Clouds 14 1012 75 10000 8.75 340 00:42 17.03.2022
3281 Clouds 14 1012 74 10000 7.72 330 22:59 16.03.2022
3282 Clouds 14 1012 74 10000 8.75 330 22:40 16.03.2022
3283 Clouds 14 1012 74 10000 8.75 330 22:19 16.03.2022
3284 Clouds 14 1011 74 10000 9.26 340 21:29 16.03.2022
3285 Clouds 14 1011 77 10000 13.38 350 19:26 16.03.2022
3286 Dust 14 1011 77 10000 12.35 360 18:55 16.03.2022
3287 Dust 14 1011 77 10000 13.38 360 18:24 16.03.2022
3288 Dust 14 1010 78 10000 14.4 350 17:37 16.03.2022
3289 Dust 14 1010 78 6000 12.35 360 16:50 16.03.2022
3290 Haze 15 1010 78 5000 12.86 360 15:41 16.03.2022
3291 Dust 15 1016 75 6000 11.83 360 13:44 16.03.2022
3292 Dust 15 1016 75 6000 11.83 360 13:22 16.03.2022
3293 Dust 15 1011 77 7000 10.29 360 11:51 16.03.2022
3294 Clouds 14 1009 79 6000 12.86 350 11:19 16.03.2022
3295 Dust 14 1010 81 6000 10.8 360 09:59 16.03.2022
3296 Dust 15 1009 76 6000 6.69 360 08:37 16.03.2022
3297 Clear 17 1012 65 8000 6.69 20 03:33 16.03.2022
3298 Clouds 17 1007 67 6000 5.66 10 00:42 16.03.2022
3299 Dust 17 1006 69 6000 5.14 340 22:37 15.03.2022
3300 Dust 17 1005 68 6000 4.63 340 21:50 15.03.2022
3301 Dust 18 1005 66 3000 3.6 360 19:47 15.03.2022
3302 Dust 19 1004 60 3200 5.14 40 18:41 15.03.2022
3303 Dust 19 1003 58 4200 6.17 30 16:52 15.03.2022
3304 Haze 20 1002 55 5000 5.66 50 16:18 15.03.2022
3305 Haze 19 1003 58 6000 5.66 20 14:55 15.03.2022
3306 Haze 18 1004 59 7000 6.69 50 14:31 15.03.2022
3307 Fog 17 1002 61 8000 6.69 50 13:27 15.03.2022
3308 Clouds 15 1005 66 10000 6.69 10 11:56 15.03.2022
3309 Clouds 14 1005 65 10000 7.72 10 11:19 15.03.2022
3310 Clouds 12 1003 79 10000 4.63 330 09:37 15.03.2022
3311 Clouds 11 1004 82 10000 5.14 10 08:32 15.03.2022
3312 Clouds 10 1002 84 10000 5.14 30 07:50 15.03.2022
3313 Clouds 10 1002 85 10000 6.69 30 06:35 15.03.2022
3314 Clouds 11 1004 83 10000 4.63 40 02:36 15.03.2022
3315 Clouds 11 1000 77 10000 3.09 360 23:38 14.03.2022
3316 Clouds 11 1000 76 10000 3.09 360 23:20 14.03.2022
3317 Clouds 11 1002 77 10000 4.63 20 21:59 14.03.2022
3318 Clouds 12 1003 75 10000 4.63 40 21:20 14.03.2022
3319 Clouds 12 1001 72 10000 6.17 30 20:34 14.03.2022
3320 Clouds 13 1001 72 10000 6.69 20 19:47 14.03.2022
3321 Clouds 14 1000 65 10000 5.14 360 18:30 14.03.2022
3322 Clouds 15 1000 58 10000 6.17 60 17:43 14.03.2022
3323 Clouds 16 1000 53 10000 7.2 30 16:57 14.03.2022
3324 Clouds 15 1000 57 10000 9.26 40 15:29 14.03.2022
3325 Clouds 15 1000 63 10000 6.17 70 14:24 14.03.2022
3326 Rain 12 1002 76 10000 6.17 70 11:53 14.03.2022
3327 Clouds 11 1002 73 10000 4.63 70 10:35 14.03.2022
3328 Clouds 11 1000 72 10000 4.12 50 09:38 14.03.2022
3329 Clouds 10 1000 73 10000 4.12 50 09:20 14.03.2022
3330 Clouds 10 1001 76 10000 4.12 20 08:49 14.03.2022
3331 Clouds 10 1000 81 10000 3.6 20 07:21 14.03.2022
3332 Clouds 11 1001 83 10000 4.12 60 04:27 14.03.2022
3333 Clouds 12 1003 75 10000 2.57 140 01:52 14.03.2022
3334 Clouds 12 1004 75 10000 3.09 140 00:40 14.03.2022
3335 Clouds 13 1005 71 10000 3.6 220 21:56 13.03.2022
3336 Clouds 13 1006 69 10000 3.6 210 21:28 13.03.2022
3337 Clouds 13 1006 69 10000 4.12 210 20:53 13.03.2022
3338 Clouds 13 1011 67 10000 4.63 210 20:28 13.03.2022
3339 Clouds 14 1012 67 10000 5.14 200 19:43 13.03.2022
3340 Clouds 14 1007 67 10000 5.14 200 19:25 13.03.2022
3341 Clouds 14 1008 65 10000 4.63 220 18:50 13.03.2022
3342 Clouds 15 1008 63 10000 5.14 220 18:27 13.03.2022
3343 Clouds 15 1008 62 10000 7.72 210 17:40 13.03.2022
3344 Clouds 15 1009 61 10000 7.72 210 16:49 13.03.2022
3345 Clouds 16 1009 59 10000 6.17 220 16:27 13.03.2022
3346 Clouds 16 1010 57 10000 5.66 230 15:44 13.03.2022
3347 Clouds 16 1010 59 10000 5.14 200 14:50 13.03.2022
3348 Clouds 16 1010 59 10000 5.14 200 14:50 13.03.2022
3349 Clouds 15 1012 62 10000 4.63 220 13:30 13.03.2022
3350 Clouds 15 1012 60 10000 4.92 303 12:37 13.03.2022
3351 Clouds 15 1012 63 10000 2.57 260 11:51 13.03.2022
3352 Clouds 15 1017 64 10000 3.09 280 11:30 13.03.2022
3353 Clear 14 1017 68 10000 1.03 0 10:46 13.03.2022
3354 Clouds 12 1017 80 10000 1.03 0 09:53 13.03.2022
3355 Clouds 11 1011 83 10000 1.54 280 09:29 13.03.2022
3356 Clouds 9 1012 84 10000 2.06 200 08:40 13.03.2022
3357 Clouds 10 1010 86 10000 2.06 310 07:40 13.03.2022
3358 Clouds 11 1010 83 10000 2.06 300 05:40 13.03.2022
3359 Clouds 12 1007 79 10000 2.57 280 02:27 13.03.2022
3360 Clouds 13 1009 84 10000 4.63 270 23:33 12.03.2022
3361 Clouds 13 1008 86 10000 4.63 280 21:53 12.03.2022
3362 Rain 14 1009 88 10000 6.69 260 20:29 12.03.2022
3363 Rain 14 1008 92 8000 7.72 230 19:47 12.03.2022
3364 Rain 14 1008 90 8000 7.2 240 18:55 12.03.2022
3365 Rain 14 1009 91 7000 7.2 220 18:22 12.03.2022
3366 Rain 14 1009 90 5000 7.72 220 17:23 12.03.2022
3367 Rain 14 1014 87 8000 7.72 230 16:23 12.03.2022
3368 Mist 15 1007 85 4000 9.26 210 15:22 12.03.2022
3369 Mist 16 1015 78 4500 9.26 210 14:27 12.03.2022
3370 Clouds 16 1011 75 10000 8.75 220 12:35 12.03.2022
3371 Clouds 16 1011 76 10000 7.2 210 11:56 12.03.2022
3372 Clouds 15 1012 78 10000 6.71 296 11:34 12.03.2022
3373 Clouds 15 1012 82 10000 5.66 220 10:52 12.03.2022
3374 Clouds 14 1010 83 9000 4.92 285 09:44 12.03.2022
3375 Rain 13 1012 86 10000 3.6 210 08:53 12.03.2022
3376 Clouds 12 1010 85 9000 2.57 150 06:53 12.03.2022
3377 Clear 10 1012 85 10000 1.03 150 02:34 12.03.2022
3378 Clear 11 1013 80 10000 2.57 270 23:52 11.03.2022
3379 Clear 12 1012 80 10000 3.09 270 22:52 11.03.2022
3380 Clouds 13 1011 79 10000 2.06 270 21:35 11.03.2022
3381 Clouds 13 1011 76 10000 2.06 280 20:54 11.03.2022
3382 Clouds 13 1011 73 10000 2.57 300 20:28 11.03.2022
3383 Clouds 14 1012 69 10000 4.12 300 19:42 11.03.2022
3384 Clouds 15 1012 67 10000 4.12 300 19:20 11.03.2022
3385 Clouds 16 1016 59 10000 4.63 310 17:29 11.03.2022
3386 Clouds 16 1016 59 10000 5.14 280 16:27 11.03.2022
3387 Clouds 16 1016 59 10000 4.63 300 15:53 11.03.2022
3388 Clouds 16 1012 66 10000 4.12 280 14:19 11.03.2022
3389 Clouds 15 1012 71 10000 4.63 260 12:44 11.03.2022
3390 Clouds 15 1012 68 10000 4.63 270 12:20 11.03.2022
3391 Clouds 14 1011 71 10000 3.6 290 11:43 11.03.2022
3392 Clouds 13 1010 78 10000 3.09 300 09:39 11.03.2022
3393 Clouds 13 1010 82 10000 3.6 280 08:47 11.03.2022
3394 Clouds 13 1008 84 10000 3.6 280 07:53 11.03.2022
3395 Clouds 13 1008 85 10000 3.6 280 07:28 11.03.2022
3396 Clouds 13 1007 89 10000 3.6 230 05:42 11.03.2022
3397 Clouds 14 1008 88 10000 7.72 220 02:56 11.03.2022
3398 Clouds 15 1010 91 5000 9.77 200 22:56 10.03.2022
3399 Drizzle 14 1010 92 6000 9.39 287 22:28 10.03.2022
3400 Clouds 14 1015 90 7000 10.29 170 21:27 10.03.2022
3401 Mist 13 1010 90 3000 9.26 170 20:49 10.03.2022
3402 Clouds 15 1011 82 10000 8.23 190 19:23 10.03.2022
3403 Clouds 15 1016 84 10000 8.75 200 18:40 10.03.2022
3404 Clouds 15 1012 82 8000 10.29 190 16:54 10.03.2022
3405 Clouds 16 1011 76 10000 9.77 200 15:49 10.03.2022
3406 Drizzle 17 1014 71 10000 8.94 264 14:24 10.03.2022
3407 Clouds 16 1014 77 10000 7.2 180 12:50 10.03.2022
3408 Clouds 16 1015 77 10000 6.17 190 11:39 10.03.2022
3409 Clouds 15 1015 87 10000 6.71 293 10:24 10.03.2022
3410 Clouds 14 1014 87 10000 4.47 273 08:49 10.03.2022
3411 Clouds 13 1018 85 10000 4.12 200 06:36 10.03.2022
3412 Clouds 13 1019 88 10000 1.54 190 03:42 10.03.2022
3413 Clouds 13 1020 81 10000 2.57 190 00:51 10.03.2022
3414 Clouds 14 1020 76 10000 2.06 150 22:46 09.03.2022
3415 Clouds 14 1020 79 10000 1.54 270 21:48 09.03.2022
3416 Clouds 14 1020 79 10000 1.03 0 21:23 09.03.2022
3417 Rain 13 1019 75 10000 6.69 250 19:42 09.03.2022
3418 Rain 15 1018 71 10000 7.2 220 18:25 09.03.2022
3419 Clouds 16 1018 66 10000 6.69 210 17:26 09.03.2022
3420 Clouds 16 1018 67 10000 8.23 210 16:24 09.03.2022
3421 Clouds 16 1019 67 10000 8.75 220 14:32 09.03.2022
3422 Clouds 16 1019 67 10000 7.72 210 13:52 09.03.2022
3423 Clouds 16 1020 68 10000 8.75 200 12:39 09.03.2022
3424 Clouds 16 1020 69 10000 8.23 200 11:52 09.03.2022
3425 Clouds 16 1020 71 10000 6.69 210 11:32 09.03.2022
3426 Clouds 14 1019 79 10000 5.66 200 09:45 09.03.2022
3427 Clouds 13 1019 83 10000 3.6 150 08:47 09.03.2022
3428 Clouds 13 1018 81 10000 3.09 190 07:27 09.03.2022
3429 Clouds 13 1014 88 10000 4.12 210 01:54 09.03.2022
3430 Clouds 13 1014 83 10000 4.02 240 00:27 09.03.2022
3431 Clouds 13 1014 82 10000 2.57 210 22:47 08.03.2022
3432 Clouds 13 1016 82 10000 2.57 240 21:52 08.03.2022
3433 Clouds 13 1016 82 10000 2.57 240 21:22 08.03.2022
3434 Clouds 14 1015 77 10000 3.6 230 20:24 08.03.2022
3435 Clouds 15 1015 70 10000 5.14 230 19:25 08.03.2022
3436 Clouds 15 1015 71 10000 5.66 230 18:23 08.03.2022
3437 Clouds 16 1014 67 10000 6.69 230 16:59 08.03.2022
3438 Clouds 15 1014 70 10000 6.17 240 14:58 08.03.2022
3439 Rain 15 1019 70 10000 5.14 260 13:54 08.03.2022
3440 Clouds 15 1015 63 10000 4.63 240 12:28 08.03.2022
3441 Clouds 15 1015 63 10000 4.12 240 11:43 08.03.2022
3442 Clouds 13 1014 70 10000 2.06 240 10:37 08.03.2022
3443 Clouds 11 1013 77 10000 1.54 250 08:58 08.03.2022
3444 Clouds 11 1010 73 10000 2.57 280 06:31 08.03.2022
3445 Clouds 12 1009 77 10000 4.63 310 03:48 08.03.2022
3446 Rain 13 1008 69 10000 4.92 340 22:57 07.03.2022
3447 Clouds 13 1009 61 10000 4.12 230 21:46 07.03.2022
3448 Clouds 13 1009 60 10000 4.12 230 21:27 07.03.2022
3449 Clouds 13 1009 59 10000 3.6 230 20:39 07.03.2022
3450 Clouds 13 1009 58 10000 4.63 240 19:55 07.03.2022
3451 Clouds 13 1009 57 10000 4.63 240 19:29 07.03.2022
3452 Clouds 14 1008 54 10000 5.66 240 18:38 07.03.2022
3453 Clouds 14 1008 53 10000 5.66 260 17:33 07.03.2022
3454 Clouds 14 1008 53 10000 6.69 270 16:55 07.03.2022
3455 Clouds 14 1008 52 10000 4.12 270 15:27 07.03.2022
3456 Clouds 14 1014 50 10000 3.6 320 12:48 07.03.2022
3457 Clouds 14 1010 49 10000 3.6 320 12:20 07.03.2022
3458 Clouds 12 1010 64 10000 4.63 360 10:35 07.03.2022
3459 Clear 8 1008 77 10000 2.57 310 08:35 07.03.2022
3460 Clear 10 1009 60 10000 4.12 340 02:58 07.03.2022
3461 Clear 11 1009 65 10000 6.17 340 00:22 07.03.2022
3462 Clear 11 1009 62 10000 6.17 340 23:29 06.03.2022
3463 Clear 11 1009 60 10000 6.69 350 22:32 06.03.2022
3464 Clear 11 1009 60 10000 6.17 350 21:45 06.03.2022
3465 Clear 12 1010 55 10000 9.26 350 20:30 06.03.2022
3466 Clear 13 1009 52 10000 8.75 340 19:50 06.03.2022
3467 Clear 14 1007 47 10000 9.26 340 18:51 06.03.2022
3468 Clear 15 1008 41 10000 10.8 340 17:54 06.03.2022
3469 Clear 15 1006 40 10000 9.77 350 17:20 06.03.2022
3470 Clear 16 1009 33 10000 8.75 340 16:41 06.03.2022
3471 Clouds 17 1009 36 10000 7.72 340 15:37 06.03.2022
3472 Clouds 17 1009 35 10000 6.69 340 14:49 06.03.2022
3473 Clouds 16 1009 33 10000 6.69 10 14:30 06.03.2022
3474 Clouds 14 1010 38 10000 5.14 60 12:44 06.03.2022
3475 Clouds 13 1011 43 10000 5.66 10 11:56 06.03.2022
3476 Clouds 12 1011 53 10000 4.63 20 10:45 06.03.2022
3477 Clear 10 1010 63 10000 3.6 360 09:43 06.03.2022
3478 Clear 8 1010 69 10000 3.6 20 08:29 06.03.2022
3479 Clear 9 1008 68 10000 3.6 340 07:34 06.03.2022
3480 Clear 10 1008 66 10000 4.63 10 04:45 06.03.2022
3481 Clear 11 1008 72 10000 5.66 330 00:43 06.03.2022
3482 Clear 11 1008 73 10000 5.66 330 00:23 06.03.2022
3483 Clear 11 1008 74 10000 5.66 330 23:19 05.03.2022
3484 Clouds 10 1008 78 10000 5.66 330 22:43 05.03.2022
3485 Clouds 11 1009 83 10000 6.17 360 21:45 05.03.2022
3486 Clouds 11 1009 84 10000 5.66 360 21:19 05.03.2022
3487 Clouds 11 1009 83 10000 2.57 250 19:24 05.03.2022
3488 Clouds 11 1009 84 10000 2.06 310 18:51 05.03.2022
3489 Rain 12 1009 83 8000 2.06 20 17:43 05.03.2022
3490 Clouds 13 1010 80 10000 3.6 140 16:26 05.03.2022
3491 Clouds 14 1010 74 10000 2.57 170 15:30 05.03.2022
3492 Clouds 14 1010 73 10000 3.09 150 14:44 05.03.2022
3493 Clouds 14 1011 72 10000 2.57 130 14:24 05.03.2022
3494 Clouds 13 1013 71 10000 2.06 250 12:59 05.03.2022
3495 Rain 13 1014 65 10000 2.06 220 11:43 05.03.2022
3496 Clouds 13 1013 61 10000 1.03 0 11:18 05.03.2022
3497 Clouds 12 1015 67 10000 2.06 230 09:58 05.03.2022
3498 Clouds 10 1014 71 10000 2.06 250 08:57 05.03.2022
3499 Clouds 10 1013 67 10000 3.6 310 07:37 05.03.2022
3500 Clouds 10 1014 62 10000 3.6 300 05:42 05.03.2022
3501 Clouds 10 1014 62 10000 3.6 300 05:42 05.03.2022
3502 Clear 11 1022 59 10000 3.6 310 02:20 05.03.2022
3503 Clouds 10 1017 59 10000 5.66 340 23:36 04.03.2022
3504 Clouds 11 1017 60 10000 5.66 350 22:42 04.03.2022
3505 Clouds 11 1017 60 10000 6.17 350 21:47 04.03.2022
3506 Clouds 11 1023 60 10000 5.14 20 20:51 04.03.2022
3507 Clouds 11 1019 60 10000 5.14 360 20:22 04.03.2022
3508 Clouds 12 1023 56 10000 10.8 350 19:35 04.03.2022
3509 Clouds 12 1018 54 10000 9.77 350 18:43 04.03.2022
3510 Clouds 13 1018 47 10000 12.86 350 17:31 04.03.2022
3511 Clouds 14 1018 45 10000 11.32 360 16:43 04.03.2022
3512 Clouds 15 1019 40 10000 13.38 350 15:28 04.03.2022
3513 Clouds 15 1019 42 10000 13.89 350 14:19 04.03.2022
3514 Clouds 14 1020 43 10000 11.32 350 13:26 04.03.2022
3515 Clouds 13 1021 50 10000 10.29 340 11:41 04.03.2022
3516 Clouds 12 1021 56 10000 9.77 340 10:42 04.03.2022
3517 Clouds 11 1020 60 10000 7.72 350 09:40 04.03.2022
3518 Clouds 10 1020 64 10000 7.72 340 08:36 04.03.2022
3519 Clouds 10 1018 62 10000 7.72 340 07:23 04.03.2022
3520 Clouds 10 1018 63 10000 6.17 350 03:50 04.03.2022
3521 Clouds 12 1024 62 10000 7.2 350 00:24 04.03.2022
3522 Clouds 11 1019 71 10000 11.83 350 22:26 03.03.2022
3523 Clouds 12 1023 67 10000 12.35 340 21:41 03.03.2022
3524 Clouds 12 1023 67 10000 12.35 340 21:21 03.03.2022
3525 Clouds 12 1017 66 10000 11.32 340 19:51 03.03.2022
3526 Clouds 13 1017 64 10000 11.83 340 18:54 03.03.2022
3527 Clouds 14 1017 63 10000 12.86 340 18:23 03.03.2022
3528 Clouds 14 1017 58 10000 11.32 330 17:30 03.03.2022
3529 Clouds 15 1017 53 10000 12.35 330 16:24 03.03.2022
3530 Clouds 15 1017 51 10000 12.86 330 15:21 03.03.2022
3531 Clouds 15 1017 51 10000 12.86 340 14:42 03.03.2022
3532 Clouds 15 1017 59 10000 11.32 340 13:24 03.03.2022
3533 Clouds 13 1017 72 10000 10.29 350 12:21 03.03.2022
3534 Clouds 12 1014 82 10000 11.32 340 10:47 03.03.2022
3535 Rain 13 1013 85 7000 7.2 260 09:38 03.03.2022
3536 Clouds 15 1014 89 10000 4.63 240 07:50 03.03.2022
3537 Clouds 14 1015 86 10000 4.63 230 06:37 03.03.2022
3538 Clouds 14 1015 77 10000 2.06 250 02:42 03.03.2022
3539 Clear 13 1019 77 10000 2.06 230 23:39 02.03.2022
3540 Clear 13 1019 75 10000 2.57 230 22:52 02.03.2022
3541 Clouds 13 1021 74 10000 4.63 300 21:35 02.03.2022
3542 Clear 13 1025 70 10000 5.14 300 20:55 02.03.2022
3543 Clear 14 1025 67 10000 5.66 300 20:24 02.03.2022
3544 Clear 14 1025 67 10000 5.66 300 20:24 02.03.2022
3545 Clear 14 1020 65 10000 4.12 300 19:37 02.03.2022
3546 Clear 15 1018 63 10000 4.63 310 18:54 02.03.2022
3547 Clouds 15 1020 61 10000 4.63 310 18:26 02.03.2022
3548 Clouds 16 1020 55 10000 5.14 310 17:36 02.03.2022
3549 Clouds 17 1020 52 10000 3.6 310 16:51 02.03.2022
3550 Clouds 17 1026 52 10000 4.12 310 14:59 02.03.2022
3551 Clouds 16 1027 54 10000 4.12 330 13:35 02.03.2022
3552 Clouds 15 1022 57 10000 3.6 340 12:45 02.03.2022
3553 Clouds 15 1021 57 10000 3.6 340 12:21 02.03.2022
3554 Clouds 15 1027 62 10000 2.57 310 11:26 02.03.2022
3555 Clouds 14 1027 66 10000 2.06 350 10:30 02.03.2022
3556 Clouds 14 1027 66 10000 2.06 350 10:30 02.03.2022
3557 Clouds 12 1021 78 10000 2.57 360 09:35 02.03.2022
3558 Clouds 10 1019 79 10000 2.57 340 08:28 02.03.2022
3559 Clear 10 1019 79 10000 0 0 07:23 02.03.2022
3560 Clear 12 1019 78 10000 3.09 340 04:46 02.03.2022
3561 Clouds 14 1020 83 10000 2.57 310 00:40 02.03.2022
3562 Clouds 14 1019 80 10000 1.79 26 23:24 01.03.2022
3563 Clouds 15 1019 82 10000 2.57 250 22:37 01.03.2022
3564 Clouds 15 1019 82 10000 4.12 260 21:37 01.03.2022
3565 Clouds 15 1021 81 10000 3.6 240 20:38 01.03.2022
3566 Clouds 15 1021 79 10000 3.6 240 20:19 01.03.2022
3567 Clouds 17 1020 70 10000 4.12 250 18:53 01.03.2022
3568 Clouds 17 1020 66 10000 4.12 250 18:22 01.03.2022
3569 Clouds 17 1024 65 10000 4.63 260 17:42 01.03.2022
3570 Clouds 18 1020 64 10000 6.69 230 16:36 01.03.2022
3571 Clouds 18 1020 65 10000 6.17 230 15:47 01.03.2022
3572 Clouds 18 1021 64 10000 5.66 230 14:54 01.03.2022
3573 Clouds 18 1021 64 10000 4.63 220 14:31 01.03.2022
3574 Clouds 17 1026 68 10000 3.6 200 13:26 01.03.2022
3575 Clouds 16 1022 73 10000 4.02 259 12:36 01.03.2022
3576 Clouds 15 1022 73 10000 1.54 80 11:35 01.03.2022
3577 Rain 13 1021 80 10000 1.54 140 09:52 01.03.2022
3578 Clear 12 1019 72 10000 2.06 270 08:25 01.03.2022
3579 Clear 12 1020 70 10000 1.54 280 06:47 01.03.2022
3580 Clear 12 1020 69 10000 1.03 0 03:27 01.03.2022
3581 Clear 13 1020 64 10000 0.51 0 00:48 01.03.2022
3582 Clear 13 1020 64 10000 0.51 0 23:46 28.02.2022
3583 Clear 14 1020 61 10000 3.6 320 22:43 28.02.2022
3584 Clear 15 1021 60 10000 4.12 320 21:48 28.02.2022
3585 Clear 15 1021 61 10000 5.14 310 20:54 28.02.2022
3586 Clear 16 1021 54 10000 4.12 260 19:51 28.02.2022
3587 Clear 18 1025 53 10000 4.63 270 18:56 28.02.2022
3588 Clear 19 1025 49 10000 4.12 270 17:43 28.02.2022
3589 Clouds 19 1025 48 10000 4.12 270 17:23 28.02.2022
3590 Clear 19 1025 47 10000 3.6 200 16:32 28.02.2022
3591 Clouds 19 1025 52 10000 3.09 220 15:19 28.02.2022
3592 Clear 18 1026 56 10000 2.57 360 14:29 28.02.2022
3593 Clear 16 1026 60 10000 3.09 10 13:24 28.02.2022
3594 Clear 15 1022 65 10000 3.09 60 12:29 28.02.2022
3595 Clear 13 1026 69 10000 4.12 30 11:20 28.02.2022
3596 Clear 12 1026 74 10000 3.09 50 10:23 28.02.2022
3597 Clear 13 1018 72 10000 2.57 30 09:53 28.02.2022
3598 Clear 10 1020 82 10000 2.57 340 09:24 28.02.2022
3599 Clear 10 1020 82 10000 2.57 340 09:24 28.02.2022
3600 Fog 9 1019 86 10000 3.09 350 08:22 28.02.2022
3601 Fog 9 1019 86 10000 3.09 350 08:22 28.02.2022
3602 Clear 10 1018 81 10000 2.06 70 06:44 28.02.2022
3603 Clear 11 1015 77 10000 2.57 320 04:31 28.02.2022
3604 Clear 12 1018 75 10000 3.6 320 01:42 28.02.2022
3605 Clear 13 1018 74 10000 4.12 330 23:18 27.02.2022
3606 Clear 13 1017 72 10000 4.12 320 22:33 27.02.2022
3607 Clear 13 1017 72 10000 4.63 320 21:46 27.02.2022
3608 Clear 13 1018 68 10000 5.66 360 20:54 27.02.2022
3609 Clear 14 1018 66 10000 5.66 360 20:25 27.02.2022
3610 Clear 14 1016 65 10000 6.17 360 19:50 27.02.2022
3611 Clear 15 1017 61 10000 6.69 360 19:26 27.02.2022
3612 Clouds 16 1022 58 10000 8.75 350 18:39 27.02.2022
3613 Clouds 17 1022 56 10000 7.72 350 17:53 27.02.2022
3614 Clouds 18 1017 50 10000 5.66 320 16:36 27.02.2022
3615 Clouds 18 1017 50 10000 3.6 330 15:42 27.02.2022
3616 Clouds 16 1018 61 10000 3.6 20 12:53 27.02.2022
3617 Clouds 16 1018 63 10000 4.12 10 12:29 27.02.2022
3618 Clear 14 1023 73 10000 4.63 360 10:50 27.02.2022
3619 Clear 13 1022 75 10000 4.12 10 09:58 27.02.2022
3620 Clear 12 1016 78 10000 4.12 20 09:29 27.02.2022
3621 Clear 11 1015 81 10000 4.63 10 08:59 27.02.2022
3622 Clouds 12 1015 79 10000 2.06 360 06:43 27.02.2022
3623 Clouds 12 1015 78 10000 4.12 320 05:35 27.02.2022
3624 Clouds 13 1012 78 10000 3.6 310 00:52 27.02.2022
3625 Clouds 13 1014 73 10000 4.12 330 22:56 26.02.2022
3626 Clouds 14 1013 72 10000 4.63 330 21:39 26.02.2022
3627 Clouds 14 1014 72 10000 4.63 310 20:48 26.02.2022
3628 Clouds 14 1014 72 10000 4.63 330 20:19 26.02.2022
3629 Clouds 15 1012 69 10000 5.14 350 19:41 26.02.2022
3630 Clouds 16 1011 62 10000 5.14 330 18:49 26.02.2022
3631 Clouds 17 1017 65 10000 4.12 360 17:42 26.02.2022
3632 Clouds 18 1013 60 10000 3.09 360 16:49 26.02.2022
3633 Clouds 17 1013 63 10000 4.12 250 15:49 26.02.2022
3634 Clouds 17 1013 63 10000 4.12 250 15:22 26.02.2022
3635 Clouds 17 1013 63 10000 3.6 320 14:53 26.02.2022
3636 Clouds 16 1013 64 10000 4.12 210 14:33 26.02.2022
3637 Clouds 16 1012 64 10000 2.06 80 13:19 26.02.2022
3638 Clouds 16 1014 66 10000 3.6 70 12:20 26.02.2022
3639 Clouds 14 1014 68 10000 4.12 60 11:28 26.02.2022
3640 Clouds 14 1012 69 10000 4.12 60 10:40 26.02.2022
3641 Clear 12 1011 72 10000 3.09 30 08:53 26.02.2022
3642 Clear 12 1011 71 10000 3.09 40 06:51 26.02.2022
3643 Clear 15 1010 59 10000 5.14 40 00:56 26.02.2022
3644 Clear 16 1011 49 10000 6.69 40 22:49 25.02.2022
3645 Clear 17 1013 50 10000 6.69 40 21:43 25.02.2022
3646 Clear 17 1012 52 10000 6.17 40 21:23 25.02.2022
3647 Clouds 17 1014 52 10000 7.2 40 20:32 25.02.2022
3648 Clouds 19 1013 47 10000 5.66 30 19:18 25.02.2022
3649 Clouds 20 1013 44 10000 6.69 40 17:29 25.02.2022
3650 Clouds 21 1013 42 10000 7.2 60 16:32 25.02.2022
3651 Clouds 20 1014 45 10000 5.14 60 15:47 25.02.2022
3652 Clouds 20 1014 45 10000 5.14 60 15:22 25.02.2022
3653 Clear 20 1014 46 10000 7.2 70 14:42 25.02.2022
3654 Clear 19 1015 47 10000 6.69 70 13:51 25.02.2022
3655 Clear 18 1015 47 10000 6.69 60 13:18 25.02.2022
3656 Clear 16 1016 55 10000 7.2 50 11:28 25.02.2022
3657 Clear 15 1014 56 10000 6.17 50 10:43 25.02.2022
3658 Clear 15 1014 58 10000 6.17 50 10:22 25.02.2022
3659 Clear 14 1013 63 10000 6.69 50 09:30 25.02.2022
3660 Clear 12 1013 73 10000 4.12 40 07:42 25.02.2022
3661 Clouds 13 1010 72 10000 3.09 40 05:58 25.02.2022
3662 Clouds 13 1010 72 10000 3.09 40 05:31 25.02.2022
3663 Clear 14 1011 73 10000 3.6 60 00:27 25.02.2022
3664 Clear 14 1015 75 10000 3.09 30 22:00 24.02.2022
3665 Clear 14 1015 74 10000 2.57 320 21:40 24.02.2022
3666 Clear 14 1015 73 10000 2.57 320 21:20 24.02.2022
3667 Clear 15 1015 70 10000 2.06 20 20:30 24.02.2022
3668 Rain 16 1014 65 10000 4.63 10 18:52 24.02.2022
3669 Rain 16 1014 66 10000 2.57 20 18:19 24.02.2022
3670 Clouds 16 1014 64 10000 3.6 20 17:42 24.02.2022
3671 Rain 16 1018 63 10000 3.09 50 16:56 24.02.2022
3672 Rain 16 1019 62 10000 3.09 60 16:25 24.02.2022
3673 Rain 16 1019 63 10000 3.09 90 15:30 24.02.2022
3674 Rain 16 1015 60 10000 4.12 20 14:37 24.02.2022
3675 Clear 15 1015 59 10000 5.14 30 13:42 24.02.2022
3676 Clear 15 1015 59 10000 5.14 30 13:24 24.02.2022
3677 Clear 13 1019 60 10000 4.12 10 10:43 24.02.2022
3678 Clear 12 1015 62 10000 3.6 30 09:41 24.02.2022
3679 Clear 12 1014 60 10000 3.09 40 08:42 24.02.2022
3680 Clear 12 1012 62 10000 3.09 30 06:25 24.02.2022
3681 Clear 12 1012 60 10000 3.6 50 05:36 24.02.2022
3682 Clear 14 1013 53 10000 1.54 50 00:30 24.02.2022
3683 Clear 15 1014 53 10000 3.6 20 21:56 23.02.2022
3684 Clear 16 1014 49 10000 2.57 340 20:43 23.02.2022
3685 Clear 17 1014 48 10000 2.57 340 20:19 23.02.2022
3686 Clear 18 1013 43 10000 2.57 10 19:23 23.02.2022
3687 Clear 20 1019 37 10000 4.12 360 17:56 23.02.2022
3688 Clear 19 1015 38 10000 3.09 350 16:18 23.02.2022
3689 Clear 17 1016 36 10000 5.14 20 13:36 23.02.2022
3690 Clear 16 1017 36 10000 5.14 40 12:31 23.02.2022
3691 Clear 14 1017 39 10000 3.6 40 10:56 23.02.2022
3692 Clear 13 1017 40 10000 3.09 50 09:38 23.02.2022
3693 Clear 13 1016 41 10000 4.12 30 08:54 23.02.2022
3694 Clear 14 1012 35 10000 2.57 60 07:47 23.02.2022
3695 Clear 15 1017 39 10000 3.09 10 02:31 23.02.2022
3696 Clear 16 1017 35 10000 4.63 30 23:50 22.02.2022
3697 Clear 16 1018 33 10000 4.63 30 23:31 22.02.2022
3698 Clear 18 1018 27 10000 4.12 30 22:28 22.02.2022
3699 Clear 17 1019 33 10000 4.12 20 21:44 22.02.2022
3700 Clear 17 1019 33 10000 4.63 30 21:21 22.02.2022
3701 Clear 18 1024 35 10000 4.63 20 20:41 22.02.2022
3702 Clear 18 1019 32 10000 4.63 20 20:22 22.02.2022
3703 Clear 21 1024 27 10000 3.09 40 19:34 22.02.2022
3704 Clear 23 1024 19 10000 4.63 40 18:42 22.02.2022
3705 Clear 24 1024 18 10000 4.12 70 17:35 22.02.2022
3706 Clear 24 1020 22 10000 5.14 60 16:57 22.02.2022
3707 Clear 24 1020 21 10000 5.14 60 16:22 22.02.2022
3708 Clear 23 1020 25 10000 6.17 70 15:31 22.02.2022
3709 Clear 21 1021 32 10000 6.17 60 14:33 22.02.2022
3710 Clear 16 1021 43 10000 6.17 60 11:39 22.02.2022
3711 Clear 13 1028 56 10000 5.66 60 09:48 22.02.2022
3712 Clear 11 1021 68 10000 3.6 20 07:40 22.02.2022
3713 Clear 11 1021 68 10000 3.6 20 07:19 22.02.2022
3714 Clear 12 1021 73 10000 2.06 70 02:51 22.02.2022
3715 Clear 13 1022 67 10000 3.6 320 23:48 21.02.2022
3716 Clear 14 1027 67 10000 4.12 330 22:37 21.02.2022
3717 Clear 14 1027 64 10000 5.66 10 21:23 21.02.2022
3718 Clear 16 1022 56 10000 5.14 340 19:36 21.02.2022
3719 Clear 18 1026 49 10000 5.66 350 18:39 21.02.2022
3720 Clear 19 1022 46 10000 6.69 330 16:38 21.02.2022
3721 Clear 19 1023 46 10000 5.14 20 14:24 21.02.2022
3722 Clear 19 1024 48 10000 5.66 360 13:55 21.02.2022
3723 Clear 17 1024 52 10000 7.72 360 12:57 21.02.2022
3724 Clear 16 1025 55 10000 7.72 360 12:21 21.02.2022
3725 Clear 13 1025 70 10000 8.23 360 10:32 21.02.2022
3726 Clear 11 1020 75 10000 4.63 340 07:52 21.02.2022
3727 Clear 12 1024 75 10000 3.6 360 00:56 21.02.2022
3728 Clear 13 1023 63 10000 5.66 330 22:40 20.02.2022
3729 Clear 13 1024 59 10000 6.17 330 21:54 20.02.2022
3730 Clear 14 1024 54 10000 6.17 330 21:25 20.02.2022
3731 Clear 14 1024 54 10000 6.17 330 20:50 20.02.2022
3732 Clear 15 1023 50 10000 6.69 360 19:59 20.02.2022
3733 Clear 18 1028 40 10000 6.69 350 18:58 20.02.2022
3734 Clear 18 1028 40 10000 6.69 350 18:58 20.02.2022
3735 Clear 18 1027 38 10000 7.2 350 18:37 20.02.2022
3736 Clear 18 1028 35 10000 7.2 350 17:56 20.02.2022
3737 Clear 19 1023 33 10000 7.72 350 17:30 20.02.2022
3738 Clear 19 1024 31 10000 6.17 360 15:29 20.02.2022
3739 Clear 18 1024 35 10000 5.66 360 14:20 20.02.2022
3740 Clear 17 1024 35 10000 6.17 50 12:51 20.02.2022
3741 Clear 15 1023 35 10000 5.66 40 11:56 20.02.2022
3742 Clear 12 1029 46 10000 6.69 30 10:21 20.02.2022
3743 Clear 12 1023 44 10000 6.17 10 09:51 20.02.2022
3744 Clear 10 1021 59 10000 3.6 40 06:44 20.02.2022
3745 Clear 11 1019 68 10000 6.69 340 00:33 20.02.2022
3746 Clear 11 1021 65 10000 7.2 330 23:39 19.02.2022
3747 Clear 11 1022 64 10000 8.75 360 22:25 19.02.2022
3748 Clear 11 1022 63 10000 8.75 360 21:52 19.02.2022
3749 Clear 11 1021 61 10000 9.26 360 20:48 19.02.2022
3750 Clouds 12 1020 56 10000 10.8 340 19:36 19.02.2022
3751 Clear 13 1024 52 10000 10.29 350 18:41 19.02.2022
3752 Clear 14 1019 50 10000 12.35 350 17:59 19.02.2022
3753 Clear 14 1017 47 10000 13.89 350 17:33 19.02.2022
3754 Clouds 15 1017 45 10000 12.35 350 15:59 19.02.2022
3755 Clouds 15 1019 45 10000 11.32 350 14:56 19.02.2022
3756 Clouds 14 1020 47 10000 13.89 360 13:58 19.02.2022
3757 Clouds 13 1020 55 10000 12.35 340 11:58 19.02.2022
3758 Clouds 12 1020 56 10000 13.38 360 11:36 19.02.2022
3759 Clouds 11 1018 63 10000 11.83 360 09:27 19.02.2022
3760 Clouds 10 1016 62 10000 9.77 350 06:51 19.02.2022
3761 Clouds 11 1014 63 10000 5.66 350 00:55 19.02.2022
3762 Clouds 12 1022 68 10000 10.29 360 22:41 18.02.2022
3763 Clouds 12 1022 69 10000 7.72 360 21:28 18.02.2022
3764 Clouds 12 1017 71 10000 9.77 350 20:31 18.02.2022
3765 Clouds 12 1016 74 10000 8.75 350 19:51 18.02.2022
3766 Clouds 13 1016 77 10000 10.8 350 18:39 18.02.2022
3767 Clouds 14 1016 77 10000 10.8 350 18:19 18.02.2022
3768 Clouds 16 1015 67 10000 6.17 330 17:20 18.02.2022
3769 Clouds 17 1016 60 10000 5.66 340 14:39 18.02.2022
3770 Clouds 16 1017 65 10000 6.17 350 13:47 18.02.2022
3771 Clouds 16 1017 67 10000 6.17 340 12:51 18.02.2022
3772 Clouds 15 1017 72 10000 5.14 350 11:58 18.02.2022
3773 Drizzle 14 1017 82 10000 5.14 340 10:58 18.02.2022
3774 Drizzle 13 1017 85 4000 1.54 250 09:29 18.02.2022
3775 Clouds 13 1015 82 10000 2.06 330 06:50 18.02.2022
3776 Clouds 13 1015 82 10000 3.09 350 05:37 18.02.2022
3777 Clouds 14 1018 80 10000 5.14 330 22:46 17.02.2022
3778 Clouds 14 1018 79 10000 4.63 320 21:43 17.02.2022
3779 Clouds 14 1020 79 10000 4.63 310 20:52 17.02.2022
3780 Clouds 14 1020 79 10000 4.12 320 20:34 17.02.2022
3781 Clouds 14 1018 77 10000 4.63 360 19:43 17.02.2022
3782 Clouds 16 1020 72 10000 5.14 340 18:37 17.02.2022
3783 Clouds 16 1020 71 10000 5.14 350 17:47 17.02.2022
3784 Clouds 17 1021 69 10000 4.12 330 16:20 17.02.2022
3785 Clouds 17 1022 67 10000 3.09 320 14:57 17.02.2022
3786 Clouds 17 1023 67 10000 3.09 320 14:19 17.02.2022
3787 Clouds 16 1024 74 10000 4.12 40 11:59 17.02.2022
3788 Clouds 15 1024 77 10000 4.12 20 11:21 17.02.2022
3789 Clouds 13 1023 82 10000 1.54 330 08:38 17.02.2022
3790 Drizzle 14 1026 82 10000 3.6 310 00:29 17.02.2022
3791 Clouds 14 1026 76 10000 2.06 320 22:39 16.02.2022
3792 Clouds 14 1028 75 10000 3.6 340 20:46 16.02.2022
3793 Clouds 15 1032 71 10000 3.09 340 19:42 16.02.2022
3794 Clouds 16 1025 66 10000 4.63 330 18:36 16.02.2022
3795 Clouds 16 1031 65 10000 4.63 320 17:37 16.02.2022
3796 Clouds 16 1027 64 10000 4.12 310 15:30 16.02.2022
3797 Clouds 16 1027 66 10000 5.14 320 14:57 16.02.2022
3798 Clouds 15 1027 69 10000 3.09 340 12:35 16.02.2022
3799 Clouds 15 1029 73 10000 3.09 320 11:53 16.02.2022
3800 Clouds 14 1029 75 10000 2.57 300 11:23 16.02.2022
3801 Clouds 13 1033 81 10000 1.54 270 10:29 16.02.2022
3802 Clouds 10 1025 83 10000 1.03 290 06:57 16.02.2022
3803 Clouds 10 1025 81 10000 2.06 270 04:43 16.02.2022
3804 Clouds 11 1026 71 10000 2.06 330 23:44 15.02.2022
3805 Clouds 12 1026 68 10000 2.06 340 22:19 15.02.2022
3806 Clouds 12 1027 66 10000 3.09 330 21:45 15.02.2022
3807 Clouds 12 1027 65 10000 3.09 330 21:27 15.02.2022
3808 Clouds 13 1026 63 10000 4.12 330 20:55 15.02.2022
3809 Clouds 13 1026 60 10000 3.6 320 19:55 15.02.2022
3810 Clouds 14 1026 54 10000 5.14 330 18:52 15.02.2022
3811 Clouds 15 1024 51 10000 6.69 340 18:20 15.02.2022
3812 Clouds 15 1025 48 10000 5.14 330 17:48 15.02.2022
3813 Clouds 16 1029 46 10000 5.14 340 16:32 15.02.2022
3814 Clouds 16 1026 47 10000 5.14 340 15:22 15.02.2022
3815 Clouds 15 1032 54 10000 3.6 330 13:26 15.02.2022
3816 Clouds 14 1027 63 10000 3.6 10 11:57 15.02.2022
3817 Clouds 12 1031 73 10000 2.06 20 10:59 15.02.2022
3818 Clouds 8 1026 83 10000 3.09 20 09:28 15.02.2022
3819 Clear 8 1026 82 10000 2.57 310 06:50 15.02.2022
3820 Clear 10 1025 76 10000 2.06 290 02:36 15.02.2022
3821 Clear 11 1024 70 10000 3.09 320 22:36 14.02.2022
3822 Clouds 12 1024 68 10000 3.09 320 21:35 14.02.2022
3823 Clouds 12 1023 66 10000 3.6 330 20:30 14.02.2022
3824 Clouds 13 1023 61 10000 5.14 350 19:32 14.02.2022
3825 Clouds 14 1025 59 10000 4.63 310 18:42 14.02.2022
3826 Clouds 15 1022 55 10000 5.66 330 17:58 14.02.2022
3827 Clouds 15 1025 53 10000 5.66 340 17:25 14.02.2022
3828 Clouds 15 1024 49 10000 6.69 330 16:19 14.02.2022
3829 Clouds 15 1022 53 10000 6.17 340 14:29 14.02.2022
3830 Clouds 15 1022 56 10000 6.69 340 13:31 14.02.2022
3831 Clouds 14 1022 60 10000 4.12 340 12:48 14.02.2022
3832 Clouds 14 1022 64 10000 5.66 350 11:54 14.02.2022
3833 Clouds 13 1021 70 10000 2.06 320 10:44 14.02.2022
3834 Clouds 10 1020 80 10000 3.09 360 08:45 14.02.2022
3835 Clouds 11 1018 79 10000 2.06 280 07:31 14.02.2022
3836 Clouds 12 1017 80 10000 2.57 310 02:27 14.02.2022
3837 Clouds 13 1016 82 10000 3.09 310 22:42 13.02.2022
3838 Clouds 14 1016 84 10000 3.09 280 22:24 13.02.2022
3839 Clouds 14 1016 87 10000 4.12 260 21:32 13.02.2022
3840 Clouds 14 1016 90 7000 6.17 250 20:36 13.02.2022
3841 Drizzle 14 1016 88 4000 5.66 220 19:45 13.02.2022
3842 Mist 14 1016 85 3500 6.17 220 18:49 13.02.2022
3843 Mist 14 1018 82 5000 6.69 230 18:28 13.02.2022
3844 Clouds 15 1016 71 10000 7.2 200 16:34 13.02.2022
3845 Clouds 15 1017 68 10000 5.81 293 15:25 13.02.2022
3846 Rain 15 1018 68 10000 5.66 210 14:36 13.02.2022
3847 Clouds 15 1019 65 10000 6.26 258 12:51 13.02.2022
3848 Clouds 14 1019 67 10000 4.92 225 11:58 13.02.2022
3849 Clouds 13 1019 76 10000 1.54 220 10:35 13.02.2022
3850 Clouds 11 1019 85 10000 1.54 210 09:47 13.02.2022
3851 Clouds 9 1017 86 10000 1.54 130 07:52 13.02.2022
3852 Clear 11 1020 77 10000 2.06 330 00:36 13.02.2022
3853 Clear 12 1020 77 10000 4.12 320 23:54 12.02.2022
3854 Clouds 12 1020 76 10000 3.6 310 22:33 12.02.2022
3855 Clouds 13 1020 75 10000 3.09 290 21:36 12.02.2022
3856 Clouds 13 1020 75 10000 3.09 300 20:52 12.02.2022
3857 Clouds 14 1020 72 10000 3.6 260 19:48 12.02.2022
3858 Clouds 15 1020 69 10000 3.6 300 18:53 12.02.2022
3859 Clouds 15 1020 67 10000 3.6 250 18:35 12.02.2022
3860 Clouds 16 1020 67 10000 4.63 210 17:37 12.02.2022
3861 Clouds 16 1020 65 10000 4.92 273 16:43 12.02.2022
3862 Clouds 16 1020 66 10000 4.12 260 15:52 12.02.2022
3863 Clouds 16 1019 68 10000 3.6 200 15:20 12.02.2022
3864 Clouds 16 1024 71 10000 3.09 210 14:25 12.02.2022
3865 Clouds 16 1024 71 10000 3.09 210 14:25 12.02.2022
3866 Clouds 14 1022 85 10000 1.03 0 11:26 12.02.2022
3867 Clouds 13 1022 89 10000 2.06 20 10:29 12.02.2022
3868 Fog 12 1021 89 8000 2.57 340 09:36 12.02.2022
3869 Fog 12 1020 88 8000 2.06 50 08:46 12.02.2022
3870 Clouds 12 1019 87 7000 0.51 120 06:52 12.02.2022
3871 Clouds 13 1018 84 9000 0.89 340 04:44 12.02.2022
3872 Clouds 13 1020 83 10000 1.54 160 02:19 12.02.2022
3873 Clear 14 1021 75 10000 2.06 0 23:21 11.02.2022
3874 Clear 15 1019 66 10000 1.03 0 22:21 11.02.2022
3875 Clear 15 1021 69 10000 2.57 250 21:32 11.02.2022
3876 Clear 16 1022 67 10000 3.6 260 20:26 11.02.2022
3877 Clear 16 1021 66 10000 3.6 240 19:28 11.02.2022
3878 Clear 17 1021 62 10000 3.6 240 18:41 11.02.2022
3879 Clear 19 1021 54 10000 4.12 240 17:27 11.02.2022
3880 Clouds 19 1024 55 10000 3.6 210 16:40 11.02.2022
3881 Clouds 20 1025 53 10000 3.09 130 15:19 11.02.2022
3882 Clouds 19 1026 56 10000 2.06 90 14:37 11.02.2022
3883 Clouds 19 1026 56 10000 2.06 90 14:19 11.02.2022
3884 Clouds 18 1026 60 10000 3.6 200 13:44 11.02.2022
3885 Clouds 18 1026 59 10000 2.06 300 13:25 11.02.2022
3886 Clear 15 1026 72 10000 1.54 40 10:59 11.02.2022
3887 Fog 13 1023 81 10000 3.09 310 09:37 11.02.2022
3888 Clear 12 1023 82 10000 2.06 20 08:35 11.02.2022
3889 Clear 13 1022 77 10000 3.09 20 07:46 11.02.2022
3890 Clear 13 1022 77 10000 3.09 20 07:46 11.02.2022
3891 Clear 13 1021 76 10000 2.57 340 06:24 11.02.2022
3892 Clear 15 1021 70 10000 1.54 350 02:22 11.02.2022
3893 Clear 15 1022 68 10000 1.03 0 23:48 10.02.2022
3894 Rain 15 1023 69 10000 3.09 300 22:33 10.02.2022
3895 Rain 15 1023 71 10000 3.09 330 21:42 10.02.2022
3896 Clear 15 1023 71 10000 1.54 320 20:50 10.02.2022
3897 Clear 15 1024 73 10000 2.06 40 19:58 10.02.2022
3898 Clear 15 1024 73 10000 2.06 40 19:23 10.02.2022
3899 Clear 16 1023 69 10000 1.03 0 18:33 10.02.2022
3900 Clear 16 1023 68 10000 1.79 272 17:23 10.02.2022
3901 Clear 17 1023 66 10000 2.06 0 16:43 10.02.2022
3902 Rain 17 1024 62 10000 3.09 240 15:42 10.02.2022
3903 Clear 17 1024 64 10000 2.57 230 15:24 10.02.2022
3904 Clear 17 1024 61 10000 3.09 350 14:35 10.02.2022
3905 Clear 17 1024 59 10000 2.57 220 13:59 10.02.2022
3906 Clear 16 1024 61 10000 2.06 80 13:19 10.02.2022
3907 Clear 13 1024 67 10000 2.57 80 11:57 10.02.2022
3908 Clear 13 1028 68 10000 2.06 50 11:32 10.02.2022
3909 Clear 11 1024 76 10000 3.6 20 10:32 10.02.2022
3910 Clear 11 1023 75 10000 2.06 60 09:46 10.02.2022
3911 Clear 10 1022 78 10000 2.57 60 08:42 10.02.2022
3912 Clear 10 1023 80 10000 2.57 20 06:34 10.02.2022
3913 Clear 11 1022 75 10000 1.03 60 03:33 10.02.2022
3914 Clear 12 1023 73 10000 1.54 350 01:18 10.02.2022
3915 Clear 13 1024 71 10000 1.03 350 00:41 10.02.2022
3916 Clear 13 1024 69 10000 1.54 40 00:23 10.02.2022
3917 Clear 13 1024 67 10000 1.54 360 22:57 09.02.2022
3918 Clear 13 1024 68 10000 1.54 350 22:33 09.02.2022
3919 Clear 14 1024 66 10000 1.54 360 21:48 09.02.2022
3920 Clear 14 1024 66 10000 1.54 270 21:28 09.02.2022
3921 Clear 14 1024 64 10000 2.06 280 20:45 09.02.2022
3922 Clear 14 1024 63 10000 2.06 280 20:23 09.02.2022
3923 Clear 16 1024 58 10000 2.06 270 19:42 09.02.2022
3924 Clear 18 1024 52 10000 2.06 360 18:55 09.02.2022
3925 Clear 19 1024 49 10000 2.57 350 17:24 09.02.2022
3926 Clear 19 1027 52 10000 3.6 140 16:25 09.02.2022
3927 Clear 19 1024 51 10000 4.12 360 15:27 09.02.2022
3928 Clear 16 1025 59 10000 3.6 20 13:32 09.02.2022
3929 Clear 13 1026 72 10000 4.12 20 11:52 09.02.2022
3930 Clear 12 1024 76 10000 2.57 60 10:37 09.02.2022
3931 Clouds 10 1025 83 10000 3.6 40 09:56 09.02.2022
3932 Clouds 10 1025 83 10000 3.6 40 09:22 09.02.2022
3933 Clouds 10 1025 83 10000 4.12 30 08:51 09.02.2022
3934 Clear 10 1023 78 10000 4.12 40 06:56 09.02.2022
3935 Clear 10 1023 75 10000 2.57 70 04:36 09.02.2022
3936 Clear 10 1023 75 10000 1.54 10 03:49 09.02.2022
3937 Clear 13 1023 66 10000 1.54 320 23:57 08.02.2022
3938 Clear 14 1022 60 10000 1.54 320 23:19 08.02.2022
3939 Clear 14 1023 63 10000 3.09 320 22:39 08.02.2022
3940 Clear 14 1023 63 10000 3.09 320 22:20 08.02.2022
3941 Clear 14 1023 59 10000 1.54 290 21:22 08.02.2022
3942 Clear 15 1023 59 10000 2.06 250 20:59 08.02.2022
3943 Clear 15 1022 58 10000 2.06 250 20:41 08.02.2022
3944 Clear 16 1024 55 10000 2.06 300 19:31 08.02.2022
3945 Clear 19 1025 43 10000 2.06 240 18:24 08.02.2022
3946 Clear 19 1025 45 10000 4.63 190 17:30 08.02.2022
3947 Clear 19 1022 39 10000 3.6 360 15:52 08.02.2022
3948 Clear 19 1022 40 10000 3.6 360 15:28 08.02.2022
3949 Clear 17 1023 42 10000 4.12 10 13:50 08.02.2022
3950 Clear 15 1024 41 10000 4.63 70 12:39 08.02.2022
3951 Clear 14 1022 43 10000 5.66 60 10:55 08.02.2022
3952 Clear 13 1022 46 10000 4.63 50 09:50 08.02.2022
3953 Clear 12 1021 47 10000 4.12 50 08:54 08.02.2022
3954 Clear 12 1020 48 10000 3.6 20 06:50 08.02.2022
3955 Clear 12 1021 51 10000 4.63 30 04:40 08.02.2022
3956 Clear 13 1020 46 10000 2.57 30 04:22 08.02.2022
3957 Clear 13 1020 47 10000 2.57 30 03:36 08.02.2022
3958 Clear 13 1020 48 10000 2.57 30 03:18 08.02.2022
3959 Clear 13 1020 49 10000 1.03 0 02:59 08.02.2022
3960 Clear 13 1021 48 10000 2.06 40 02:36 08.02.2022
3961 Clear 12 1021 48 10000 2.06 40 02:18 08.02.2022
3962 Clear 13 1021 46 10000 2.57 20 01:45 08.02.2022
3963 Clear 13 1021 43 10000 2.57 10 01:25 08.02.2022
3964 Clear 13 1022 48 10000 2.57 360 00:55 08.02.2022
3965 Clear 13 1022 47 10000 3.6 350 00:32 08.02.2022
3966 Clear 14 1022 45 10000 3.6 340 23:45 07.02.2022
3967 Clear 14 1022 46 10000 3.6 330 23:18 07.02.2022
3968 Clear 14 1022 45 10000 3.6 20 22:59 07.02.2022
3969 Clear 14 1023 45 10000 3.6 340 22:19 07.02.2022
3970 Clear 15 1023 45 10000 4.12 350 21:51 07.02.2022
3971 Clear 15 1022 45 10000 4.63 20 21:28 07.02.2022
3972 Clear 16 1022 45 10000 4.12 350 20:47 07.02.2022
3973 Clear 16 1022 44 10000 4.12 10 20:29 07.02.2022
3974 Clear 17 1022 44 10000 3.6 340 19:47 07.02.2022
3975 Clear 19 1025 42 10000 4.12 30 18:40 07.02.2022
3976 Clear 20 1025 37 10000 6.17 40 17:33 07.02.2022
3977 Clear 19 1023 42 10000 5.66 40 16:52 07.02.2022
3978 Clear 19 1023 41 10000 4.12 360 15:48 07.02.2022
3979 Clear 18 1023 42 10000 4.12 50 14:30 07.02.2022
3980 Clear 16 1026 46 10000 4.63 50 13:27 07.02.2022
3981 Clear 15 1025 44 10000 3.09 60 12:36 07.02.2022
3982 Clear 14 1025 43 10000 2.57 60 11:50 07.02.2022
3983 Clear 13 1025 42 10000 4.12 50 11:24 07.02.2022
3984 Clear 13 1025 42 10000 3.09 50 10:42 07.02.2022
3985 Clear 12 1029 45 10000 3.6 40 10:24 07.02.2022
3986 Clear 10 1026 50 10000 2.57 50 09:52 07.02.2022
3987 Clear 9 1026 54 10000 3.6 30 09:18 07.02.2022
3988 Clear 10 1023 50 10000 2.57 20 07:58 07.02.2022
3989 Clear 10 1024 52 10000 2.57 360 06:34 07.02.2022
3990 Clear 10 1024 55 10000 2.57 360 05:18 07.02.2022
3991 Clear 10 1025 60 10000 1.03 10 02:38 07.02.2022
3992 Clear 12 1024 54 10000 2.57 340 00:29 07.02.2022
3993 Clear 12 1024 55 10000 3.6 340 23:33 06.02.2022
3994 Clear 13 1025 59 10000 3.6 350 22:45 06.02.2022
3995 Clear 13 1024 59 10000 4.63 330 21:47 06.02.2022
3996 Clear 13 1024 57 10000 5.66 330 21:21 06.02.2022
3997 Clear 13 1024 57 10000 5.66 330 21:21 06.02.2022
3998 Clear 13 1024 57 10000 5.66 330 21:21 06.02.2022
3999 Clear 14 1024 52 10000 4.63 330 20:48 06.02.2022
4000 Clear 14 1024 51 10000 4.12 330 20:24 06.02.2022
4001 Clear 16 1024 49 10000 4.12 30 19:30 06.02.2022
4002 Clear 17 1027 45 10000 3.6 20 18:34 06.02.2022
4003 Clear 18 1024 35 10000 5.66 20 17:54 06.02.2022
4004 Clear 19 1024 37 10000 3.6 60 16:52 06.02.2022
4005 Clear 19 1024 37 10000 3.6 60 16:30 06.02.2022
4006 Clear 18 1024 40 10000 3.6 50 15:47 06.02.2022
4007 Clear 18 1024 41 10000 3.09 50 15:25 06.02.2022
4008 Clear 17 1025 45 10000 2.57 50 14:25 06.02.2022
4009 Clear 15 1025 44 10000 3.6 50 13:24 06.02.2022
4010 Clear 14 1025 44 10000 4.63 40 12:34 06.02.2022
4011 Clear 12 1025 53 10000 5.14 30 10:43 06.02.2022
4012 Clear 10 1024 59 10000 3.6 30 09:48 06.02.2022
4013 Clear 9 1024 65 10000 1.54 10 08:47 06.02.2022
4014 Clear 9 1022 67 10000 2.57 320 07:36 06.02.2022
4015 Clear 10 1022 65 10000 3.09 330 05:29 06.02.2022
4016 Clear 12 1021 65 10000 3.6 330 02:26 06.02.2022
4017 Clear 11 1022 69 10000 4.63 340 01:21 06.02.2022
4018 Clear 12 1022 67 10000 5.66 330 00:24 06.02.2022
4019 Clear 12 1021 69 10000 6.17 340 22:18 05.02.2022
4020 Clear 13 1022 73 10000 6.17 330 20:52 05.02.2022
4021 Clear 13 1022 73 10000 5.14 320 20:24 05.02.2022
4022 Clouds 13 1022 70 10000 6.17 330 19:45 05.02.2022
4023 Clouds 14 1021 66 10000 6.17 330 18:49 05.02.2022
4024 Clouds 15 1021 62 10000 5.66 310 17:37 05.02.2022
4025 Clouds 16 1024 60 10000 5.66 320 16:37 05.02.2022
4026 Clouds 16 1021 58 10000 6.69 350 15:33 05.02.2022
4027 Clouds 16 1022 59 10000 7.2 350 14:40 05.02.2022
4028 Clouds 15 1023 63 10000 8.23 340 12:46 05.02.2022
4029 Clouds 14 1023 68 10000 6.69 330 11:49 05.02.2022
4030 Clouds 13 1023 72 10000 3.09 330 10:46 05.02.2022
4031 Clouds 12 1023 79 10000 2.57 310 09:52 05.02.2022
4032 Clouds 11 1023 81 10000 3.09 340 09:25 05.02.2022
4033 Clouds 11 1020 81 10000 5.66 330 07:38 05.02.2022
4034 Clouds 11 1021 82 10000 4.12 330 06:56 05.02.2022
4035 Clouds 11 1022 82 10000 3.6 350 03:55 05.02.2022
4036 Clouds 12 1021 78 10000 1.54 310 01:19 05.02.2022
4037 Clear 12 1022 78 10000 2.06 330 00:42 05.02.2022
4038 Clear 12 1022 75 10000 2.57 330 23:38 04.02.2022
4039 Clear 12 1022 74 10000 2.57 330 23:20 04.02.2022
4040 Clouds 13 1022 74 10000 3.09 340 21:37 04.02.2022
4041 Clouds 13 1022 74 10000 3.09 340 21:18 04.02.2022
4042 Clouds 14 1022 74 10000 2.57 340 20:50 04.02.2022
4043 Clouds 14 1022 72 10000 4.12 340 19:33 04.02.2022
4044 Clouds 16 1021 66 10000 3.6 310 17:27 04.02.2022
4045 Clouds 16 1021 64 10000 4.12 340 15:39 04.02.2022
4046 Clouds 16 1022 66 10000 3.6 340 14:52 04.02.2022
4047 Mist 15 1023 72 10000 3.09 330 12:43 04.02.2022
4048 Mist 14 1022 78 10000 1.54 320 11:47 04.02.2022
4049 Fog 13 1021 83 10000 0 0 11:22 04.02.2022
4050 Fog 12 1021 85 10000 0.51 0 10:32 04.02.2022
4051 Fog 11 1021 86 10000 1.03 0 08:34 04.02.2022
4052 Clear 12 1019 82 10000 1.54 260 05:23 04.02.2022
4053 Clear 11 1019 83 10000 1.03 0 02:40 04.02.2022
4054 Clear 12 1024 81 10000 0 0 00:31 04.02.2022
4055 Clear 12 1024 81 10000 0 0 23:21 03.02.2022
4056 Clear 13 1020 81 10000 0.51 0 22:26 03.02.2022
4057 Clear 13 1024 81 10000 1.54 320 21:47 03.02.2022
4058 Clear 13 1019 79 10000 2.06 300 20:27 03.02.2022
4059 Clouds 14 1019 77 10000 2.57 300 19:59 03.02.2022
4060 Clouds 14 1019 76 10000 2.57 330 19:26 03.02.2022
4061 Clouds 15 1019 74 10000 3.09 300 18:28 03.02.2022
4062 Clouds 15 1019 70 10000 1.03 0 17:32 03.02.2022
4063 Clouds 15 1019 71 10000 1.54 90 15:53 03.02.2022
4064 Clouds 15 1020 69 10000 1.03 0 14:26 03.02.2022
4065 Fog 14 1021 74 10000 1.54 80 12:40 03.02.2022
4066 Fog 11 1019 88 6000 1.54 70 10:36 03.02.2022
4067 Clouds 10 1016 87 9000 1.54 290 08:23 03.02.2022
4068 Clear 12 1016 80 10000 3.09 300 03:28 03.02.2022
4069 Clear 11 1016 70 10000 0.51 0 00:30 03.02.2022
4070 Clear 13 1019 69 10000 3.09 320 22:55 02.02.2022
4071 Clear 13 1020 66 10000 2.06 290 21:53 02.02.2022
4072 Clear 13 1020 65 10000 4.12 320 21:30 02.02.2022
4073 Clear 14 1017 61 10000 2.57 270 20:33 02.02.2022
4074 Clear 14 1018 62 10000 3.09 260 19:51 02.02.2022
4075 Clear 15 1018 59 10000 2.57 250 19:26 02.02.2022
4076 Clear 15 1018 55 10000 1.54 150 18:34 02.02.2022
4077 Clear 17 1025 51 10000 2.06 130 17:38 02.02.2022
4078 Clear 18 1025 46 10000 2.06 130 17:19 02.02.2022
4079 Clear 18 1025 48 10000 2.06 80 16:30 02.02.2022
4080 Clear 14 1023 53 10000 2.06 60 12:55 02.02.2022
4081 Clear 13 1023 56 10000 2.06 50 12:18 02.02.2022
4082 Clear 12 1027 58 10000 3.09 50 11:31 02.02.2022
4083 Clear 10 1021 64 10000 1.54 50 09:46 02.02.2022
4084 Clear 10 1019 67 10000 2.06 50 07:32 02.02.2022
4085 Clear 13 1021 54 10000 1.03 330 22:46 01.02.2022
4086 Clear 15 1021 45 10000 0 0 21:40 01.02.2022
4087 Clear 16 1022 43 10000 1.54 10 19:58 01.02.2022
4088 Clear 18 1026 36 10000 3.6 40 17:41 01.02.2022
4089 Clear 18 1022 35 10000 3.6 50 16:36 01.02.2022
4090 Clear 15 1025 41 10000 3.6 60 13:32 01.02.2022
4091 Clear 14 1025 42 10000 4.63 60 12:42 01.02.2022
4092 Clear 13 1025 44 10000 5.14 40 11:19 01.02.2022
4093 Clear 10 1021 71 10000 2.57 20 02:34 01.02.2022
4094 Clear 11 1023 73 10000 7.2 310 23:41 31.01.2022
4095 Clear 12 1023 74 10000 6.17 320 22:57 31.01.2022
4096 Clear 13 1024 59 10000 4.63 310 21:39 31.01.2022
4097 Clear 13 1024 62 10000 5.14 310 20:50 31.01.2022
4098 Clear 14 1024 64 10000 4.12 310 20:27 31.01.2022
4099 Clear 14 1024 69 10000 5.14 310 19:20 31.01.2022
4100 Clear 17 1024 55 10000 4.12 320 18:25 31.01.2022
4101 Clear 18 1024 50 10000 4.63 340 17:26 31.01.2022
4102 Clear 19 1024 45 10000 4.63 330 16:26 31.01.2022
4103 Clear 18 1029 49 10000 4.63 330 14:54 31.01.2022
4104 Clear 18 1025 45 10000 1.03 0 13:52 31.01.2022
4105 Clear 16 1026 49 10000 1.54 90 12:38 31.01.2022
4106 Clear 14 1026 57 10000 1.03 0 11:47 31.01.2022
4107 Clear 11 1025 67 10000 0 0 10:50 31.01.2022
4108 Clear 11 1029 69 10000 0.51 0 10:25 31.01.2022
4109 Clear 9 1025 72 10000 0 0 09:23 31.01.2022
4110 Clear 10 1023 69 10000 1.54 50 08:47 31.01.2022
4111 Clear 11 1023 65 10000 3.09 340 08:20 31.01.2022
4112 Clear 12 1020 43 10000 3.6 350 06:18 31.01.2022
4113 Clear 12 1022 48 10000 1.03 0 00:46 31.01.2022
4114 Clear 13 1021 46 10000 2.57 340 22:55 30.01.2022
4115 Clear 13 1019 40 10000 1.54 310 22:25 30.01.2022
4116 Clear 13 1021 45 10000 1.54 320 21:40 30.01.2022
4117 Clear 14 1019 40 10000 2.06 330 21:18 30.01.2022
4118 Clear 14 1022 43 10000 2.57 350 20:46 30.01.2022
4119 Clear 14 1022 44 10000 2.57 350 20:27 30.01.2022
4120 Clear 14 1022 46 10000 2.57 20 19:45 30.01.2022
4121 Clear 16 1022 46 10000 2.06 60 18:43 30.01.2022
4122 Clear 16 1022 40 10000 2.06 60 18:18 30.01.2022
4123 Clear 18 1022 32 10000 2.06 60 17:22 30.01.2022
4124 Clear 18 1022 26 10000 2.57 70 16:40 30.01.2022
4125 Clear 18 1026 28 10000 2.57 70 16:21 30.01.2022
4126 Clear 18 1020 25 10000 3.09 80 15:50 30.01.2022
4127 Clear 18 1020 28 10000 2.57 60 15:31 30.01.2022
4128 Clear 17 1022 35 10000 2.57 40 14:46 30.01.2022
4129 Clear 14 1024 38 10000 2.57 50 12:47 30.01.2022
4130 Clear 13 1022 35 10000 3.6 60 11:57 30.01.2022
4131 Clear 11 1022 38 10000 4.12 50 10:36 30.01.2022
4132 Clear 11 1022 39 10000 2.57 50 09:51 30.01.2022
4133 Clear 11 1021 39 10000 3.09 60 08:55 30.01.2022
4134 Clear 11 1019 38 10000 2.57 60 07:28 30.01.2022
4135 Clear 14 1020 31 10000 3.09 50 01:56 30.01.2022
4136 Clear 13 1022 40 10000 4.12 50 00:34 30.01.2022
4137 Clear 14 1022 41 10000 4.12 20 23:20 29.01.2022
4138 Clear 15 1020 38 10000 3.6 40 21:50 29.01.2022
4139 Clear 15 1020 38 10000 3.6 40 21:24 29.01.2022
4140 Clear 16 1022 39 10000 3.6 40 20:35 29.01.2022
4141 Clear 16 1023 40 10000 4.12 40 19:35 29.01.2022
4142 Clear 17 1022 38 10000 4.12 50 18:53 29.01.2022
4143 Clear 18 1023 36 10000 5.14 40 18:24 29.01.2022
4144 Clear 18 1023 36 10000 5.14 50 17:31 29.01.2022
4145 Clear 18 1021 35 10000 4.12 60 16:25 29.01.2022
4146 Clear 17 1024 38 10000 5.14 50 14:23 29.01.2022
4147 Clear 16 1023 39 10000 5.14 60 13:45 29.01.2022
4148 Clear 15 1023 36 10000 5.66 60 13:24 29.01.2022
4149 Clear 12 1024 39 10000 5.14 60 11:50 29.01.2022
4150 Clear 12 1024 41 10000 6.69 40 11:24 29.01.2022
4151 Clear 10 1023 44 10000 4.12 50 09:29 29.01.2022
4152 Clear 10 1020 42 10000 4.12 50 06:55 29.01.2022
4153 Clear 14 1020 46 10000 4.12 50 00:36 29.01.2022
4154 Clear 14 1019 47 10000 5.14 50 23:59 28.01.2022
4155 Clear 14 1019 47 10000 5.66 50 22:51 28.01.2022
4156 Clear 14 1019 46 10000 6.17 40 22:22 28.01.2022
4157 Clear 15 1021 46 10000 6.17 40 21:50 28.01.2022
4158 Clear 15 1020 48 10000 4.12 50 20:30 28.01.2022
4159 Clear 15 1022 48 10000 4.12 40 19:42 28.01.2022
4160 Clear 17 1021 43 10000 4.63 40 18:47 28.01.2022
4161 Clear 18 1021 41 10000 4.12 50 17:42 28.01.2022
4162 Clear 17 1020 43 10000 4.12 50 15:21 28.01.2022
4163 Clear 15 1023 47 10000 5.14 50 13:59 28.01.2022
4164 Clear 13 1023 49 10000 4.63 60 12:32 28.01.2022
4165 Clear 12 1022 48 10000 5.14 50 11:36 28.01.2022
4166 Clear 11 1021 52 10000 5.14 60 09:59 28.01.2022
4167 Clear 11 1020 49 10000 5.14 40 08:41 28.01.2022
4168 Clear 11 1018 49 10000 3.6 50 07:36 28.01.2022
4169 Clear 12 1017 51 10000 4.12 40 05:23 28.01.2022
4170 Clear 12 1020 54 10000 4.12 40 03:45 28.01.2022
4171 Clear 12 1018 51 10000 3.6 40 02:23 28.01.2022
4172 Clear 12 1018 52 10000 2.57 50 01:33 28.01.2022
4173 Clear 14 1018 49 10000 4.63 40 23:30 27.01.2022
4174 Clear 14 1019 53 10000 4.63 40 21:49 27.01.2022
4175 Clear 14 1019 54 10000 5.14 40 21:29 27.01.2022
4176 Clear 15 1019 55 10000 4.63 40 20:44 27.01.2022
4177 Clear 16 1020 55 10000 4.12 40 19:21 27.01.2022
4178 Clouds 17 1018 49 10000 6.17 40 17:56 27.01.2022
4179 Clouds 17 1025 54 10000 4.12 60 15:18 27.01.2022
4180 Clear 15 1025 57 10000 5.14 50 13:37 27.01.2022
4181 Clear 14 1022 61 10000 5.66 50 12:45 27.01.2022
4182 Clouds 12 1021 67 10000 5.14 40 10:24 27.01.2022
4183 Clouds 11 1020 66 10000 6.17 50 08:57 27.01.2022
4184 Clear 12 1019 64 10000 5.14 50 08:34 27.01.2022
4185 Clear 12 1016 61 10000 5.14 50 05:59 27.01.2022
4186 Clear 12 1018 59 10000 5.66 40 02:57 27.01.2022
4187 Clear 13 1018 58 10000 5.66 40 23:32 26.01.2022
4188 Clear 13 1016 57 10000 5.14 40 22:25 26.01.2022
4189 Clear 13 1018 59 10000 5.14 30 21:36 26.01.2022
4190 Clear 13 1020 61 10000 5.14 30 20:41 26.01.2022
4191 Clear 13 1020 61 10000 5.14 30 20:22 26.01.2022
4192 Clear 13 1019 59 10000 4.63 30 19:20 26.01.2022
4193 Clear 14 1019 57 10000 4.63 30 18:45 26.01.2022
4194 Clear 14 1019 55 10000 5.14 50 17:50 26.01.2022
4195 Clear 15 1019 53 10000 4.63 50 17:23 26.01.2022
4196 Clear 15 1019 52 10000 5.66 50 16:31 26.01.2022
4197 Clear 14 1019 54 10000 6.17 50 15:49 26.01.2022
4198 Clear 13 1021 58 10000 6.17 50 13:58 26.01.2022
4199 Clear 11 1022 62 10000 6.69 50 11:48 26.01.2022
4200 Clear 10 1020 65 10000 5.14 40 10:28 26.01.2022
4201 Clear 9 1021 68 10000 4.63 30 09:46 26.01.2022
4202 Clear 9 1019 71 10000 4.12 30 07:44 26.01.2022
4203 Clear 10 1021 66 10000 3.09 350 01:54 26.01.2022
4204 Clear 11 1021 63 10000 3.6 30 23:57 25.01.2022
4205 Clear 12 1021 64 10000 3.6 20 22:57 25.01.2022
4206 Clear 12 1021 63 10000 3.09 10 22:21 25.01.2022
4207 Clear 12 1023 63 10000 3.6 20 21:58 25.01.2022
4208 Clear 12 1022 60 10000 3.09 360 20:46 25.01.2022
4209 Clear 12 1022 58 10000 2.57 350 20:28 25.01.2022
4210 Clear 12 1022 58 10000 2.57 350 20:28 25.01.2022
4211 Clear 12 1022 58 10000 2.57 350 20:28 25.01.2022
4212 Clear 13 1022 56 10000 2.57 350 19:52 25.01.2022
4213 Clouds 15 1022 51 10000 4.63 30 18:37 25.01.2022
4214 Clouds 15 1022 49 10000 4.63 40 17:44 25.01.2022
4215 Clouds 16 1022 48 10000 4.12 60 16:35 25.01.2022
4216 Clear 16 1022 50 10000 3.6 70 15:49 25.01.2022
4217 Clear 16 1022 50 10000 3.6 70 15:31 25.01.2022
4218 Clear 15 1022 50 10000 4.63 50 14:57 25.01.2022
4219 Clear 14 1023 48 10000 4.63 60 13:42 25.01.2022
4220 Clear 10 1022 58 10000 5.66 50 10:42 25.01.2022
4221 Clear 8 1022 68 10000 4.63 50 08:37 25.01.2022
4222 Clear 9 1021 67 10000 5.14 40 07:29 25.01.2022
4223 Clear 9 1020 67 10000 4.63 50 06:49 25.01.2022
4224 Clear 10 1021 66 10000 5.14 40 05:22 25.01.2022
4225 Clear 12 1021 61 10000 3.6 20 23:37 24.01.2022
4226 Clear 12 1021 62 10000 3.6 20 23:18 24.01.2022
4227 Clear 12 1020 63 10000 3.6 20 22:59 24.01.2022
4228 Clear 12 1020 64 10000 3.6 20 22:41 24.01.2022
4229 Clear 12 1021 65 10000 3.09 360 21:53 24.01.2022
4230 Clear 12 1021 65 10000 3.09 360 21:28 24.01.2022
4231 Clear 13 1021 65 10000 2.57 360 20:30 24.01.2022
4232 Clear 13 1020 64 10000 3.6 20 19:44 24.01.2022
4233 Clear 14 1020 63 10000 4.12 30 19:24 24.01.2022
4234 Clear 15 1020 59 10000 4.12 30 17:59 24.01.2022
4235 Clear 15 1020 58 10000 3.6 40 17:24 24.01.2022
4236 Clear 15 1020 58 10000 3.09 30 16:52 24.01.2022
4237 Clear 15 1020 56 10000 3.09 40 16:19 24.01.2022
4238 Clear 14 1020 56 10000 4.12 50 14:38 24.01.2022
4239 Clear 12 1018 61 10000 4.63 50 12:58 24.01.2022
4240 Clear 11 1019 62 10000 5.14 50 12:23 24.01.2022
4241 Clear 9 1018 68 10000 5.14 40 10:30 24.01.2022
4242 Clear 8 1020 71 10000 4.63 30 09:48 24.01.2022
4243 Clear 8 1020 73 10000 4.12 30 08:34 24.01.2022
4244 Clear 8 1015 70 10000 4.12 30 06:40 24.01.2022
4245 Clear 10 1017 68 10000 3.6 40 01:30 24.01.2022
4246 Clear 11 1017 66 10000 4.63 30 00:36 24.01.2022
4247 Clear 11 1017 67 10000 4.12 30 23:52 23.01.2022
4248 Clear 12 1017 65 10000 3.09 40 22:32 23.01.2022
4249 Clear 12 1018 65 10000 2.57 10 21:49 23.01.2022
4250 Clear 12 1018 64 10000 2.57 360 21:26 23.01.2022
4251 Clear 12 1018 62 10000 2.57 360 20:44 23.01.2022
4252 Clear 13 1017 60 10000 3.09 20 19:52 23.01.2022
4253 Clear 14 1017 58 10000 3.6 40 18:52 23.01.2022
4254 Clear 15 1017 52 10000 2.57 60 17:49 23.01.2022
4255 Clear 15 1017 51 10000 3.6 60 16:47 23.01.2022
4256 Clear 14 1018 57 10000 4.63 50 15:00 23.01.2022
4257 Clear 13 1018 58 10000 5.66 50 14:25 23.01.2022
4258 Clear 12 1019 60 10000 5.14 50 13:22 23.01.2022
4259 Clear 11 1019 62 10000 6.17 50 12:36 23.01.2022
4260 Clear 11 1018 61 10000 6.17 50 12:18 23.01.2022
4261 Clear 9 1019 65 10000 5.14 60 11:23 23.01.2022
4262 Clear 8 1017 66 10000 5.66 40 10:28 23.01.2022
4263 Clear 8 1019 69 10000 4.12 50 09:51 23.01.2022
4264 Clear 7 1018 69 10000 4.63 40 08:59 23.01.2022
4265 Clear 8 1016 68 10000 4.12 50 05:58 23.01.2022
4266 Clear 10 1015 61 10000 4.12 50 01:53 23.01.2022
4267 Clear 10 1015 60 10000 4.63 50 01:33 23.01.2022
4268 Clear 11 1016 59 10000 5.14 50 00:23 23.01.2022
4269 Clear 10 1018 63 10000 4.63 40 23:57 22.01.2022
4270 Clear 11 1016 58 10000 4.63 40 22:46 22.01.2022
4271 Clear 12 1016 57 10000 3.6 50 21:38 22.01.2022
4272 Clear 13 1017 56 10000 3.6 50 20:23 22.01.2022
4273 Clear 13 1019 56 10000 3.09 50 19:21 22.01.2022
4274 Clear 15 1019 51 10000 4.63 40 18:25 22.01.2022
4275 Clear 16 1019 49 10000 3.09 40 17:41 22.01.2022
4276 Clear 15 1019 48 10000 4.12 40 16:56 22.01.2022
4277 Clear 15 1019 50 10000 3.6 60 15:55 22.01.2022
4278 Clear 14 1019 51 10000 4.12 70 15:37 22.01.2022
4279 Clear 12 1020 55 10000 5.66 50 13:59 22.01.2022
4280 Clear 11 1021 58 10000 4.63 50 12:55 22.01.2022
4281 Clear 11 1026 56 10000 5.66 50 12:30 22.01.2022
4282 Clear 9 1021 60 10000 5.14 50 11:57 22.01.2022
4283 Clear 8 1021 62 10000 4.12 50 10:38 22.01.2022
4284 Clear 7 1021 65 10000 4.12 50 10:19 22.01.2022
4285 Clear 6 1020 71 10000 4.12 50 08:54 22.01.2022
4286 Clear 6 1020 71 10000 4.12 40 08:27 22.01.2022
4287 Clear 7 1018 65 10000 3.6 50 05:20 22.01.2022
4288 Clear 9 1018 64 10000 3.6 50 01:58 22.01.2022
4289 Clear 10 1018 62 10000 2.57 50 23:48 21.01.2022
4290 Clear 11 1017 55 10000 3.6 40 22:44 21.01.2022
4291 Clear 12 1018 59 10000 4.12 30 20:45 21.01.2022
4292 Clear 15 1022 53 10000 4.12 40 18:41 21.01.2022
4293 Clear 16 1022 46 10000 4.63 40 17:45 21.01.2022
4294 Clear 16 1017 44 10000 4.12 40 15:48 21.01.2022
4295 Clear 15 1018 47 10000 3.6 50 14:37 21.01.2022
4296 Clear 12 1025 43 10000 4.39 74 12:42 21.01.2022
4297 Clear 11 1021 59 10000 4.12 50 11:29 21.01.2022
4298 Clear 9 1020 63 10000 3.6 40 10:27 21.01.2022
4299 Clear 7 1020 69 10000 2.57 20 08:50 21.01.2022
4300 Clear 8 1016 64 10000 2.57 10 07:37 21.01.2022
4301 Clear 11 1017 50 10000 2.06 320 01:48 21.01.2022
4302 Clear 11 1019 54 10000 3.09 350 22:46 20.01.2022
4303 Clear 12 1019 51 10000 3.09 350 21:48 20.01.2022
4304 Clear 12 1021 51 10000 3.09 350 21:24 20.01.2022
4305 Clear 13 1021 49 10000 3.09 350 19:46 20.01.2022
4306 Clear 14 1021 49 10000 2.57 350 19:18 20.01.2022
4307 Clear 16 1024 47 10000 3.6 40 17:36 20.01.2022
4308 Clear 15 1021 43 10000 3.09 50 15:46 20.01.2022
4309 Clear 16 1020 40 10000 3.09 50 15:26 20.01.2022
4310 Clear 15 1017 37 10000 0.89 148 14:18 20.01.2022
4311 Clear 12 1028 48 10000 3.6 60 12:44 20.01.2022
4312 Clear 11 1022 57 10000 3.6 60 12:26 20.01.2022
4313 Clouds 8 1023 68 10000 2.06 50 10:58 20.01.2022
4314 Fog 6 1023 75 10000 1.03 0 09:44 20.01.2022
4315 Clouds 6 1023 82 10000 2.57 360 08:37 20.01.2022
4316 Clouds 7 1019 73 8000 0 0 06:19 20.01.2022
4317 Fog 9 1023 70 10000 1.54 290 23:56 19.01.2022
4318 Clear 10 1023 70 10000 3.09 310 22:38 19.01.2022
4319 Clear 10 1021 64 10000 2.57 310 21:33 19.01.2022
4320 Clear 11 1023 64 10000 1.03 280 20:55 19.01.2022
4321 Clear 11 1023 64 10000 1.54 310 20:30 19.01.2022
4322 Clear 13 1023 57 10000 1.54 50 18:49 19.01.2022
4323 Clear 15 1028 56 10000 1.54 60 17:50 19.01.2022
4324 Clear 15 1028 54 10000 1.54 70 17:18 19.01.2022
4325 Clear 15 1028 54 10000 1.54 70 17:18 19.01.2022
4326 Clear 16 1029 50 10000 1.54 0 15:31 19.01.2022
4327 Clear 14 1021 51 10000 0.45 124 13:20 19.01.2022
4328 Clear 10 1027 67 10000 2.06 80 11:58 19.01.2022
4329 Clear 9 1027 70 10000 1.03 0 11:22 19.01.2022
4330 Clear 7 1026 77 10000 1.54 30 09:35 19.01.2022
4331 Clear 7 1026 77 10000 1.54 30 09:35 19.01.2022
4332 Clear 6 1025 80 10000 0.51 36 08:33 19.01.2022
4333 Clear 8 1023 76 10000 2.06 50 05:19 19.01.2022
4334 Clear 10 1024 68 10000 2.06 350 00:18 19.01.2022
4335 Clear 11 1024 68 10000 3.09 350 23:18 18.01.2022
4336 Clear 11 1023 70 10000 2.57 350 21:44 18.01.2022
4337 Clear 12 1024 68 10000 2.06 350 20:22 18.01.2022
4338 Clear 13 1024 65 10000 1.54 350 19:45 18.01.2022
4339 Clear 13 1024 64 10000 1.54 350 19:25 18.01.2022
4340 Clear 15 1028 58 10000 2.57 40 18:19 18.01.2022
4341 Clear 15 1028 58 10000 2.06 60 17:32 18.01.2022
4342 Clear 15 1024 57 10000 1.54 50 16:20 18.01.2022
4343 Clear 15 1024 58 10000 2.57 70 15:25 18.01.2022
4344 Clear 13 1029 61 10000 2.06 50 14:22 18.01.2022
4345 Clear 13 1029 61 10000 2.06 50 14:22 18.01.2022
4346 Clear 10 1030 65 10000 4.12 50 11:37 18.01.2022
4347 Clear 8 1023 71 10000 3.6 40 10:25 18.01.2022
4348 Clear 7 1023 72 10000 3.6 40 08:29 18.01.2022
4349 Clear 7 1023 76 10000 3.09 50 07:43 18.01.2022
4350 Clear 10 1021 70 10000 2.06 50 00:39 18.01.2022
4351 Clear 11 1023 71 10000 3.09 30 22:40 17.01.2022
4352 Clear 12 1023 67 10000 2.57 360 21:42 17.01.2022
4353 Clear 12 1024 68 10000 2.57 360 20:44 17.01.2022
4354 Clear 14 1023 62 10000 2.06 40 18:51 17.01.2022
4355 Clear 15 1023 58 10000 2.06 20 18:25 17.01.2022
4356 Clear 16 1023 56 10000 3.09 40 17:22 17.01.2022
4357 Clear 15 1025 55 10000 3.6 40 15:54 17.01.2022
4358 Clear 15 1025 57 10000 3.09 60 14:58 17.01.2022
4359 Clear 15 1025 57 10000 3.09 60 14:58 17.01.2022
4360 Clear 15 1025 56 10000 4.12 50 14:31 17.01.2022
4361 Clear 14 1026 63 10000 4.63 50 13:18 17.01.2022
4362 Clear 14 1026 63 10000 4.63 50 13:18 17.01.2022
4363 Clear 11 1027 72 10000 3.6 50 11:53 17.01.2022
4364 Clear 10 1028 73 10000 2.06 50 10:52 17.01.2022
4365 Clear 8 1027 79 10000 2.06 40 09:46 17.01.2022
4366 Clear 8 1025 80 10000 1.03 310 08:43 17.01.2022
4367 Clear 8 1024 81 10000 1.54 60 07:20 17.01.2022
4368 Clear 12 1023 76 10000 2.57 50 00:59 17.01.2022
4369 Clear 12 1023 78 10000 3.09 30 23:33 16.01.2022
4370 Clear 13 1024 79 10000 1.54 10 20:51 16.01.2022
4371 Clear 13 1026 79 10000 0 0 19:56 16.01.2022
4372 Clear 15 1025 73 10000 1.54 0 18:45 16.01.2022
4373 Clouds 16 1025 69 10000 1.54 60 17:47 16.01.2022
4374 Clouds 16 1029 69 10000 2.06 60 16:53 16.01.2022
4375 Clear 16 1023 67 10000 2.06 60 15:40 16.01.2022
4376 Clouds 14 1025 74 10000 2.06 60 14:29 16.01.2022
4377 Mist 13 1030 74 4000 4.63 10 13:21 16.01.2022
4378 Fog 12 1030 74 200 2.57 60 11:56 16.01.2022
4379 Mist 10 1027 80 10000 4.12 60 11:27 16.01.2022
4380 Clouds 9 1024 82 10000 2.57 50 10:27 16.01.2022
4381 Clouds 9 1024 83 10000 2.57 50 09:57 16.01.2022
4382 Clear 9 1024 84 10000 2.57 50 09:23 16.01.2022
4383 Clear 9 1024 87 10000 2.57 40 08:53 16.01.2022
4384 Clouds 9 1022 86 9000 2.06 40 05:52 16.01.2022
4385 Clouds 11 1022 80 10000 1.54 0 00:19 16.01.2022
4386 Clouds 12 1019 77 10000 1.54 30 22:49 15.01.2022
4387 Clouds 12 1020 75 10000 1.03 60 21:21 15.01.2022
4388 Clear 12 1021 76 10000 2.57 30 20:44 15.01.2022
4389 Clear 12 1022 76 10000 1.03 0 20:18 15.01.2022
4390 Clouds 13 1022 74 10000 1.03 0 19:25 15.01.2022
4391 Clouds 15 1022 66 10000 0.51 0 17:52 15.01.2022
4392 Clouds 14 1022 66 10000 1.54 90 16:43 15.01.2022
4393 Clear 13 1023 67 10000 2.57 70 14:32 15.01.2022
4394 Clear 11 1024 70 10000 3.09 70 12:38 15.01.2022
4395 Clear 10 1024 68 10000 3.09 60 11:20 15.01.2022
4396 Clouds 8 1022 70 10000 2.57 60 09:35 15.01.2022
4397 Clouds 11 1023 68 10000 2.57 50 01:25 15.01.2022
4398 Clouds 11 1024 64 10000 2.57 50 22:40 14.01.2022
4399 Clouds 12 1023 62 10000 2.57 50 20:54 14.01.2022
4400 Clouds 12 1023 62 10000 2.57 50 20:23 14.01.2022
4401 Clouds 12 1024 63 10000 3.09 40 19:49 14.01.2022
4402 Clouds 14 1024 59 10000 2.57 30 18:33 14.01.2022
4403 Clouds 15 1024 53 10000 3.6 50 16:57 14.01.2022
4404 Clouds 15 1024 54 10000 3.09 50 16:38 14.01.2022
4405 Clear 13 1024 57 10000 3.6 50 14:50 14.01.2022
4406 Clear 13 1025 58 10000 4.12 60 14:20 14.01.2022
4407 Clear 11 1025 63 10000 3.09 60 12:37 14.01.2022
4408 Clear 9 1025 67 10000 3.6 60 11:34 14.01.2022
4409 Clear 8 1024 70 10000 4.12 60 10:24 14.01.2022
4410 Clear 7 1024 73 10000 3.09 50 08:52 14.01.2022
4411 Clear 7 1023 71 10000 3.09 50 07:29 14.01.2022
4412 Clear 10 1025 66 10000 2.57 50 01:43 14.01.2022
4413 Clear 11 1025 64 10000 3.09 30 23:39 13.01.2022
4414 Clear 12 1023 64 10000 2.57 50 21:45 13.01.2022
4415 Clear 12 1024 64 10000 2.57 60 21:27 13.01.2022
4416 Clear 13 1024 62 10000 3.09 90 19:44 13.01.2022
4417 Clear 14 1023 60 10000 2.57 90 19:23 13.01.2022
4418 Clear 15 1024 55 10000 2.57 90 18:33 13.01.2022
4419 Clouds 16 1024 51 10000 2.57 60 16:48 13.01.2022
4420 Clear 15 1024 52 10000 3.09 60 15:38 13.01.2022
4421 Clear 14 1024 56 10000 4.12 50 14:50 13.01.2022
4422 Clear 13 1025 61 10000 3.6 60 13:22 13.01.2022
4423 Clear 9 1024 73 10000 4.12 50 10:29 13.01.2022
4424 Clear 8 1023 76 10000 2.57 50 09:23 13.01.2022
4425 Clear 8 1023 76 10000 3.09 40 08:28 13.01.2022
4426 Clear 8 1021 79 10000 3.09 50 07:58 13.01.2022
4427 Clear 8 1023 77 10000 2.57 50 07:18 13.01.2022
4428 Clear 9 1023 74 10000 3.09 60 05:20 13.01.2022
4429 Clear 10 1022 73 10000 3.09 60 03:33 13.01.2022
4430 Clear 11 1022 77 10000 4.63 40 00:57 13.01.2022
4431 Clear 13 1020 68 10000 2.57 60 23:53 12.01.2022
4432 Clear 13 1020 67 10000 3.09 40 23:33 12.01.2022
4433 Clear 13 1023 65 10000 3.09 40 21:59 12.01.2022
4434 Clear 14 1021 63 10000 3.09 50 21:39 12.01.2022
4435 Clear 14 1021 62 10000 3.09 50 21:18 12.01.2022
4436 Clear 14 1022 65 10000 4.63 50 20:41 12.01.2022
4437 Clear 16 1021 64 10000 4.12 40 18:48 12.01.2022
4438 Clear 17 1021 58 10000 4.63 50 17:54 12.01.2022
4439 Clear 18 1020 57 10000 4.12 50 16:43 12.01.2022
4440 Clear 16 1022 63 10000 4.63 40 14:49 12.01.2022
4441 Clear 15 1023 64 10000 4.12 50 13:40 12.01.2022
4442 Clear 14 1023 66 10000 5.14 50 12:57 12.01.2022
4443 Clear 10 1022 79 10000 3.6 50 09:26 12.01.2022
4444 Clear 10 1021 82 10000 3.09 50 07:57 12.01.2022
4445 Clear 11 1019 78 10000 2.57 60 07:33 12.01.2022
4446 Clear 12 1021 88 10000 3.6 360 02:20 12.01.2022
4447 Clear 14 1019 76 10000 3.09 320 23:26 11.01.2022
4448 Clear 14 1025 77 10000 3.6 320 22:25 11.01.2022
4449 Clear 14 1022 76 10000 4.12 320 21:58 11.01.2022
4450 Clear 15 1022 74 10000 3.6 320 20:39 11.01.2022
4451 Clear 15 1021 69 10000 1.03 350 19:31 11.01.2022
4452 Clear 17 1023 64 10000 2.06 70 17:54 11.01.2022
4453 Clear 18 1023 60 10000 3.09 70 16:40 11.01.2022
4454 Clear 18 1023 60 10000 3.09 70 16:18 11.01.2022
4455 Clear 18 1023 60 10000 3.09 70 16:18 11.01.2022
4456 Clear 17 1021 59 10000 4.12 50 14:53 11.01.2022
4457 Clear 17 1021 61 10000 3.09 50 14:34 11.01.2022
4458 Clouds 17 1022 60 10000 2.57 60 13:52 11.01.2022
4459 Clouds 16 1022 64 10000 2.57 60 13:28 11.01.2022
4460 Fog 14 1023 74 10000 3.6 70 12:34 11.01.2022
4461 Mist 11 1022 86 2500 3.09 50 10:32 11.01.2022
4462 Clear 11 1019 82 10000 3.09 20 07:55 11.01.2022
4463 Clear 11 1019 82 10000 4.12 330 04:28 11.01.2022
4464 Clear 12 1021 76 10000 4.12 330 00:27 11.01.2022
4465 Clouds 12 1021 77 10000 4.63 350 23:39 10.01.2022
4466 Clouds 12 1021 77 10000 5.14 340 22:42 10.01.2022
4467 Clouds 12 1021 77 10000 5.14 340 22:18 10.01.2022
4468 Clouds 12 1022 78 10000 4.63 340 21:36 10.01.2022
4469 Clouds 12 1022 78 10000 4.63 340 21:18 10.01.2022
4470 Clouds 13 1021 77 10000 5.66 350 20:54 10.01.2022
4471 Clouds 13 1021 77 10000 6.17 350 20:19 10.01.2022
4472 Clouds 14 1021 77 10000 4.63 360 19:39 10.01.2022
4473 Clouds 14 1021 76 10000 4.63 360 19:19 10.01.2022
4474 Clouds 14 1021 76 10000 3.6 350 18:47 10.01.2022
4475 Clouds 15 1021 72 10000 4.12 350 16:49 10.01.2022
4476 Clouds 15 1022 73 10000 3.6 330 16:27 10.01.2022
4477 Clouds 15 1022 73 10000 5.14 340 14:44 10.01.2022
4478 Clouds 15 1023 75 10000 5.14 350 13:35 10.01.2022
4479 Clouds 15 1023 75 10000 5.14 350 13:35 10.01.2022
4480 Clouds 14 1024 80 10000 3.6 340 11:57 10.01.2022
4481 Clouds 13 1024 84 10000 3.09 330 10:50 10.01.2022
4482 Clouds 12 1024 86 10000 2.57 310 09:40 10.01.2022
4483 Clouds 13 1023 82 10000 2.57 310 05:52 10.01.2022
4484 Clouds 13 1024 81 10000 3.09 320 02:38 10.01.2022
4485 Clouds 13 1024 80 10000 2.06 310 01:21 10.01.2022
4486 Clouds 13 1024 80 10000 1.54 290 00:21 10.01.2022
4487 Clouds 13 1025 78 10000 1.03 0 22:48 09.01.2022
4488 Clouds 13 1024 76 10000 2.06 300 22:21 09.01.2022
4489 Clouds 13 1025 76 10000 2.06 330 21:42 09.01.2022
4490 Clouds 13 1025 76 10000 2.06 330 21:22 09.01.2022
4491 Clouds 14 1028 75 10000 3.09 340 20:47 09.01.2022
4492 Clouds 14 1026 74 10000 3.6 320 20:29 09.01.2022
4493 Clouds 14 1025 74 10000 3.09 320 19:42 09.01.2022
4494 Clouds 14 1025 73 10000 3.09 320 19:21 09.01.2022
4495 Clouds 14 1028 72 10000 3.09 350 18:47 09.01.2022
4496 Clouds 14 1026 73 10000 3.6 350 18:28 09.01.2022
4497 Clouds 14 1026 72 10000 3.09 330 17:30 09.01.2022
4498 Clouds 15 1026 70 10000 2.57 330 16:51 09.01.2022
4499 Clouds 15 1026 67 10000 3.6 320 15:52 09.01.2022
4500 Clouds 15 1026 63 10000 4.12 330 15:33 09.01.2022
4501 Clouds 15 1027 64 10000 3.6 320 14:39 09.01.2022
4502 Clouds 15 1027 65 10000 4.12 330 13:50 09.01.2022
4503 Clouds 14 1028 66 10000 4.12 300 12:31 09.01.2022
4504 Clouds 14 1028 66 10000 3.09 310 11:47 09.01.2022
4505 Clouds 12 1027 72 10000 1.03 260 09:56 09.01.2022
4506 Clouds 12 1027 72 10000 1.03 0 09:29 09.01.2022
4507 Clouds 12 1027 72 10000 2.57 290 08:30 09.01.2022
4508 Clouds 9 1026 79 10000 1.03 0 02:31 09.01.2022
4509 Clear 9 1027 80 10000 1.54 320 01:20 09.01.2022
4510 Clear 9 1027 77 10000 1.54 280 23:38 08.01.2022
4511 Clear 10 1027 75 10000 0.51 0 22:59 08.01.2022
4512 Clear 11 1028 73 10000 3.09 350 21:33 08.01.2022
4513 Clear 11 1028 73 10000 4.63 360 20:45 08.01.2022
4514 Clear 11 1028 73 10000 4.63 350 20:24 08.01.2022
4515 Clear 11 1028 71 10000 4.12 340 19:58 08.01.2022
4516 Clear 14 1028 55 10000 4.12 350 17:51 08.01.2022
4517 Clear 15 1028 57 10000 2.57 30 17:21 08.01.2022
4518 Clear 14 1029 58 10000 1.03 0 15:47 08.01.2022
4519 Clear 14 1031 59 10000 2.57 70 14:41 08.01.2022
4520 Clear 13 1030 59 10000 2.06 60 12:44 08.01.2022
4521 Clear 11 1029 65 10000 1.54 70 10:59 08.01.2022
4522 Clear 9 1030 76 10000 0.51 30 10:25 08.01.2022
4523 Clear 8 1029 75 10000 0.51 0 09:47 08.01.2022
4524 Clear 8 1028 76 10000 2.06 360 07:19 08.01.2022
4525 Clear 10 1028 74 10000 2.06 340 02:39 08.01.2022
4526 Clear 11 1028 72 10000 2.57 340 00:41 08.01.2022
4527 Clear 11 1028 73 10000 3.6 340 22:47 07.01.2022
4528 Clear 12 1028 73 10000 5.14 340 20:56 07.01.2022
4529 Clear 13 1027 69 10000 5.14 340 19:56 07.01.2022
4530 Clear 13 1027 69 10000 5.14 340 19:56 07.01.2022
4531 Clear 14 1027 62 10000 4.63 350 18:58 07.01.2022
4532 Clear 14 1026 59 10000 4.63 10 18:38 07.01.2022
4533 Clouds 15 1026 52 10000 6.17 10 17:25 07.01.2022
4534 Clouds 15 1026 52 10000 7.72 10 16:30 07.01.2022
4535 Clouds 15 1027 59 10000 7.2 350 13:54 07.01.2022
4536 Clouds 15 1027 62 10000 7.72 350 13:22 07.01.2022
4537 Clouds 14 1027 65 10000 7.2 360 12:49 07.01.2022
4538 Clouds 12 1025 77 10000 7.72 350 09:37 07.01.2022
4539 Clouds 12 1022 81 10000 4.12 340 02:56 07.01.2022
4540 Clouds 12 1023 81 10000 2.57 350 01:54 07.01.2022
4541 Clouds 12 1023 80 10000 1.54 350 01:28 07.01.2022
4542 Clouds 12 1023 80 10000 1.54 340 00:58 07.01.2022
4543 Clouds 12 1023 80 10000 1.54 340 00:58 07.01.2022
4544 Clouds 11 1022 81 10000 2.57 350 22:54 06.01.2022
4545 Clouds 12 1021 78 10000 3.6 320 21:28 06.01.2022
4546 Clouds 13 1021 75 10000 4.12 330 20:22 06.01.2022
4547 Clouds 13 1021 74 10000 3.09 330 19:45 06.01.2022
4548 Clouds 14 1020 67 10000 3.09 340 18:29 06.01.2022
4549 Clouds 14 1020 64 10000 5.66 350 17:40 06.01.2022
4550 Clouds 15 1021 65 10000 4.63 350 16:52 06.01.2022
4551 Clouds 15 1021 62 10000 5.66 10 15:48 06.01.2022
4552 Clouds 15 1021 62 10000 5.66 340 15:26 06.01.2022
4553 Clouds 15 1021 65 10000 4.12 350 14:51 06.01.2022
4554 Clouds 14 1021 67 10000 4.63 330 14:18 06.01.2022
4555 Clouds 14 1022 69 10000 5.66 340 12:50 06.01.2022
4556 Clouds 13 1021 75 10000 3.09 330 11:43 06.01.2022
4557 Clouds 13 1021 76 10000 3.09 330 11:23 06.01.2022
4558 Clouds 10 1020 83 10000 1.54 260 08:59 06.01.2022
4559 Clouds 12 1018 73 10000 2.57 330 01:51 06.01.2022
4560 Clouds 13 1018 80 10000 3.6 330 23:40 05.01.2022
4561 Clouds 13 1018 82 10000 3.6 330 22:59 05.01.2022
4562 Clouds 13 1017 84 10000 2.57 320 22:33 05.01.2022
4563 Mist 13 1018 89 5000 4.12 340 21:52 05.01.2022
4564 Drizzle 13 1017 90 10000 4.12 330 21:21 05.01.2022
4565 Drizzle 14 1018 90 5000 5.66 300 20:19 05.01.2022
4566 Mist 14 1018 88 2500 6.69 260 18:54 05.01.2022
4567 Mist 14 1019 84 2500 5.66 250 17:50 05.01.2022
4568 Clouds 15 1019 75 10000 6.69 270 16:56 05.01.2022
4569 Clouds 16 1020 66 10000 6.17 270 15:46 05.01.2022
4570 Clouds 15 1021 65 10000 6.69 290 14:28 05.01.2022
4571 Clouds 15 1022 66 10000 5.14 270 13:32 05.01.2022
4572 Clouds 14 1023 78 10000 3.09 250 11:46 05.01.2022
4573 Clouds 11 1023 87 10000 2.06 230 08:20 05.01.2022
4574 Clouds 11 1022 84 10000 2.06 230 06:36 05.01.2022
4575 Clouds 12 1021 78 10000 4.12 300 00:59 05.01.2022
4576 Clouds 12 1022 77 10000 3.09 300 23:38 04.01.2022
4577 Clouds 12 1022 77 10000 3.09 300 23:18 04.01.2022
4578 Clouds 12 1020 76 10000 2.06 300 21:31 04.01.2022
4579 Clouds 12 1021 79 10000 2.06 280 19:55 04.01.2022
4580 Rain 13 1020 71 10000 3.6 300 18:35 04.01.2022
4581 Clouds 14 1019 66 10000 4.63 310 17:18 04.01.2022
4582 Clouds 15 1018 64 10000 6.69 320 16:31 04.01.2022
4583 Clouds 14 1017 76 10000 7.2 330 14:58 04.01.2022
4584 Clouds 14 1017 77 10000 7.72 320 14:36 04.01.2022
4585 Clouds 14 1016 78 10000 7.72 320 13:48 04.01.2022
4586 Rain 13 1016 84 10000 3.09 260 10:59 04.01.2022
4587 Rain 13 1016 82 10000 3.6 280 10:18 04.01.2022
4588 Clouds 13 1014 86 10000 8.23 260 08:36 04.01.2022
4589 Clouds 15 1014 91 10000 4.12 190 04:24 04.01.2022
4590 Fog 15 1017 89 10000 3.6 240 00:42 04.01.2022
4591 Fog 14 1018 90 10000 5.66 220 23:44 03.01.2022
4592 Clouds 14 1018 90 9000 5.14 220 22:21 03.01.2022
4593 Fog 14 1020 91 9000 4.12 220 21:38 03.01.2022
4594 Clouds 14 1021 91 9000 3.09 220 20:34 03.01.2022
4595 Clouds 14 1021 91 9000 3.09 220 18:55 03.01.2022
4596 Clouds 14 1021 91 9000 2.57 220 18:30 03.01.2022
4597 Fog 14 1024 94 8000 2.06 220 17:20 03.01.2022
4598 Fog 14 1024 95 3000 1.54 120 16:31 03.01.2022
4599 Fog 16 1023 91 1000 1.03 0 14:31 03.01.2022
4600 Fog 14 1027 96 300 1.54 60 12:52 03.01.2022
4601 Fog 13 1027 99 100 1.54 60 11:50 03.01.2022
4602 Fog 12 1026 99 100 2.57 50 10:38 03.01.2022
4603 Fog 12 1024 93 100 2.06 70 09:28 03.01.2022
4604 Fog 12 1023 92 150 2.06 60 07:53 03.01.2022
4605 Fog 13 1025 91 150 0 0 02:56 03.01.2022
4606 Fog 14 1026 91 150 1.03 0 23:23 02.01.2022
4607 Fog 14 1026 90 150 1.03 350 22:56 02.01.2022
4608 Fog 14 1025 88 200 1.54 330 21:58 02.01.2022
4609 Fog 15 1027 91 500 1.03 0 20:50 02.01.2022
4610 Mist 15 1027 91 1800 1.03 0 20:30 02.01.2022
4611 Mist 15 1026 89 4000 1.54 70 19:31 02.01.2022
4612 Fog 15 1027 89 2500 1.03 0 18:56 02.01.2022
4613 Mist 16 1027 86 1500 1.54 40 17:57 02.01.2022
4614 Mist 16 1026 86 1500 1.54 0 17:39 02.01.2022
4615 Clouds 17 1026 83 6000 2.57 360 17:20 02.01.2022
4616 Fog 17 1026 84 2200 1.54 80 16:28 02.01.2022
4617 Mist 17 1027 84 3500 2.57 70 14:44 02.01.2022
4618 Mist 16 1028 87 3000 1.54 100 13:37 02.01.2022
4619 Fog 16 1030 87 800 2.06 50 12:32 02.01.2022
4620 Mist 15 1028 91 2500 2.06 70 11:49 02.01.2022
4621 Mist 14 1027 92 2500 1.54 70 10:54 02.01.2022
4622 Mist 14 1027 92 2000 1.54 70 09:57 02.01.2022
4623 Clouds 14 1025 90 6000 1.03 350 07:35 02.01.2022
4624 Clouds 16 1024 89 7000 2.06 230 02:56 02.01.2022
4625 Clear 15 1023 85 10000 2.57 220 23:45 01.01.2022
4626 Clear 15 1023 83 10000 2.57 230 23:24 01.01.2022
4627 Clear 15 1023 81 10000 2.57 250 22:25 01.01.2022
4628 Clear 15 1023 80 10000 1.54 260 21:46 01.01.2022
4629 Clear 15 1023 79 10000 0.51 0 21:28 01.01.2022
4630 Clear 16 1022 76 10000 1.03 280 20:27 01.01.2022
4631 Clear 16 1022 71 10000 2.06 260 19:36 01.01.2022
4632 Clear 17 1023 69 10000 0 0 18:51 01.01.2022
4633 Clear 18 1025 64 10000 2.06 360 17:38 01.01.2022
4634 Clear 19 1025 58 10000 1.03 0 16:35 01.01.2022
4635 Clear 19 1025 58 10000 0.51 0 15:37 01.01.2022
4636 Clear 17 1023 65 10000 2.57 60 14:25 01.01.2022
4637 Clear 18 1024 60 10000 2.06 80 13:41 01.01.2022
4638 Clear 16 1025 69 10000 2.57 60 12:25 01.01.2022
4639 Clear 14 1024 74 10000 2.06 60 11:25 01.01.2022
4640 Clear 14 1023 73 10000 2.06 60 10:56 01.01.2022
4641 Clear 13 1022 75 10000 2.06 70 09:48 01.01.2022
4642 Clear 13 1022 77 10000 2.06 60 08:35 01.01.2022
4643 Clear 12 1022 80 10000 2.57 50 07:57 01.01.2022
4644 Clear 13 1020 77 10000 2.06 60 07:38 01.01.2022
4645 Clear 13 1021 80 10000 2.06 40 06:44 01.01.2022
4646 Clear 13 1022 78 10000 2.06 50 04:40 01.01.2022
4647 Clear 14 1021 75 10000 2.06 40 03:52 01.01.2022
4648 Clear 16 1022 74 10000 2.06 0 23:55 31.12.2021
4649 Clear 16 1021 71 10000 1.54 10 22:25 31.12.2021
4650 Clear 16 1021 73 10000 0 0 21:47 31.12.2021
4651 Clear 17 1022 72 10000 1.03 0 19:48 31.12.2021
4652 Clear 18 1021 66 10000 1.54 90 19:28 31.12.2021
4653 Clear 19 1020 61 10000 1.03 0 17:56 31.12.2021
4654 Clear 19 1020 60 10000 0 0 17:26 31.12.2021
4655 Clear 20 1020 59 10000 0 0 16:52 31.12.2021
4656 Clear 20 1021 62 10000 1.03 0 16:18 31.12.2021
4657 Clear 20 1020 60 10000 2.06 70 15:50 31.12.2021
4658 Clear 19 1021 64 10000 2.06 70 15:26 31.12.2021
4659 Clear 19 1021 63 10000 2.57 60 14:39 31.12.2021
4660 Clear 18 1021 64 10000 2.57 70 13:51 31.12.2021
4661 Clear 16 1023 72 10000 3.09 70 12:51 31.12.2021
4662 Clear 15 1023 78 10000 3.09 70 12:21 31.12.2021
4663 Clear 15 1025 73 10000 3.6 50 11:42 31.12.2021
4664 Clear 13 1022 84 10000 2.06 60 10:56 31.12.2021
4665 Clear 12 1022 85 10000 2.06 50 10:28 31.12.2021
4666 Clouds 11 1022 89 9000 2.06 50 09:35 31.12.2021
4667 Clouds 11 1021 90 10000 1.54 50 08:54 31.12.2021
4668 Clouds 11 1020 90 8000 2.06 60 07:59 31.12.2021
4669 Mist 12 1019 89 1000 2.06 60 04:55 31.12.2021
4670 Clear 13 1021 88 10000 1.03 0 23:19 30.12.2021
4671 Clear 14 1019 86 10000 1.54 20 22:32 30.12.2021
4672 Clear 14 1020 87 10000 1.54 40 21:40 30.12.2021
4673 Clear 14 1020 86 10000 1.54 40 21:20 30.12.2021
4674 Clear 15 1020 84 10000 2.57 110 20:40 30.12.2021
4675 Clear 15 1020 85 10000 3.09 100 19:58 30.12.2021
4676 Clear 15 1020 84 10000 1.54 120 19:34 30.12.2021
4677 Clear 15 1019 81 10000 2.57 110 18:29 30.12.2021
4678 Clear 16 1021 78 10000 3.09 110 17:34 30.12.2021
4679 Clouds 16 1021 78 10000 3.09 100 15:54 30.12.2021
4680 Clouds 16 1019 78 10000 1.54 0 15:22 30.12.2021
4681 Clouds 15 1019 81 10000 3.09 110 14:36 30.12.2021
4682 Clouds 14 1022 86 9000 3.6 100 13:31 30.12.2021
4683 Clouds 12 1020 89 10000 3.6 120 11:58 30.12.2021
4684 Clouds 12 1019 88 10000 4.12 110 10:44 30.12.2021
4685 Mist 12 1020 90 10000 2.57 120 09:50 30.12.2021
4686 Clouds 12 1022 90 6000 4.12 90 07:42 30.12.2021
4687 Clouds 12 1019 90 10000 3.6 110 06:38 30.12.2021
4688 Mist 13 1020 92 1500 2.57 80 03:41 30.12.2021
4689 Fog 13 1023 91 400 3.6 70 02:38 30.12.2021
4690 Clouds 14 1021 89 10000 2.06 50 23:41 29.12.2021
4691 Clouds 14 1021 89 10000 2.06 50 23:21 29.12.2021
4692 Clouds 14 1021 88 10000 1.03 90 22:19 29.12.2021
4693 Clouds 15 1020 86 10000 0 0 21:27 29.12.2021
4694 Clouds 15 1022 86 10000 0 0 20:34 29.12.2021
4695 Clouds 16 1022 84 10000 2.57 180 19:48 29.12.2021
4696 Clouds 17 1022 81 10000 2.06 140 18:47 29.12.2021
4697 Clouds 18 1024 74 10000 2.57 140 17:54 29.12.2021
4698 Clouds 18 1024 74 10000 2.57 130 17:27 29.12.2021
4699 Clouds 18 1022 73 10000 2.57 140 16:24 29.12.2021
4700 Fog 18 1022 77 10000 2.57 140 15:48 29.12.2021
4701 Clouds 18 1023 80 10000 3.09 150 14:19 29.12.2021
4702 Clouds 17 1024 87 10000 2.57 170 12:39 29.12.2021
4703 Clouds 16 1024 91 10000 1.54 130 11:43 29.12.2021
4704 Clouds 16 1023 93 10000 2.06 210 09:59 29.12.2021
4705 Clouds 16 1022 92 10000 2.06 220 07:52 29.12.2021
4706 Clouds 16 1022 92 10000 2.57 210 06:40 29.12.2021
4707 Clouds 16 1022 92 10000 2.57 210 06:22 29.12.2021
4708 Drizzle 16 1022 92 10000 2.57 220 05:39 29.12.2021
4709 Mist 16 1023 92 3000 2.06 180 02:48 29.12.2021
4710 Mist 16 1023 92 2200 2.57 220 00:23 29.12.2021
4711 Mist 16 1023 92 1500 3.09 210 23:35 28.12.2021
4712 Drizzle 16 1023 91 8000 4.12 230 22:42 28.12.2021
4713 Drizzle 16 1024 92 8000 4.12 230 22:24 28.12.2021
4714 Mist 16 1023 93 4500 2.57 230 21:38 28.12.2021
4715 Mist 16 1023 91 10000 2.57 230 20:40 28.12.2021
4716 Fog 16 1023 91 10000 3.6 240 19:31 28.12.2021
4717 Clouds 17 1023 90 10000 3.6 230 18:41 28.12.2021
4718 Clouds 17 1022 88 10000 4.63 230 18:19 28.12.2021
4719 Clouds 18 1022 89 10000 4.12 240 16:35 28.12.2021
4720 Clouds 18 1022 89 10000 4.63 230 15:51 28.12.2021
4721 Clouds 18 1022 89 10000 4.12 230 15:23 28.12.2021
4722 Clouds 18 1022 90 10000 4.12 240 14:50 28.12.2021
4723 Clouds 18 1022 89 10000 4.63 220 14:21 28.12.2021
4724 Clouds 18 1022 89 10000 4.63 220 14:21 28.12.2021
4725 Clouds 18 1023 90 10000 4.12 220 13:51 28.12.2021
4726 Fog 18 1023 90 10000 4.63 220 13:27 28.12.2021
4727 Fog 17 1023 93 10000 4.63 230 12:49 28.12.2021
4728 Drizzle 17 1023 92 10000 4.12 230 11:51 28.12.2021
4729 Drizzle 16 1022 92 7000 3.09 230 09:27 28.12.2021
4730 Clouds 16 1020 89 10000 3.09 230 07:28 28.12.2021
4731 Clouds 16 1017 89 10000 5.14 240 00:59 28.12.2021
4732 Clouds 16 1019 90 10000 4.12 240 23:26 27.12.2021
4733 Clouds 17 1019 89 10000 5.66 240 21:54 27.12.2021
4734 Clouds 16 1018 89 10000 4.63 240 21:26 27.12.2021
4735 Clouds 16 1018 90 10000 4.63 240 20:24 27.12.2021
4736 Clouds 17 1018 89 10000 5.66 240 19:45 27.12.2021
4737 Clouds 17 1017 90 10000 6.17 240 18:54 27.12.2021
4738 Clouds 17 1016 87 10000 6.69 220 17:50 27.12.2021
4739 Clouds 17 1016 86 10000 7.2 230 17:18 27.12.2021
4740 Clouds 18 1016 87 10000 6.17 230 15:53 27.12.2021
4741 Drizzle 17 1016 87 10000 6.69 220 14:34 27.12.2021
4742 Fog 18 1016 84 10000 5.66 230 13:58 27.12.2021
4743 Fog 17 1017 87 10000 4.63 220 12:49 27.12.2021
4744 Fog 16 1015 90 8000 4.12 230 10:37 27.12.2021
4745 Fog 16 1015 91 8000 4.12 230 10:18 27.12.2021
4746 Fog 16 1015 91 10000 2.57 240 08:42 27.12.2021
4747 Clouds 16 1014 88 10000 4.12 260 07:34 27.12.2021
4748 Clouds 16 1012 88 10000 5.66 240 02:29 27.12.2021
4749 Drizzle 16 1011 89 7000 6.69 240 00:57 27.12.2021
4750 Clouds 16 1011 91 10000 6.17 230 23:43 26.12.2021
4751 Clouds 16 1011 91 10000 5.14 220 23:18 26.12.2021
4752 Clouds 16 1011 91 6000 5.14 230 21:33 26.12.2021
4753 Drizzle 16 1011 92 3500 6.17 220 19:54 26.12.2021
4754 Mist 16 1010 92 2000 6.17 220 18:39 26.12.2021
4755 Mist 16 1010 92 2000 6.17 220 18:19 26.12.2021
4756 Clouds 17 1010 90 6000 6.69 230 15:35 26.12.2021
4757 Drizzle 17 1011 91 4500 7.2 230 13:43 26.12.2021
4758 Clouds 17 1011 91 10000 6.69 240 13:21 26.12.2021
4759 Mist 17 1011 91 4000 6.17 230 12:35 26.12.2021
4760 Mist 16 1011 92 3000 6.17 230 11:18 26.12.2021
4761 Mist 16 1010 93 3000 6.69 230 09:30 26.12.2021
4762 Mist 16 1010 93 3000 6.69 210 08:45 26.12.2021
4763 Mist 15 1009 93 2000 6.69 200 08:26 26.12.2021
4764 Clouds 14 1010 89 10000 2.06 230 01:50 26.12.2021
4765 Clouds 14 1009 88 10000 3.09 220 00:39 26.12.2021
4766 Clouds 14 1009 87 10000 2.57 200 23:35 25.12.2021
4767 Clouds 14 1009 90 10000 2.57 180 22:38 25.12.2021
4768 Clouds 14 1009 87 10000 2.57 180 22:20 25.12.2021
4769 Clouds 14 1008 83 10000 3.09 300 20:26 25.12.2021
4770 Clouds 15 1007 81 10000 2.57 300 19:19 25.12.2021
4771 Clouds 15 1007 82 10000 3.6 300 18:37 25.12.2021
4772 Clouds 16 1005 80 10000 4.63 310 16:50 25.12.2021
4773 Mist 16 1004 82 10000 6.69 300 15:38 25.12.2021
4774 Clouds 16 1002 83 10000 6.17 300 14:23 25.12.2021
4775 Mist 16 1001 88 5000 7.2 270 12:40 25.12.2021
4776 Mist 15 1001 88 3500 6.17 240 10:49 25.12.2021
4777 Mist 16 1000 86 5000 7.72 230 09:49 25.12.2021
4778 Clouds 15 996 91 8000 10.29 210 07:28 25.12.2021
4779 Rain 14 1005 83 10000 7.2 190 01:43 25.12.2021
4780 Rain 15 1003 87 10000 6.69 210 00:23 25.12.2021
4781 Rain 15 1004 87 10000 3.09 230 22:26 24.12.2021
4782 Clouds 14 1007 79 10000 3.6 240 19:29 24.12.2021
4783 Clouds 15 1008 76 10000 6.69 240 18:57 24.12.2021
4784 Clouds 16 1006 79 10000 6.17 220 16:49 24.12.2021
4785 Clouds 15 1006 86 10000 7.2 220 15:53 24.12.2021
4786 Clouds 15 1006 87 10000 4.63 230 15:34 24.12.2021
4787 Clouds 15 1007 86 10000 8.75 200 14:36 24.12.2021
4788 Rain 15 1007 84 10000 8.75 200 14:18 24.12.2021
4789 Rain 16 1010 79 10000 8.75 200 13:33 24.12.2021
4790 Rain 16 1008 81 10000 7.72 190 12:47 24.12.2021
4791 Clouds 15 1009 87 10000 5.14 170 11:47 24.12.2021
4792 Clouds 15 1009 90 10000 5.14 170 11:24 24.12.2021
4793 Clouds 15 1009 90 10000 5.66 180 10:46 24.12.2021
4794 Fog 14 1009 92 10000 3.6 160 09:32 24.12.2021
4795 Fog 14 1010 92 10000 3.09 160 08:23 24.12.2021
4796 Clouds 14 1009 91 10000 4.12 160 07:46 24.12.2021
4797 Clouds 13 1011 90 10000 1.03 0 01:30 24.12.2021
4798 Clouds 14 1012 90 10000 2.06 180 23:55 23.12.2021
4799 Clouds 14 1011 88 10000 2.57 200 22:56 23.12.2021
4800 Clouds 14 1011 88 10000 3.6 180 22:37 23.12.2021
4801 Clouds 14 1011 88 10000 3.6 180 22:18 23.12.2021
4802 Clouds 14 1012 89 10000 4.63 210 20:56 23.12.2021
4803 Clouds 15 1013 89 10000 3.6 210 19:47 23.12.2021
4804 Clouds 15 1013 87 10000 4.63 220 18:35 23.12.2021
4805 Clouds 16 1013 85 10000 4.12 220 17:56 23.12.2021
4806 Clouds 16 1011 76 10000 4.12 240 16:43 23.12.2021
4807 Clouds 17 1011 75 10000 4.12 230 16:23 23.12.2021
4808 Clouds 17 1015 76 10000 3.6 240 15:31 23.12.2021
4809 Clouds 17 1012 78 10000 3.6 230 14:49 23.12.2021
4810 Clouds 17 1012 79 10000 3.09 240 14:30 23.12.2021
4811 Clouds 16 1014 87 10000 4.12 270 12:54 23.12.2021
4812 Fog 15 1014 92 10000 3.09 250 10:44 23.12.2021
4813 Fog 16 1015 91 10000 3.6 230 09:42 23.12.2021
4814 Fog 15 1013 92 10000 4.12 220 08:59 23.12.2021
4815 Rain 15 1012 91 6000 3.6 190 06:55 23.12.2021
4816 Drizzle 16 1013 90 10000 5.14 180 04:30 23.12.2021
4817 Drizzle 15 1013 89 10000 5.14 170 23:20 22.12.2021
4818 Drizzle 15 1013 88 9000 4.63 180 22:42 22.12.2021
4819 Clouds 16 1013 87 10000 4.63 170 21:56 22.12.2021
4820 Clouds 16 1013 87 10000 4.63 180 21:29 22.12.2021
4821 Clouds 16 1014 88 10000 4.63 170 20:47 22.12.2021
4822 Clouds 16 1014 88 10000 5.14 190 20:26 22.12.2021
4823 Clouds 15 1013 85 10000 6.17 180 19:21 22.12.2021
4824 Clouds 16 1013 85 10000 5.66 180 17:42 22.12.2021
4825 Clouds 17 1013 83 10000 5.66 180 16:39 22.12.2021
4826 Clouds 17 1013 82 10000 5.66 180 15:39 22.12.2021
4827 Clouds 16 1016 85 10000 1.54 110 13:33 22.12.2021
4828 Mist 15 1014 90 3000 1.54 60 12:40 22.12.2021
4829 Mist 13 1014 90 3500 2.57 70 10:19 22.12.2021
4830 Fog 13 1013 90 800 3.6 0 09:38 22.12.2021
4831 Mist 14 1012 89 5000 1.54 100 07:30 22.12.2021
4832 Clouds 14 1012 89 10000 1.54 120 05:50 22.12.2021
4833 Clouds 14 1012 89 10000 2.57 170 05:26 22.12.2021
4834 Clouds 14 1012 89 10000 2.57 180 04:50 22.12.2021
4835 Clouds 14 1012 88 10000 3.6 170 04:29 22.12.2021
4836 Clouds 14 1011 83 10000 2.57 180 03:33 22.12.2021
4837 Clouds 15 1010 82 10000 4.12 160 00:50 22.12.2021
4838 Clouds 15 1010 84 10000 3.6 130 23:25 21.12.2021
4839 Clouds 15 1010 84 10000 3.6 150 22:28 21.12.2021
4840 Clouds 15 1010 83 10000 3.6 140 21:44 21.12.2021
4841 Clouds 15 1010 85 10000 3.6 170 21:23 21.12.2021
4842 Clouds 15 1010 85 6000 4.63 130 20:22 21.12.2021
4843 Clouds 16 1010 83 10000 4.12 130 19:43 21.12.2021
4844 Rain 16 1010 83 10000 4.63 140 18:48 21.12.2021
4845 Clouds 16 1010 83 10000 3.6 130 18:21 21.12.2021
4846 Clouds 16 1009 85 10000 5.14 140 17:47 21.12.2021
4847 Clouds 17 1009 82 8000 7.2 170 16:35 21.12.2021
4848 Clouds 17 1010 80 10000 5.14 150 15:25 21.12.2021
4849 Rain 18 1011 75 10000 4.63 130 13:51 21.12.2021
4850 Clouds 18 1011 77 10000 4.63 130 13:31 21.12.2021
4851 Clouds 17 1012 82 9000 3.6 120 11:57 21.12.2021
4852 Mist 15 1012 87 5000 4.63 110 10:25 21.12.2021
4853 Mist 15 1012 87 5000 5.66 110 09:33 21.12.2021
4854 Clouds 15 1012 87 8000 5.14 130 08:28 21.12.2021
4855 Clouds 14 1011 86 10000 5.14 130 07:32 21.12.2021
4856 Clouds 15 1011 86 10000 4.12 120 06:50 21.12.2021
4857 Clouds 16 1011 83 10000 5.66 160 03:18 21.12.2021
4858 Clouds 17 1012 85 10000 7.72 180 00:46 21.12.2021
4859 Clouds 17 1012 83 10000 6.69 170 23:34 20.12.2021
4860 Clouds 17 1012 82 10000 7.72 170 22:34 20.12.2021
4861 Clouds 17 1013 86 10000 8.75 170 21:48 20.12.2021
4862 Clouds 17 1013 86 10000 8.75 180 21:24 20.12.2021
4863 Clouds 17 1012 87 10000 7.72 180 20:48 20.12.2021
4864 Clouds 16 1012 90 10000 8.23 170 19:55 20.12.2021
4865 Clouds 16 1012 91 10000 8.75 170 19:32 20.12.2021
4866 Clouds 16 1012 88 10000 7.72 180 18:55 20.12.2021
4867 Clouds 16 1012 87 2000 5.14 170 17:56 20.12.2021
4868 Clouds 16 1012 87 10000 3.6 150 17:37 20.12.2021
4869 Clouds 16 1012 85 10000 2.57 140 16:43 20.12.2021
4870 Clouds 16 1013 84 10000 7.72 180 15:52 20.12.2021
4871 Clouds 15 1013 89 1500 8.23 180 14:56 20.12.2021
4872 Rain 16 1013 90 8000 4.63 130 13:24 20.12.2021
4873 Rain 15 1016 87 7000 3.6 130 11:27 20.12.2021
4874 Clouds 15 1016 88 10000 4.63 130 09:51 20.12.2021
4875 Clouds 15 1016 88 8000 4.63 130 09:31 20.12.2021
4876 Clouds 15 1016 88 9000 3.6 130 08:42 20.12.2021
4877 Drizzle 14 1012 90 7000 4.12 150 07:55 20.12.2021
4878 Drizzle 14 1012 90 7000 5.14 130 07:31 20.12.2021
4879 Rain 14 1013 88 8000 6.69 140 04:36 20.12.2021
4880 Rain 15 1013 73 10000 2.06 100 00:19 20.12.2021
4881 Rain 16 1014 67 10000 2.06 120 22:55 19.12.2021
4882 Clear 16 1014 63 10000 3.6 100 21:55 19.12.2021
4883 Clear 16 1014 62 10000 3.6 110 21:31 19.12.2021
4884 Clear 16 1014 60 10000 4.12 90 20:34 19.12.2021
4885 Clear 16 1014 58 10000 4.63 80 19:52 19.12.2021
4886 Clear 16 1014 58 10000 3.6 90 19:32 19.12.2021
4887 Clear 17 1013 56 10000 4.12 90 18:30 19.12.2021
4888 Clear 17 1013 55 10000 4.63 100 17:53 19.12.2021
4889 Clear 18 1013 54 10000 4.63 110 17:21 19.12.2021
4890 Clear 18 1013 55 10000 5.66 100 16:27 19.12.2021
4891 Clear 18 1014 55 10000 6.17 100 15:50 19.12.2021
4892 Clear 18 1014 55 10000 5.14 100 15:23 19.12.2021
4893 Clear 17 1015 58 10000 4.63 100 14:44 19.12.2021
4894 Clear 15 1016 62 10000 5.14 80 13:26 19.12.2021
4895 Clear 14 1019 62 10000 5.66 70 12:47 19.12.2021
4896 Clear 13 1017 68 10000 5.14 60 12:28 19.12.2021
4897 Clear 12 1020 65 10000 3.09 20 11:30 19.12.2021
4898 Clear 10 1018 74 10000 4.12 60 10:30 19.12.2021
4899 Clear 10 1017 74 10000 4.63 70 09:53 19.12.2021
4900 Clear 9 1018 74 10000 3.6 60 08:45 19.12.2021
4901 Clear 10 1018 72 10000 4.63 60 04:45 19.12.2021
4902 Clear 11 1018 70 10000 4.63 60 01:39 19.12.2021
4903 Clear 12 1019 69 10000 4.63 60 00:53 19.12.2021
4904 Clear 13 1020 67 10000 4.12 50 22:50 18.12.2021
4905 Clear 13 1019 64 10000 3.6 50 22:20 18.12.2021
4906 Clear 13 1020 65 10000 3.6 60 21:41 18.12.2021
4907 Clear 14 1020 65 10000 3.6 60 21:22 18.12.2021
4908 Clear 14 1021 64 10000 2.57 80 20:25 18.12.2021
4909 Clear 15 1020 60 10000 3.6 90 19:27 18.12.2021
4910 Clear 16 1020 58 10000 3.09 90 18:23 18.12.2021
4911 Clear 17 1020 56 10000 2.57 70 17:49 18.12.2021
4912 Clear 17 1020 55 10000 3.6 60 16:27 18.12.2021
4913 Clear 17 1020 57 10000 4.12 60 15:48 18.12.2021
4914 Clear 16 1023 61 10000 4.12 50 14:51 18.12.2021
4915 Clear 15 1021 60 10000 4.12 50 13:42 18.12.2021
4916 Clear 12 1022 71 10000 4.12 70 11:48 18.12.2021
4917 Clouds 10 1021 78 10000 4.63 60 09:53 18.12.2021
4918 Clouds 10 1021 79 10000 5.14 60 09:30 18.12.2021
4919 Clouds 10 1021 80 10000 3.6 60 08:35 18.12.2021
4920 Clouds 10 1020 75 10000 4.12 70 06:27 18.12.2021
4921 Clear 12 1021 69 10000 2.57 50 00:42 18.12.2021
4922 Clouds 12 1020 66 10000 2.06 80 23:47 17.12.2021
4923 Clouds 13 1021 65 10000 3.6 60 22:37 17.12.2021
4924 Clouds 14 1021 61 10000 3.09 50 21:28 17.12.2021
4925 Clouds 14 1021 60 10000 3.09 50 20:42 17.12.2021
4926 Clouds 14 1020 60 10000 2.57 50 19:51 17.12.2021
4927 Clear 15 1020 59 10000 2.57 80 18:39 17.12.2021
4928 Clouds 16 1019 57 10000 2.57 80 17:47 17.12.2021
4929 Clouds 16 1020 56 10000 2.57 80 16:50 17.12.2021
4930 Clouds 16 1020 56 10000 3.6 90 16:27 17.12.2021
4931 Clouds 16 1020 55 10000 4.12 70 15:27 17.12.2021
4932 Clouds 15 1020 57 10000 4.63 70 14:42 17.12.2021
4933 Clouds 14 1021 59 10000 5.14 70 13:45 17.12.2021
4934 Clear 12 1022 65 10000 4.63 60 12:36 17.12.2021
4935 Clear 10 1022 70 10000 6.17 60 10:42 17.12.2021
4936 Clear 9 1021 73 10000 4.63 50 09:47 17.12.2021
4937 Clear 9 1020 71 10000 3.6 50 08:32 17.12.2021
4938 Clear 10 1019 69 10000 4.12 60 07:30 17.12.2021
4939 Clear 10 1019 67 10000 3.6 50 04:40 17.12.2021
4940 Clear 12 1019 60 10000 3.6 50 00:22 17.12.2021
4941 Clear 13 1019 62 10000 2.57 50 22:25 16.12.2021
4942 Clear 13 1019 63 10000 2.57 50 21:54 16.12.2021
4943 Clear 13 1019 63 10000 3.09 40 21:36 16.12.2021
4944 Clouds 14 1019 61 10000 2.57 50 20:40 16.12.2021
4945 Clouds 14 1019 62 10000 3.09 50 19:52 16.12.2021
4946 Clouds 15 1019 58 10000 2.06 0 18:45 16.12.2021
4947 Clouds 16 1019 57 10000 1.54 70 18:26 16.12.2021
4948 Clouds 17 1021 56 10000 2.57 90 17:35 16.12.2021
4949 Clouds 17 1021 55 10000 4.12 50 16:23 16.12.2021
4950 Clear 16 1021 57 10000 2.57 60 15:22 16.12.2021
4951 Clear 15 1020 59 10000 3.09 50 13:45 16.12.2021
4952 Clear 12 1021 63 10000 4.63 50 11:48 16.12.2021
4953 Clear 11 1020 63 10000 4.12 60 11:18 16.12.2021
4954 Clear 10 1021 67 10000 3.6 50 10:39 16.12.2021
4955 Clear 9 1021 72 10000 3.6 30 09:42 16.12.2021
4956 Clear 9 1019 73 10000 2.57 40 06:23 16.12.2021
4957 Clear 10 1019 76 10000 1.54 40 03:54 16.12.2021
4958 Clear 11 1019 71 10000 1.54 360 23:36 15.12.2021
4959 Clear 12 1019 69 10000 1.03 340 22:49 15.12.2021
4960 Clear 12 1019 68 10000 2.06 350 22:20 15.12.2021
4961 Clear 13 1019 67 10000 2.57 350 21:31 15.12.2021
4962 Clear 14 1019 63 10000 2.57 350 20:36 15.12.2021
4963 Clear 14 1019 63 10000 2.57 10 19:53 15.12.2021
4964 Clear 15 1019 58 10000 3.6 30 18:41 15.12.2021
4965 Clear 16 1019 57 10000 3.6 30 18:18 15.12.2021
4966 Clear 17 1018 54 10000 2.06 50 17:40 15.12.2021
4967 Clear 17 1021 53 10000 3.09 50 16:59 15.12.2021
4968 Clear 17 1018 54 10000 2.57 0 15:47 15.12.2021
4969 Clear 16 1021 57 10000 2.57 80 15:29 15.12.2021
4970 Clear 16 1019 58 10000 2.06 70 14:44 15.12.2021
4971 Clear 15 1019 59 10000 3.09 80 13:27 15.12.2021
4972 Clear 12 1023 63 10000 4.12 60 11:40 15.12.2021
4973 Clear 9 1020 76 10000 2.57 60 09:38 15.12.2021
4974 Clear 10 1018 71 10000 2.57 60 07:52 15.12.2021
4975 Clear 12 1018 71 10000 3.6 50 04:22 15.12.2021
4976 Clear 13 1019 71 10000 3.09 40 23:53 14.12.2021
4977 Clear 13 1019 71 10000 3.6 30 22:55 14.12.2021
4978 Clear 14 1018 67 10000 2.57 10 22:37 14.12.2021
4979 Clear 14 1018 67 10000 3.6 30 21:38 14.12.2021
4980 Clear 15 1019 68 10000 2.06 20 20:20 14.12.2021
4981 Clear 15 1019 67 10000 0.51 0 19:21 14.12.2021
4982 Clear 16 1019 66 10000 2.57 60 18:38 14.12.2021
4983 Clear 17 1019 63 10000 3.09 90 17:51 14.12.2021
4984 Clouds 18 1020 61 10000 4.12 70 16:43 14.12.2021
4985 Clouds 17 1020 60 10000 4.12 50 15:54 14.12.2021
4986 Clear 15 1021 68 10000 3.6 60 13:58 14.12.2021
4987 Clouds 14 1022 71 10000 4.12 60 12:48 14.12.2021
4988 Clouds 12 1022 78 10000 5.14 60 11:25 14.12.2021
4989 Clouds 11 1022 80 10000 4.12 70 10:45 14.12.2021
4990 Clouds 11 1021 82 10000 4.12 60 09:54 14.12.2021
4991 Clouds 11 1021 86 10000 3.6 70 08:48 14.12.2021
4992 Clouds 11 1021 86 10000 3.6 70 08:21 14.12.2021
4993 Clouds 11 1020 88 10000 3.6 70 06:40 14.12.2021
4994 Clouds 15 1020 75 10000 2.57 110 23:51 13.12.2021
4995 Clouds 15 1019 74 10000 1.54 80 22:24 13.12.2021
4996 Clouds 16 1019 74 10000 1.54 110 21:39 13.12.2021
4997 Clouds 16 1019 72 10000 1.54 100 20:51 13.12.2021
4998 Clouds 16 1019 72 10000 1.54 100 20:21 13.12.2021
4999 Clouds 16 1019 71 10000 2.06 70 19:49 13.12.2021
5000 Clouds 16 1019 69 10000 2.06 70 17:27 13.12.2021
5001 Clouds 16 1019 66 10000 1.54 70 16:32 13.12.2021
5002 Clouds 16 1019 65 10000 2.06 0 15:43 13.12.2021
5003 Clouds 16 1020 64 10000 2.06 0 14:30 13.12.2021
5004 Clouds 15 1020 65 10000 2.57 110 13:36 13.12.2021
5005 Clouds 14 1021 71 10000 2.57 0 12:39 13.12.2021
5006 Clear 14 1022 71 10000 3.09 60 11:50 13.12.2021
5007 Clear 13 1021 76 10000 3.6 70 11:29 13.12.2021
5008 Clear 12 1020 79 10000 3.6 80 10:21 13.12.2021
5009 Clear 11 1020 81 10000 3.09 70 08:43 13.12.2021
5010 Clear 11 1020 81 10000 3.09 60 08:43 13.12.2021
5011 Clear 12 1019 81 10000 2.57 60 06:54 13.12.2021
5012 Clear 12 1019 81 10000 2.57 60 04:52 13.12.2021
5013 Clear 15 1021 74 10000 2.06 50 23:55 12.12.2021
5014 Clear 17 1020 69 10000 2.57 50 21:58 12.12.2021
5015 Clear 16 1020 71 10000 2.57 20 20:50 12.12.2021
5016 Clear 17 1020 71 10000 2.57 10 19:35 12.12.2021
5017 Clear 18 1020 67 10000 2.57 40 18:22 12.12.2021
5018 Clear 19 1021 63 10000 3.6 50 16:32 12.12.2021
5019 Clear 19 1020 60 10000 3.6 50 15:55 12.12.2021
5020 Clear 19 1021 63 10000 3.09 70 15:28 12.12.2021
5021 Clear 19 1021 59 10000 3.09 70 14:46 12.12.2021
5022 Clear 18 1022 63 10000 3.09 60 13:56 12.12.2021
5023 Clouds 16 1023 68 10000 3.09 70 12:48 12.12.2021
5024 Clouds 15 1025 72 10000 3.6 70 11:45 12.12.2021
5025 Clouds 13 1023 80 10000 4.12 60 11:27 12.12.2021
5026 Clouds 12 1025 84 10000 3.09 50 10:44 12.12.2021
5027 Fog 12 1023 88 10000 3.09 50 10:20 12.12.2021
5028 Fog 10 1022 89 400 2.06 80 08:46 12.12.2021
5029 Fog 11 1022 87 10000 2.06 30 07:25 12.12.2021
5030 Clear 11 1021 85 10000 2.06 50 05:29 12.12.2021
5031 Clear 11 1022 87 10000 3.09 50 04:51 12.12.2021
5032 Clear 12 1023 81 10000 0 0 00:57 12.12.2021
5033 Clear 13 1023 77 10000 3.09 320 22:56 11.12.2021
5034 Clear 13 1023 77 10000 3.6 320 22:20 11.12.2021
5035 Clear 13 1023 79 10000 4.12 330 21:35 11.12.2021
5036 Clear 14 1023 81 10000 5.14 330 20:19 11.12.2021
5037 Clouds 15 1023 79 10000 5.14 340 19:21 11.12.2021
5038 Clouds 15 1023 79 10000 5.14 350 18:45 11.12.2021
5039 Clouds 17 1023 74 10000 5.14 350 17:54 11.12.2021
5040 Clouds 18 1023 71 10000 5.66 340 16:37 11.12.2021
5041 Clouds 19 1023 67 10000 4.63 340 15:41 11.12.2021
5042 Clouds 18 1024 68 10000 5.66 350 14:36 11.12.2021
5043 Clouds 17 1026 73 10000 5.66 30 12:31 11.12.2021
5044 Clouds 15 1026 78 10000 3.6 350 10:50 11.12.2021
5045 Clouds 13 1025 82 10000 4.63 340 09:43 11.12.2021
5046 Clouds 14 1024 81 10000 3.6 340 03:58 11.12.2021
5047 Clouds 14 1025 82 10000 3.09 340 00:48 11.12.2021
5048 Clouds 15 1025 83 10000 3.6 340 23:44 10.12.2021
5049 Clouds 15 1026 84 10000 4.12 350 22:47 10.12.2021
5050 Mist 15 1026 85 5000 5.14 340 21:41 10.12.2021
5051 Drizzle 16 1026 84 10000 6.17 330 20:32 10.12.2021
5052 Drizzle 15 1025 85 10000 4.63 330 19:19 10.12.2021
5053 Drizzle 16 1025 85 10000 3.09 300 17:50 10.12.2021
5054 Clouds 16 1026 79 10000 3.6 300 16:39 10.12.2021
5055 Clouds 16 1026 79 10000 3.09 300 15:45 10.12.2021
5056 Clouds 16 1026 80 10000 4.12 300 15:27 10.12.2021
5057 Clouds 16 1027 79 10000 4.63 310 14:49 10.12.2021
5058 Clouds 16 1027 79 10000 4.12 310 13:50 10.12.2021
5059 Clouds 16 1028 80 10000 3.09 310 12:56 10.12.2021
5060 Clouds 15 1028 81 10000 2.57 300 11:43 10.12.2021
5061 Clouds 15 1028 82 10000 2.57 300 11:19 10.12.2021
5062 Clouds 14 1027 85 10000 3.6 290 09:49 10.12.2021
5063 Clouds 14 1026 81 10000 4.12 300 07:49 10.12.2021
5064 Clouds 14 1025 83 10000 2.57 290 04:58 10.12.2021
5065 Clouds 13 1025 84 10000 2.57 270 02:44 10.12.2021
5066 Clouds 14 1026 82 10000 3.09 310 23:43 09.12.2021
5067 Clouds 14 1026 80 10000 3.09 310 22:44 09.12.2021
5068 Clouds 14 1027 80 10000 3.09 300 22:23 09.12.2021
5069 Clouds 15 1027 78 10000 2.06 280 21:40 09.12.2021
5070 Clouds 15 1027 77 10000 1.54 280 20:38 09.12.2021
5071 Clouds 15 1027 76 10000 2.06 310 19:46 09.12.2021
5072 Clouds 15 1027 76 10000 2.06 310 19:21 09.12.2021
5073 Clouds 15 1027 73 10000 4.63 330 18:24 09.12.2021
5074 Clouds 15 1027 71 10000 3.09 310 17:51 09.12.2021
5075 Clouds 15 1027 73 10000 4.12 310 17:25 09.12.2021
5076 Clouds 16 1027 72 10000 3.6 320 16:43 09.12.2021
5077 Clouds 16 1027 70 10000 5.66 310 15:31 09.12.2021
5078 Clouds 16 1027 70 10000 5.14 310 14:43 09.12.2021
5079 Clouds 16 1028 75 10000 4.63 320 13:18 09.12.2021
5080 Clouds 16 1028 76 10000 6.17 300 12:31 09.12.2021
5081 Drizzle 14 1028 85 10000 4.12 290 10:50 09.12.2021
5082 Clouds 13 1027 85 10000 2.06 280 08:38 09.12.2021
5083 Clouds 12 1026 81 10000 2.57 320 05:54 09.12.2021
5084 Clouds 12 1025 79 10000 3.09 330 02:49 09.12.2021
5085 Clear 12 1025 78 10000 1.54 300 23:42 08.12.2021
5086 Clouds 12 1025 79 10000 2.57 320 23:20 08.12.2021
5087 Clear 12 1024 77 10000 3.6 330 22:45 08.12.2021
5088 Clouds 13 1024 77 10000 4.63 330 21:40 08.12.2021
5089 Clouds 13 1025 75 10000 3.09 300 20:59 08.12.2021
5090 Clouds 13 1025 75 10000 2.06 300 19:58 08.12.2021
5091 Clouds 13 1025 75 10000 2.57 300 19:33 08.12.2021
5092 Clouds 13 1023 74 10000 4.63 320 18:31 08.12.2021
5093 Clouds 14 1022 66 10000 6.17 320 17:26 08.12.2021
5094 Clouds 15 1022 62 10000 5.14 310 15:47 08.12.2021
5095 Clouds 16 1022 61 10000 6.17 310 15:26 08.12.2021
5096 Clouds 15 1022 64 10000 4.12 320 14:28 08.12.2021
5097 Clouds 13 1021 73 10000 2.06 300 10:54 08.12.2021
5098 Rain 13 1021 73 10000 1.54 290 10:28 08.12.2021
5099 Clouds 13 1020 73 10000 2.06 290 08:54 08.12.2021
5100 Clouds 13 1019 76 10000 2.57 300 07:21 08.12.2021
5101 Clouds 13 1018 74 10000 3.09 290 02:30 08.12.2021
5102 Clouds 14 1018 86 10000 2.06 310 23:33 07.12.2021
5103 Mist 15 1018 90 2800 5.66 250 21:40 07.12.2021
5104 Mist 16 1018 90 2800 5.66 250 21:18 07.12.2021
5105 Rain 16 1018 86 10000 5.66 230 20:19 07.12.2021
5106 Drizzle 16 1018 86 10000 6.17 240 18:43 07.12.2021
5107 Clouds 16 1018 83 10000 6.69 240 17:48 07.12.2021
5108 Clouds 16 1019 81 10000 6.17 240 17:19 07.12.2021
5109 Clouds 17 1019 78 10000 6.69 240 16:28 07.12.2021
5110 Clouds 17 1020 79 10000 6.17 250 15:23 07.12.2021
5111 Clouds 17 1021 84 10000 4.12 250 14:18 07.12.2021
5112 Mist 16 1022 87 5000 4.63 220 12:49 07.12.2021
5113 Clouds 15 1023 85 10000 4.12 220 11:27 07.12.2021
5114 Clouds 15 1022 85 10000 2.57 230 10:33 07.12.2021
5115 Clouds 15 1022 84 10000 2.57 260 07:57 07.12.2021
5116 Clouds 14 1023 89 10000 3.09 230 06:18 07.12.2021
5117 Clouds 14 1023 89 10000 3.6 230 05:33 07.12.2021
5118 Clouds 14 1025 88 10000 1.54 240 23:47 06.12.2021
5119 Clouds 14 1025 88 10000 1.54 240 23:47 06.12.2021
5120 Clouds 14 1025 85 10000 2.57 260 22:57 06.12.2021
5121 Clouds 14 1025 86 10000 3.09 260 22:35 06.12.2021
5122 Clouds 14 1026 84 10000 4.12 240 21:51 06.12.2021
5123 Clouds 14 1026 85 10000 1.03 0 20:33 06.12.2021
5124 Clouds 14 1027 84 10000 1.54 270 19:55 06.12.2021
5125 Clouds 15 1026 82 10000 2.06 280 19:20 06.12.2021
5126 Clouds 15 1026 76 10000 4.12 300 18:28 06.12.2021
5127 Clouds 16 1026 70 10000 2.57 310 17:40 06.12.2021
5128 Clouds 16 1026 70 10000 2.57 310 17:40 06.12.2021
5129 Clouds 17 1028 68 10000 2.57 300 16:48 06.12.2021
5130 Clouds 17 1027 64 10000 3.6 330 15:39 06.12.2021
5131 Clouds 16 1029 62 10000 3.6 310 13:46 06.12.2021
5132 Clouds 16 1029 67 10000 1.54 300 12:39 06.12.2021
5133 Clouds 15 1029 72 10000 2.06 330 11:38 06.12.2021
5134 Clouds 12 1028 80 10000 0 0 08:51 06.12.2021
5135 Clouds 12 1027 75 10000 1.54 290 06:42 06.12.2021
5136 Clouds 13 1028 76 10000 2.57 340 23:38 05.12.2021
5137 Clouds 12 1028 74 10000 2.57 330 21:52 05.12.2021
5138 Clouds 13 1028 74 10000 2.06 330 21:19 05.12.2021
5139 Clouds 13 1028 76 10000 2.57 330 20:19 05.12.2021
5140 Clouds 13 1028 74 10000 5.14 350 19:33 05.12.2021
5141 Clouds 14 1029 72 10000 6.17 350 18:55 05.12.2021
5142 Clouds 14 1028 70 10000 6.17 340 18:20 05.12.2021
5143 Clouds 15 1028 69 10000 6.17 340 17:48 05.12.2021
5144 Clouds 15 1027 63 10000 7.72 330 16:50 05.12.2021
5145 Clouds 15 1027 59 10000 6.69 10 16:27 05.12.2021
5146 Clouds 16 1027 56 10000 7.2 330 15:49 05.12.2021
5147 Clouds 16 1028 55 10000 6.69 340 14:43 05.12.2021
5148 Clouds 16 1028 56 10000 7.2 340 14:25 05.12.2021
5149 Clouds 15 1028 62 10000 5.66 340 13:22 05.12.2021
5150 Clouds 15 1029 62 10000 7.2 330 12:40 05.12.2021
5151 Clouds 15 1029 63 10000 7.2 330 12:18 05.12.2021
5152 Clouds 15 1028 58 10000 4.12 310 11:34 05.12.2021
5153 Clouds 14 1027 63 10000 3.6 340 10:18 05.12.2021
5154 Clouds 12 1027 66 10000 2.57 0 08:29 05.12.2021
5155 Clouds 11 1026 81 10000 0.51 0 04:56 05.12.2021
5156 Clear 12 1027 78 10000 1.03 0 00:48 05.12.2021
5157 Clouds 12 1027 76 10000 3.09 330 22:18 04.12.2021
5158 Clouds 12 1026 75 10000 3.6 330 21:20 04.12.2021
5159 Clouds 13 1025 77 10000 2.06 330 20:27 04.12.2021
5160 Clouds 14 1025 82 10000 3.6 330 19:32 04.12.2021
5161 Clouds 15 1025 84 10000 4.12 330 18:23 04.12.2021
5162 Clouds 16 1025 84 10000 4.63 310 17:45 04.12.2021
5163 Clouds 16 1025 84 10000 4.63 310 17:20 04.12.2021
5164 Clouds 16 1025 86 10000 4.63 300 16:42 04.12.2021
5165 Clouds 17 1025 85 10000 4.63 300 16:24 04.12.2021
5166 Clouds 15 1027 83 10000 3.6 250 11:56 04.12.2021
5167 Clouds 15 1027 83 10000 3.09 250 11:33 04.12.2021
5168 Clouds 15 1026 88 10000 3.6 250 10:57 04.12.2021
5169 Fog 13 1026 87 10000 3.09 240 08:53 04.12.2021
5170 Fog 13 1026 87 10000 3.09 240 08:27 04.12.2021
5171 Clouds 12 1025 85 10000 1.03 0 04:42 04.12.2021
5172 Clouds 13 1026 76 10000 1.03 0 00:49 04.12.2021
5173 Clouds 12 1026 77 10000 2.06 320 23:33 03.12.2021
5174 Clouds 12 1026 77 10000 2.57 320 22:51 03.12.2021
5175 Clouds 12 1026 78 10000 2.57 300 21:54 03.12.2021
5176 Clouds 12 1026 78 10000 4.63 320 21:22 03.12.2021
5177 Clouds 12 1026 77 10000 4.63 320 20:42 03.12.2021
5178 Clouds 13 1025 73 10000 4.63 330 19:21 03.12.2021
5179 Clouds 14 1025 67 10000 3.09 300 18:23 03.12.2021
5180 Clear 15 1025 59 10000 4.63 330 17:31 03.12.2021
5181 Clear 15 1026 54 10000 5.66 350 13:38 03.12.2021
5182 Clear 13 1026 58 10000 4.63 340 12:30 03.12.2021
5183 Clear 12 1027 62 10000 4.63 10 11:19 03.12.2021
5184 Clear 10 1025 71 10000 4.12 350 09:22 03.12.2021
5185 Clear 9 1025 73 10000 5.14 350 08:18 03.12.2021
5186 Clear 10 1023 78 10000 5.14 350 06:41 03.12.2021
5187 Clear 11 1023 75 10000 5.14 350 00:49 03.12.2021
5188 Clouds 11 1024 77 10000 5.66 360 00:21 03.12.2021
5189 Clouds 11 1023 76 10000 7.72 360 23:38 02.12.2021
5190 Clouds 11 1023 74 10000 5.66 350 21:41 02.12.2021
5191 Clouds 11 1022 72 10000 7.2 330 20:46 02.12.2021
5192 Clouds 11 1022 71 10000 4.63 330 20:26 02.12.2021
5193 Clouds 11 1021 68 10000 6.69 330 19:23 02.12.2021
5194 Clouds 13 1019 59 10000 9.26 350 17:30 02.12.2021
5195 Clouds 15 1019 53 10000 7.72 340 15:41 02.12.2021
5196 Clouds 15 1019 54 10000 9.77 340 14:57 02.12.2021
5197 Clouds 15 1020 54 10000 8.23 350 13:45 02.12.2021
5198 Clouds 14 1020 58 10000 9.26 350 12:52 02.12.2021
5199 Clouds 13 1020 66 10000 7.72 340 11:55 02.12.2021
5200 Clouds 11 1018 82 10000 5.14 340 09:29 02.12.2021
5201 Clouds 11 1018 89 10000 4.63 350 08:27 02.12.2021
5202 Clouds 13 1018 82 10000 2.57 300 03:33 02.12.2021
5203 Clear 13 1020 82 10000 2.57 320 00:51 02.12.2021
5204 Clear 13 1021 80 10000 3.09 340 22:51 01.12.2021
5205 Clouds 13 1022 77 10000 4.12 340 22:23 01.12.2021
5206 Clouds 14 1021 79 10000 5.14 330 20:36 01.12.2021
5207 Clouds 14 1021 82 10000 5.14 340 19:53 01.12.2021
5208 Clouds 14 1021 84 3500 4.63 300 19:25 01.12.2021
5209 Clouds 15 1022 81 10000 4.12 290 17:45 01.12.2021
5210 Clouds 15 1022 81 10000 4.12 290 17:45 01.12.2021
5211 Clouds 16 1022 80 10000 3.6 300 16:42 01.12.2021
5212 Clouds 15 1023 80 10000 5.14 260 14:52 01.12.2021
5213 Clouds 15 1024 73 10000 4.12 270 13:44 01.12.2021
5214 Clouds 15 1025 74 10000 1.03 0 12:37 01.12.2021
5215 Clouds 13 1025 77 10000 1.54 270 10:42 01.12.2021
5216 Clouds 8 1025 88 10000 1.03 0 09:19 01.12.2021
5217 Clouds 8 1025 85 10000 0 0 08:26 01.12.2021
5218 Clouds 8 1026 82 10000 0 0 07:33 01.12.2021
5219 Clouds 9 1026 80 10000 0 0 05:51 01.12.2021
5220 Clouds 9 1025 79 10000 0 0 03:44 01.12.2021
5221 Clouds 10 1026 81 10000 1.03 340 00:56 01.12.2021
5222 Clouds 11 1026 82 10000 1.54 310 23:53 30.11.2021
5223 Clear 11 1026 81 10000 1.03 330 23:23 30.11.2021
5224 Clouds 13 1026 74 10000 1.54 60 21:30 30.11.2021
5225 Clouds 13 1026 74 10000 2.57 340 20:44 30.11.2021
5226 Clouds 14 1025 73 10000 2.06 350 19:53 30.11.2021
5227 Clouds 14 1025 71 10000 0 0 19:34 30.11.2021
5228 Clouds 15 1025 69 10000 1.03 100 18:36 30.11.2021
5229 Clouds 16 1025 63 10000 2.06 110 16:50 30.11.2021
5230 Clouds 16 1025 63 10000 2.06 80 15:38 30.11.2021
5231 Clouds 16 1027 65 10000 2.57 70 14:20 30.11.2021
5232 Clouds 16 1026 67 10000 2.06 90 13:26 30.11.2021
5233 Clouds 15 1026 70 10000 2.57 0 12:45 30.11.2021
5234 Clouds 14 1026 75 10000 2.57 70 11:49 30.11.2021
5235 Clouds 13 1026 76 10000 2.06 70 11:19 30.11.2021
5236 Clouds 12 1025 82 10000 1.03 0 10:32 30.11.2021
5237 Clouds 11 1024 84 10000 0 0 08:52 30.11.2021
5238 Clouds 11 1024 83 10000 0.51 0 08:22 30.11.2021
5239 Clouds 11 1023 84 10000 0 0 07:47 30.11.2021
5240 Clouds 13 1024 77 10000 1.03 280 02:41 30.11.2021
5241 Clouds 13 1024 75 10000 1.03 270 01:42 30.11.2021
5242 Clouds 13 1024 74 10000 2.06 230 00:33 30.11.2021
5243 Clouds 13 1024 73 10000 0 0 23:24 29.11.2021
5244 Clouds 13 1024 71 10000 0 0 22:57 29.11.2021
5245 Clouds 13 1024 69 10000 1.03 210 22:34 29.11.2021
5246 Clouds 14 1025 69 10000 1.03 0 21:39 29.11.2021
5247 Clouds 14 1025 69 10000 1.03 0 21:18 29.11.2021
5248 Clouds 14 1024 67 10000 1.03 0 20:40 29.11.2021
5249 Clouds 14 1024 65 10000 1.03 0 19:56 29.11.2021
5250 Clouds 14 1024 64 10000 2.57 310 19:36 29.11.2021
5251 Clouds 14 1024 64 10000 2.57 310 19:36 29.11.2021
5252 Clouds 14 1024 63 10000 4.12 320 18:52 29.11.2021
5253 Clouds 14 1025 68 10000 5.42 332 18:26 29.11.2021
5254 Clouds 15 1025 65 10000 6.13 333 17:20 29.11.2021
5255 Clouds 15 1025 65 10000 6.13 333 16:32 29.11.2021
5256 Clouds 16 1025 62 10000 6.65 330 15:52 29.11.2021
5257 Clouds 16 1025 59 10000 6.62 327 14:43 29.11.2021
5258 Clouds 16 1025 57 10000 6.61 327 13:36 29.11.2021
5259 Clouds 16 1026 58 10000 6.61 330 12:42 29.11.2021
5260 Clouds 16 1027 61 10000 6.47 331 11:41 29.11.2021
5261 Clouds 15 1027 67 10000 6.08 328 10:59 29.11.2021
5262 Clouds 13 1026 79 10000 6.17 320 09:50 29.11.2021
5263 Clouds 14 1025 82 10000 4.12 330 06:22 29.11.2021
5264 Clouds 14 1025 88 10000 4.12 300 03:46 29.11.2021
5265 Clouds 15 1025 82 10000 4.12 310 00:43 29.11.2021
5266 Clouds 14 1025 88 10000 4.63 320 23:44 28.11.2021
5267 Clouds 14 1025 88 10000 4.12 320 23:25 28.11.2021
5268 Clouds 13 1025 94 10000 3.6 320 21:53 28.11.2021
5269 Drizzle 13 1025 94 9000 5.14 330 21:26 28.11.2021
5270 Clouds 13 1025 91 10000 3.09 290 20:35 28.11.2021
5271 Drizzle 13 1024 79 10000 4.12 300 19:28 28.11.2021
5272 Clouds 14 1024 69 10000 3.09 300 18:35 28.11.2021
5273 Clouds 14 1024 67 10000 4.12 320 17:56 28.11.2021
5274 Clouds 15 1024 62 10000 5.66 320 17:32 28.11.2021
5275 Clouds 14 1024 63 10000 6.17 310 16:44 28.11.2021
5276 Clouds 15 1024 60 10000 5.66 330 16:22 28.11.2021
5277 Clouds 14 1024 62 10000 6.17 330 15:33 28.11.2021
5278 Clouds 14 1025 65 10000 5.66 320 14:49 28.11.2021
5279 Clouds 15 1025 58 10000 7.2 340 13:49 28.11.2021
5280 Clouds 13 1025 62 10000 5.66 340 12:52 28.11.2021
5281 Clear 12 1025 69 10000 3.09 350 11:18 28.11.2021
5282 Clouds 11 1024 71 10000 3.09 330 10:22 28.11.2021
5283 Clouds 10 1023 74 10000 4.63 330 09:40 28.11.2021
5284 Clear 9 1023 82 10000 4.12 330 08:19 28.11.2021
5285 Clear 8 1021 70 10000 2.57 340 00:39 28.11.2021
5286 Clear 11 1020 62 10000 6.17 350 21:40 27.11.2021
5287 Clouds 11 1018 60 10000 6.17 350 19:49 27.11.2021
5288 Clouds 13 1017 53 10000 10.29 340 17:57 27.11.2021
5289 Clouds 14 1016 60 10000 9.26 350 15:59 27.11.2021
5290 Clouds 14 1016 72 10000 7.72 340 14:30 27.11.2021
5291 Clouds 14 1016 77 10000 5.66 340 12:58 27.11.2021
5292 Clouds 14 1015 83 10000 5.66 320 10:52 27.11.2021
5293 Clouds 12 1014 91 10000 4.12 320 09:54 27.11.2021
5294 Clouds 11 1014 90 10000 2.57 310 08:45 27.11.2021
5295 Clouds 11 1014 93 10000 2.06 310 06:35 27.11.2021
5296 Clouds 11 1016 81 10000 1.54 310 02:25 27.11.2021
5297 Clouds 11 1017 71 10000 5.14 340 23:40 26.11.2021
5298 Clouds 11 1017 71 10000 5.14 350 22:41 26.11.2021
5299 Clouds 11 1017 71 10000 5.14 350 22:19 26.11.2021
5300 Clear 11 1017 69 10000 5.14 350 21:22 26.11.2021
5301 Clear 12 1016 66 10000 6.69 330 20:40 26.11.2021
5302 Clear 12 1016 66 10000 8.23 340 19:55 26.11.2021
5303 Clouds 12 1016 65 10000 6.17 340 18:45 26.11.2021
5304 Clouds 13 1015 61 10000 8.23 330 17:27 26.11.2021
5305 Clouds 14 1015 59 10000 6.69 340 16:50 26.11.2021
5306 Clouds 14 1015 58 10000 6.17 330 14:57 26.11.2021
5307 Clouds 14 1014 53 10000 5.66 360 13:35 26.11.2021
5308 Clouds 11 1014 62 10000 3.6 340 10:44 26.11.2021
5309 Clouds 10 1013 64 10000 2.57 330 09:53 26.11.2021
5310 Clear 9 1013 67 10000 3.09 330 08:53 26.11.2021
5311 Clear 9 1012 67 10000 4.63 340 08:20 26.11.2021
5312 Clear 9 1011 71 10000 4.12 330 06:37 26.11.2021
5313 Clear 9 1011 71 10000 4.12 330 06:37 26.11.2021
5314 Clear 10 1011 71 10000 4.12 330 06:19 26.11.2021
5315 Clear 10 1011 73 10000 4.63 330 03:41 26.11.2021
5316 Clear 10 1011 73 10000 3.6 340 00:47 26.11.2021
5317 Clear 10 1010 75 10000 3.6 330 22:36 25.11.2021
5318 Clouds 10 1011 76 10000 2.57 330 21:19 25.11.2021
5319 Clouds 10 1009 76 10000 2.57 340 19:54 25.11.2021
5320 Clouds 11 1009 71 10000 3.6 330 18:38 25.11.2021
5321 Clouds 12 1008 66 10000 4.63 310 17:28 25.11.2021
5322 Clouds 12 1008 66 10000 3.6 310 16:56 25.11.2021
5323 Clouds 13 1008 66 10000 4.63 340 16:28 25.11.2021
5324 Rain 13 1010 68 10000 4.12 310 14:56 25.11.2021
5325 Clouds 12 1011 74 10000 3.6 320 13:25 25.11.2021
5326 Rain 10 1010 78 10000 5.14 320 12:19 25.11.2021
5327 Clouds 11 1011 81 10000 9.26 340 11:48 25.11.2021
5328 Clouds 12 1011 79 10000 1.54 270 09:25 25.11.2021
5329 Clouds 13 1013 69 10000 7.72 330 04:24 25.11.2021
5330 Clear 12 1014 66 10000 5.66 330 02:45 25.11.2021
5331 Clouds 13 1016 70 10000 7.2 330 22:45 24.11.2021
5332 Clouds 13 1014 71 10000 7.2 330 22:23 24.11.2021
5333 Clouds 13 1014 70 10000 6.69 330 21:28 24.11.2021
5334 Clouds 13 1015 68 10000 6.69 340 20:46 24.11.2021
5335 Clouds 13 1015 68 10000 6.69 340 20:46 24.11.2021
5336 Clouds 13 1014 68 10000 6.69 340 20:18 24.11.2021
5337 Clouds 13 1015 66 10000 5.66 340 18:30 24.11.2021
5338 Clouds 14 1015 61 10000 6.17 340 17:24 24.11.2021
5339 Clouds 15 1015 56 10000 6.69 340 15:23 24.11.2021
5340 Clouds 15 1015 57 10000 6.69 340 14:47 24.11.2021
5341 Clouds 15 1016 58 10000 7.2 350 14:19 24.11.2021
5342 Clouds 15 1016 58 10000 7.2 350 14:19 24.11.2021
5343 Clouds 13 1016 68 10000 6.17 350 12:28 24.11.2021
5344 Clouds 13 1016 70 10000 4.12 330 11:20 24.11.2021
5345 Clouds 13 1016 73 10000 3.09 310 10:47 24.11.2021
5346 Clouds 13 1017 74 10000 1.54 310 10:21 24.11.2021
5347 Clouds 11 1014 81 10000 2.06 270 07:52 24.11.2021
5348 Clouds 10 1014 79 10000 2.06 250 06:54 24.11.2021
5349 Clouds 12 1014 77 10000 3.09 340 03:51 24.11.2021
5350 Clouds 11 1015 76 10000 2.06 280 00:43 24.11.2021
5351 Clear 12 1014 71 10000 3.6 320 22:40 23.11.2021
5352 Clear 12 1014 70 10000 3.6 320 22:18 23.11.2021
5353 Clear 12 1014 68 10000 2.57 340 21:44 23.11.2021
5354 Clear 12 1014 64 10000 1.03 0 19:43 23.11.2021
5355 Clouds 13 1013 57 10000 2.57 330 18:42 23.11.2021
5356 Clouds 14 1013 54 10000 5.14 360 18:20 23.11.2021
5357 Clouds 15 1012 51 10000 8.23 350 16:58 23.11.2021
5358 Clouds 16 1012 52 10000 7.72 340 16:20 23.11.2021
5359 Clouds 16 1012 51 10000 6.17 340 15:22 23.11.2021
5360 Clouds 16 1012 53 10000 5.66 330 14:22 23.11.2021
5361 Clouds 14 1012 62 10000 6.17 320 11:42 23.11.2021
5362 Clouds 12 1012 69 10000 3.6 330 09:59 23.11.2021
5363 Clouds 11 1012 72 10000 3.6 320 09:18 23.11.2021
5364 Clouds 11 1010 72 10000 3.6 310 06:45 23.11.2021
5365 Clouds 11 1011 70 10000 1.03 0 03:52 23.11.2021
5366 Clouds 11 1011 70 10000 4.63 330 01:49 23.11.2021
5367 Clouds 12 1011 70 10000 2.06 310 23:21 22.11.2021
5368 Clouds 12 1011 68 10000 4.12 310 22:52 22.11.2021
5369 Clouds 11 1011 68 10000 4.12 330 22:25 22.11.2021
5370 Clouds 12 1011 66 10000 6.17 330 21:41 22.11.2021
5371 Clouds 12 1011 66 10000 6.17 340 20:52 22.11.2021
5372 Clouds 12 1011 64 10000 4.63 330 19:57 22.11.2021
5373 Clouds 12 1011 64 10000 3.09 340 19:19 22.11.2021
5374 Clouds 12 1011 61 10000 6.69 330 18:39 22.11.2021
5375 Clouds 13 1011 57 10000 7.2 340 17:43 22.11.2021
5376 Clouds 15 1011 51 10000 7.72 330 16:19 22.11.2021
5377 Clouds 15 1011 53 10000 6.69 330 14:18 22.11.2021
5378 Clouds 15 1012 56 10000 6.69 340 12:18 22.11.2021
5379 Clouds 14 1012 73 10000 4.12 330 10:43 22.11.2021
5380 Clouds 13 1012 78 10000 4.12 330 09:43 22.11.2021
5381 Clouds 13 1012 81 10000 2.06 320 08:40 22.11.2021
5382 Clouds 14 1011 85 10000 2.06 290 06:22 22.11.2021
5383 Clouds 14 1014 86 10000 1.03 0 23:30 21.11.2021
5384 Clouds 14 1014 85 10000 2.57 300 22:50 21.11.2021
5385 Clouds 14 1013 83 10000 2.57 310 22:18 21.11.2021
5386 Clouds 14 1014 85 10000 3.6 300 20:42 21.11.2021
5387 Clouds 14 1014 84 10000 2.06 300 19:59 21.11.2021
5388 Clouds 16 1014 81 10000 2.06 260 18:25 21.11.2021
5389 Clouds 17 1014 77 10000 1.54 290 17:39 21.11.2021
5390 Clouds 18 1014 73 10000 1.03 0 16:46 21.11.2021
5391 Clouds 17 1014 72 10000 1.54 0 14:46 21.11.2021
5392 Clouds 17 1015 75 10000 2.06 60 13:49 21.11.2021
5393 Clouds 16 1016 81 10000 2.06 60 12:38 21.11.2021
5394 Fog 15 1016 85 10000 1.54 0 11:57 21.11.2021
5395 Fog 14 1016 86 10000 2.57 50 11:35 21.11.2021
5396 Fog 13 1016 89 10000 2.57 50 10:19 21.11.2021
5397 Fog 13 1015 88 10000 2.57 70 09:20 21.11.2021
5398 Fog 13 1014 87 10000 2.06 40 08:30 21.11.2021
5399 Clouds 13 1014 88 10000 2.57 60 07:50 21.11.2021
5400 Clouds 13 1011 83 10000 1.34 123 06:20 21.11.2021
5401 Clouds 13 1014 87 10000 2.06 40 05:37 21.11.2021
5402 Clouds 13 1014 86 10000 2.57 60 03:20 21.11.2021
5403 Clouds 13 1015 87 10000 2.06 50 02:53 21.11.2021
5404 Clouds 13 1015 85 10000 2.57 50 01:23 21.11.2021
5405 Clouds 14 1015 87 10000 2.57 50 00:23 21.11.2021
5406 Clouds 14 1015 86 10000 1.54 50 21:51 20.11.2021
5407 Clouds 14 1015 86 10000 2.57 50 21:30 20.11.2021
5408 Clouds 16 1015 84 10000 3.09 80 19:24 20.11.2021
5409 Rain 16 1015 78 6000 2.57 130 18:45 20.11.2021
5410 Clouds 17 1015 70 10000 3.6 80 18:19 20.11.2021
5411 Clouds 18 1015 65 10000 3.09 0 17:19 20.11.2021
5412 Clouds 18 1015 64 10000 3.6 100 14:50 20.11.2021
5413 Clouds 18 1015 64 10000 4.63 100 14:28 20.11.2021
5414 Clouds 18 1016 64 10000 5.14 110 13:35 20.11.2021
5415 Clouds 16 1016 70 10000 4.12 60 11:25 20.11.2021
5416 Clouds 14 1016 72 10000 3.09 70 09:55 20.11.2021
5417 Clear 14 1015 69 10000 5.14 60 08:32 20.11.2021
5418 Clouds 13 1015 73 10000 2.06 60 05:30 20.11.2021
5419 Clouds 13 1015 72 10000 1.03 0 04:51 20.11.2021
5420 Clouds 14 1015 66 10000 4.12 60 03:54 20.11.2021
5421 Clear 15 1015 60 10000 4.63 70 00:42 20.11.2021
5422 Clear 15 1016 61 10000 5.14 60 23:45 19.11.2021
5423 Clear 16 1015 59 10000 4.63 60 22:53 19.11.2021
5424 Clear 17 1015 53 10000 3.6 50 21:24 19.11.2021
5425 Clear 17 1015 52 10000 5.14 60 20:40 19.11.2021
5426 Clear 17 1015 51 10000 5.14 60 20:22 19.11.2021
5427 Clear 18 1015 51 10000 4.12 60 19:43 19.11.2021
5428 Clear 18 1016 51 10000 4.12 80 18:45 19.11.2021
5429 Clear 19 1015 49 10000 4.63 60 17:44 19.11.2021
5430 Clear 20 1015 45 10000 5.14 70 16:40 19.11.2021
5431 Clear 19 1016 47 10000 5.66 50 14:51 19.11.2021
5432 Clear 14 1018 64 10000 7.72 60 11:32 19.11.2021
5433 Clear 13 1018 66 10000 7.2 60 10:24 19.11.2021
5434 Clear 12 1017 69 10000 5.66 60 08:35 19.11.2021
5435 Clear 13 1017 65 10000 5.14 60 05:36 19.11.2021
5436 Clear 13 1017 65 10000 5.14 60 03:37 19.11.2021
5437 Clear 15 1018 58 10000 4.63 50 23:54 18.11.2021
5438 Clear 15 1018 57 10000 4.12 40 23:18 18.11.2021
5439 Clear 16 1019 55 10000 5.66 40 21:18 18.11.2021
5440 Clear 16 1018 53 10000 6.69 40 20:44 18.11.2021
5441 Clear 16 1018 52 10000 5.14 30 20:23 18.11.2021
5442 Clear 17 1018 50 10000 6.17 40 19:36 18.11.2021
5443 Clear 18 1017 45 10000 6.17 50 18:38 18.11.2021
5444 Clear 19 1017 42 10000 5.66 40 17:52 18.11.2021
5445 Clear 19 1017 41 10000 5.14 50 17:22 18.11.2021
5446 Clear 19 1017 41 10000 6.17 50 16:42 18.11.2021
5447 Clear 19 1018 42 10000 5.66 60 15:23 18.11.2021
5448 Clear 15 1020 50 10000 7.2 70 12:56 18.11.2021
5449 Clear 14 1020 51 10000 6.69 60 11:45 18.11.2021
5450 Clear 13 1020 55 10000 7.2 60 11:26 18.11.2021
5451 Clear 13 1020 55 10000 7.2 60 10:44 18.11.2021
5452 Clear 11 1019 59 10000 5.66 60 08:49 18.11.2021
5453 Clear 11 1019 62 10000 6.17 60 07:19 18.11.2021
5454 Clear 12 1019 61 10000 6.17 50 05:46 18.11.2021
5455 Clear 13 1019 60 10000 4.63 60 02:35 18.11.2021
5456 Clear 13 1019 58 10000 4.63 50 01:21 18.11.2021
5457 Clear 14 1019 52 10000 5.14 30 22:41 17.11.2021
5458 Clear 15 1019 51 10000 5.14 30 22:20 17.11.2021
5459 Clear 15 1019 49 10000 5.66 50 21:36 17.11.2021
5460 Clear 15 1018 50 10000 6.69 40 20:18 17.11.2021
5461 Clear 18 1017 45 10000 6.69 30 17:44 17.11.2021
5462 Clear 18 1017 44 10000 7.2 30 16:59 17.11.2021
5463 Clear 17 1018 49 10000 5.14 50 13:59 17.11.2021
5464 Clear 15 1019 54 10000 6.69 50 12:39 17.11.2021
5465 Clear 14 1019 55 10000 5.14 60 11:37 17.11.2021
5466 Clear 13 1018 56 10000 5.14 50 10:28 17.11.2021
5467 Clear 12 1018 61 10000 5.14 40 09:23 17.11.2021
5468 Clear 11 1017 64 10000 5.14 50 07:41 17.11.2021
5469 Clear 12 1017 67 10000 2.57 350 03:35 17.11.2021
5470 Clear 12 1017 68 10000 3.09 340 00:47 17.11.2021
5471 Clear 14 1018 68 10000 5.14 340 22:44 16.11.2021
5472 Clear 15 1017 58 10000 4.63 330 20:20 16.11.2021
5473 Clear 15 1016 58 10000 4.63 330 19:59 16.11.2021
5474 Clear 17 1016 55 10000 3.09 20 18:53 16.11.2021
5475 Clear 17 1016 52 10000 3.09 30 18:30 16.11.2021
5476 Clear 19 1017 45 10000 2.06 350 17:34 16.11.2021
5477 Clear 20 1016 40 10000 3.09 60 16:35 16.11.2021
5478 Clear 19 1017 42 10000 2.57 60 15:49 16.11.2021
5479 Clear 18 1017 45 10000 5.14 60 14:39 16.11.2021
5480 Clear 14 1018 57 10000 6.17 50 11:28 16.11.2021
5481 Clear 12 1017 61 10000 3.6 40 09:46 16.11.2021
5482 Clear 11 1016 63 10000 2.06 20 08:27 16.11.2021
5483 Clear 12 1015 62 10000 3.09 10 07:32 16.11.2021
5484 Clear 13 1017 69 10000 3.6 30 01:44 16.11.2021
5485 Clear 14 1017 70 10000 4.12 330 23:20 15.11.2021
5486 Clear 14 1017 69 10000 2.57 320 22:33 15.11.2021
5487 Clear 14 1016 67 10000 3.09 340 21:53 15.11.2021
5488 Clear 14 1017 68 10000 4.12 320 21:28 15.11.2021
5489 Clear 15 1017 65 10000 3.09 320 19:42 15.11.2021
5490 Clear 17 1016 60 10000 4.12 330 18:33 15.11.2021
5491 Clear 20 1016 53 10000 4.63 340 16:20 15.11.2021
5492 Clear 19 1018 52 10000 2.57 0 15:41 15.11.2021
5493 Clear 19 1018 52 10000 2.57 0 15:23 15.11.2021
5494 Clear 18 1019 58 10000 1.54 90 13:32 15.11.2021
5495 Clouds 14 1019 72 10000 2.06 80 11:21 15.11.2021
5496 Clouds 12 1018 76 10000 1.54 30 09:28 15.11.2021
5497 Clear 12 1017 69 10000 3.09 340 07:52 15.11.2021
5498 Clear 13 1017 61 10000 3.09 340 05:21 15.11.2021
5499 Clear 15 1018 59 10000 2.57 330 23:54 14.11.2021
5500 Clear 15 1018 56 10000 4.12 320 22:35 14.11.2021
5501 Clear 16 1017 54 10000 3.09 320 19:57 14.11.2021
5502 Clear 17 1017 52 10000 4.63 330 19:18 14.11.2021
5503 Clear 18 1016 51 10000 3.09 310 18:54 14.11.2021
5504 Clear 18 1016 52 10000 3.6 330 18:36 14.11.2021
5505 Clear 19 1016 51 10000 3.6 330 18:18 14.11.2021
5506 Clear 20 1018 46 10000 1.54 80 17:56 14.11.2021
5507 Clear 20 1018 45 10000 2.06 110 17:38 14.11.2021
5508 Clear 21 1018 44 10000 2.06 110 17:20 14.11.2021
5509 Clear 21 1018 46 10000 2.06 70 16:47 14.11.2021
5510 Clear 21 1018 46 10000 2.06 70 16:47 14.11.2021
5511 Clear 20 1018 48 10000 2.06 80 16:20 14.11.2021
5512 Clear 20 1017 51 10000 3.09 60 15:23 14.11.2021
5513 Clear 20 1017 51 10000 4.12 60 14:49 14.11.2021
5514 Clear 19 1017 52 10000 4.12 60 14:29 14.11.2021
5515 Clear 19 1017 54 10000 4.63 60 13:57 14.11.2021
5516 Clear 19 1017 55 10000 3.09 60 13:39 14.11.2021
5517 Clear 17 1018 58 10000 4.63 50 12:28 14.11.2021
5518 Clear 17 1018 59 10000 4.63 60 11:52 14.11.2021
5519 Clear 15 1018 60 10000 3.6 50 10:45 14.11.2021
5520 Clear 15 1018 60 10000 1.54 50 10:26 14.11.2021
5521 Clouds 13 1017 70 10000 2.06 30 08:56 14.11.2021
5522 Clear 12 1016 73 10000 2.57 340 07:24 14.11.2021
5523 Clear 15 1016 64 10000 3.09 320 01:24 14.11.2021
5524 Clear 15 1017 69 10000 3.6 310 22:27 13.11.2021
5525 Clear 15 1017 69 10000 3.6 310 22:27 13.11.2021
5526 Clear 16 1017 69 10000 4.12 310 21:57 13.11.2021
5527 Clear 16 1017 69 10000 3.6 320 21:25 13.11.2021
5528 Clear 17 1016 66 10000 3.09 320 19:48 13.11.2021
5529 Clear 19 1016 54 10000 0 0 18:33 13.11.2021
5530 Clear 21 1016 49 10000 1.54 90 17:56 13.11.2021
5531 Clear 21 1018 50 10000 3.09 50 16:40 13.11.2021
5532 Clear 21 1017 49 10000 2.57 70 15:37 13.11.2021
5533 Clear 20 1017 52 10000 2.57 70 14:33 13.11.2021
5534 Clear 20 1017 53 10000 2.57 70 13:38 13.11.2021
5535 Clear 18 1018 59 10000 3.09 0 12:33 13.11.2021
5536 Clear 17 1018 63 10000 3.09 70 11:38 13.11.2021
5537 Clear 16 1018 67 10000 2.57 60 10:45 13.11.2021
5538 Fog 13 1019 80 10000 2.06 50 10:23 13.11.2021
5539 Fog 11 1018 86 8000 1.54 30 09:38 13.11.2021
5540 Mist 11 1017 84 6000 2.57 90 08:56 13.11.2021
5541 Mist 11 1017 82 10000 1.54 10 08:31 13.11.2021
5542 Fog 12 1018 82 10000 1.54 340 05:59 13.11.2021
5543 Fog 12 1016 81 10000 2.06 10 04:30 13.11.2021
5544 Clear 12 1016 79 10000 2.57 330 01:54 13.11.2021
5545 Clear 14 1017 74 10000 3.6 310 22:59 12.11.2021
5546 Clear 14 1017 72 10000 4.12 310 21:50 12.11.2021
5547 Clear 15 1016 72 10000 4.12 330 20:18 12.11.2021
5548 Clear 16 1016 72 10000 4.12 340 19:28 12.11.2021
5549 Clear 16 1015 69 10000 4.63 330 18:46 12.11.2021
5550 Clear 20 1015 53 10000 3.09 60 16:40 12.11.2021
5551 Clear 20 1016 60 10000 2.06 0 15:34 12.11.2021
5552 Clouds 17 1017 70 10000 3.09 100 13:21 12.11.2021
5553 Clouds 14 1018 77 10000 2.06 80 10:58 12.11.2021
5554 Clouds 14 1017 79 10000 1.54 360 09:45 12.11.2021
5555 Clear 13 1016 80 10000 4.12 340 08:40 12.11.2021
5556 Clouds 14 1016 79 10000 3.09 340 03:27 12.11.2021
5557 Clouds 14 1018 81 10000 1.03 0 23:43 11.11.2021
5558 Clear 14 1018 80 10000 4.12 310 22:40 11.11.2021
5559 Clear 15 1018 79 10000 3.6 310 21:29 11.11.2021
5560 Clear 15 1018 80 10000 4.63 320 20:48 11.11.2021
5561 Clear 16 1017 76 10000 4.12 320 19:24 11.11.2021
5562 Clear 17 1017 70 10000 4.12 310 18:22 11.11.2021
5563 Clear 18 1018 65 10000 1.03 0 17:37 11.11.2021
5564 Clouds 19 1018 62 10000 1.03 0 15:19 11.11.2021
5565 Clouds 18 1019 61 10000 2.57 110 14:30 11.11.2021
5566 Clouds 18 1018 64 10000 2.57 80 13:40 11.11.2021
5567 Clouds 17 1019 71 10000 3.6 80 12:52 11.11.2021
5568 Clouds 15 1019 76 10000 1.54 0 11:30 11.11.2021
5569 Mist 14 1017 85 4500 0 0 09:49 11.11.2021
5570 Clouds 12 1018 87 7000 1.54 60 08:19 11.11.2021
5571 Clear 14 1016 82 10000 3.6 310 06:18 11.11.2021
5572 Clear 14 1017 81 10000 3.6 330 00:36 11.11.2021
5573 Clear 15 1017 69 10000 3.6 320 22:32 10.11.2021
5574 Clear 16 1016 62 10000 3.6 310 21:33 10.11.2021
5575 Clear 16 1017 63 10000 3.6 310 20:51 10.11.2021
5576 Clear 16 1016 61 10000 3.6 320 19:48 10.11.2021
5577 Clear 17 1016 59 10000 2.06 320 19:30 10.11.2021
5578 Clear 20 1017 51 10000 2.06 100 16:40 10.11.2021
5579 Clear 19 1017 51 10000 2.06 110 15:46 10.11.2021
5580 Clear 19 1018 52 10000 2.57 60 14:23 10.11.2021
5581 Clear 18 1017 53 10000 3.09 70 13:27 10.11.2021
5582 Clear 16 1019 56 10000 4.12 70 11:39 10.11.2021
5583 Clear 13 1014 67 10000 3.6 40 09:18 10.11.2021
5584 Clear 12 1013 69 10000 3.6 60 08:40 10.11.2021
5585 Clear 13 1009 62 10000 2.57 30 06:44 10.11.2021
5586 Clear 13 1011 70 10000 3.6 30 05:56 10.11.2021
5587 Clear 15 1011 75 10000 2.57 320 01:44 10.11.2021
5588 Clear 16 1012 69 10000 4.63 320 21:59 09.11.2021
5589 Clear 16 1012 71 10000 5.14 310 20:34 09.11.2021
5590 Clear 17 1012 68 10000 5.14 320 19:28 09.11.2021
5591 Clear 18 1012 62 10000 4.12 320 18:47 09.11.2021
5592 Clear 22 1011 52 10000 5.14 350 16:40 09.11.2021
5593 Clear 21 1010 55 10000 4.12 330 15:20 09.11.2021
5594 Clouds 20 1013 60 10000 5.14 350 13:31 09.11.2021
5595 Clouds 19 1014 66 10000 5.14 330 12:28 09.11.2021
5596 Clouds 16 1014 70 10000 6.17 320 10:55 09.11.2021
5597 Clouds 15 1013 77 10000 3.09 340 09:44 09.11.2021
5598 Clouds 14 1013 74 10000 3.09 340 08:53 09.11.2021
5599 Clear 15 1011 66 10000 4.12 330 06:59 09.11.2021
5600 Clear 15 1012 58 10000 3.6 320 02:32 09.11.2021
5601 Clear 15 1012 58 10000 3.6 310 01:50 09.11.2021
5602 Clear 15 1014 62 10000 3.6 330 00:30 09.11.2021
5603 Clear 15 1015 61 10000 4.63 320 23:29 08.11.2021
5604 Clear 15 1015 57 10000 3.6 340 22:36 08.11.2021
5605 Clear 16 1016 56 10000 5.66 330 21:22 08.11.2021
5606 Clear 16 1016 53 10000 3.6 350 20:31 08.11.2021
5607 Clear 17 1016 49 10000 4.63 340 19:18 08.11.2021
5608 Clear 20 1016 47 10000 4.12 330 17:39 08.11.2021
5609 Clear 20 1016 47 10000 4.12 330 17:39 08.11.2021
5610 Clear 20 1020 48 10000 4.63 350 15:48 08.11.2021
5611 Clear 20 1015 48 10000 2.57 80 14:55 08.11.2021
5612 Clear 19 1021 52 10000 3.09 90 14:24 08.11.2021
5613 Clear 18 1018 52 10000 5.14 40 12:59 08.11.2021
5614 Clear 17 1017 54 10000 3.09 50 11:54 08.11.2021
5615 Clear 15 1018 60 10000 2.06 30 10:41 08.11.2021
5616 Clouds 11 1016 66 10000 0.51 0 08:56 08.11.2021
5617 Clear 11 1017 66 10000 2.57 330 08:18 08.11.2021
5618 Clear 11 1016 64 10000 1.03 0 06:55 08.11.2021
5619 Clear 12 1015 66 10000 2.06 320 03:35 08.11.2021
5620 Clear 12 1018 70 10000 3.6 310 00:20 08.11.2021
5621 Clear 13 1018 65 10000 4.12 310 22:57 07.11.2021
5622 Clear 13 1019 60 10000 5.14 320 21:25 07.11.2021
5623 Clear 14 1019 59 10000 4.63 330 20:18 07.11.2021
5624 Clear 17 1019 42 10000 3.6 310 18:30 07.11.2021
5625 Clear 18 1023 37 10000 3.6 360 17:42 07.11.2021
5626 Clear 20 1019 32 10000 4.63 60 16:22 07.11.2021
5627 Clear 19 1020 31 10000 5.14 60 14:54 07.11.2021
5628 Clear 18 1020 35 10000 5.14 50 14:27 07.11.2021
5629 Clear 18 1020 33 10000 5.14 60 12:50 07.11.2021
5630 Clear 15 1022 42 10000 3.6 50 11:41 07.11.2021
5631 Clear 9 1025 65 10000 1.54 80 08:59 07.11.2021
5632 Clear 11 1026 60 10000 3.09 320 02:56 07.11.2021
5633 Clear 11 1027 59 10000 3.09 320 02:18 07.11.2021
5634 Clear 12 1027 60 10000 4.12 330 22:56 06.11.2021
5635 Clear 12 1027 60 10000 3.6 320 21:58 06.11.2021
5636 Clear 13 1027 52 10000 3.09 340 20:59 06.11.2021
5637 Clear 13 1027 44 10000 2.57 360 20:18 06.11.2021
5638 Clear 16 1026 35 10000 6.17 30 17:31 06.11.2021
5639 Clear 17 1027 34 10000 6.17 30 16:32 06.11.2021
5640 Clear 15 1025 44 10000 5.66 50 13:41 06.11.2021
5641 Clear 14 1025 44 10000 5.66 50 12:56 06.11.2021
5642 Clear 13 1023 45 10000 8.23 50 11:18 06.11.2021
5643 Clear 11 1024 57 10000 3.09 10 08:48 06.11.2021
5644 Clear 11 1020 61 10000 2.06 330 04:50 06.11.2021
5645 Clear 12 1022 62 10000 3.6 350 00:36 06.11.2021
5646 Clear 13 1022 58 10000 5.14 350 23:29 05.11.2021
5647 Clear 13 1021 58 10000 5.14 330 22:33 05.11.2021
5648 Clear 13 1022 60 10000 5.66 330 20:32 05.11.2021
5649 Clear 14 1022 59 10000 5.66 330 19:51 05.11.2021
5650 Clear 15 1021 55 10000 5.14 330 18:51 05.11.2021
5651 Clear 16 1021 50 10000 5.66 350 18:29 05.11.2021
5652 Clear 18 1024 41 10000 4.63 60 16:45 05.11.2021
5653 Clear 17 1023 37 10000 5.66 60 14:22 05.11.2021
5654 Clear 15 1024 44 10000 5.14 40 12:27 05.11.2021
5655 Clear 13 1023 57 10000 3.09 10 09:47 05.11.2021
5656 Clear 10 1022 66 10000 2.57 350 08:31 05.11.2021
5657 Clear 11 1020 67 10000 4.63 340 06:22 05.11.2021
5658 Clear 12 1020 71 10000 5.14 340 02:38 05.11.2021
5659 Clear 12 1020 71 10000 5.14 340 02:19 05.11.2021
5660 Clear 13 1020 70 10000 3.6 360 23:58 04.11.2021
5661 Clear 13 1020 69 10000 5.14 350 22:36 04.11.2021
5662 Clear 13 1019 69 10000 5.14 350 22:18 04.11.2021
5663 Clear 13 1019 68 10000 6.17 340 21:28 04.11.2021
5664 Clear 13 1019 66 10000 5.66 340 20:29 04.11.2021
5665 Clouds 14 1018 62 10000 5.14 340 19:49 04.11.2021
5666 Clouds 14 1018 61 10000 5.14 340 19:28 04.11.2021
5667 Clouds 15 1017 56 10000 7.2 350 18:29 04.11.2021
5668 Clouds 16 1016 52 10000 6.69 340 17:26 04.11.2021
5669 Clouds 17 1018 52 10000 6.69 350 16:23 04.11.2021
5670 Clouds 17 1016 53 10000 6.69 360 13:50 04.11.2021
5671 Clouds 15 1016 69 10000 3.6 360 10:48 04.11.2021
5672 Clouds 11 1014 82 10000 1.03 0 08:41 04.11.2021
5673 Clear 11 1013 76 10000 1.54 280 07:49 04.11.2021
5674 Clear 11 1013 76 10000 1.03 0 07:31 04.11.2021
5675 Clear 13 1014 72 10000 1.54 310 23:18 03.11.2021
5676 Clear 12 1014 75 10000 1.03 300 22:26 03.11.2021
5677 Clear 13 1014 72 10000 1.54 320 21:37 03.11.2021
5678 Clear 13 1014 71 10000 2.57 320 20:44 03.11.2021
5679 Clouds 13 1014 70 10000 3.09 330 20:25 03.11.2021
5680 Clouds 13 1013 68 10000 2.57 320 19:37 03.11.2021
5681 Clouds 15 1015 66 10000 3.09 310 18:27 03.11.2021
5682 Clouds 15 1015 66 10000 3.09 310 18:27 03.11.2021
5683 Clouds 15 1015 64 10000 3.6 320 17:48 03.11.2021
5684 Clouds 16 1013 63 10000 5.14 330 16:49 03.11.2021
5685 Clouds 17 1012 51 10000 5.66 320 15:49 03.11.2021
5686 Clouds 17 1013 50 10000 5.66 310 15:30 03.11.2021
5687 Clouds 16 1014 62 10000 4.12 340 13:42 03.11.2021
5688 Clouds 15 1014 71 10000 3.6 340 11:37 03.11.2021
5689 Clouds 15 1013 74 10000 2.06 290 10:50 03.11.2021
5690 Clouds 14 1013 77 10000 1.54 290 09:47 03.11.2021
5691 Clouds 13 1012 77 10000 2.06 270 08:58 03.11.2021
5692 Rain 14 1012 74 10000 1.54 310 07:59 03.11.2021
5693 Rain 14 1012 74 10000 2.57 310 07:35 03.11.2021
5694 Clouds 14 1011 76 10000 1.54 280 04:23 03.11.2021
5695 Clouds 15 1011 83 10000 4.12 330 01:32 03.11.2021
5696 Clouds 15 1011 84 6000 5.66 310 23:30 02.11.2021
5697 Clouds 16 1011 86 10000 2.57 320 21:59 02.11.2021
5698 Clouds 16 1011 89 10000 3.6 250 20:45 02.11.2021
5699 Clouds 16 1011 89 10000 4.12 230 20:21 02.11.2021
5700 Clouds 16 1013 86 4500 2.57 290 19:31 02.11.2021
5701 Clouds 16 1013 86 4500 2.57 290 19:31 02.11.2021
5702 Clouds 17 1011 81 10000 4.12 240 18:36 02.11.2021
5703 Clouds 17 1011 81 10000 4.12 240 18:36 02.11.2021
5704 Clouds 17 1011 81 10000 4.12 240 17:47 02.11.2021
5705 Rain 17 1012 82 10000 4.63 250 17:25 02.11.2021
5706 Rain 17 1014 79 10000 4.12 240 16:19 02.11.2021
5707 Rain 18 1013 73 10000 5.66 270 14:57 02.11.2021
5708 Clouds 18 1014 69 10000 4.12 270 13:32 02.11.2021
5709 Rain 18 1014 68 10000 3.6 280 12:59 02.11.2021
5710 Clouds 18 1014 67 10000 2.06 280 12:18 02.11.2021
5711 Clouds 18 1015 71 10000 3.09 230 11:26 02.11.2021
5712 Clouds 17 1015 76 10000 5.14 250 10:38 02.11.2021
5713 Clouds 16 1015 77 10000 5.14 250 10:18 02.11.2021
5714 Clouds 16 1014 83 10000 1.54 250 07:47 02.11.2021
5715 Clouds 16 1014 85 10000 2.57 230 06:29 02.11.2021
5716 Clouds 16 1015 79 10000 1.03 0 03:27 02.11.2021
5717 Clouds 15 1017 83 10000 0 0 00:19 02.11.2021
5718 Clouds 16 1017 77 10000 1.03 300 22:19 01.11.2021
5719 Clouds 17 1016 76 10000 2.06 320 20:46 01.11.2021
5720 Clouds 17 1016 76 10000 2.06 320 20:26 01.11.2021
5721 Clouds 17 1016 74 10000 2.06 310 19:42 01.11.2021
5722 Clouds 18 1016 73 10000 3.09 330 18:50 01.11.2021
5723 Clouds 19 1015 70 10000 4.12 340 17:49 01.11.2021
5724 Clouds 19 1017 69 10000 4.63 340 16:57 01.11.2021
5725 Clouds 20 1015 70 10000 4.63 340 16:32 01.11.2021
5726 Clouds 20 1015 71 10000 3.09 330 15:39 01.11.2021
5727 Clouds 20 1015 70 10000 3.09 330 15:19 01.11.2021
5728 Clouds 20 1015 75 10000 3.6 350 14:38 01.11.2021
5729 Clouds 20 1015 74 10000 3.6 350 14:19 01.11.2021
5730 Clouds 19 1016 82 10000 2.06 360 12:41 01.11.2021
5731 Clouds 18 1016 83 10000 2.06 360 11:39 01.11.2021
5732 Clouds 18 1015 87 10000 3.09 350 10:20 01.11.2021
5733 Clouds 17 1014 89 10000 3.09 330 08:19 01.11.2021
5734 Clouds 18 1013 90 8000 3.09 310 07:46 01.11.2021
5735 Drizzle 19 1012 91 8000 2.57 300 03:55 01.11.2021
5736 Clouds 20 1011 90 2000 7.2 250 01:44 01.11.2021
5737 Clouds 20 1013 90 10000 7.2 250 23:30 31.10.2021
5738 Clouds 20 1013 92 10000 8.23 240 20:58 31.10.2021
5739 Mist 20 1013 93 10000 6.69 230 19:49 31.10.2021
5740 Mist 20 1013 94 10000 6.17 230 18:43 31.10.2021
5741 Clouds 20 1013 93 9000 4.12 240 18:20 31.10.2021
5742 Mist 20 1013 92 6000 7.72 230 16:41 31.10.2021
5743 Mist 20 1013 91 1800 7.72 220 14:45 31.10.2021
5744 Mist 20 1013 91 7000 7.2 230 12:55 31.10.2021
5745 Clouds 20 1013 92 6000 8.75 220 11:44 31.10.2021
5746 Mist 20 1013 92 3000 6.69 230 10:48 31.10.2021
5747 Drizzle 20 1013 92 5000 6.69 230 09:26 31.10.2021
5748 Drizzle 20 1013 90 4500 5.14 220 08:44 31.10.2021
5749 Drizzle 20 1011 90 10000 6.17 250 02:52 31.10.2021
5750 Clouds 20 1009 91 7000 8.23 220 00:32 31.10.2021
5751 Clouds 20 1009 93 8000 7.72 240 22:20 30.10.2021
5752 Rain 20 1008 92 9000 9.26 230 21:27 30.10.2021
5753 Mist 20 1006 90 4000 4.47 305 19:42 30.10.2021
5754 Mist 20 1007 92 4000 6.69 220 17:49 30.10.2021
5755 Rain 20 1007 90 10000 3.6 250 15:42 30.10.2021
5756 Rain 20 1008 88 10000 5.14 230 13:59 30.10.2021
5757 Rain 20 1008 88 10000 5.14 230 13:59 30.10.2021
5758 Clouds 20 1008 89 10000 5.14 230 13:38 30.10.2021
5759 Clouds 20 1008 89 10000 5.14 230 13:20 30.10.2021
5760 Mist 20 1007 88 10000 3.6 230 11:49 30.10.2021
5761 Clouds 20 1006 90 10000 3.09 230 10:56 30.10.2021
5762 Clouds 19 1005 91 7000 4.63 250 08:57 30.10.2021
5763 Drizzle 19 1003 91 5000 7.2 240 07:56 30.10.2021
5764 Clouds 20 1003 89 7000 8.23 240 05:46 30.10.2021
5765 Clouds 20 1003 87 10000 10.8 230 02:59 30.10.2021
5766 Mist 20 1004 88 3000 11.83 220 23:21 29.10.2021
5767 Mist 19 1007 86 3000 10.8 220 22:35 29.10.2021
5768 Clouds 20 1005 87 9000 14.4 210 21:18 29.10.2021
5769 Clouds 19 1005 90 6000 11.83 200 20:32 29.10.2021
5770 Clouds 19 1006 91 6000 10.8 200 19:26 29.10.2021
5771 Rain 19 1007 83 10000 8.23 210 17:43 29.10.2021
5772 Rain 19 1008 80 10000 6.17 210 15:42 29.10.2021
5773 Clouds 19 1010 78 10000 4.12 220 12:50 29.10.2021
5774 Clouds 18 1010 88 10000 3.09 240 10:49 29.10.2021
5775 Clouds 18 1010 89 10000 2.57 250 10:30 29.10.2021
5776 Rain 18 1010 85 10000 7.72 210 02:46 29.10.2021
5777 Clouds 18 1011 80 10000 7.72 210 00:32 29.10.2021
5778 Clouds 18 1012 82 10000 5.66 220 22:32 28.10.2021
5779 Clouds 18 1014 80 10000 4.63 220 20:59 28.10.2021
5780 Clouds 18 1012 81 10000 5.14 210 19:57 28.10.2021
5781 Clouds 19 1012 79 10000 5.14 220 18:47 28.10.2021
5782 Clouds 20 1013 76 10000 5.14 250 17:42 28.10.2021
5783 Clouds 20 1013 65 10000 5.66 220 16:38 28.10.2021
5784 Clear 20 1014 67 10000 5.66 230 14:42 28.10.2021
5785 Clear 19 1015 65 10000 1.54 0 13:33 28.10.2021
5786 Fog 19 1015 59 10000 2.06 90 12:50 28.10.2021
5787 Clear 18 1014 58 10000 1.54 50 11:50 28.10.2021
5788 Fog 16 1015 66 10000 0 0 10:38 28.10.2021
5789 Fog 12 1017 75 10000 0.51 0 09:37 28.10.2021
5790 Clear 14 1014 65 10000 0.51 0 08:36 28.10.2021
5791 Clear 14 1014 69 10000 1.03 0 07:41 28.10.2021
5792 Clear 16 1015 58 10000 2.06 310 02:33 28.10.2021
5793 Clear 19 1017 50 10000 2.57 330 22:57 27.10.2021
5794 Clear 19 1017 49 10000 4.12 310 22:26 27.10.2021
5795 Clear 19 1017 51 10000 5.14 310 21:32 27.10.2021
5796 Clear 20 1017 49 10000 4.63 310 20:46 27.10.2021
5797 Clear 21 1017 49 10000 3.09 310 19:48 27.10.2021
5798 Clear 23 1019 44 10000 1.54 0 18:56 27.10.2021
5799 Clear 23 1019 42 10000 1.03 0 18:36 27.10.2021
5800 Clear 24 1019 41 10000 2.57 90 16:25 27.10.2021
5801 Clear 23 1018 39 10000 2.06 70 15:28 27.10.2021
5802 Clear 23 1018 40 10000 2.57 60 14:28 27.10.2021
5803 Clear 18 1019 51 10000 3.09 60 11:18 27.10.2021
5804 Clear 17 1019 54 10000 3.6 50 10:56 27.10.2021
5805 Clear 15 1018 58 10000 1.54 60 09:28 27.10.2021
5806 Clear 16 1017 59 10000 2.06 30 07:47 27.10.2021
5807 Clear 17 1016 53 10000 2.06 10 06:34 27.10.2021
5808 Clear 17 1018 62 10000 3.09 330 01:26 27.10.2021
5809 Clear 18 1018 59 10000 3.6 330 00:55 27.10.2021
5810 Clear 19 1018 57 10000 3.6 320 23:56 26.10.2021
5811 Clear 19 1018 54 10000 3.6 320 22:55 26.10.2021
5812 Clear 19 1018 54 10000 3.09 310 22:27 26.10.2021
5813 Clear 19 1018 54 10000 3.09 320 21:51 26.10.2021
5814 Clear 21 1018 51 10000 2.06 270 19:59 26.10.2021
5815 Clear 22 1018 45 10000 1.54 40 19:25 26.10.2021
5816 Clear 24 1019 41 10000 2.06 90 18:30 26.10.2021
5817 Clear 23 1018 42 10000 3.6 50 15:53 26.10.2021
5818 Clear 22 1019 49 10000 4.12 60 14:18 26.10.2021
5819 Clear 18 1019 64 10000 3.09 360 11:31 26.10.2021
5820 Clear 15 1019 79 10000 3.09 320 09:28 26.10.2021
5821 Clear 15 1018 79 10000 4.63 320 07:23 26.10.2021
5822 Clear 16 1019 72 10000 6.17 330 00:50 26.10.2021
5823 Clear 16 1019 71 10000 6.17 330 23:48 25.10.2021
5824 Clear 17 1019 67 10000 7.2 340 22:36 25.10.2021
5825 Clear 17 1019 65 10000 7.72 340 21:49 25.10.2021
5826 Clear 17 1019 65 10000 7.2 330 21:25 25.10.2021
5827 Clouds 19 1018 64 10000 6.69 330 19:45 25.10.2021
5828 Clouds 20 1018 60 10000 6.69 350 19:24 25.10.2021
5829 Clouds 21 1018 56 10000 6.17 330 18:50 25.10.2021
5830 Clouds 22 1018 48 10000 6.17 330 17:42 25.10.2021
5831 Clouds 22 1019 50 10000 4.63 330 15:38 25.10.2021
5832 Clouds 22 1020 53 10000 5.14 350 13:54 25.10.2021
5833 Clouds 18 1020 68 10000 4.12 360 11:58 25.10.2021
5834 Clouds 16 1020 83 10000 1.03 0 09:58 25.10.2021
5835 Clouds 14 1019 85 10000 1.54 330 07:40 25.10.2021
5836 Clouds 15 1019 82 10000 2.06 350 05:55 25.10.2021
5837 Clear 15 1020 71 10000 1.03 0 00:53 25.10.2021
5838 Clear 15 1020 70 10000 2.06 10 00:35 25.10.2021
5839 Clear 16 1020 67 10000 3.6 330 23:45 24.10.2021
5840 Clear 17 1020 64 10000 4.63 320 22:40 24.10.2021
5841 Clear 17 1020 64 10000 4.63 320 22:20 24.10.2021
5842 Clear 17 1020 63 10000 5.14 310 21:37 24.10.2021
5843 Clear 18 1020 59 10000 4.12 310 20:42 24.10.2021
5844 Clear 20 1019 47 10000 3.09 290 19:49 24.10.2021
5845 Clear 22 1022 42 10000 3.6 300 18:30 24.10.2021
5846 Clear 23 1022 40 10000 3.6 300 17:48 24.10.2021
5847 Clouds 23 1022 41 10000 3.6 0 16:32 24.10.2021
5848 Clouds 23 1020 48 10000 2.57 0 15:20 24.10.2021
5849 Clear 20 1021 56 10000 2.06 90 13:43 24.10.2021
5850 Clear 19 1021 58 10000 2.06 80 12:29 24.10.2021
5851 Clear 17 1023 58 10000 2.57 360 11:36 24.10.2021
5852 Clear 15 1022 69 10000 0 0 10:40 24.10.2021
5853 Clear 14 1020 70 10000 2.06 340 08:50 24.10.2021
5854 Clear 16 1019 59 10000 3.09 310 03:30 24.10.2021
5855 Clear 17 1019 55 10000 4.12 330 23:56 23.10.2021
5856 Clear 18 1019 55 10000 4.12 320 22:55 23.10.2021
5857 Clear 19 1019 51 10000 4.63 310 21:20 23.10.2021
5858 Clear 23 1020 39 10000 1.03 0 19:37 23.10.2021
5859 Clear 24 1020 32 10000 1.03 0 18:44 23.10.2021
5860 Clear 24 1020 33 10000 2.06 110 17:46 23.10.2021
5861 Clear 24 1020 37 10000 2.06 110 17:18 23.10.2021
5862 Clear 23 1018 42 10000 2.57 70 15:57 23.10.2021
5863 Clear 20 1019 48 10000 4.63 70 13:35 23.10.2021
5864 Clear 16 1018 60 10000 4.12 330 00:45 23.10.2021
5865 Clear 17 1018 57 10000 5.66 330 23:41 22.10.2021
5866 Clear 17 1018 56 10000 6.69 330 21:37 22.10.2021
5867 Clear 19 1017 51 10000 7.2 330 19:33 22.10.2021
5868 Clear 21 1017 47 10000 7.2 340 18:25 22.10.2021
5869 Clear 22 1017 43 10000 7.2 330 16:44 22.10.2021
5870 Clear 22 1017 41 10000 6.69 360 14:45 22.10.2021
5871 Clouds 19 1018 54 10000 7.72 340 12:41 22.10.2021
5872 Clouds 17 1018 65 10000 6.17 320 10:56 22.10.2021
5873 Clouds 16 1018 67 10000 4.12 310 10:33 22.10.2021
5874 Clouds 15 1018 74 10000 0.51 0 09:34 22.10.2021
5875 Clouds 15 1017 74 10000 5.14 350 07:40 22.10.2021
5876 Clouds 15 1017 74 10000 5.14 350 07:21 22.10.2021
5877 Clouds 15 1017 74 10000 5.14 350 07:21 22.10.2021
5878 Clear 16 1022 73 10000 3.6 330 01:41 22.10.2021
5879 Clear 16 1019 71 10000 3.6 330 23:50 21.10.2021
5880 Clouds 16 1020 67 10000 4.12 340 22:43 21.10.2021
5881 Clouds 17 1020 68 10000 3.6 360 21:38 21.10.2021
5882 Clouds 17 1019 64 10000 6.17 350 20:24 21.10.2021
5883 Clouds 18 1018 61 10000 6.17 350 19:55 21.10.2021
5884 Clouds 19 1019 60 10000 7.72 330 19:25 21.10.2021
5885 Clouds 20 1019 53 10000 7.2 330 18:33 21.10.2021
5886 Clouds 21 1019 51 10000 6.17 320 17:51 21.10.2021
5887 Clouds 21 1018 50 10000 5.66 320 16:50 21.10.2021
5888 Clouds 22 1019 53 10000 6.69 340 15:33 21.10.2021
5889 Clouds 21 1020 59 10000 5.14 340 14:56 21.10.2021
5890 Clouds 21 1020 59 10000 5.66 350 14:37 21.10.2021
5891 Clouds 21 1020 59 10000 5.66 350 14:37 21.10.2021
5892 Clouds 19 1021 73 10000 4.63 360 11:59 21.10.2021
5893 Clouds 18 1020 84 10000 1.03 0 09:42 21.10.2021
5894 Clouds 18 1019 84 10000 1.54 310 07:54 21.10.2021
5895 Clouds 18 1019 85 10000 1.54 310 06:54 21.10.2021
5896 Clouds 19 1019 82 10000 1.54 350 00:51 21.10.2021
5897 Clouds 19 1020 79 10000 4.63 340 22:36 20.10.2021
5898 Clouds 19 1020 79 10000 4.12 330 21:50 20.10.2021
5899 Clouds 20 1019 76 10000 3.09 330 20:59 20.10.2021
5900 Clouds 20 1019 76 10000 4.12 310 20:39 20.10.2021
5901 Clouds 20 1019 76 10000 4.12 310 20:19 20.10.2021
5902 Clouds 22 1020 74 10000 3.6 300 19:26 20.10.2021
5903 Clouds 22 1020 75 10000 4.12 320 18:45 20.10.2021
5904 Clouds 23 1020 70 10000 4.63 280 17:36 20.10.2021
5905 Clouds 23 1020 69 10000 4.12 210 14:56 20.10.2021
5906 Fog 18 1020 89 8000 0 0 09:57 20.10.2021
5907 Fog 18 1018 87 9000 0 0 06:57 20.10.2021
5908 Clear 20 1019 77 10000 0 0 02:38 20.10.2021
5909 Clear 21 1019 74 10000 4.63 260 00:34 20.10.2021
5910 Clear 21 1020 73 10000 6.17 260 22:58 19.10.2021
5911 Clear 21 1019 69 10000 5.66 260 21:38 19.10.2021
5912 Clear 22 1019 65 10000 5.66 260 20:29 19.10.2021
5913 Clouds 23 1019 61 10000 6.17 250 19:59 19.10.2021
5914 Clouds 23 1019 59 10000 5.66 250 19:37 19.10.2021
5915 Clear 25 1019 53 10000 5.66 250 18:45 19.10.2021
5916 Clear 26 1018 52 10000 4.63 240 17:52 19.10.2021
5917 Clear 26 1019 49 10000 5.14 240 15:30 19.10.2021
5918 Clear 26 1020 49 10000 5.14 240 14:44 19.10.2021
5919 Clear 25 1020 52 10000 4.12 240 13:56 19.10.2021
5920 Clear 23 1020 70 10000 2.06 80 12:24 19.10.2021
5921 Clear 22 1020 74 10000 3.09 50 11:30 19.10.2021
5922 Clear 19 1019 86 10000 2.06 50 09:55 19.10.2021
5923 Clear 18 1018 86 10000 1.03 60 08:57 19.10.2021
5924 Clear 20 1018 76 10000 0 0 02:38 19.10.2021
5925 Clear 20 1019 75 10000 0 0 00:20 19.10.2021
5926 Clear 21 1017 70 10000 0.51 0 23:41 18.10.2021
5927 Clear 22 1018 70 10000 2.57 320 22:57 18.10.2021
5928 Clear 22 1018 70 10000 2.06 310 22:31 18.10.2021
5929 Clear 22 1018 70 10000 2.06 310 22:31 18.10.2021
5930 Clear 23 1018 66 10000 0 0 20:53 18.10.2021
5931 Clear 23 1018 63 10000 0 0 20:32 18.10.2021
5932 Clear 24 1020 63 10000 0.51 0 19:49 18.10.2021
5933 Clear 25 1020 59 10000 1.54 0 19:22 18.10.2021
5934 Clear 25 1020 61 10000 2.06 0 18:49 18.10.2021
5935 Fog 25 1019 69 10000 2.06 0 14:58 18.10.2021
5936 Fog 22 1019 78 10000 2.06 50 12:41 18.10.2021
5937 Fog 18 1019 92 5000 1.54 60 10:26 18.10.2021
5938 Mist 17 1019 91 5000 0 0 09:26 18.10.2021
5939 Fog 18 1018 90 10000 1.03 0 01:35 18.10.2021
5940 Clear 19 1018 86 10000 1.54 310 23:20 17.10.2021
5941 Fog 20 1018 84 10000 1.03 0 21:45 17.10.2021
5942 Clouds 20 1017 83 10000 2.06 280 20:59 17.10.2021
5943 Clouds 21 1017 80 10000 2.06 280 20:31 17.10.2021
5944 Clouds 22 1017 77 10000 3.6 260 19:39 17.10.2021
5945 Clouds 22 1011 72 10000 1.34 258 18:54 17.10.2021
5946 Clouds 22 1017 72 10000 4.63 250 17:27 17.10.2021
5947 Fog 21 1017 79 10000 4.63 230 14:58 17.10.2021
5948 Fog 21 1017 81 10000 4.63 220 14:24 17.10.2021
5949 Mist 21 1017 83 9000 3.6 230 13:34 17.10.2021
5950 Mist 20 1017 89 9000 4.12 250 11:54 17.10.2021
5951 Fog 19 1017 91 6000 2.57 260 10:23 17.10.2021
5952 Mist 19 1016 91 7000 4.12 230 09:28 17.10.2021
5953 Drizzle 18 1015 90 5000 0 0 06:58 17.10.2021
5954 Clouds 18 1015 83 10000 1.03 0 00:52 17.10.2021
5955 Clouds 18 1015 81 10000 0 0 00:21 17.10.2021
5956 Clear 19 1016 78 10000 1.54 300 21:38 16.10.2021
5957 Rain 20 1016 72 10000 3.09 310 20:31 16.10.2021
5958 Rain 21 1016 62 10000 2.06 270 19:45 16.10.2021
5959 Rain 21 1016 57 10000 3.09 260 19:21 16.10.2021
5960 Clear 21 1016 55 10000 3.09 250 18:54 16.10.2021
5961 Clear 22 1016 52 10000 3.09 270 18:36 16.10.2021
5962 Clear 22 1016 47 10000 3.09 270 18:18 16.10.2021
5963 Clear 22 1016 48 10000 2.57 270 17:23 16.10.2021
5964 Clear 23 1017 47 10000 4.63 330 14:52 16.10.2021
5965 Clear 21 1019 55 10000 3.09 300 11:52 16.10.2021
5966 Clear 19 1016 59 10000 0 0 10:36 16.10.2021
5967 Clear 17 1014 65 10000 2.57 310 08:20 16.10.2021
5968 Clear 19 1017 49 10000 3.09 310 01:25 16.10.2021
5969 Clear 19 1017 45 10000 4.12 320 23:55 15.10.2021
5970 Clear 19 1016 46 10000 4.12 310 23:20 15.10.2021
5971 Clear 20 1017 47 10000 4.12 330 22:19 15.10.2021
5972 Clear 21 1017 45 10000 3.6 320 21:26 15.10.2021
5973 Clear 21 1016 41 10000 3.09 320 20:47 15.10.2021
5974 Clear 24 1017 33 10000 5.14 340 19:31 15.10.2021
5975 Clear 24 1018 35 10000 5.14 340 18:40 15.10.2021
5976 Clear 25 1017 35 10000 4.12 200 16:29 15.10.2021
5977 Clear 25 1017 38 10000 3.09 170 15:36 15.10.2021
5978 Clear 24 1019 44 10000 2.06 100 13:29 15.10.2021
5979 Clear 21 1018 47 10000 0.51 0 11:36 15.10.2021
5980 Clear 20 1018 49 10000 0.51 0 10:57 15.10.2021
5981 Clear 17 1018 53 10000 0 0 09:49 15.10.2021
5982 Clear 18 1015 47 10000 1.03 290 05:32 15.10.2021
5983 Clear 18 1017 51 10000 1.54 70 01:47 15.10.2021
5984 Clear 20 1018 47 10000 2.57 340 00:22 15.10.2021
5985 Clear 21 1018 39 10000 5.14 310 22:52 14.10.2021
5986 Clear 21 1018 45 10000 4.63 310 21:45 14.10.2021
5987 Clear 21 1018 45 10000 4.12 300 20:49 14.10.2021
5988 Clear 22 1018 44 10000 3.6 300 20:19 14.10.2021
5989 Clear 23 1017 44 10000 3.09 310 19:35 14.10.2021
5990 Clear 26 1017 39 10000 3.09 160 17:31 14.10.2021
5991 Clear 27 1017 35 10000 3.09 110 16:51 14.10.2021
5992 Clear 27 1017 34 10000 2.06 100 16:20 14.10.2021
5993 Clear 25 1020 40 10000 2.06 100 14:43 14.10.2021
5994 Clear 25 1020 41 10000 2.06 110 14:21 14.10.2021
5995 Clear 21 1020 52 10000 3.09 0 11:44 14.10.2021
5996 Clear 18 1017 55 10000 0 0 09:55 14.10.2021
5997 Clear 18 1017 55 10000 0 0 09:55 14.10.2021
5998 Clouds 19 1018 44 10000 1.55 43 06:56 14.10.2021
5999 Clouds 23 1010 29 10000 0.89 39 00:59 14.10.2021
6000 Clouds 23 1010 28 10000 0.89 1 00:28 14.10.2021
6001 Clear 23 1015 46 10000 3.09 320 21:58 13.10.2021
6002 Clear 23 1015 44 10000 3.6 300 21:32 13.10.2021
6003 Clear 24 1015 45 10000 3.6 320 19:59 13.10.2021
6004 Clear 26 1016 44 10000 3.6 270 18:57 13.10.2021
6005 Clear 26 1016 44 10000 2.57 270 18:35 13.10.2021
6006 Clear 27 1015 40 10000 2.57 0 15:32 13.10.2021
6007 Clear 26 1018 42 10000 2.57 110 14:45 13.10.2021
6008 Clear 26 1015 43 10000 3.09 80 14:21 13.10.2021
6009 Clear 24 1016 49 10000 3.09 50 12:22 13.10.2021
6010 Clear 22 1015 52 10000 2.57 60 11:35 13.10.2021
6011 Clear 19 1014 62 10000 0 0 08:42 13.10.2021
6012 Clear 19 1013 61 10000 1.54 30 06:51 13.10.2021
6013 Clear 20 1013 62 10000 2.57 350 02:28 13.10.2021
6014 Clear 21 1013 58 10000 2.57 330 01:43 13.10.2021
6015 Clear 22 1013 53 10000 3.09 320 23:30 12.10.2021
6016 Clear 22 1013 53 10000 3.09 320 23:30 12.10.2021
6017 Clear 22 1014 51 10000 4.12 320 22:46 12.10.2021
6018 Clear 23 1013 50 10000 5.66 310 21:52 12.10.2021
6019 Clear 23 1013 47 10000 5.66 310 20:41 12.10.2021
6020 Clear 23 1013 47 10000 5.66 310 20:18 12.10.2021
6021 Clear 25 1013 45 10000 4.63 310 18:36 12.10.2021
6022 Clear 27 1013 42 10000 2.57 0 17:57 12.10.2021
6023 Clear 28 1015 39 10000 2.57 0 16:39 12.10.2021
6024 Clear 27 1016 43 10000 3.09 70 15:58 12.10.2021
6025 Clear 26 1014 43 10000 4.12 60 14:46 12.10.2021
6026 Clear 25 1014 45 10000 4.63 50 13:44 12.10.2021
6027 Clear 23 1014 49 10000 4.12 60 12:39 12.10.2021
6028 Clear 20 1014 59 10000 3.6 50 09:59 12.10.2021
6029 Clear 19 1013 60 10000 4.12 50 08:44 12.10.2021
6030 Clear 20 1012 57 10000 2.57 50 07:36 12.10.2021
6031 Clear 21 1012 52 10000 3.09 30 05:31 12.10.2021
6032 Clear 22 1012 50 10000 4.63 40 04:33 12.10.2021
6033 Clear 24 1012 44 10000 4.63 50 00:28 12.10.2021
6034 Clear 24 1012 42 10000 5.14 50 23:41 11.10.2021
6035 Clear 24 1013 45 10000 5.14 50 22:57 11.10.2021
6036 Clear 24 1013 50 10000 6.17 40 21:46 11.10.2021
6037 Clear 24 1013 48 10000 6.69 40 21:18 11.10.2021
6038 Clear 27 1015 40 10000 6.69 40 19:46 11.10.2021
6039 Clear 28 1015 41 10000 6.69 40 18:43 11.10.2021
6040 Clouds 29 1013 36 10000 5.66 40 17:54 11.10.2021
6041 Clear 29 1013 37 10000 4.63 60 16:39 11.10.2021
6042 Clear 28 1013 38 10000 4.63 30 15:51 11.10.2021
6043 Clear 28 1014 38 10000 4.12 40 15:23 11.10.2021
6044 Clear 27 1014 40 10000 4.63 60 14:42 11.10.2021
6045 Clear 25 1015 46 10000 4.12 60 13:37 11.10.2021
6046 Clear 23 1014 51 10000 6.17 50 11:51 11.10.2021
6047 Clear 21 1014 56 10000 4.12 50 10:34 11.10.2021
6048 Clear 20 1013 62 10000 3.09 50 09:37 11.10.2021
6049 Clear 21 1012 59 10000 4.12 50 07:27 11.10.2021
6050 Clear 21 1012 53 10000 3.6 340 01:41 11.10.2021
6051 Clear 22 1013 50 10000 4.12 330 00:48 11.10.2021
6052 Clear 22 1013 50 10000 4.12 320 00:28 11.10.2021
6053 Clear 21 1014 60 10000 5.14 310 21:54 10.10.2021
6054 Clear 21 1014 60 10000 3.6 320 21:32 10.10.2021
6055 Clear 22 1013 58 10000 2.57 310 20:47 10.10.2021
6056 Clear 23 1013 55 10000 2.57 300 20:21 10.10.2021
6057 Clear 24 1013 51 10000 4.12 250 19:59 10.10.2021
6058 Clear 24 1013 51 10000 4.63 250 19:36 10.10.2021
6059 Clear 25 1013 49 10000 4.63 230 18:36 10.10.2021
6060 Clear 26 1014 48 10000 3.09 230 16:46 10.10.2021
6061 Clear 26 1014 49 10000 3.09 0 15:46 10.10.2021
6062 Clear 24 1014 55 10000 1.54 110 14:42 10.10.2021
6063 Clear 23 1015 56 10000 3.09 60 13:34 10.10.2021
6064 Clear 23 1018 55 10000 4.63 70 12:35 10.10.2021
6065 Clear 18 1017 75 10000 2.57 50 10:44 10.10.2021
6066 Clear 17 1016 83 10000 2.06 30 09:31 10.10.2021
6067 Clear 15 1016 92 10000 1.54 360 08:54 10.10.2021
6068 Clear 15 1016 86 10000 0 0 07:28 10.10.2021
6069 Clear 17 1017 77 10000 2.57 320 03:20 10.10.2021
6070 Clear 18 1014 76 10000 4.63 320 00:58 10.10.2021
6071 Clear 18 1014 78 10000 5.14 310 00:29 10.10.2021
6072 Clear 18 1015 81 10000 5.14 310 22:53 09.10.2021
6073 Clouds 18 1015 80 10000 5.66 310 21:47 09.10.2021
6074 Clouds 18 1017 78 10000 6.17 310 21:28 09.10.2021
6075 Clear 21 1014 66 10000 4.63 310 19:45 09.10.2021
6076 Clear 22 1014 62 10000 4.63 320 19:20 09.10.2021
6077 Clear 23 1014 59 10000 5.66 330 18:33 09.10.2021
6078 Clear 25 1015 53 10000 4.12 310 17:20 09.10.2021
6079 Clear 24 1015 57 10000 4.63 310 16:19 09.10.2021
6080 Clear 24 1016 54 10000 5.14 350 13:45 09.10.2021
6081 Clouds 22 1017 62 10000 4.63 320 12:40 09.10.2021
6082 Clouds 20 1020 67 10000 5.66 320 11:48 09.10.2021
6083 Clouds 19 1017 73 10000 6.69 330 10:42 09.10.2021
6084 Clouds 18 1016 78 10000 6.17 310 09:52 09.10.2021
6085 Clouds 17 1016 80 10000 7.2 310 08:30 09.10.2021
6086 Clouds 17 1015 81 10000 6.69 310 07:49 09.10.2021
6087 Clear 18 1014 76 10000 3.09 320 05:29 09.10.2021
6088 Clear 18 1015 71 10000 5.14 350 02:59 09.10.2021
6089 Clear 18 1015 69 10000 3.09 40 02:40 09.10.2021
6090 Clear 19 1015 69 10000 3.09 40 23:51 08.10.2021
6091 Clear 20 1016 68 10000 5.66 320 22:55 08.10.2021
6092 Clear 20 1016 67 10000 5.14 320 22:24 08.10.2021
6093 Clear 22 1015 63 10000 6.17 310 20:55 08.10.2021
6094 Clear 26 1015 44 10000 6.69 330 18:59 08.10.2021
6095 Clear 28 1015 45 10000 6.69 330 17:36 08.10.2021
6096 Clear 28 1015 37 10000 6.17 340 16:51 08.10.2021
6097 Clear 28 1015 35 10000 5.14 340 16:23 08.10.2021
6098 Clear 25 1019 49 10000 2.57 0 13:57 08.10.2021
6099 Clear 24 1017 51 10000 1.54 0 12:56 08.10.2021
6100 Clear 22 1019 64 10000 2.06 70 11:33 08.10.2021
6101 Clear 19 1018 70 10000 0 0 10:41 08.10.2021
6102 Clear 17 1016 76 10000 0 0 09:25 08.10.2021
6103 Clear 22 1015 50 10000 4.12 320 23:59 07.10.2021
6104 Clear 23 1016 49 10000 4.12 310 23:19 07.10.2021
6105 Clear 24 1015 46 10000 5.14 330 21:46 07.10.2021
6106 Clear 24 1015 45 10000 5.14 330 21:23 07.10.2021
6107 Clear 25 1015 44 10000 5.14 330 20:22 07.10.2021
6108 Clear 28 1015 41 10000 6.17 330 19:29 07.10.2021
6109 Clear 29 1018 41 10000 4.12 60 18:24 07.10.2021
6110 Clear 29 1016 39 10000 4.63 70 17:24 07.10.2021
6111 Clear 28 1017 43 10000 4.12 80 15:50 07.10.2021
6112 Clear 26 1018 49 10000 3.09 80 13:52 07.10.2021
6113 Clear 26 1018 49 10000 3.09 80 13:34 07.10.2021
6114 Clear 24 1018 54 10000 3.6 80 12:40 07.10.2021
6115 Clear 22 1018 61 10000 3.6 50 10:52 07.10.2021
6116 Clear 22 1018 61 10000 3.6 50 10:52 07.10.2021
6117 Clear 21 1018 65 10000 3.6 40 10:19 07.10.2021
6118 Clear 19 1018 74 10000 2.06 10 09:33 07.10.2021
6119 Clear 18 1017 76 10000 2.57 350 08:41 07.10.2021
6120 Clear 19 1016 75 10000 2.57 360 07:43 07.10.2021
6121 Clear 19 1016 75 10000 2.06 340 07:19 07.10.2021
6122 Clear 20 1017 69 10000 2.06 320 02:26 07.10.2021
6123 Clear 21 1018 69 10000 4.12 320 00:29 07.10.2021
6124 Clear 22 1018 65 10000 3.6 310 22:51 06.10.2021
6125 Clear 23 1018 63 10000 3.6 310 21:53 06.10.2021
6126 Clear 25 1018 59 10000 4.63 330 20:38 06.10.2021
6127 Clear 26 1020 53 10000 4.63 340 19:53 06.10.2021
6128 Clear 28 1020 43 10000 3.6 70 18:40 06.10.2021
6129 Clear 27 1018 44 10000 4.63 90 16:56 06.10.2021
6130 Clear 26 1019 49 10000 4.63 60 15:30 06.10.2021
6131 Clear 25 1020 53 10000 5.14 60 14:22 06.10.2021
6132 Clear 23 1021 61 10000 5.14 60 12:59 06.10.2021
6133 Clear 22 1021 64 10000 3.6 50 12:41 06.10.2021
6134 Clear 22 1021 63 10000 3.6 50 12:21 06.10.2021
6135 Clear 18 1020 73 10000 2.06 90 10:21 06.10.2021
6136 Clear 17 1020 80 10000 1.54 330 09:39 06.10.2021
6137 Clear 16 1020 79 10000 2.06 320 08:42 06.10.2021
6138 Clear 16 1020 79 10000 2.06 330 07:48 06.10.2021
6139 Clear 17 1019 80 10000 2.57 360 05:26 06.10.2021
6140 Clear 19 1021 80 10000 4.63 320 00:29 06.10.2021
6141 Clear 19 1021 79 10000 4.12 320 23:58 05.10.2021
6142 Clouds 19 1021 80 10000 5.14 340 23:39 05.10.2021
6143 Clouds 19 1021 80 10000 5.14 340 23:20 05.10.2021
6144 Clouds 19 1021 81 10000 4.12 320 22:28 05.10.2021
6145 Clouds 20 1021 80 10000 3.09 330 21:49 05.10.2021
6146 Clouds 20 1021 78 10000 3.09 320 20:42 05.10.2021
6147 Clouds 21 1020 76 10000 3.6 330 20:24 05.10.2021
6148 Clouds 21 1020 74 10000 4.12 310 19:43 05.10.2021
6149 Clouds 22 1020 71 10000 3.6 320 18:54 05.10.2021
6150 Clouds 22 1021 73 10000 3.6 320 16:48 05.10.2021
6151 Clouds 22 1022 71 10000 3.6 290 14:38 05.10.2021
6152 Drizzle 21 1021 74 10000 3.09 310 13:35 05.10.2021
6153 Clouds 21 1022 74 10000 3.6 290 12:47 05.10.2021
6154 Clouds 21 1022 73 10000 3.09 310 12:18 05.10.2021
6155 Clouds 20 1022 75 10000 2.57 280 11:19 05.10.2021
6156 Clouds 17 1021 81 10000 1.54 270 09:26 05.10.2021
6157 Clouds 16 1020 81 10000 2.06 220 05:25 05.10.2021
6158 Clear 17 1022 73 10000 1.54 300 23:54 04.10.2021
6159 Clear 17 1021 71 10000 2.57 310 22:38 04.10.2021
6160 Clear 19 1021 62 10000 4.63 310 20:29 04.10.2021
6161 Clouds 22 1020 52 10000 4.63 310 18:34 04.10.2021
6162 Clouds 22 1020 50 10000 2.57 140 16:34 04.10.2021
6163 Clouds 21 1021 50 10000 2.06 0 15:31 04.10.2021
6164 Clouds 21 1021 50 10000 2.06 0 15:31 04.10.2021
6165 Clouds 21 1021 56 10000 3.09 140 14:43 04.10.2021
6166 Clouds 21 1021 56 10000 3.09 140 14:43 04.10.2021
6167 Clouds 20 1021 58 10000 3.09 110 13:57 04.10.2021
6168 Clouds 20 1022 60 10000 3.09 130 13:27 04.10.2021
6169 Clouds 19 1022 63 10000 3.6 340 12:28 04.10.2021
6170 Clouds 19 1024 68 10000 2.57 0 11:31 04.10.2021
6171 Clouds 18 1024 71 10000 0 0 10:34 04.10.2021
6172 Clear 15 1021 80 10000 0 0 08:45 04.10.2021
6173 Clear 15 1020 76 10000 0 0 07:43 04.10.2021
6174 Clear 15 1019 70 10000 4.12 310 01:56 04.10.2021
6175 Clear 16 1019 67 10000 3.09 30 22:44 03.10.2021
6176 Clear 17 1018 64 10000 4.12 350 21:43 03.10.2021
6177 Clear 17 1018 63 10000 4.63 350 21:24 03.10.2021
6178 Clouds 18 1018 57 10000 6.69 330 20:25 03.10.2021
6179 Clouds 19 1017 55 10000 8.23 330 19:31 03.10.2021
6180 Clouds 20 1017 53 10000 6.69 320 18:28 03.10.2021
6181 Clouds 21 1016 47 10000 7.2 300 17:30 03.10.2021
6182 Clouds 21 1015 46 10000 7.72 350 14:49 03.10.2021
6183 Clouds 21 1015 47 10000 7.2 350 14:27 03.10.2021
6184 Clouds 20 1015 56 10000 7.72 350 13:34 03.10.2021
6185 Clouds 19 1014 61 10000 6.69 350 12:41 03.10.2021
6186 Clouds 18 1013 74 10000 6.17 330 10:57 03.10.2021
6187 Clouds 17 1011 82 10000 6.69 330 09:34 03.10.2021
6188 Clouds 20 1010 87 10000 6.69 230 03:36 03.10.2021
6189 Clouds 19 1013 83 10000 3.09 240 22:46 02.10.2021
6190 Clouds 20 1013 80 10000 3.6 250 21:35 02.10.2021
6191 Clouds 21 1013 73 10000 4.12 270 19:54 02.10.2021
6192 Clouds 21 1012 69 10000 3.6 280 18:56 02.10.2021
6193 Clouds 22 1013 69 10000 4.63 290 18:18 02.10.2021
6194 Clouds 22 1014 69 10000 4.63 290 17:36 02.10.2021
6195 Clouds 23 1015 66 10000 3.09 290 15:53 02.10.2021
6196 Clouds 18 1015 83 10000 4.12 330 06:39 02.10.2021
6197 Clear 27 1023 42 10000 2.57 0 15:37 30.09.2021
6198 Clear 25 1022 47 10000 3.09 320 13:51 30.09.2021
6199 Clear 21 1022 63 10000 4.12 330 11:42 30.09.2021
6200 Clear 19 1022 69 10000 3.09 340 10:46 30.09.2021
6201 Clouds 17 1021 78 10000 3.6 330 09:44 30.09.2021
6202 Clear 16 1022 81 10000 3.6 310 08:30 30.09.2021
6203 Clear 17 1021 78 10000 4.63 310 07:34 30.09.2021
6204 Clear 17 1021 72 10000 6.17 320 05:23 30.09.2021
6205 Clear 18 1022 72 10000 6.69 330 01:36 30.09.2021
6206 Clear 19 1022 69 10000 6.69 330 00:23 30.09.2021
6207 Clear 19 1023 69 10000 6.69 330 22:37 29.09.2021
6208 Clear 19 1022 67 10000 7.2 330 21:25 29.09.2021
6209 Clear 21 1022 61 10000 5.14 320 20:27 29.09.2021
6210 Clear 22 1024 57 10000 6.69 330 19:54 29.09.2021
6211 Clear 24 1022 48 10000 7.2 340 18:50 29.09.2021
6212 Clear 25 1022 41 10000 6.69 360 17:41 29.09.2021
6213 Clear 26 1022 37 10000 7.2 350 16:48 29.09.2021
6214 Clear 26 1023 36 10000 6.69 10 15:58 29.09.2021
6215 Clear 25 1024 38 10000 7.2 360 14:39 29.09.2021
6216 Clear 24 1024 40 10000 7.2 10 13:58 29.09.2021
6217 Clear 23 1024 42 10000 6.69 360 13:18 29.09.2021
6218 Clear 22 1024 48 10000 6.69 10 12:19 29.09.2021
6219 Clear 18 1024 60 10000 8.23 350 10:49 29.09.2021
6220 Clouds 17 1024 69 10000 7.72 360 09:51 29.09.2021
6221 Clouds 16 1023 70 10000 6.17 360 09:24 29.09.2021
6222 Clouds 16 1023 70 10000 7.2 360 07:32 29.09.2021
6223 Clear 16 1022 72 10000 6.17 350 04:19 29.09.2021
6224 Clear 17 1023 65 10000 5.14 350 23:27 28.09.2021
6225 Clear 18 1023 64 10000 7.72 350 22:24 28.09.2021
6226 Clear 18 1023 61 10000 7.72 350 21:44 28.09.2021
6227 Clear 19 1023 54 10000 8.23 350 20:43 28.09.2021
6228 Clouds 20 1022 50 10000 8.23 350 19:46 28.09.2021
6229 Clouds 21 1022 45 10000 8.75 350 18:50 28.09.2021
6230 Clear 22 1021 42 10000 8.23 360 18:18 28.09.2021
6231 Clouds 22 1021 49 10000 7.2 340 16:38 28.09.2021
6232 Clouds 22 1022 45 10000 7.72 350 14:30 28.09.2021
6233 Clouds 21 1022 53 10000 7.72 350 12:50 28.09.2021
6234 Clouds 21 1022 55 10000 7.72 350 12:21 28.09.2021
6235 Clouds 20 1022 58 10000 7.2 350 11:46 28.09.2021
6236 Clouds 19 1022 64 10000 5.66 350 11:22 28.09.2021
6237 Clouds 18 1021 71 10000 5.66 350 10:21 28.09.2021
6238 Clouds 18 1021 71 10000 5.66 350 10:21 28.09.2021
6239 Rain 17 1020 78 10000 4.63 350 09:18 28.09.2021
6240 Clear 17 1020 78 10000 3.09 350 08:39 28.09.2021
6241 Clear 17 1019 76 10000 2.57 340 07:48 28.09.2021
6242 Clear 17 1019 69 10000 4.63 350 05:31 28.09.2021
6243 Clouds 19 1020 81 10000 4.63 310 01:25 28.09.2021
6244 Clouds 20 1020 83 10000 5.14 310 00:26 28.09.2021
6245 Clouds 20 1020 82 10000 4.63 310 23:42 27.09.2021
6246 Clouds 20 1020 81 10000 4.63 300 23:22 27.09.2021
6247 Clouds 20 1020 79 10000 4.63 310 21:55 27.09.2021
6248 Clouds 22 1020 74 10000 4.63 300 20:45 27.09.2021
6249 Clouds 23 1019 67 10000 4.12 300 19:57 27.09.2021
6250 Clouds 24 1020 61 10000 4.12 300 19:29 27.09.2021
6251 Clouds 24 1020 59 10000 4.12 310 18:51 27.09.2021
6252 Clouds 25 1020 55 10000 3.09 0 17:30 27.09.2021
6253 Clouds 25 1019 56 10000 3.09 80 16:51 27.09.2021
6254 Clouds 25 1021 62 10000 2.57 90 15:45 27.09.2021
6255 Clouds 24 1020 61 10000 2.57 170 15:19 27.09.2021
6256 Clouds 23 1024 67 10000 3.09 100 13:32 27.09.2021
6257 Fog 20 1024 75 10000 2.06 80 11:59 27.09.2021
6258 Fog 19 1023 84 10000 2.06 100 10:38 27.09.2021
6259 Clouds 17 1020 86 10000 0 0 09:28 27.09.2021
6260 Clear 16 1019 86 10000 0 0 06:30 27.09.2021
6261 Clear 17 1020 84 10000 0 0 03:29 27.09.2021
6262 Clear 19 1020 75 10000 3.6 310 22:39 26.09.2021
6263 Clear 20 1019 76 10000 4.12 300 21:53 26.09.2021
6264 Clouds 20 1019 74 10000 3.6 300 21:26 26.09.2021
6265 Clouds 21 1019 70 10000 3.09 300 20:24 26.09.2021
6266 Clouds 22 1019 68 10000 4.12 240 19:53 26.09.2021
6267 Clouds 23 1019 66 10000 5.66 230 18:52 26.09.2021
6268 Clouds 23 1019 68 10000 6.17 210 17:59 26.09.2021
6269 Clouds 23 1018 67 10000 5.66 220 17:36 26.09.2021
6270 Clouds 23 1018 66 10000 5.66 220 17:18 26.09.2021
6271 Clouds 23 1019 65 10000 4.63 210 16:22 26.09.2021
6272 Clouds 23 1020 66 10000 1.54 0 15:22 26.09.2021
6273 Clouds 22 1020 68 10000 3.09 100 14:18 26.09.2021
6274 Clouds 22 1021 68 10000 2.57 110 13:42 26.09.2021
6275 Clouds 22 1021 69 10000 1.54 0 12:26 26.09.2021
6276 Clouds 20 1022 76 10000 1.54 300 11:52 26.09.2021
6277 Clouds 19 1020 80 8000 0 0 10:52 26.09.2021
6278 Mist 16 1019 88 3000 1.03 0 09:37 26.09.2021
6279 Fog 16 1019 86 10000 1.03 0 08:30 26.09.2021
6280 Clear 19 1018 77 10000 1.03 280 00:28 26.09.2021
6281 Clouds 19 1018 75 10000 2.06 260 23:41 25.09.2021
6282 Clouds 19 1018 74 10000 1.54 280 22:39 25.09.2021
6283 Clouds 19 1018 74 10000 1.54 280 22:18 25.09.2021
6284 Clouds 20 1017 71 10000 3.09 270 21:36 25.09.2021
6285 Clouds 20 1017 70 10000 3.09 300 20:52 25.09.2021
6286 Clouds 22 1018 63 10000 6.17 240 19:33 25.09.2021
6287 Clouds 23 1016 58 10000 6.69 230 18:28 25.09.2021
6288 Clouds 23 1015 57 10000 6.17 240 17:21 25.09.2021
6289 Clouds 23 1016 61 10000 5.66 260 14:30 25.09.2021
6290 Clouds 22 1016 64 10000 5.14 230 13:54 25.09.2021
6291 Clouds 21 1015 72 10000 4.12 240 12:37 25.09.2021
6292 Clouds 19 1014 86 10000 4.12 240 10:42 25.09.2021
6293 Clouds 19 1014 87 10000 4.12 240 10:18 25.09.2021
6294 Clouds 18 1013 90 10000 0 0 08:55 25.09.2021
6295 Clouds 18 1012 88 10000 0 0 07:47 25.09.2021
6296 Clouds 19 1012 81 10000 3.6 220 00:52 25.09.2021
6297 Clouds 19 1012 78 10000 5.14 220 22:18 24.09.2021
6298 Clouds 20 1012 78 10000 5.66 210 21:32 24.09.2021
6299 Clouds 20 1012 74 10000 6.17 220 20:32 24.09.2021
6300 Clouds 21 1011 69 10000 6.17 240 19:31 24.09.2021
6301 Clouds 23 1010 63 10000 5.66 230 18:20 24.09.2021
6302 Clouds 23 1010 61 10000 5.66 230 17:50 24.09.2021
6303 Clouds 23 1010 63 10000 5.66 220 17:31 24.09.2021
6304 Clouds 22 1011 69 10000 5.66 240 15:39 24.09.2021
6305 Clouds 21 1013 71 10000 3.09 100 13:21 24.09.2021
6306 Clouds 21 1013 71 10000 3.09 100 13:21 24.09.2021
6307 Clouds 21 1011 73 10000 3.09 90 12:43 24.09.2021
6308 Clouds 21 1011 74 10000 2.57 100 12:25 24.09.2021
6309 Clouds 18 1013 82 9000 2.06 90 10:53 24.09.2021
6310 Fog 18 1012 83 10000 0.51 0 09:37 24.09.2021
6311 Clouds 17 1012 82 10000 0 0 07:57 24.09.2021
6312 Clouds 17 1011 81 10000 2.06 340 06:59 24.09.2021
6313 Clear 18 1011 81 10000 0 0 05:57 24.09.2021
6314 Thunderstorm 18 1012 81 10000 3.09 60 03:56 24.09.2021
6315 Clouds 21 1012 60 10000 4.63 350 22:37 23.09.2021
6316 Clouds 22 1012 59 10000 4.12 340 21:58 23.09.2021
6317 Clouds 22 1012 58 10000 4.63 330 20:54 23.09.2021
6318 Clouds 23 1011 55 10000 4.63 360 20:31 23.09.2021
6319 Clouds 24 1011 49 10000 5.14 60 18:32 23.09.2021
6320 Clouds 24 1012 52 10000 2.06 0 15:53 23.09.2021
6321 Clouds 24 1013 55 10000 2.06 0 15:19 23.09.2021
6322 Clouds 23 1013 55 10000 3.09 40 14:25 23.09.2021
6323 Clouds 21 1014 63 10000 4.63 50 13:27 23.09.2021
6324 Clouds 21 1014 67 10000 5.14 40 12:55 23.09.2021
6325 Clouds 20 1014 68 10000 5.66 60 12:26 23.09.2021
6326 Clouds 19 1013 70 10000 5.14 30 11:57 23.09.2021
6327 Clouds 18 1013 75 10000 3.6 40 10:31 23.09.2021
6328 Clouds 18 1012 75 10000 5.14 30 09:54 23.09.2021
6329 Clouds 18 1012 72 10000 5.66 50 08:56 23.09.2021
6330 Clouds 18 1013 56 10000 4.63 30 05:32 23.09.2021
6331 Thunderstorm 21 1014 51 10000 6.17 20 23:50 22.09.2021
6332 Thunderstorm 22 1013 50 10000 5.66 20 22:52 22.09.2021
6333 Clear 22 1013 51 10000 5.14 350 22:20 22.09.2021
6334 Clear 22 1013 51 10000 5.14 330 21:42 22.09.2021
6335 Clear 23 1013 46 10000 6.17 340 20:57 22.09.2021
6336 Clear 25 1013 40 10000 6.69 330 19:48 22.09.2021
6337 Clear 25 1013 42 10000 7.2 340 19:26 22.09.2021
6338 Clear 27 1013 33 10000 2.06 0 18:30 22.09.2021
6339 Clear 26 1012 31 10000 4.33 4 17:33 22.09.2021
6340 Clear 25 1014 40 10000 3.44 24 15:51 22.09.2021
6341 Clouds 26 1016 42 10000 4.63 60 14:28 22.09.2021
6342 Clear 23 1016 48 10000 5.14 50 13:19 22.09.2021
6343 Clear 21 1017 44 10000 5.66 50 11:20 22.09.2021
6344 Clear 19 1016 50 10000 6.17 40 09:30 22.09.2021
6345 Clear 19 1016 50 10000 6.17 40 08:45 22.09.2021
6346 Clear 19 1016 48 10000 5.66 40 07:33 22.09.2021
6347 Clear 20 1016 45 10000 5.66 40 06:51 22.09.2021
6348 Clear 21 1016 43 10000 5.66 40 05:48 22.09.2021
6349 Clear 21 1017 47 10000 6.69 30 04:20 22.09.2021
6350 Clear 21 1017 46 10000 4.63 30 02:56 22.09.2021
6351 Clear 22 1018 45 10000 3.6 340 23:54 21.09.2021
6352 Clear 22 1017 45 10000 4.12 330 22:26 21.09.2021
6353 Clear 25 1016 38 10000 4.27 15 20:43 21.09.2021
6354 Clear 26 1016 34 10000 4.73 21 19:37 21.09.2021
6355 Clear 27 1016 29 10000 6.69 30 19:18 21.09.2021
6356 Clear 27 1017 30 10000 7.2 40 16:48 21.09.2021
6357 Clear 27 1018 28 10000 7.72 40 15:57 21.09.2021
6358 Clear 27 1018 28 10000 7.72 30 15:24 21.09.2021
6359 Clear 26 1018 28 10000 7.72 20 14:43 21.09.2021
6360 Clear 24 1019 33 10000 7.72 40 13:40 21.09.2021
6361 Clear 23 1019 37 10000 8.23 40 12:45 21.09.2021
6362 Clear 19 1018 46 10000 8.75 50 10:44 21.09.2021
6363 Clear 19 1018 45 10000 8.23 30 09:53 21.09.2021
6364 Clear 20 1018 39 10000 8.23 40 07:44 21.09.2021
6365 Clear 21 1018 45 10000 8.23 30 05:42 21.09.2021
6366 Clear 21 1019 60 10000 7.72 330 23:52 20.09.2021
6367 Clear 21 1019 62 10000 6.17 320 21:53 20.09.2021
6368 Clear 21 1018 62 10000 7.72 330 21:32 20.09.2021
6369 Clear 23 1018 57 10000 7.2 330 20:26 20.09.2021
6370 Clear 23 1018 53 10000 6.17 320 19:20 20.09.2021
6371 Clear 25 1019 47 10000 6.69 350 17:31 20.09.2021
6372 Clouds 25 1019 48 10000 6.17 330 16:26 20.09.2021
6373 Clouds 25 1019 48 10000 5.66 350 15:47 20.09.2021
6374 Clear 25 1020 50 10000 5.66 340 14:59 20.09.2021
6375 Clear 24 1020 53 10000 7.2 350 13:42 20.09.2021
6376 Clouds 22 1021 58 10000 7.72 340 12:34 20.09.2021
6377 Clouds 21 1021 66 10000 7.72 330 11:18 20.09.2021
6378 Clouds 18 1020 75 10000 7.72 330 09:53 20.09.2021
6379 Clouds 18 1020 75 10000 7.2 330 09:34 20.09.2021
6380 Clouds 18 1020 77 10000 7.72 340 08:56 20.09.2021
6381 Clouds 18 1020 76 10000 6.69 350 06:46 20.09.2021
6382 Clear 19 1020 69 10000 7.72 320 23:44 19.09.2021
6383 Clear 19 1020 65 10000 7.72 330 21:56 19.09.2021
6384 Clear 19 1020 62 10000 7.72 320 21:34 19.09.2021
6385 Clear 20 1019 60 10000 9.77 330 20:33 19.09.2021
6386 Clear 22 1019 53 10000 8.75 330 19:18 19.09.2021
6387 Clear 24 1019 47 10000 7.72 330 18:25 19.09.2021
6388 Clear 24 1019 42 10000 7.2 330 17:22 19.09.2021
6389 Clear 25 1020 36 10000 6.69 350 15:52 19.09.2021
6390 Clear 25 1020 40 10000 6.17 340 14:50 19.09.2021
6391 Clear 24 1020 41 10000 6.69 360 14:29 19.09.2021
6392 Clear 23 1021 47 10000 7.72 350 13:20 19.09.2021
6393 Clear 22 1021 48 10000 7.72 350 12:47 19.09.2021
6394 Clouds 20 1021 58 10000 8.23 340 11:27 19.09.2021
6395 Clouds 19 1020 66 10000 8.23 340 10:24 19.09.2021
6396 Clouds 18 1020 72 10000 6.69 330 09:28 19.09.2021
6397 Clear 17 1019 74 10000 5.66 340 07:31 19.09.2021
6398 Clear 18 1019 72 10000 7.72 330 04:21 19.09.2021
6399 Clear 18 1020 69 10000 4.12 320 23:36 18.09.2021
6400 Clouds 19 1019 66 10000 7.2 340 21:59 18.09.2021
6401 Clouds 20 1018 60 10000 9.26 340 20:48 18.09.2021
6402 Clouds 21 1018 57 10000 9.26 350 20:27 18.09.2021
6403 Clouds 22 1018 49 10000 8.75 340 19:39 18.09.2021
6404 Clouds 22 1018 49 10000 8.75 340 19:39 18.09.2021
6405 Clouds 22 1018 49 10000 8.75 340 19:20 18.09.2021
6406 Clear 23 1018 46 10000 9.26 350 18:31 18.09.2021
6407 Clouds 24 1018 45 10000 9.26 330 17:25 18.09.2021
6408 Clouds 24 1019 46 10000 8.75 340 15:48 18.09.2021
6409 Clouds 23 1019 46 10000 8.23 340 13:46 18.09.2021
6410 Clouds 23 1019 47 10000 10.29 340 13:27 18.09.2021
6411 Clouds 22 1019 50 10000 9.26 350 12:49 18.09.2021
6412 Clouds 20 1019 59 10000 5.66 350 11:38 18.09.2021
6413 Clouds 19 1019 69 10000 2.57 350 10:31 18.09.2021
6414 Clouds 17 1018 76 10000 2.57 330 09:27 18.09.2021
6415 Clouds 17 1018 77 10000 2.06 330 08:48 18.09.2021
6416 Clear 19 1018 75 10000 5.74 348 02:50 18.09.2021
6417 Clouds 19 1018 72 10000 6.37 356 00:41 18.09.2021
6418 Clear 19 1018 71 10000 6.73 355 23:47 17.09.2021
6419 Clear 20 1018 72 10000 5.47 344 22:33 17.09.2021
6420 Clouds 20 1017 78 10000 5.14 320 21:55 17.09.2021
6421 Clouds 22 1017 72 10000 4.63 310 20:25 17.09.2021
6422 Clouds 24 1016 64 10000 6.17 310 18:54 17.09.2021
6423 Clouds 25 1017 56 10000 6.69 340 16:51 17.09.2021
6424 Clouds 25 1017 56 10000 5.66 330 16:18 17.09.2021
6425 Clouds 22 1019 63 10000 4.12 320 12:37 17.09.2021
6426 Clouds 20 1018 75 10000 4.63 340 10:41 17.09.2021
6427 Clouds 19 1018 81 10000 5.66 320 08:25 17.09.2021
6428 Clouds 19 1017 80 10000 5.66 320 06:49 17.09.2021
6429 Clouds 20 1020 77 10000 4.63 360 00:59 17.09.2021
6430 Clouds 20 1019 76 10000 7.2 330 22:54 16.09.2021
6431 Clouds 20 1019 75 10000 8.75 320 22:24 16.09.2021
6432 Clouds 21 1018 74 10000 7.72 320 21:40 16.09.2021
6433 Clouds 21 1018 72 10000 7.72 320 20:50 16.09.2021
6434 Clouds 22 1018 69 10000 9.26 330 20:18 16.09.2021
6435 Clouds 24 1018 61 10000 6.69 320 18:19 16.09.2021
6436 Clouds 26 1018 57 10000 5.14 320 17:29 16.09.2021
6437 Clouds 26 1019 58 10000 3.6 320 14:55 16.09.2021
6438 Clouds 25 1019 61 10000 5.14 340 13:55 16.09.2021
6439 Clouds 24 1019 64 10000 4.12 330 12:48 16.09.2021
6440 Clouds 24 1019 67 10000 4.63 330 12:28 16.09.2021
6441 Clouds 23 1019 73 10000 6.17 340 11:25 16.09.2021
6442 Clouds 22 1018 76 10000 5.14 330 10:31 16.09.2021
6443 Clouds 21 1018 80 10000 5.14 330 09:53 16.09.2021
6444 Clouds 20 1018 83 10000 4.63 330 08:42 16.09.2021
6445 Clouds 20 1017 82 10000 3.09 320 07:22 16.09.2021
6446 Clouds 20 1017 83 10000 3.6 330 06:39 16.09.2021
6447 Clouds 20 1018 82 10000 5.14 340 04:34 16.09.2021
6448 Clouds 21 1018 80 10000 2.57 310 01:26 16.09.2021
6449 Clouds 21 1018 80 10000 2.57 310 01:26 16.09.2021
6450 Clouds 21 1018 79 10000 2.57 340 23:37 15.09.2021
6451 Clouds 21 1017 81 10000 3.09 340 22:47 15.09.2021
6452 Clouds 21 1016 76 10000 5.14 310 21:44 15.09.2021
6453 Clouds 22 1016 74 10000 4.12 310 21:25 15.09.2021
6454 Clouds 23 1016 66 10000 5.14 310 19:52 15.09.2021
6455 Clouds 23 1015 65 10000 3.09 270 19:19 15.09.2021
6456 Clouds 24 1015 61 10000 2.57 290 17:49 15.09.2021
6457 Clouds 23 1016 73 10000 3.6 240 16:54 15.09.2021
6458 Clouds 22 1015 82 10000 4.12 280 15:33 15.09.2021
6459 Rain 22 1016 80 2000 1.54 150 14:44 15.09.2021
6460 Rain 22 1016 79 10000 3.09 90 13:51 15.09.2021
6461 Clouds 22 1016 78 10000 3.6 70 13:29 15.09.2021
6462 Clouds 22 1016 79 10000 3.6 60 12:42 15.09.2021
6463 Clouds 21 1015 82 10000 2.57 0 11:51 15.09.2021
6464 Clouds 21 1015 83 10000 2.06 90 11:19 15.09.2021
6465 Clouds 20 1015 83 10000 2.06 90 10:50 15.09.2021
6466 Fog 19 1014 87 10000 0 0 09:28 15.09.2021
6467 Clouds 18 1012 86 10000 0 0 07:43 15.09.2021
6468 Clouds 19 1012 85 10000 0 0 04:24 15.09.2021
6469 Clouds 20 1010 83 10000 2.57 100 22:59 14.09.2021
6470 Clouds 21 1010 80 10000 3.6 80 21:40 14.09.2021
6471 Clouds 21 1009 79 10000 5.14 60 20:38 14.09.2021
6472 Thunderstorm 23 1008 72 10000 4.12 220 19:41 14.09.2021
6473 Clouds 24 1008 70 10000 6.17 240 17:34 14.09.2021
6474 Clouds 24 1008 69 10000 6.69 240 16:58 14.09.2021
6475 Clouds 23 1008 67 10000 3.09 110 15:30 14.09.2021
6476 Clouds 23 1008 65 10000 1.54 0 14:31 14.09.2021
6477 Clouds 21 1009 82 10000 3.6 120 11:52 14.09.2021
6478 Clouds 20 1008 83 10000 1.54 310 10:54 14.09.2021
6479 Clouds 20 1007 85 10000 2.06 170 09:50 14.09.2021
6480 Clouds 20 1008 85 10000 2.57 150 08:39 14.09.2021
6481 Clouds 21 1008 85 10000 2.57 150 06:24 14.09.2021
6482 Clouds 22 1010 83 10000 4.63 220 23:57 13.09.2021
6483 Clouds 22 1009 84 10000 5.66 220 22:46 13.09.2021
6484 Clouds 22 1009 84 10000 6.69 230 22:23 13.09.2021
6485 Clouds 22 1009 82 10000 7.72 220 21:45 13.09.2021
6486 Clouds 23 1009 79 10000 7.72 200 20:50 13.09.2021
6487 Clouds 24 1009 77 10000 9.26 210 18:46 13.09.2021
6488 Clouds 25 1009 71 10000 7.72 210 17:42 13.09.2021
6489 Clouds 25 1009 67 10000 6.69 180 16:50 13.09.2021
6490 Clouds 25 1009 70 10000 6.69 150 15:22 13.09.2021
6491 Clouds 21 1010 85 10000 3.09 70 11:55 13.09.2021
6492 Clouds 21 1010 87 10000 4.12 110 10:58 13.09.2021
6493 Clouds 21 1009 86 10000 2.57 140 09:35 13.09.2021
6494 Clouds 21 1010 86 5000 5.14 160 04:38 13.09.2021
6495 Clouds 21 1010 80 10000 3.6 220 23:32 12.09.2021
6496 Clouds 22 1010 77 10000 6.17 230 22:25 12.09.2021
6497 Clouds 23 1010 71 10000 2.06 230 21:36 12.09.2021
6498 Rain 23 1009 69 10000 4.63 150 20:28 12.09.2021
6499 Rain 23 1009 69 10000 4.63 150 20:28 12.09.2021
6500 Clear 23 1009 67 10000 4.12 190 19:50 12.09.2021
6501 Clear 24 1010 68 10000 1.54 240 19:19 12.09.2021
6502 Clear 24 1011 68 10000 6.17 240 18:20 12.09.2021
6503 Clouds 24 1011 65 10000 6.17 230 16:30 12.09.2021
6504 Clouds 24 1011 65 10000 6.17 230 16:30 12.09.2021
6505 Clouds 25 1011 65 10000 6.17 230 16:30 12.09.2021
6506 Clouds 24 1012 67 10000 3.09 80 14:50 12.09.2021
6507 Clouds 23 1013 69 10000 3.6 80 12:47 12.09.2021
6508 Clouds 21 1014 85 10000 2.57 130 10:35 12.09.2021
6509 Clouds 20 1013 87 10000 0 0 08:59 12.09.2021
6510 Clouds 20 1013 87 10000 1.03 0 08:36 12.09.2021
6511 Clear 21 1015 79 10000 1.03 240 00:56 12.09.2021
6512 Clear 22 1015 78 10000 2.06 290 23:18 11.09.2021
6513 Clouds 22 1015 76 10000 3.09 280 21:41 11.09.2021
6514 Clouds 25 1014 61 10000 3.6 210 20:18 11.09.2021
6515 Clouds 25 1014 61 10000 3.6 210 20:18 11.09.2021
6516 Clouds 26 1015 54 10000 3.6 240 18:32 11.09.2021
6517 Clouds 27 1015 53 10000 4.63 210 17:29 11.09.2021
6518 Clouds 26 1016 56 10000 3.09 240 15:39 11.09.2021
6519 Clouds 25 1018 64 10000 2.06 0 13:30 11.09.2021
6520 Clear 23 1018 68 10000 2.06 0 11:47 11.09.2021
6521 Clouds 21 1018 81 10000 1.54 10 10:51 11.09.2021
6522 Rain 20 1018 83 10000 2.06 50 09:31 11.09.2021
6523 Clouds 20 1018 84 10000 1.03 90 07:44 11.09.2021
6524 Clouds 20 1017 83 10000 2.06 40 06:31 11.09.2021
6525 Clear 22 1019 73 10000 4.63 310 22:48 10.09.2021
6526 Clear 22 1019 73 10000 4.63 310 22:48 10.09.2021
6527 Clear 22 1019 71 10000 4.63 300 22:22 10.09.2021
6528 Clear 23 1019 68 10000 3.6 290 21:46 10.09.2021
6529 Clouds 25 1019 58 10000 5.14 310 19:41 10.09.2021
6530 Clouds 26 1018 58 10000 4.12 310 18:20 10.09.2021
6531 Clouds 26 1019 58 10000 4.12 300 16:40 10.09.2021
6532 Clouds 25 1020 62 10000 2.57 0 13:54 10.09.2021
6533 Clouds 23 1020 69 10000 1.03 0 11:46 10.09.2021
6534 Clouds 20 1018 88 10000 1.03 230 08:29 10.09.2021
6535 Clouds 20 1018 85 10000 1.54 260 07:45 10.09.2021
6536 Clouds 21 1020 81 10000 2.06 270 00:42 10.09.2021
6537 Clouds 21 1019 78 10000 2.06 260 22:24 09.09.2021
6538 Clouds 22 1019 72 10000 3.09 300 21:28 09.09.2021
6539 Clouds 23 1019 70 10000 3.6 300 20:42 09.09.2021
6540 Clouds 24 1019 65 10000 4.12 310 18:55 09.09.2021
6541 Clouds 24 1019 66 10000 4.12 300 17:56 09.09.2021
6542 Clouds 25 1019 63 10000 4.63 280 16:40 09.09.2021
6543 Clouds 25 1019 64 10000 5.14 320 15:27 09.09.2021
6544 Clouds 23 1019 68 10000 3.09 330 12:48 09.09.2021
6545 Clouds 23 1019 68 10000 3.09 330 12:48 09.09.2021
6546 Clouds 23 1019 73 10000 2.57 340 11:33 09.09.2021
6547 Clouds 21 1018 81 10000 2.06 330 09:39 09.09.2021
6548 Clouds 21 1018 83 10000 1.54 330 08:32 09.09.2021
6549 Clouds 21 1018 85 10000 2.06 280 06:24 09.09.2021
6550 Clouds 21 1018 81 10000 2.06 280 02:18 09.09.2021
6551 Clouds 21 1017 80 10000 3.6 270 22:39 08.09.2021
6552 Clouds 22 1017 77 10000 5.14 270 21:22 08.09.2021
6553 Clouds 23 1017 75 10000 5.14 250 19:56 08.09.2021
6554 Clouds 24 1017 75 10000 5.14 250 18:55 08.09.2021
6555 Clouds 23 1017 75 10000 4.63 240 18:28 08.09.2021
6556 Clouds 23 1017 76 10000 4.63 250 17:55 08.09.2021
6557 Clouds 24 1017 72 10000 7.2 210 16:28 08.09.2021
6558 Clouds 24 1018 73 10000 6.17 210 14:23 08.09.2021
6559 Clouds 23 1018 75 10000 5.66 220 12:43 08.09.2021
6560 Clouds 23 1018 75 10000 5.66 220 12:25 08.09.2021
6561 Clouds 23 1017 80 10000 4.63 230 11:29 08.09.2021
6562 Clouds 22 1017 86 10000 3.09 250 10:33 08.09.2021
6563 Clouds 21 1017 88 10000 3.6 230 09:59 08.09.2021
6564 Clouds 21 1016 88 10000 2.57 240 07:55 08.09.2021
6565 Clouds 21 1016 88 10000 2.06 220 07:32 08.09.2021
6566 Clouds 21 1016 88 10000 4.12 240 03:41 08.09.2021
6567 Clouds 22 1015 83 10000 3.09 240 22:38 07.09.2021
6568 Clouds 22 1015 83 10000 3.6 230 21:46 07.09.2021
6569 Clouds 23 1015 78 10000 6.69 230 19:47 07.09.2021
6570 Clouds 25 1015 74 10000 6.69 230 18:40 07.09.2021
6571 Clouds 25 1015 75 10000 6.69 230 17:47 07.09.2021
6572 Clouds 24 1016 76 10000 5.66 220 15:59 07.09.2021
6573 Clouds 25 1016 77 10000 6.17 230 15:35 07.09.2021
6574 Clouds 24 1016 77 10000 7.2 220 14:41 07.09.2021
6575 Clouds 22 1016 86 10000 4.12 230 12:38 07.09.2021
6576 Mist 22 1015 84 10000 6.69 200 11:36 07.09.2021
6577 Mist 21 1015 87 10000 5.14 210 10:40 07.09.2021
6578 Clouds 21 1013 89 10000 4.63 210 08:23 07.09.2021
6579 Clouds 21 1013 87 6000 4.63 210 06:45 07.09.2021
6580 Clouds 21 1013 83 6000 5.14 180 05:24 07.09.2021
6581 Clouds 22 1014 80 10000 7.2 200 02:32 07.09.2021
6582 Clouds 22 1014 75 10000 6.69 200 00:40 07.09.2021
6583 Clear 22 1014 74 10000 6.69 210 23:31 06.09.2021
6584 Clouds 22 1013 75 10000 6.69 210 22:53 06.09.2021
6585 Clouds 22 1013 75 10000 6.17 230 22:32 06.09.2021
6586 Clear 23 1013 71 10000 7.2 220 20:55 06.09.2021
6587 Clouds 24 1012 68 10000 6.69 210 19:22 06.09.2021
6588 Clouds 26 1012 61 10000 6.17 210 18:46 06.09.2021
6589 Clouds 26 1013 61 10000 5.66 210 18:23 06.09.2021
6590 Clouds 26 1013 61 10000 6.17 210 17:36 06.09.2021
6591 Clouds 25 1014 63 10000 5.14 190 15:49 06.09.2021
6592 Clouds 24 1014 69 10000 5.14 190 13:47 06.09.2021
6593 Clouds 23 1014 72 10000 3.6 170 12:47 06.09.2021
6594 Clouds 21 1013 86 9000 2.57 200 10:44 06.09.2021
6595 Clear 20 1012 85 10000 2.57 210 07:59 06.09.2021
6596 Clear 21 1012 78 10000 2.06 160 04:45 06.09.2021
6597 Clear 22 1013 67 10000 2.57 260 23:34 05.09.2021
6598 Clear 22 1013 67 10000 3.09 260 22:48 05.09.2021
6599 Clear 23 1012 67 10000 3.6 290 21:58 05.09.2021
6600 Clear 23 1011 69 10000 3.6 280 21:30 05.09.2021
6601 Clear 23 1011 70 10000 4.12 40 20:33 05.09.2021
6602 Clear 25 1012 66 10000 7.2 220 18:46 05.09.2021
6603 Clear 26 1012 52 10000 7.2 230 17:34 05.09.2021
6604 Clear 28 1013 43 10000 4.12 190 15:28 05.09.2021
6605 Clear 28 1013 45 10000 3.6 150 14:19 05.09.2021
6606 Clear 24 1014 60 10000 2.57 0 12:29 05.09.2021
6607 Fog 20 1014 90 10000 2.06 70 10:55 05.09.2021
6608 Fog 19 1014 91 10000 1.54 90 10:31 05.09.2021
6609 Fog 18 1013 88 10000 1.54 70 09:22 05.09.2021
6610 Fog 19 1013 84 10000 1.03 70 08:21 05.09.2021
6611 Clear 20 1013 72 10000 2.06 50 02:36 05.09.2021
6612 Clear 22 1013 64 10000 0.51 0 00:30 05.09.2021
6613 Clear 22 1013 64 10000 0.51 0 00:30 05.09.2021
6614 Clear 23 1013 59 10000 4.12 310 23:42 04.09.2021
6615 Clear 23 1013 61 10000 4.63 310 22:36 04.09.2021
6616 Clear 24 1013 62 10000 4.12 320 21:58 04.09.2021
6617 Clear 28 1013 39 10000 3.09 230 19:42 04.09.2021
6618 Clear 28 1013 47 10000 3.09 260 18:44 04.09.2021
6619 Clear 27 1014 53 10000 3.6 180 16:23 04.09.2021
6620 Clear 24 1016 66 10000 2.06 0 13:30 04.09.2021
6621 Clouds 22 1016 72 10000 2.06 340 11:20 04.09.2021
6622 Clouds 18 1015 85 10000 1.03 340 09:25 04.09.2021
6623 Clear 19 1016 82 10000 2.57 330 05:53 04.09.2021
6624 Clear 20 1017 75 10000 4.63 320 00:27 04.09.2021
6625 Clear 21 1017 70 10000 5.14 320 23:32 03.09.2021
6626 Clear 21 1017 69 10000 4.63 310 22:39 03.09.2021
6627 Clouds 23 1017 68 10000 4.63 320 21:35 03.09.2021
6628 Clouds 24 1017 63 10000 4.63 320 20:43 03.09.2021
6629 Clouds 24 1017 61 10000 5.14 310 19:55 03.09.2021
6630 Clouds 25 1016 60 10000 4.63 310 19:20 03.09.2021
6631 Clouds 26 1017 56 10000 4.63 310 17:53 03.09.2021
6632 Clouds 26 1017 55 10000 5.14 300 16:38 03.09.2021
6633 Clouds 25 1018 58 10000 3